<?xml version="1.0" encoding="UTF-8" standalone="no" ?>
<gpx xmlns="http://www.topografix.com/GPX/1/1" xmlns:xsi="http://www.w3.org/2001/XMLSchema-instance" xsi:schemaLocation="http://www.topografix.com/GPX/1/1 http://www.topografix.com/GPX/1/1/gpx.xsd" version="1.1" creator="VisuGPX - https://www.visugpx.com">
  <metadata>
    <name>Les moulins de la Véroncle</name>
    <desc><![CDATA[Sortie du SCLapalud, au programme du  dimanche 13 juin 2010]]></desc>
  </metadata>
  <trk>
    <name><![CDATA[veroncle]]></name>
    <trkseg>
      <trkpt lat="43.91575" lon="5.22834">
        <ele>207</ele>
        <time>2009-10-02T19:09:02Z</time>
      </trkpt>
      <trkpt lat="43.91579" lon="5.22834">
        <ele>208</ele>
        <time>2009-10-02T19:09:02Z</time>
      </trkpt>
      <trkpt lat="43.91584" lon="5.22834">
        <ele>208</ele>
        <time>2009-10-02T19:09:02Z</time>
      </trkpt>
      <trkpt lat="43.91584" lon="5.22828">
        <ele>208</ele>
        <time>2009-10-02T19:09:02Z</time>
      </trkpt>
      <trkpt lat="43.91588" lon="5.22828">
        <ele>209</ele>
        <time>2009-10-02T19:09:02Z</time>
      </trkpt>
      <trkpt lat="43.91588" lon="5.22822">
        <ele>209</ele>
        <time>2009-10-02T19:09:02Z</time>
      </trkpt>
      <trkpt lat="43.91589" lon="5.22816">
        <ele>209</ele>
        <time>2009-10-02T19:09:02Z</time>
      </trkpt>
      <trkpt lat="43.91589" lon="5.2281">
        <ele>209</ele>
        <time>2009-10-02T19:09:02Z</time>
      </trkpt>
      <trkpt lat="43.91593" lon="5.2281">
        <ele>210</ele>
        <time>2009-10-02T19:09:02Z</time>
      </trkpt>
      <trkpt lat="43.91593" lon="5.22804">
        <ele>210</ele>
        <time>2009-10-02T19:09:02Z</time>
      </trkpt>
      <trkpt lat="43.91598" lon="5.22804">
        <ele>210</ele>
        <time>2009-10-02T19:09:02Z</time>
      </trkpt>
      <trkpt lat="43.91598" lon="5.22798">
        <ele>210</ele>
        <time>2009-10-02T19:09:02Z</time>
      </trkpt>
      <trkpt lat="43.91598" lon="5.22792">
        <ele>211</ele>
        <time>2009-10-02T19:09:02Z</time>
      </trkpt>
      <trkpt lat="43.91603" lon="5.22792">
        <ele>211</ele>
        <time>2009-10-02T19:09:02Z</time>
      </trkpt>
      <trkpt lat="43.91603" lon="5.22786">
        <ele>211</ele>
        <time>2009-10-02T19:09:02Z</time>
      </trkpt>
      <trkpt lat="43.91603" lon="5.22779">
        <ele>211</ele>
        <time>2009-10-02T19:09:02Z</time>
      </trkpt>
      <trkpt lat="43.91608" lon="5.2278">
        <ele>211</ele>
        <time>2009-10-02T19:09:02Z</time>
      </trkpt>
      <trkpt lat="43.91612" lon="5.2278">
        <ele>212</ele>
        <time>2009-10-02T19:09:02Z</time>
      </trkpt>
      <trkpt lat="43.91617" lon="5.2278">
        <ele>212</ele>
        <time>2009-10-02T19:09:02Z</time>
      </trkpt>
      <trkpt lat="43.91621" lon="5.2278">
        <ele>212</ele>
        <time>2009-10-02T19:09:02Z</time>
      </trkpt>
      <trkpt lat="43.91626" lon="5.22781">
        <ele>212</ele>
        <time>2009-10-02T19:09:02Z</time>
      </trkpt>
      <trkpt lat="43.9163" lon="5.22781">
        <ele>212</ele>
        <time>2009-10-02T19:09:02Z</time>
      </trkpt>
      <trkpt lat="43.91634" lon="5.22781">
        <ele>213</ele>
        <time>2009-10-02T19:09:02Z</time>
      </trkpt>
      <trkpt lat="43.91639" lon="5.22781">
        <ele>213</ele>
        <time>2009-10-02T19:09:02Z</time>
      </trkpt>
      <trkpt lat="43.91643" lon="5.22782">
        <ele>213</ele>
        <time>2009-10-02T19:09:02Z</time>
      </trkpt>
      <trkpt lat="43.91648" lon="5.22782">
        <ele>213</ele>
        <time>2009-10-02T19:09:02Z</time>
      </trkpt>
      <trkpt lat="43.91652" lon="5.22782">
        <ele>213</ele>
        <time>2009-10-02T19:09:02Z</time>
      </trkpt>
      <trkpt lat="43.91657" lon="5.22782">
        <ele>213</ele>
        <time>2009-10-02T19:09:02Z</time>
      </trkpt>
      <trkpt lat="43.91661" lon="5.22782">
        <ele>214</ele>
        <time>2009-10-02T19:09:02Z</time>
      </trkpt>
      <trkpt lat="43.91666" lon="5.22783">
        <ele>214</ele>
        <time>2009-10-02T19:09:02Z</time>
      </trkpt>
      <trkpt lat="43.9167" lon="5.22783">
        <ele>214</ele>
        <time>2009-10-02T19:09:02Z</time>
      </trkpt>
      <trkpt lat="43.91675" lon="5.22783">
        <ele>215</ele>
        <time>2009-10-02T19:09:02Z</time>
      </trkpt>
      <trkpt lat="43.91679" lon="5.22783">
        <ele>215</ele>
        <time>2009-10-02T19:09:02Z</time>
      </trkpt>
      <trkpt lat="43.91684" lon="5.22784">
        <ele>215</ele>
        <time>2009-10-02T19:09:02Z</time>
      </trkpt>
      <trkpt lat="43.91688" lon="5.22784">
        <ele>216</ele>
        <time>2009-10-02T19:09:02Z</time>
      </trkpt>
      <trkpt lat="43.91693" lon="5.22784">
        <ele>216</ele>
        <time>2009-10-02T19:09:02Z</time>
      </trkpt>
      <trkpt lat="43.91697" lon="5.22784">
        <ele>216</ele>
        <time>2009-10-02T19:09:02Z</time>
      </trkpt>
      <trkpt lat="43.91702" lon="5.22785">
        <ele>217</ele>
        <time>2009-10-02T19:09:02Z</time>
      </trkpt>
      <trkpt lat="43.91706" lon="5.22785">
        <ele>217</ele>
        <time>2009-10-02T19:09:02Z</time>
      </trkpt>
      <trkpt lat="43.91711" lon="5.22785">
        <ele>217</ele>
        <time>2009-10-02T19:09:02Z</time>
      </trkpt>
      <trkpt lat="43.91715" lon="5.22785">
        <ele>218</ele>
        <time>2009-10-02T19:09:02Z</time>
      </trkpt>
      <trkpt lat="43.9172" lon="5.22785">
        <ele>218</ele>
        <time>2009-10-02T19:09:02Z</time>
      </trkpt>
      <trkpt lat="43.91724" lon="5.22786">
        <ele>219</ele>
        <time>2009-10-02T19:09:02Z</time>
      </trkpt>
      <trkpt lat="43.91729" lon="5.22786">
        <ele>219</ele>
        <time>2009-10-02T19:09:02Z</time>
      </trkpt>
      <trkpt lat="43.91733" lon="5.22786">
        <ele>219</ele>
        <time>2009-10-02T19:09:02Z</time>
      </trkpt>
      <trkpt lat="43.91738" lon="5.22786">
        <ele>220</ele>
        <time>2009-10-02T19:09:02Z</time>
      </trkpt>
      <trkpt lat="43.91742" lon="5.22787">
        <ele>220</ele>
        <time>2009-10-02T19:09:02Z</time>
      </trkpt>
      <trkpt lat="43.91742" lon="5.2278">
        <ele>219</ele>
        <time>2009-10-02T19:09:02Z</time>
      </trkpt>
      <trkpt lat="43.91747" lon="5.22781">
        <ele>220</ele>
        <time>2009-10-02T19:09:02Z</time>
      </trkpt>
      <trkpt lat="43.91747" lon="5.22774">
        <ele>220</ele>
        <time>2009-10-02T19:09:02Z</time>
      </trkpt>
      <trkpt lat="43.91752" lon="5.22775">
        <ele>221</ele>
        <time>2009-10-02T19:09:02Z</time>
      </trkpt>
      <trkpt lat="43.91752" lon="5.22768">
        <ele>221</ele>
        <time>2009-10-02T19:09:02Z</time>
      </trkpt>
      <trkpt lat="43.91752" lon="5.22762">
        <ele>221</ele>
        <time>2009-10-02T19:09:02Z</time>
      </trkpt>
      <trkpt lat="43.91756" lon="5.22762">
        <ele>222</ele>
        <time>2009-10-02T19:09:02Z</time>
      </trkpt>
      <trkpt lat="43.91757" lon="5.22756">
        <ele>222</ele>
        <time>2009-10-02T19:09:02Z</time>
      </trkpt>
      <trkpt lat="43.91757" lon="5.2275">
        <ele>223</ele>
        <time>2009-10-02T19:09:02Z</time>
      </trkpt>
      <trkpt lat="43.91761" lon="5.2275">
        <ele>223</ele>
        <time>2009-10-02T19:09:02Z</time>
      </trkpt>
      <trkpt lat="43.91761" lon="5.22744">
        <ele>223</ele>
        <time>2009-10-02T19:09:02Z</time>
      </trkpt>
      <trkpt lat="43.91766" lon="5.22744">
        <ele>224</ele>
        <time>2009-10-02T19:09:02Z</time>
      </trkpt>
      <trkpt lat="43.91766" lon="5.22738">
        <ele>224</ele>
        <time>2009-10-02T19:09:02Z</time>
      </trkpt>
      <trkpt lat="43.91771" lon="5.22738">
        <ele>224</ele>
        <time>2009-10-02T19:09:02Z</time>
      </trkpt>
      <trkpt lat="43.91775" lon="5.22738">
        <ele>225</ele>
        <time>2009-10-02T19:09:02Z</time>
      </trkpt>
      <trkpt lat="43.9178" lon="5.22739">
        <ele>225</ele>
        <time>2009-10-02T19:09:02Z</time>
      </trkpt>
      <trkpt lat="43.91784" lon="5.22739">
        <ele>226</ele>
        <time>2009-10-02T19:09:02Z</time>
      </trkpt>
      <trkpt lat="43.91789" lon="5.22739">
        <ele>226</ele>
        <time>2009-10-02T19:09:02Z</time>
      </trkpt>
      <trkpt lat="43.91793" lon="5.22739">
        <ele>226</ele>
        <time>2009-10-02T19:09:02Z</time>
      </trkpt>
      <trkpt lat="43.91798" lon="5.2274">
        <ele>227</ele>
        <time>2009-10-02T19:09:02Z</time>
      </trkpt>
      <trkpt lat="43.91802" lon="5.2274">
        <ele>227</ele>
        <time>2009-10-02T19:09:02Z</time>
      </trkpt>
      <trkpt lat="43.91807" lon="5.2274">
        <ele>227</ele>
        <time>2009-10-02T19:09:02Z</time>
      </trkpt>
      <trkpt lat="43.91811" lon="5.2274">
        <ele>227</ele>
        <time>2009-10-02T19:09:02Z</time>
      </trkpt>
      <trkpt lat="43.91815" lon="5.22741">
        <ele>227</ele>
        <time>2009-10-02T19:09:02Z</time>
      </trkpt>
      <trkpt lat="43.9182" lon="5.22741">
        <ele>227</ele>
        <time>2009-10-02T19:09:02Z</time>
      </trkpt>
      <trkpt lat="43.91824" lon="5.22741">
        <ele>227</ele>
        <time>2009-10-02T19:09:02Z</time>
      </trkpt>
      <trkpt lat="43.91829" lon="5.22741">
        <ele>227</ele>
        <time>2009-10-02T19:09:02Z</time>
      </trkpt>
      <trkpt lat="43.91833" lon="5.22741">
        <ele>227</ele>
        <time>2009-10-02T19:09:02Z</time>
      </trkpt>
      <trkpt lat="43.91838" lon="5.22742">
        <ele>227</ele>
        <time>2009-10-02T19:09:02Z</time>
      </trkpt>
      <trkpt lat="43.91842" lon="5.22742">
        <ele>227</ele>
        <time>2009-10-02T19:09:02Z</time>
      </trkpt>
      <trkpt lat="43.91843" lon="5.22736">
        <ele>226</ele>
        <time>2009-10-02T19:09:02Z</time>
      </trkpt>
      <trkpt lat="43.91847" lon="5.22736">
        <ele>226</ele>
        <time>2009-10-02T19:09:02Z</time>
      </trkpt>
      <trkpt lat="43.91852" lon="5.22736">
        <ele>227</ele>
        <time>2009-10-02T19:09:02Z</time>
      </trkpt>
      <trkpt lat="43.91856" lon="5.22736">
        <ele>227</ele>
        <time>2009-10-02T19:09:02Z</time>
      </trkpt>
      <trkpt lat="43.91861" lon="5.22737">
        <ele>227</ele>
        <time>2009-10-02T19:09:02Z</time>
      </trkpt>
      <trkpt lat="43.91865" lon="5.22737">
        <ele>228</ele>
        <time>2009-10-02T19:09:02Z</time>
      </trkpt>
      <trkpt lat="43.9187" lon="5.22737">
        <ele>228</ele>
        <time>2009-10-02T19:09:02Z</time>
      </trkpt>
      <trkpt lat="43.91874" lon="5.22737">
        <ele>228</ele>
        <time>2009-10-02T19:09:02Z</time>
      </trkpt>
      <trkpt lat="43.91879" lon="5.22737">
        <ele>229</ele>
        <time>2009-10-02T19:09:02Z</time>
      </trkpt>
      <trkpt lat="43.91878" lon="5.22744">
        <ele>230</ele>
        <time>2009-10-02T19:09:02Z</time>
      </trkpt>
      <trkpt lat="43.91883" lon="5.22744">
        <ele>230</ele>
        <time>2009-10-02T19:09:02Z</time>
      </trkpt>
      <trkpt lat="43.91883" lon="5.2275">
        <ele>231</ele>
        <time>2009-10-02T19:09:02Z</time>
      </trkpt>
      <trkpt lat="43.91887" lon="5.2275">
        <ele>232</ele>
        <time>2009-10-02T19:09:02Z</time>
      </trkpt>
      <trkpt lat="43.91892" lon="5.22751">
        <ele>234</ele>
        <time>2009-10-02T19:09:02Z</time>
      </trkpt>
      <trkpt lat="43.91896" lon="5.22751">
        <ele>235</ele>
        <time>2009-10-02T19:09:02Z</time>
      </trkpt>
      <trkpt lat="43.91901" lon="5.22751">
        <ele>237</ele>
        <time>2009-10-02T19:09:02Z</time>
      </trkpt>
      <trkpt lat="43.91905" lon="5.22758">
        <ele>239</ele>
        <time>2009-10-02T19:09:02Z</time>
      </trkpt>
      <trkpt lat="43.91909" lon="5.22758">
        <ele>240</ele>
        <time>2009-10-02T19:09:02Z</time>
      </trkpt>
      <trkpt lat="43.91914" lon="5.22758">
        <ele>242</ele>
        <time>2009-10-02T19:09:02Z</time>
      </trkpt>
      <trkpt lat="43.91918" lon="5.22758">
        <ele>243</ele>
        <time>2009-10-02T19:09:02Z</time>
      </trkpt>
      <trkpt lat="43.91923" lon="5.22758">
        <ele>244</ele>
        <time>2009-10-02T19:09:02Z</time>
      </trkpt>
      <trkpt lat="43.91927" lon="5.22759">
        <ele>246</ele>
        <time>2009-10-02T19:09:02Z</time>
      </trkpt>
      <trkpt lat="43.91932" lon="5.22759">
        <ele>247</ele>
        <time>2009-10-02T19:09:02Z</time>
      </trkpt>
      <trkpt lat="43.91936" lon="5.22759">
        <ele>248</ele>
        <time>2009-10-02T19:09:02Z</time>
      </trkpt>
      <trkpt lat="43.91941" lon="5.22759">
        <ele>249</ele>
        <time>2009-10-02T19:09:02Z</time>
      </trkpt>
      <trkpt lat="43.91945" lon="5.2276">
        <ele>250</ele>
        <time>2009-10-02T19:09:02Z</time>
      </trkpt>
      <trkpt lat="43.9195" lon="5.2276">
        <ele>251</ele>
        <time>2009-10-02T19:09:02Z</time>
      </trkpt>
      <trkpt lat="43.91954" lon="5.2276">
        <ele>253</ele>
        <time>2009-10-02T19:09:02Z</time>
      </trkpt>
      <trkpt lat="43.91959" lon="5.2276">
        <ele>254</ele>
        <time>2009-10-02T19:09:02Z</time>
      </trkpt>
      <trkpt lat="43.91963" lon="5.2276">
        <ele>255</ele>
        <time>2009-10-02T19:09:02Z</time>
      </trkpt>
      <trkpt lat="43.91964" lon="5.22754">
        <ele>254</ele>
        <time>2009-10-02T19:09:02Z</time>
      </trkpt>
      <trkpt lat="43.91968" lon="5.22754">
        <ele>255</ele>
        <time>2009-10-02T19:09:02Z</time>
      </trkpt>
      <trkpt lat="43.91968" lon="5.22748">
        <ele>255</ele>
        <time>2009-10-02T19:09:02Z</time>
      </trkpt>
      <trkpt lat="43.91968" lon="5.22742">
        <ele>254</ele>
        <time>2009-10-02T19:09:02Z</time>
      </trkpt>
      <trkpt lat="43.91973" lon="5.22742">
        <ele>255</ele>
        <time>2009-10-02T19:09:02Z</time>
      </trkpt>
      <trkpt lat="43.91973" lon="5.22736">
        <ele>255</ele>
        <time>2009-10-02T19:09:02Z</time>
      </trkpt>
      <trkpt lat="43.91978" lon="5.2273">
        <ele>255</ele>
        <time>2009-10-02T19:09:02Z</time>
      </trkpt>
      <trkpt lat="43.91978" lon="5.22724">
        <ele>254</ele>
        <time>2009-10-02T19:09:02Z</time>
      </trkpt>
      <trkpt lat="43.91982" lon="5.22724">
        <ele>255</ele>
        <time>2009-10-02T19:09:02Z</time>
      </trkpt>
      <trkpt lat="43.91983" lon="5.22718">
        <ele>253</ele>
        <time>2009-10-02T19:09:02Z</time>
      </trkpt>
      <trkpt lat="43.91987" lon="5.22718">
        <ele>254</ele>
        <time>2009-10-02T19:09:02Z</time>
      </trkpt>
      <trkpt lat="43.91987" lon="5.22712">
        <ele>252</ele>
        <time>2009-10-02T19:09:02Z</time>
      </trkpt>
      <trkpt lat="43.91992" lon="5.22712">
        <ele>253</ele>
        <time>2009-10-02T19:09:02Z</time>
      </trkpt>
      <trkpt lat="43.91992" lon="5.22706">
        <ele>251</ele>
        <time>2009-10-02T19:09:02Z</time>
      </trkpt>
      <trkpt lat="43.91996" lon="5.22706">
        <ele>252</ele>
        <time>2009-10-02T19:09:02Z</time>
      </trkpt>
      <trkpt lat="43.91996" lon="5.227">
        <ele>250</ele>
        <time>2009-10-02T19:09:02Z</time>
      </trkpt>
      <trkpt lat="43.92001" lon="5.227">
        <ele>251</ele>
        <time>2009-10-02T19:09:02Z</time>
      </trkpt>
      <trkpt lat="43.92001" lon="5.22694">
        <ele>249</ele>
        <time>2009-10-02T19:09:02Z</time>
      </trkpt>
      <trkpt lat="43.92006" lon="5.22694">
        <ele>250</ele>
        <time>2009-10-02T19:09:02Z</time>
      </trkpt>
      <trkpt lat="43.92006" lon="5.22688">
        <ele>248</ele>
        <time>2009-10-02T19:09:02Z</time>
      </trkpt>
      <trkpt lat="43.92006" lon="5.22682">
        <ele>246</ele>
        <time>2009-10-02T19:09:02Z</time>
      </trkpt>
      <trkpt lat="43.9201" lon="5.22682">
        <ele>247</ele>
        <time>2009-10-02T19:09:02Z</time>
      </trkpt>
      <trkpt lat="43.92015" lon="5.22676">
        <ele>246</ele>
        <time>2009-10-02T19:09:02Z</time>
      </trkpt>
      <trkpt lat="43.9202" lon="5.22676">
        <ele>247</ele>
        <time>2009-10-02T19:09:02Z</time>
      </trkpt>
      <trkpt lat="43.92024" lon="5.2267">
        <ele>247</ele>
        <time>2009-10-02T19:09:02Z</time>
      </trkpt>
      <trkpt lat="43.92029" lon="5.2267">
        <ele>250</ele>
        <time>2009-10-02T19:09:02Z</time>
      </trkpt>
      <trkpt lat="43.92029" lon="5.22664">
        <ele>250</ele>
        <time>2009-10-02T19:09:02Z</time>
      </trkpt>
      <trkpt lat="43.92033" lon="5.22664">
        <ele>252</ele>
        <time>2009-10-02T19:09:02Z</time>
      </trkpt>
      <trkpt lat="43.92038" lon="5.22658">
        <ele>254</ele>
        <time>2009-10-02T19:09:02Z</time>
      </trkpt>
      <trkpt lat="43.92043" lon="5.22659">
        <ele>256</ele>
        <time>2009-10-02T19:09:02Z</time>
      </trkpt>
      <trkpt lat="43.92047" lon="5.22659">
        <ele>258</ele>
        <time>2009-10-02T19:09:02Z</time>
      </trkpt>
      <trkpt lat="43.92052" lon="5.22653">
        <ele>259</ele>
        <time>2009-10-02T19:09:02Z</time>
      </trkpt>
      <trkpt lat="43.92056" lon="5.22653">
        <ele>261</ele>
        <time>2009-10-02T19:09:02Z</time>
      </trkpt>
      <trkpt lat="43.92061" lon="5.22647">
        <ele>261</ele>
        <time>2009-10-02T19:09:02Z</time>
      </trkpt>
      <trkpt lat="43.92065" lon="5.22647">
        <ele>262</ele>
        <time>2009-10-02T19:09:02Z</time>
      </trkpt>
      <trkpt lat="43.92066" lon="5.22641">
        <ele>260</ele>
        <time>2009-10-02T19:09:02Z</time>
      </trkpt>
      <trkpt lat="43.9207" lon="5.22641">
        <ele>262</ele>
        <time>2009-10-02T19:09:02Z</time>
      </trkpt>
      <trkpt lat="43.92075" lon="5.22642">
        <ele>264</ele>
        <time>2009-10-02T19:09:02Z</time>
      </trkpt>
      <trkpt lat="43.92079" lon="5.22636">
        <ele>265</ele>
        <time>2009-10-02T19:09:02Z</time>
      </trkpt>
      <trkpt lat="43.92084" lon="5.22636">
        <ele>267</ele>
        <time>2009-10-02T19:09:02Z</time>
      </trkpt>
      <trkpt lat="43.92084" lon="5.2263">
        <ele>266</ele>
        <time>2009-10-02T19:09:02Z</time>
      </trkpt>
      <trkpt lat="43.92088" lon="5.2263">
        <ele>268</ele>
        <time>2009-10-02T19:09:02Z</time>
      </trkpt>
      <trkpt lat="43.92093" lon="5.22624">
        <ele>270</ele>
        <time>2009-10-02T19:09:02Z</time>
      </trkpt>
      <trkpt lat="43.92097" lon="5.22624">
        <ele>272</ele>
        <time>2009-10-02T19:09:02Z</time>
      </trkpt>
      <trkpt lat="43.92098" lon="5.22618">
        <ele>271</ele>
        <time>2009-10-02T19:09:02Z</time>
      </trkpt>
      <trkpt lat="43.92102" lon="5.22618">
        <ele>274</ele>
        <time>2009-10-02T19:09:02Z</time>
      </trkpt>
      <trkpt lat="43.92107" lon="5.22618">
        <ele>277</ele>
        <time>2009-10-02T19:09:02Z</time>
      </trkpt>
      <trkpt lat="43.92107" lon="5.22612">
        <ele>276</ele>
        <time>2009-10-02T19:09:02Z</time>
      </trkpt>
      <trkpt lat="43.92111" lon="5.22612">
        <ele>279</ele>
        <time>2009-10-02T19:09:02Z</time>
      </trkpt>
      <trkpt lat="43.92116" lon="5.22613">
        <ele>281</ele>
        <time>2009-10-02T19:09:02Z</time>
      </trkpt>
      <trkpt lat="43.9212" lon="5.22613">
        <ele>282</ele>
        <time>2009-10-02T19:09:02Z</time>
      </trkpt>
      <trkpt lat="43.92125" lon="5.22613">
        <ele>283</ele>
        <time>2009-10-02T19:09:02Z</time>
      </trkpt>
      <trkpt lat="43.92129" lon="5.22613">
        <ele>284</ele>
        <time>2009-10-02T19:09:02Z</time>
      </trkpt>
      <trkpt lat="43.92134" lon="5.22614">
        <ele>285</ele>
        <time>2009-10-02T19:09:02Z</time>
      </trkpt>
      <trkpt lat="43.92138" lon="5.22614">
        <ele>285</ele>
        <time>2009-10-02T19:09:02Z</time>
      </trkpt>
      <trkpt lat="43.92143" lon="5.22614">
        <ele>286</ele>
        <time>2009-10-02T19:09:02Z</time>
      </trkpt>
      <trkpt lat="43.92147" lon="5.22614">
        <ele>287</ele>
        <time>2009-10-02T19:09:02Z</time>
      </trkpt>
      <trkpt lat="43.92152" lon="5.22614">
        <ele>288</ele>
        <time>2009-10-02T19:09:02Z</time>
      </trkpt>
      <trkpt lat="43.92156" lon="5.22615">
        <ele>289</ele>
        <time>2009-10-02T19:09:02Z</time>
      </trkpt>
      <trkpt lat="43.92161" lon="5.22615">
        <ele>289</ele>
        <time>2009-10-02T19:09:02Z</time>
      </trkpt>
      <trkpt lat="43.92165" lon="5.22615">
        <ele>290</ele>
        <time>2009-10-02T19:09:02Z</time>
      </trkpt>
      <trkpt lat="43.9217" lon="5.22615">
        <ele>290</ele>
        <time>2009-10-02T19:09:02Z</time>
      </trkpt>
      <trkpt lat="43.92174" lon="5.22616">
        <ele>291</ele>
        <time>2009-10-02T19:09:02Z</time>
      </trkpt>
      <trkpt lat="43.92179" lon="5.22616">
        <ele>292</ele>
        <time>2009-10-02T19:09:02Z</time>
      </trkpt>
      <trkpt lat="43.92183" lon="5.22616">
        <ele>292</ele>
        <time>2009-10-02T19:09:02Z</time>
      </trkpt>
      <trkpt lat="43.92188" lon="5.22616">
        <ele>293</ele>
        <time>2009-10-02T19:09:02Z</time>
      </trkpt>
      <trkpt lat="43.92192" lon="5.22617">
        <ele>293</ele>
        <time>2009-10-02T19:09:02Z</time>
      </trkpt>
      <trkpt lat="43.92192" lon="5.2261">
        <ele>292</ele>
        <time>2009-10-02T19:09:02Z</time>
      </trkpt>
      <trkpt lat="43.92197" lon="5.22604">
        <ele>292</ele>
        <time>2009-10-02T19:09:02Z</time>
      </trkpt>
      <trkpt lat="43.92197" lon="5.22598">
        <ele>291</ele>
        <time>2009-10-02T19:09:02Z</time>
      </trkpt>
      <trkpt lat="43.92197" lon="5.22592">
        <ele>290</ele>
        <time>2009-10-02T19:09:02Z</time>
      </trkpt>
      <trkpt lat="43.92202" lon="5.22592">
        <ele>291</ele>
        <time>2009-10-02T19:09:02Z</time>
      </trkpt>
      <trkpt lat="43.92202" lon="5.22586">
        <ele>290</ele>
        <time>2009-10-02T19:09:02Z</time>
      </trkpt>
      <trkpt lat="43.92206" lon="5.22586">
        <ele>290</ele>
        <time>2009-10-02T19:09:02Z</time>
      </trkpt>
      <trkpt lat="43.92207" lon="5.2258">
        <ele>289</ele>
        <time>2009-10-02T19:09:02Z</time>
      </trkpt>
      <trkpt lat="43.92207" lon="5.22574">
        <ele>288</ele>
        <time>2009-10-02T19:09:02Z</time>
      </trkpt>
      <trkpt lat="43.92207" lon="5.22568">
        <ele>287</ele>
        <time>2009-10-02T19:09:02Z</time>
      </trkpt>
      <trkpt lat="43.92211" lon="5.22568">
        <ele>288</ele>
        <time>2009-10-02T19:09:02Z</time>
      </trkpt>
      <trkpt lat="43.92212" lon="5.22562">
        <ele>287</ele>
        <time>2009-10-02T19:09:02Z</time>
      </trkpt>
      <trkpt lat="43.92212" lon="5.22555">
        <ele>286</ele>
        <time>2009-10-02T19:09:02Z</time>
      </trkpt>
      <trkpt lat="43.92216" lon="5.22556">
        <ele>287</ele>
        <time>2009-10-02T19:09:02Z</time>
      </trkpt>
      <trkpt lat="43.92221" lon="5.22556">
        <ele>288</ele>
        <time>2009-10-02T19:09:02Z</time>
      </trkpt>
      <trkpt lat="43.92225" lon="5.22556">
        <ele>289</ele>
        <time>2009-10-02T19:09:02Z</time>
      </trkpt>
      <trkpt lat="43.9223" lon="5.22556">
        <ele>289</ele>
        <time>2009-10-02T19:09:02Z</time>
      </trkpt>
      <trkpt lat="43.92234" lon="5.22556">
        <ele>290</ele>
        <time>2009-10-02T19:09:02Z</time>
      </trkpt>
      <trkpt lat="43.92239" lon="5.22557">
        <ele>291</ele>
        <time>2009-10-02T19:09:02Z</time>
      </trkpt>
      <trkpt lat="43.92243" lon="5.22557">
        <ele>292</ele>
        <time>2009-10-02T19:09:02Z</time>
      </trkpt>
      <trkpt lat="43.92248" lon="5.22557">
        <ele>293</ele>
        <time>2009-10-02T19:09:02Z</time>
      </trkpt>
      <trkpt lat="43.92252" lon="5.22557">
        <ele>293</ele>
        <time>2009-10-02T19:09:02Z</time>
      </trkpt>
      <trkpt lat="43.92257" lon="5.22558">
        <ele>293</ele>
        <time>2009-10-02T19:09:02Z</time>
      </trkpt>
      <trkpt lat="43.92261" lon="5.22558">
        <ele>293</ele>
        <time>2009-10-02T19:09:02Z</time>
      </trkpt>
      <trkpt lat="43.92266" lon="5.22558">
        <ele>293</ele>
        <time>2009-10-02T19:09:02Z</time>
      </trkpt>
      <trkpt lat="43.9227" lon="5.22558">
        <ele>293</ele>
        <time>2009-10-02T19:09:02Z</time>
      </trkpt>
      <trkpt lat="43.92275" lon="5.22559">
        <ele>293</ele>
        <time>2009-10-02T19:09:02Z</time>
      </trkpt>
      <trkpt lat="43.92279" lon="5.22559">
        <ele>292</ele>
        <time>2009-10-02T19:09:02Z</time>
      </trkpt>
      <trkpt lat="43.92284" lon="5.22559">
        <ele>292</ele>
        <time>2009-10-02T19:09:02Z</time>
      </trkpt>
      <trkpt lat="43.92288" lon="5.22559">
        <ele>292</ele>
        <time>2009-10-02T19:09:02Z</time>
      </trkpt>
      <trkpt lat="43.92293" lon="5.22559">
        <ele>292</ele>
        <time>2009-10-02T19:09:02Z</time>
      </trkpt>
      <trkpt lat="43.92297" lon="5.2256">
        <ele>293</ele>
        <time>2009-10-02T19:09:02Z</time>
      </trkpt>
      <trkpt lat="43.92302" lon="5.2256">
        <ele>294</ele>
        <time>2009-10-02T19:09:02Z</time>
      </trkpt>
      <trkpt lat="43.92306" lon="5.2256">
        <ele>295</ele>
        <time>2009-10-02T19:09:02Z</time>
      </trkpt>
      <trkpt lat="43.92311" lon="5.2256">
        <ele>296</ele>
        <time>2009-10-02T19:09:02Z</time>
      </trkpt>
      <trkpt lat="43.92315" lon="5.22561">
        <ele>297</ele>
        <time>2009-10-02T19:09:02Z</time>
      </trkpt>
      <trkpt lat="43.9232" lon="5.22561">
        <ele>299</ele>
        <time>2009-10-02T19:09:02Z</time>
      </trkpt>
      <trkpt lat="43.92324" lon="5.22561">
        <ele>300</ele>
        <time>2009-10-02T19:09:02Z</time>
      </trkpt>
      <trkpt lat="43.92324" lon="5.22555">
        <ele>298</ele>
        <time>2009-10-02T19:09:02Z</time>
      </trkpt>
      <trkpt lat="43.92324" lon="5.22549">
        <ele>296</ele>
        <time>2009-10-02T19:09:02Z</time>
      </trkpt>
      <trkpt lat="43.92329" lon="5.22549">
        <ele>297</ele>
        <time>2009-10-02T19:09:02Z</time>
      </trkpt>
      <trkpt lat="43.92329" lon="5.22543">
        <ele>295</ele>
        <time>2009-10-02T19:09:02Z</time>
      </trkpt>
      <trkpt lat="43.92334" lon="5.22543">
        <ele>296</ele>
        <time>2009-10-02T19:09:02Z</time>
      </trkpt>
      <trkpt lat="43.92334" lon="5.22537">
        <ele>293</ele>
        <time>2009-10-02T19:09:02Z</time>
      </trkpt>
      <trkpt lat="43.92338" lon="5.22537">
        <ele>294</ele>
        <time>2009-10-02T19:09:02Z</time>
      </trkpt>
      <trkpt lat="43.92338" lon="5.22531">
        <ele>292</ele>
        <time>2009-10-02T19:09:02Z</time>
      </trkpt>
      <trkpt lat="43.92343" lon="5.22531">
        <ele>294</ele>
        <time>2009-10-02T19:09:02Z</time>
      </trkpt>
      <trkpt lat="43.92347" lon="5.22531">
        <ele>296</ele>
        <time>2009-10-02T19:09:02Z</time>
      </trkpt>
      <trkpt lat="43.92347" lon="5.22525">
        <ele>294</ele>
        <time>2009-10-02T19:09:02Z</time>
      </trkpt>
      <trkpt lat="43.92352" lon="5.22525">
        <ele>297</ele>
        <time>2009-10-02T19:09:02Z</time>
      </trkpt>
      <trkpt lat="43.92352" lon="5.22519">
        <ele>295</ele>
        <time>2009-10-02T19:09:02Z</time>
      </trkpt>
      <trkpt lat="43.92357" lon="5.22519">
        <ele>297</ele>
        <time>2009-10-02T19:09:02Z</time>
      </trkpt>
      <trkpt lat="43.92357" lon="5.22513">
        <ele>296</ele>
        <time>2009-10-02T19:09:02Z</time>
      </trkpt>
      <trkpt lat="43.92361" lon="5.22513">
        <ele>298</ele>
        <time>2009-10-02T19:09:02Z</time>
      </trkpt>
      <trkpt lat="43.92366" lon="5.22513">
        <ele>301</ele>
        <time>2009-10-02T19:09:02Z</time>
      </trkpt>
      <trkpt lat="43.92366" lon="5.22507">
        <ele>300</ele>
        <time>2009-10-02T19:09:02Z</time>
      </trkpt>
      <trkpt lat="43.9237" lon="5.22507">
        <ele>303</ele>
        <time>2009-10-02T19:09:02Z</time>
      </trkpt>
      <trkpt lat="43.92371" lon="5.22501">
        <ele>301</ele>
        <time>2009-10-02T19:09:02Z</time>
      </trkpt>
      <trkpt lat="43.92375" lon="5.22501">
        <ele>304</ele>
        <time>2009-10-02T19:09:02Z</time>
      </trkpt>
      <trkpt lat="43.92375" lon="5.22495">
        <ele>304</ele>
        <time>2009-10-02T19:09:02Z</time>
      </trkpt>
      <trkpt lat="43.92375" lon="5.22489">
        <ele>303</ele>
        <time>2009-10-02T19:09:02Z</time>
      </trkpt>
      <trkpt lat="43.92376" lon="5.22483">
        <ele>302</ele>
        <time>2009-10-02T19:09:02Z</time>
      </trkpt>
      <trkpt lat="43.92376" lon="5.22477">
        <ele>302</ele>
        <time>2009-10-02T19:09:02Z</time>
      </trkpt>
      <trkpt lat="43.92376" lon="5.2247">
        <ele>301</ele>
        <time>2009-10-02T19:09:02Z</time>
      </trkpt>
      <trkpt lat="43.92376" lon="5.22464">
        <ele>300</ele>
        <time>2009-10-02T19:09:02Z</time>
      </trkpt>
      <trkpt lat="43.92376" lon="5.22458">
        <ele>300</ele>
        <time>2009-10-02T19:09:02Z</time>
      </trkpt>
      <trkpt lat="43.92376" lon="5.22452">
        <ele>299</ele>
        <time>2009-10-02T19:09:02Z</time>
      </trkpt>
      <trkpt lat="43.92377" lon="5.22445">
        <ele>299</ele>
        <time>2009-10-02T19:09:02Z</time>
      </trkpt>
      <trkpt lat="43.92377" lon="5.22439">
        <ele>298</ele>
        <time>2009-10-02T19:09:02Z</time>
      </trkpt>
      <trkpt lat="43.92377" lon="5.22433">
        <ele>298</ele>
        <time>2009-10-02T19:09:02Z</time>
      </trkpt>
      <trkpt lat="43.92382" lon="5.22427">
        <ele>299</ele>
        <time>2009-10-02T19:09:02Z</time>
      </trkpt>
      <trkpt lat="43.92386" lon="5.22421">
        <ele>301</ele>
        <time>2009-10-02T19:09:02Z</time>
      </trkpt>
      <trkpt lat="43.92386" lon="5.22415">
        <ele>300</ele>
        <time>2009-10-02T19:09:02Z</time>
      </trkpt>
      <trkpt lat="43.92391" lon="5.22415">
        <ele>302</ele>
        <time>2009-10-02T19:09:02Z</time>
      </trkpt>
      <trkpt lat="43.92391" lon="5.22409">
        <ele>302</ele>
        <time>2009-10-02T19:09:02Z</time>
      </trkpt>
      <trkpt lat="43.92391" lon="5.22403">
        <ele>301</ele>
        <time>2009-10-02T19:09:02Z</time>
      </trkpt>
      <trkpt lat="43.92391" lon="5.22396">
        <ele>300</ele>
        <time>2009-10-02T19:09:02Z</time>
      </trkpt>
      <trkpt lat="43.92396" lon="5.22397">
        <ele>304</ele>
        <time>2009-10-02T19:09:02Z</time>
      </trkpt>
      <trkpt lat="43.92396" lon="5.2239">
        <ele>303</ele>
        <time>2009-10-02T19:09:02Z</time>
      </trkpt>
      <trkpt lat="43.92396" lon="5.22384">
        <ele>302</ele>
        <time>2009-10-02T19:09:02Z</time>
      </trkpt>
      <trkpt lat="43.92396" lon="5.22378">
        <ele>301</ele>
        <time>2009-10-02T19:09:02Z</time>
      </trkpt>
      <trkpt lat="43.92397" lon="5.22372">
        <ele>300</ele>
        <time>2009-10-02T19:09:02Z</time>
      </trkpt>
      <trkpt lat="43.92397" lon="5.22366">
        <ele>299</ele>
        <time>2009-10-02T19:09:02Z</time>
      </trkpt>
      <trkpt lat="43.92397" lon="5.22359">
        <ele>298</ele>
        <time>2009-10-02T19:09:02Z</time>
      </trkpt>
      <trkpt lat="43.92397" lon="5.22353">
        <ele>297</ele>
        <time>2009-10-02T19:09:02Z</time>
      </trkpt>
      <trkpt lat="43.92397" lon="5.22347">
        <ele>295</ele>
        <time>2009-10-02T19:09:02Z</time>
      </trkpt>
      <trkpt lat="43.92397" lon="5.22341">
        <ele>294</ele>
        <time>2009-10-02T19:09:02Z</time>
      </trkpt>
      <trkpt lat="43.92398" lon="5.22335">
        <ele>293</ele>
        <time>2009-10-02T19:09:02Z</time>
      </trkpt>
      <trkpt lat="43.92402" lon="5.22335">
        <ele>297</ele>
        <time>2009-10-02T19:09:02Z</time>
      </trkpt>
      <trkpt lat="43.92407" lon="5.22335">
        <ele>300</ele>
        <time>2009-10-02T19:09:02Z</time>
      </trkpt>
      <trkpt lat="43.92407" lon="5.22329">
        <ele>299</ele>
        <time>2009-10-02T19:09:02Z</time>
      </trkpt>
      <trkpt lat="43.92407" lon="5.22323">
        <ele>298</ele>
        <time>2009-10-02T19:09:02Z</time>
      </trkpt>
      <trkpt lat="43.92411" lon="5.22323">
        <ele>302</ele>
        <time>2009-10-02T19:09:02Z</time>
      </trkpt>
      <trkpt lat="43.92416" lon="5.22323">
        <ele>305</ele>
        <time>2009-10-02T19:09:02Z</time>
      </trkpt>
      <trkpt lat="43.92416" lon="5.22317">
        <ele>304</ele>
        <time>2009-10-02T19:09:02Z</time>
      </trkpt>
      <trkpt lat="43.9242" lon="5.22317">
        <ele>308</ele>
        <time>2009-10-02T19:09:02Z</time>
      </trkpt>
      <trkpt lat="43.92421" lon="5.22311">
        <ele>308</ele>
        <time>2009-10-02T19:09:02Z</time>
      </trkpt>
      <trkpt lat="43.92425" lon="5.22311">
        <ele>311</ele>
        <time>2009-10-02T19:09:02Z</time>
      </trkpt>
      <trkpt lat="43.9243" lon="5.22305">
        <ele>314</ele>
        <time>2009-10-02T19:09:02Z</time>
      </trkpt>
      <trkpt lat="43.92434" lon="5.22299">
        <ele>317</ele>
        <time>2009-10-02T19:09:02Z</time>
      </trkpt>
      <trkpt lat="43.92435" lon="5.22293">
        <ele>316</ele>
        <time>2009-10-02T19:09:02Z</time>
      </trkpt>
      <trkpt lat="43.92439" lon="5.22293">
        <ele>319</ele>
        <time>2009-10-02T19:09:02Z</time>
      </trkpt>
      <trkpt lat="43.92444" lon="5.22293">
        <ele>322</ele>
        <time>2009-10-02T19:09:02Z</time>
      </trkpt>
      <trkpt lat="43.92444" lon="5.22287">
        <ele>321</ele>
        <time>2009-10-02T19:09:02Z</time>
      </trkpt>
      <trkpt lat="43.92448" lon="5.22287">
        <ele>324</ele>
        <time>2009-10-02T19:09:02Z</time>
      </trkpt>
      <trkpt lat="43.92448" lon="5.22281">
        <ele>323</ele>
        <time>2009-10-02T19:09:02Z</time>
      </trkpt>
      <trkpt lat="43.92453" lon="5.22275">
        <ele>324</ele>
        <time>2009-10-02T19:09:02Z</time>
      </trkpt>
      <trkpt lat="43.92453" lon="5.22269">
        <ele>323</ele>
        <time>2009-10-02T19:09:02Z</time>
      </trkpt>
      <trkpt lat="43.92458" lon="5.22269">
        <ele>325</ele>
        <time>2009-10-02T19:09:02Z</time>
      </trkpt>
      <trkpt lat="43.92458" lon="5.22263">
        <ele>324</ele>
        <time>2009-10-02T19:09:02Z</time>
      </trkpt>
      <trkpt lat="43.92462" lon="5.22263">
        <ele>327</ele>
        <time>2009-10-02T19:09:02Z</time>
      </trkpt>
      <trkpt lat="43.92463" lon="5.22257">
        <ele>325</ele>
        <time>2009-10-02T19:09:02Z</time>
      </trkpt>
      <trkpt lat="43.92467" lon="5.22251">
        <ele>324</ele>
        <time>2009-10-02T19:09:02Z</time>
      </trkpt>
      <trkpt lat="43.92472" lon="5.22251">
        <ele>326</ele>
        <time>2009-10-02T19:09:02Z</time>
      </trkpt>
      <trkpt lat="43.92472" lon="5.22245">
        <ele>322</ele>
        <time>2009-10-02T19:09:02Z</time>
      </trkpt>
      <trkpt lat="43.92476" lon="5.22245">
        <ele>324</ele>
        <time>2009-10-02T19:09:02Z</time>
      </trkpt>
      <trkpt lat="43.92481" lon="5.22245">
        <ele>326</ele>
        <time>2009-10-02T19:09:02Z</time>
      </trkpt>
      <trkpt lat="43.92481" lon="5.22239">
        <ele>321</ele>
        <time>2009-10-02T19:09:02Z</time>
      </trkpt>
      <trkpt lat="43.92486" lon="5.22239">
        <ele>323</ele>
        <time>2009-10-02T19:09:02Z</time>
      </trkpt>
      <trkpt lat="43.9249" lon="5.2224">
        <ele>324</ele>
        <time>2009-10-02T19:09:02Z</time>
      </trkpt>
      <trkpt lat="43.92495" lon="5.2224">
        <ele>325</ele>
        <time>2009-10-02T19:09:02Z</time>
      </trkpt>
      <trkpt lat="43.92499" lon="5.2224">
        <ele>326</ele>
        <time>2009-10-02T19:09:02Z</time>
      </trkpt>
      <trkpt lat="43.92503" lon="5.2224">
        <ele>327</ele>
        <time>2009-10-02T19:09:02Z</time>
      </trkpt>
      <trkpt lat="43.92508" lon="5.22241">
        <ele>328</ele>
        <time>2009-10-02T19:09:02Z</time>
      </trkpt>
      <trkpt lat="43.92512" lon="5.22241">
        <ele>329</ele>
        <time>2009-10-02T19:09:02Z</time>
      </trkpt>
      <trkpt lat="43.92517" lon="5.22247">
        <ele>335</ele>
        <time>2009-10-02T19:09:02Z</time>
      </trkpt>
      <trkpt lat="43.92521" lon="5.22247">
        <ele>336</ele>
        <time>2009-10-02T19:09:02Z</time>
      </trkpt>
      <trkpt lat="43.92526" lon="5.22254">
        <ele>341</ele>
        <time>2009-10-02T19:09:02Z</time>
      </trkpt>
      <trkpt lat="43.9253" lon="5.22254">
        <ele>342</ele>
        <time>2009-10-02T19:09:02Z</time>
      </trkpt>
      <trkpt lat="43.92535" lon="5.22254">
        <ele>341</ele>
        <time>2009-10-02T19:09:02Z</time>
      </trkpt>
      <trkpt lat="43.92539" lon="5.22255">
        <ele>341</ele>
        <time>2009-10-02T19:09:02Z</time>
      </trkpt>
      <trkpt lat="43.92544" lon="5.22255">
        <ele>340</ele>
        <time>2009-10-02T19:09:02Z</time>
      </trkpt>
      <trkpt lat="43.92548" lon="5.22255">
        <ele>340</ele>
        <time>2009-10-02T19:09:02Z</time>
      </trkpt>
      <trkpt lat="43.92553" lon="5.22255">
        <ele>340</ele>
        <time>2009-10-02T19:09:02Z</time>
      </trkpt>
      <trkpt lat="43.92557" lon="5.22255">
        <ele>339</ele>
        <time>2009-10-02T19:09:02Z</time>
      </trkpt>
      <trkpt lat="43.92562" lon="5.22256">
        <ele>339</ele>
        <time>2009-10-02T19:09:02Z</time>
      </trkpt>
      <trkpt lat="43.92566" lon="5.22256">
        <ele>338</ele>
        <time>2009-10-02T19:09:02Z</time>
      </trkpt>
      <trkpt lat="43.92571" lon="5.22256">
        <ele>338</ele>
        <time>2009-10-02T19:09:02Z</time>
      </trkpt>
      <trkpt lat="43.92575" lon="5.22256">
        <ele>338</ele>
        <time>2009-10-02T19:09:02Z</time>
      </trkpt>
      <trkpt lat="43.9258" lon="5.22257">
        <ele>339</ele>
        <time>2009-10-02T19:09:02Z</time>
      </trkpt>
      <trkpt lat="43.92584" lon="5.22257">
        <ele>340</ele>
        <time>2009-10-02T19:09:02Z</time>
      </trkpt>
      <trkpt lat="43.92589" lon="5.22257">
        <ele>341</ele>
        <time>2009-10-02T19:09:02Z</time>
      </trkpt>
      <trkpt lat="43.92593" lon="5.22257">
        <ele>342</ele>
        <time>2009-10-02T19:09:02Z</time>
      </trkpt>
      <trkpt lat="43.92597" lon="5.22258">
        <ele>343</ele>
        <time>2009-10-02T19:09:02Z</time>
      </trkpt>
      <trkpt lat="43.92598" lon="5.22251">
        <ele>340</ele>
        <time>2009-10-02T19:09:02Z</time>
      </trkpt>
      <trkpt lat="43.92602" lon="5.22252">
        <ele>341</ele>
        <time>2009-10-02T19:09:02Z</time>
      </trkpt>
      <trkpt lat="43.92602" lon="5.22245">
        <ele>337</ele>
        <time>2009-10-02T19:09:02Z</time>
      </trkpt>
      <trkpt lat="43.92607" lon="5.22246">
        <ele>338</ele>
        <time>2009-10-02T19:09:02Z</time>
      </trkpt>
      <trkpt lat="43.92611" lon="5.22246">
        <ele>339</ele>
        <time>2009-10-02T19:09:02Z</time>
      </trkpt>
      <trkpt lat="43.92616" lon="5.22246">
        <ele>340</ele>
        <time>2009-10-02T19:09:02Z</time>
      </trkpt>
      <trkpt lat="43.9262" lon="5.22246">
        <ele>342</ele>
        <time>2009-10-02T19:09:02Z</time>
      </trkpt>
      <trkpt lat="43.92625" lon="5.22246">
        <ele>344</ele>
        <time>2009-10-02T19:09:02Z</time>
      </trkpt>
      <trkpt lat="43.92625" lon="5.2224">
        <ele>341</ele>
        <time>2009-10-02T19:09:02Z</time>
      </trkpt>
      <trkpt lat="43.92629" lon="5.2224">
        <ele>343</ele>
        <time>2009-10-02T19:09:02Z</time>
      </trkpt>
      <trkpt lat="43.9263" lon="5.22234">
        <ele>339</ele>
        <time>2009-10-02T19:09:02Z</time>
      </trkpt>
      <trkpt lat="43.92634" lon="5.22235">
        <ele>341</ele>
        <time>2009-10-02T19:09:02Z</time>
      </trkpt>
      <trkpt lat="43.92634" lon="5.22228">
        <ele>338</ele>
        <time>2009-10-02T19:09:02Z</time>
      </trkpt>
      <trkpt lat="43.92639" lon="5.22229">
        <ele>340</ele>
        <time>2009-10-02T19:09:02Z</time>
      </trkpt>
      <trkpt lat="43.92639" lon="5.22222">
        <ele>336</ele>
        <time>2009-10-02T19:09:02Z</time>
      </trkpt>
      <trkpt lat="43.92643" lon="5.22223">
        <ele>338</ele>
        <time>2009-10-02T19:09:02Z</time>
      </trkpt>
      <trkpt lat="43.92644" lon="5.22216">
        <ele>335</ele>
        <time>2009-10-02T19:09:02Z</time>
      </trkpt>
      <trkpt lat="43.92644" lon="5.2221">
        <ele>331</ele>
        <time>2009-10-02T19:09:02Z</time>
      </trkpt>
      <trkpt lat="43.92648" lon="5.2221">
        <ele>333</ele>
        <time>2009-10-02T19:09:02Z</time>
      </trkpt>
      <trkpt lat="43.92648" lon="5.22204">
        <ele>329</ele>
        <time>2009-10-02T19:09:02Z</time>
      </trkpt>
      <trkpt lat="43.92649" lon="5.22198">
        <ele>328</ele>
        <time>2009-10-02T19:09:02Z</time>
      </trkpt>
      <trkpt lat="43.92653" lon="5.22198">
        <ele>330</ele>
        <time>2009-10-02T19:09:02Z</time>
      </trkpt>
      <trkpt lat="43.92653" lon="5.22192">
        <ele>329</ele>
        <time>2009-10-02T19:09:02Z</time>
      </trkpt>
      <trkpt lat="43.92658" lon="5.22192">
        <ele>330</ele>
        <time>2009-10-02T19:09:02Z</time>
      </trkpt>
      <trkpt lat="43.92662" lon="5.22192">
        <ele>331</ele>
        <time>2009-10-02T19:09:02Z</time>
      </trkpt>
      <trkpt lat="43.92667" lon="5.22193">
        <ele>332</ele>
        <time>2009-10-02T19:09:02Z</time>
      </trkpt>
      <trkpt lat="43.92671" lon="5.22193">
        <ele>332</ele>
        <time>2009-10-02T19:09:02Z</time>
      </trkpt>
      <trkpt lat="43.92676" lon="5.22193">
        <ele>331</ele>
        <time>2009-10-02T19:09:02Z</time>
      </trkpt>
      <trkpt lat="43.9268" lon="5.22193">
        <ele>331</ele>
        <time>2009-10-02T19:09:02Z</time>
      </trkpt>
      <trkpt lat="43.92685" lon="5.22194">
        <ele>331</ele>
        <time>2009-10-02T19:09:02Z</time>
      </trkpt>
      <trkpt lat="43.92689" lon="5.22194">
        <ele>331</ele>
        <time>2009-10-02T19:09:02Z</time>
      </trkpt>
      <trkpt lat="43.92694" lon="5.22194">
        <ele>330</ele>
        <time>2009-10-02T19:09:02Z</time>
      </trkpt>
      <trkpt lat="43.92698" lon="5.22194">
        <ele>330</ele>
        <time>2009-10-02T19:09:02Z</time>
      </trkpt>
      <trkpt lat="43.92703" lon="5.22194">
        <ele>330</ele>
        <time>2009-10-02T19:09:02Z</time>
      </trkpt>
      <trkpt lat="43.92707" lon="5.22195">
        <ele>330</ele>
        <time>2009-10-02T19:09:02Z</time>
      </trkpt>
      <trkpt lat="43.92712" lon="5.22195">
        <ele>329</ele>
        <time>2009-10-02T19:09:02Z</time>
      </trkpt>
      <trkpt lat="43.92716" lon="5.22195">
        <ele>328</ele>
        <time>2009-10-02T19:09:02Z</time>
      </trkpt>
      <trkpt lat="43.92721" lon="5.22195">
        <ele>328</ele>
        <time>2009-10-02T19:09:02Z</time>
      </trkpt>
      <trkpt lat="43.92725" lon="5.22196">
        <ele>327</ele>
        <time>2009-10-02T19:09:02Z</time>
      </trkpt>
      <trkpt lat="43.9273" lon="5.22196">
        <ele>326</ele>
        <time>2009-10-02T19:09:02Z</time>
      </trkpt>
      <trkpt lat="43.92734" lon="5.22196">
        <ele>325</ele>
        <time>2009-10-02T19:09:02Z</time>
      </trkpt>
      <trkpt lat="43.92739" lon="5.22196">
        <ele>324</ele>
        <time>2009-10-02T19:09:02Z</time>
      </trkpt>
      <trkpt lat="43.92743" lon="5.22196">
        <ele>323</ele>
        <time>2009-10-02T19:09:02Z</time>
      </trkpt>
      <trkpt lat="43.92748" lon="5.22197">
        <ele>323</ele>
        <time>2009-10-02T19:09:02Z</time>
      </trkpt>
      <trkpt lat="43.92747" lon="5.22203">
        <ele>322</ele>
        <time>2009-10-02T19:09:02Z</time>
      </trkpt>
      <trkpt lat="43.92747" lon="5.22209">
        <ele>322</ele>
        <time>2009-10-02T19:09:02Z</time>
      </trkpt>
      <trkpt lat="43.92747" lon="5.22215">
        <ele>326</ele>
        <time>2009-10-02T19:09:02Z</time>
      </trkpt>
      <trkpt lat="43.92747" lon="5.22222">
        <ele>330</ele>
        <time>2009-10-02T19:09:02Z</time>
      </trkpt>
      <trkpt lat="43.92751" lon="5.22222">
        <ele>329</ele>
        <time>2009-10-02T19:09:02Z</time>
      </trkpt>
      <trkpt lat="43.92751" lon="5.22228">
        <ele>333</ele>
        <time>2009-10-02T19:09:02Z</time>
      </trkpt>
      <trkpt lat="43.92751" lon="5.22234">
        <ele>337</ele>
        <time>2009-10-02T19:09:02Z</time>
      </trkpt>
      <trkpt lat="43.92751" lon="5.2224">
        <ele>341</ele>
        <time>2009-10-02T19:09:02Z</time>
      </trkpt>
      <trkpt lat="43.92755" lon="5.22241">
        <ele>341</ele>
        <time>2009-10-02T19:09:02Z</time>
      </trkpt>
      <trkpt lat="43.9276" lon="5.22241">
        <ele>341</ele>
        <time>2009-10-02T19:09:02Z</time>
      </trkpt>
      <trkpt lat="43.92764" lon="5.22241">
        <ele>341</ele>
        <time>2009-10-02T19:09:02Z</time>
      </trkpt>
      <trkpt lat="43.92769" lon="5.22241">
        <ele>340</ele>
        <time>2009-10-02T19:09:02Z</time>
      </trkpt>
      <trkpt lat="43.92773" lon="5.22242">
        <ele>340</ele>
        <time>2009-10-02T19:09:02Z</time>
      </trkpt>
      <trkpt lat="43.92778" lon="5.22242">
        <ele>340</ele>
        <time>2009-10-02T19:09:02Z</time>
      </trkpt>
      <trkpt lat="43.92782" lon="5.22242">
        <ele>340</ele>
        <time>2009-10-02T19:09:02Z</time>
      </trkpt>
      <trkpt lat="43.92787" lon="5.22242">
        <ele>340</ele>
        <time>2009-10-02T19:09:02Z</time>
      </trkpt>
      <trkpt lat="43.92787" lon="5.22248">
        <ele>344</ele>
        <time>2009-10-02T19:09:02Z</time>
      </trkpt>
      <trkpt lat="43.92791" lon="5.22249">
        <ele>344</ele>
        <time>2009-10-02T19:09:02Z</time>
      </trkpt>
      <trkpt lat="43.92796" lon="5.22249">
        <ele>344</ele>
        <time>2009-10-02T19:09:02Z</time>
      </trkpt>
      <trkpt lat="43.928" lon="5.22249">
        <ele>344</ele>
        <time>2009-10-02T19:09:02Z</time>
      </trkpt>
      <trkpt lat="43.928" lon="5.22255">
        <ele>348</ele>
        <time>2009-10-02T19:09:02Z</time>
      </trkpt>
      <trkpt lat="43.92804" lon="5.22256">
        <ele>348</ele>
        <time>2009-10-02T19:09:02Z</time>
      </trkpt>
      <trkpt lat="43.92809" lon="5.22256">
        <ele>348</ele>
        <time>2009-10-02T19:09:02Z</time>
      </trkpt>
      <trkpt lat="43.92813" lon="5.22256">
        <ele>347</ele>
        <time>2009-10-02T19:09:02Z</time>
      </trkpt>
      <trkpt lat="43.92818" lon="5.22256">
        <ele>347</ele>
        <time>2009-10-02T19:09:02Z</time>
      </trkpt>
      <trkpt lat="43.92822" lon="5.22257">
        <ele>347</ele>
        <time>2009-10-02T19:09:02Z</time>
      </trkpt>
      <trkpt lat="43.92822" lon="5.22263">
        <ele>350</ele>
        <time>2009-10-02T19:09:02Z</time>
      </trkpt>
      <trkpt lat="43.92827" lon="5.22263">
        <ele>349</ele>
        <time>2009-10-02T19:09:02Z</time>
      </trkpt>
      <trkpt lat="43.92831" lon="5.22263">
        <ele>349</ele>
        <time>2009-10-02T19:09:02Z</time>
      </trkpt>
      <trkpt lat="43.92836" lon="5.22263">
        <ele>349</ele>
        <time>2009-10-02T19:09:02Z</time>
      </trkpt>
      <trkpt lat="43.9284" lon="5.22264">
        <ele>348</ele>
        <time>2009-10-02T19:09:02Z</time>
      </trkpt>
      <trkpt lat="43.92845" lon="5.22264">
        <ele>348</ele>
        <time>2009-10-02T19:09:02Z</time>
      </trkpt>
      <trkpt lat="43.92849" lon="5.22264">
        <ele>349</ele>
        <time>2009-10-02T19:09:02Z</time>
      </trkpt>
      <trkpt lat="43.92854" lon="5.22264">
        <ele>350</ele>
        <time>2009-10-02T19:09:02Z</time>
      </trkpt>
      <trkpt lat="43.92858" lon="5.22265">
        <ele>351</ele>
        <time>2009-10-02T19:09:02Z</time>
      </trkpt>
      <trkpt lat="43.92863" lon="5.22265">
        <ele>352</ele>
        <time>2009-10-02T19:09:02Z</time>
      </trkpt>
      <trkpt lat="43.92858" lon="5.22271">
        <ele>353</ele>
        <time>2009-10-02T19:09:02Z</time>
      </trkpt>
      <trkpt lat="43.92854" lon="5.22271">
        <ele>352</ele>
        <time>2009-10-02T19:09:02Z</time>
      </trkpt>
      <trkpt lat="43.92849" lon="5.22277">
        <ele>354</ele>
        <time>2009-10-02T19:09:02Z</time>
      </trkpt>
      <trkpt lat="43.92844" lon="5.22283">
        <ele>356</ele>
        <time>2009-10-02T19:09:02Z</time>
      </trkpt>
      <trkpt lat="43.9284" lon="5.22289">
        <ele>359</ele>
        <time>2009-10-02T19:09:02Z</time>
      </trkpt>
      <trkpt lat="43.92835" lon="5.22288">
        <ele>359</ele>
        <time>2009-10-02T19:09:02Z</time>
      </trkpt>
      <trkpt lat="43.9283" lon="5.22294">
        <ele>363</ele>
        <time>2009-10-02T19:09:02Z</time>
      </trkpt>
      <trkpt lat="43.92826" lon="5.22294">
        <ele>364</ele>
        <time>2009-10-02T19:09:02Z</time>
      </trkpt>
      <trkpt lat="43.9283" lon="5.22294">
        <ele>363</ele>
        <time>2009-10-02T19:09:02Z</time>
      </trkpt>
      <trkpt lat="43.92826" lon="5.22294">
        <ele>364</ele>
        <time>2009-10-02T19:09:02Z</time>
      </trkpt>
      <trkpt lat="43.92821" lon="5.22306">
        <ele>370</ele>
        <time>2009-10-02T19:09:02Z</time>
      </trkpt>
      <trkpt lat="43.92812" lon="5.22312">
        <ele>374</ele>
        <time>2009-10-02T19:09:02Z</time>
      </trkpt>
      <trkpt lat="43.92807" lon="5.22318">
        <ele>378</ele>
        <time>2009-10-02T19:09:02Z</time>
      </trkpt>
      <trkpt lat="43.92803" lon="5.22318">
        <ele>378</ele>
        <time>2009-10-02T19:09:02Z</time>
      </trkpt>
      <trkpt lat="43.92798" lon="5.22324">
        <ele>381</ele>
        <time>2009-10-02T19:09:02Z</time>
      </trkpt>
      <trkpt lat="43.92802" lon="5.2233">
        <ele>384</ele>
        <time>2009-10-02T19:09:02Z</time>
      </trkpt>
      <trkpt lat="43.92807" lon="5.2233">
        <ele>383</ele>
        <time>2009-10-02T19:09:02Z</time>
      </trkpt>
      <trkpt lat="43.92807" lon="5.22324">
        <ele>380</ele>
        <time>2009-10-02T19:09:02Z</time>
      </trkpt>
      <trkpt lat="43.92812" lon="5.22324">
        <ele>380</ele>
        <time>2009-10-02T19:09:02Z</time>
      </trkpt>
      <trkpt lat="43.92816" lon="5.22318">
        <ele>376</ele>
        <time>2009-10-02T19:09:02Z</time>
      </trkpt>
      <trkpt lat="43.92816" lon="5.22312">
        <ele>374</ele>
        <time>2009-10-02T19:09:02Z</time>
      </trkpt>
      <trkpt lat="43.92821" lon="5.22312">
        <ele>373</ele>
        <time>2009-10-02T19:09:02Z</time>
      </trkpt>
      <trkpt lat="43.92821" lon="5.22306">
        <ele>370</ele>
        <time>2009-10-02T19:09:02Z</time>
      </trkpt>
      <trkpt lat="43.92826" lon="5.22306">
        <ele>369</ele>
        <time>2009-10-02T19:09:02Z</time>
      </trkpt>
      <trkpt lat="43.92826" lon="5.223">
        <ele>367</ele>
        <time>2009-10-02T19:09:02Z</time>
      </trkpt>
      <trkpt lat="43.92826" lon="5.22294">
        <ele>364</ele>
        <time>2009-10-02T19:09:02Z</time>
      </trkpt>
      <trkpt lat="43.92826" lon="5.22288">
        <ele>361</ele>
        <time>2009-10-02T19:09:02Z</time>
      </trkpt>
      <trkpt lat="43.92831" lon="5.22282">
        <ele>357</ele>
        <time>2009-10-02T19:09:02Z</time>
      </trkpt>
      <trkpt lat="43.92831" lon="5.22269">
        <ele>352</ele>
        <time>2009-10-02T19:09:02Z</time>
      </trkpt>
      <trkpt lat="43.92836" lon="5.22263">
        <ele>349</ele>
        <time>2009-10-02T19:09:02Z</time>
      </trkpt>
      <trkpt lat="43.92836" lon="5.22251">
        <ele>344</ele>
        <time>2009-10-02T19:09:02Z</time>
      </trkpt>
      <trkpt lat="43.92841" lon="5.22251">
        <ele>344</ele>
        <time>2009-10-02T19:09:02Z</time>
      </trkpt>
      <trkpt lat="43.92845" lon="5.22251">
        <ele>344</ele>
        <time>2009-10-02T19:09:02Z</time>
      </trkpt>
      <trkpt lat="43.92845" lon="5.22258">
        <ele>346</ele>
        <time>2009-10-02T19:09:02Z</time>
      </trkpt>
      <trkpt lat="43.92849" lon="5.22258">
        <ele>347</ele>
        <time>2009-10-02T19:09:02Z</time>
      </trkpt>
      <trkpt lat="43.92849" lon="5.22264">
        <ele>349</ele>
        <time>2009-10-02T19:09:02Z</time>
      </trkpt>
      <trkpt lat="43.92854" lon="5.22264">
        <ele>350</ele>
        <time>2009-10-02T19:09:02Z</time>
      </trkpt>
      <trkpt lat="43.92854" lon="5.22271">
        <ele>352</ele>
        <time>2009-10-02T19:09:02Z</time>
      </trkpt>
      <trkpt lat="43.92854" lon="5.22264">
        <ele>350</ele>
        <time>2009-10-02T19:09:02Z</time>
      </trkpt>
      <trkpt lat="43.92849" lon="5.2227">
        <ele>351</ele>
        <time>2009-10-02T19:09:02Z</time>
      </trkpt>
      <trkpt lat="43.92854" lon="5.22271">
        <ele>352</ele>
        <time>2009-10-02T19:09:02Z</time>
      </trkpt>
      <trkpt lat="43.92858" lon="5.22271">
        <ele>353</ele>
        <time>2009-10-02T19:09:02Z</time>
      </trkpt>
      <trkpt lat="43.92863" lon="5.22271">
        <ele>354</ele>
        <time>2009-10-02T19:09:02Z</time>
      </trkpt>
      <trkpt lat="43.92867" lon="5.22271">
        <ele>355</ele>
        <time>2009-10-02T19:09:02Z</time>
      </trkpt>
      <trkpt lat="43.92871" lon="5.22271">
        <ele>356</ele>
        <time>2009-10-02T19:09:02Z</time>
      </trkpt>
      <trkpt lat="43.92872" lon="5.22265">
        <ele>354</ele>
        <time>2009-10-02T19:09:02Z</time>
      </trkpt>
      <trkpt lat="43.92876" lon="5.22265">
        <ele>355</ele>
        <time>2009-10-02T19:09:02Z</time>
      </trkpt>
      <trkpt lat="43.92876" lon="5.22259">
        <ele>353</ele>
        <time>2009-10-02T19:09:02Z</time>
      </trkpt>
      <trkpt lat="43.92881" lon="5.22259">
        <ele>354</ele>
        <time>2009-10-02T19:09:02Z</time>
      </trkpt>
      <trkpt lat="43.92881" lon="5.22253">
        <ele>352</ele>
        <time>2009-10-02T19:09:02Z</time>
      </trkpt>
      <trkpt lat="43.92885" lon="5.22253">
        <ele>353</ele>
        <time>2009-10-02T19:09:02Z</time>
      </trkpt>
      <trkpt lat="43.92886" lon="5.22247">
        <ele>351</ele>
        <time>2009-10-02T19:09:02Z</time>
      </trkpt>
      <trkpt lat="43.9289" lon="5.22248">
        <ele>352</ele>
        <time>2009-10-02T19:09:02Z</time>
      </trkpt>
      <trkpt lat="43.9289" lon="5.22241">
        <ele>350</ele>
        <time>2009-10-02T19:09:02Z</time>
      </trkpt>
      <trkpt lat="43.92895" lon="5.22242">
        <ele>351</ele>
        <time>2009-10-02T19:09:02Z</time>
      </trkpt>
      <trkpt lat="43.92895" lon="5.22235">
        <ele>349</ele>
        <time>2009-10-02T19:09:02Z</time>
      </trkpt>
      <trkpt lat="43.92899" lon="5.22236">
        <ele>351</ele>
        <time>2009-10-02T19:09:02Z</time>
      </trkpt>
      <trkpt lat="43.92904" lon="5.2223">
        <ele>350</ele>
        <time>2009-10-02T19:09:02Z</time>
      </trkpt>
      <trkpt lat="43.92909" lon="5.2223">
        <ele>351</ele>
        <time>2009-10-02T19:09:02Z</time>
      </trkpt>
      <trkpt lat="43.92913" lon="5.2223">
        <ele>352</ele>
        <time>2009-10-02T19:09:02Z</time>
      </trkpt>
      <trkpt lat="43.92918" lon="5.2223">
        <ele>354</ele>
        <time>2009-10-02T19:09:02Z</time>
      </trkpt>
      <trkpt lat="43.92922" lon="5.2223">
        <ele>355</ele>
        <time>2009-10-02T19:09:02Z</time>
      </trkpt>
      <trkpt lat="43.92927" lon="5.22231">
        <ele>356</ele>
        <time>2009-10-02T19:09:02Z</time>
      </trkpt>
      <trkpt lat="43.92926" lon="5.22237">
        <ele>358</ele>
        <time>2009-10-02T19:09:02Z</time>
      </trkpt>
      <trkpt lat="43.92931" lon="5.22237">
        <ele>360</ele>
        <time>2009-10-02T19:09:02Z</time>
      </trkpt>
      <trkpt lat="43.92935" lon="5.22237">
        <ele>360</ele>
        <time>2009-10-02T19:09:02Z</time>
      </trkpt>
      <trkpt lat="43.9294" lon="5.22238">
        <ele>360</ele>
        <time>2009-10-02T19:09:02Z</time>
      </trkpt>
      <trkpt lat="43.92944" lon="5.22238">
        <ele>360</ele>
        <time>2009-10-02T19:09:02Z</time>
      </trkpt>
      <trkpt lat="43.92944" lon="5.22244">
        <ele>363</ele>
        <time>2009-10-02T19:09:02Z</time>
      </trkpt>
      <trkpt lat="43.92949" lon="5.22244">
        <ele>363</ele>
        <time>2009-10-02T19:09:02Z</time>
      </trkpt>
      <trkpt lat="43.92949" lon="5.2225">
        <ele>365</ele>
        <time>2009-10-02T19:09:02Z</time>
      </trkpt>
      <trkpt lat="43.92953" lon="5.22251">
        <ele>365</ele>
        <time>2009-10-02T19:09:02Z</time>
      </trkpt>
      <trkpt lat="43.92953" lon="5.22257">
        <ele>367</ele>
        <time>2009-10-02T19:09:02Z</time>
      </trkpt>
      <trkpt lat="43.92957" lon="5.22257">
        <ele>367</ele>
        <time>2009-10-02T19:09:02Z</time>
      </trkpt>
      <trkpt lat="43.92957" lon="5.22263">
        <ele>369</ele>
        <time>2009-10-02T19:09:02Z</time>
      </trkpt>
      <trkpt lat="43.92962" lon="5.2227">
        <ele>371</ele>
        <time>2009-10-02T19:09:02Z</time>
      </trkpt>
      <trkpt lat="43.92961" lon="5.22276">
        <ele>374</ele>
        <time>2009-10-02T19:09:02Z</time>
      </trkpt>
      <trkpt lat="43.92966" lon="5.22276">
        <ele>374</ele>
        <time>2009-10-02T19:09:02Z</time>
      </trkpt>
      <trkpt lat="43.92966" lon="5.22282">
        <ele>376</ele>
        <time>2009-10-02T19:09:02Z</time>
      </trkpt>
      <trkpt lat="43.9297" lon="5.22289">
        <ele>379</ele>
        <time>2009-10-02T19:09:02Z</time>
      </trkpt>
      <trkpt lat="43.92974" lon="5.22295">
        <ele>382</ele>
        <time>2009-10-02T19:09:02Z</time>
      </trkpt>
      <trkpt lat="43.92979" lon="5.22296">
        <ele>381</ele>
        <time>2009-10-02T19:09:02Z</time>
      </trkpt>
      <trkpt lat="43.92979" lon="5.22302">
        <ele>384</ele>
        <time>2009-10-02T19:09:02Z</time>
      </trkpt>
      <trkpt lat="43.92983" lon="5.22302">
        <ele>384</ele>
        <time>2009-10-02T19:09:02Z</time>
      </trkpt>
      <trkpt lat="43.92983" lon="5.22308">
        <ele>386</ele>
        <time>2009-10-02T19:09:02Z</time>
      </trkpt>
      <trkpt lat="43.92987" lon="5.22308">
        <ele>386</ele>
        <time>2009-10-02T19:09:02Z</time>
      </trkpt>
      <trkpt lat="43.92992" lon="5.22309">
        <ele>385</ele>
        <time>2009-10-02T19:09:02Z</time>
      </trkpt>
      <trkpt lat="43.92996" lon="5.22309">
        <ele>384</ele>
        <time>2009-10-02T19:09:02Z</time>
      </trkpt>
      <trkpt lat="43.93001" lon="5.22309">
        <ele>383</ele>
        <time>2009-10-02T19:09:02Z</time>
      </trkpt>
      <trkpt lat="43.93005" lon="5.22309">
        <ele>382</ele>
        <time>2009-10-02T19:09:02Z</time>
      </trkpt>
      <trkpt lat="43.9301" lon="5.2231">
        <ele>381</ele>
        <time>2009-10-02T19:09:02Z</time>
      </trkpt>
      <trkpt lat="43.93014" lon="5.2231">
        <ele>381</ele>
        <time>2009-10-02T19:09:02Z</time>
      </trkpt>
      <trkpt lat="43.93019" lon="5.2231">
        <ele>380</ele>
        <time>2009-10-02T19:09:02Z</time>
      </trkpt>
      <trkpt lat="43.93023" lon="5.2231">
        <ele>379</ele>
        <time>2009-10-02T19:09:02Z</time>
      </trkpt>
      <trkpt lat="43.93028" lon="5.22311">
        <ele>380</ele>
        <time>2009-10-02T19:09:02Z</time>
      </trkpt>
      <trkpt lat="43.93032" lon="5.22311">
        <ele>380</ele>
        <time>2009-10-02T19:09:02Z</time>
      </trkpt>
      <trkpt lat="43.93033" lon="5.22305">
        <ele>377</ele>
        <time>2009-10-02T19:09:02Z</time>
      </trkpt>
      <trkpt lat="43.93037" lon="5.22305">
        <ele>377</ele>
        <time>2009-10-02T19:09:02Z</time>
      </trkpt>
      <trkpt lat="43.93037" lon="5.22299">
        <ele>374</ele>
        <time>2009-10-02T19:09:02Z</time>
      </trkpt>
      <trkpt lat="43.93037" lon="5.22292">
        <ele>370</ele>
        <time>2009-10-02T19:09:02Z</time>
      </trkpt>
      <trkpt lat="43.93042" lon="5.22293">
        <ele>371</ele>
        <time>2009-10-02T19:09:02Z</time>
      </trkpt>
      <trkpt lat="43.93042" lon="5.22286">
        <ele>367</ele>
        <time>2009-10-02T19:09:02Z</time>
      </trkpt>
      <trkpt lat="43.93047" lon="5.22287">
        <ele>368</ele>
        <time>2009-10-02T19:09:02Z</time>
      </trkpt>
      <trkpt lat="43.93051" lon="5.22281">
        <ele>366</ele>
        <time>2009-10-02T19:09:02Z</time>
      </trkpt>
      <trkpt lat="43.93051" lon="5.22274">
        <ele>365</ele>
        <time>2009-10-02T19:09:02Z</time>
      </trkpt>
      <trkpt lat="43.93056" lon="5.22275">
        <ele>365</ele>
        <time>2009-10-02T19:09:02Z</time>
      </trkpt>
      <trkpt lat="43.93056" lon="5.22268">
        <ele>364</ele>
        <time>2009-10-02T19:09:02Z</time>
      </trkpt>
      <trkpt lat="43.9306" lon="5.22269">
        <ele>364</ele>
        <time>2009-10-02T19:09:02Z</time>
      </trkpt>
      <trkpt lat="43.93061" lon="5.22262">
        <ele>363</ele>
        <time>2009-10-02T19:09:02Z</time>
      </trkpt>
      <trkpt lat="43.93065" lon="5.22263">
        <ele>363</ele>
        <time>2009-10-02T19:09:02Z</time>
      </trkpt>
      <trkpt lat="43.93065" lon="5.22256">
        <ele>362</ele>
        <time>2009-10-02T19:09:02Z</time>
      </trkpt>
      <trkpt lat="43.93065" lon="5.2225">
        <ele>360</ele>
        <time>2009-10-02T19:09:02Z</time>
      </trkpt>
      <trkpt lat="43.9307" lon="5.2225">
        <ele>361</ele>
        <time>2009-10-02T19:09:02Z</time>
      </trkpt>
      <trkpt lat="43.9307" lon="5.22244">
        <ele>360</ele>
        <time>2009-10-02T19:09:02Z</time>
      </trkpt>
      <trkpt lat="43.93075" lon="5.22244">
        <ele>361</ele>
        <time>2009-10-02T19:09:02Z</time>
      </trkpt>
      <trkpt lat="43.93075" lon="5.22238">
        <ele>360</ele>
        <time>2009-10-02T19:09:02Z</time>
      </trkpt>
      <trkpt lat="43.93075" lon="5.22232">
        <ele>358</ele>
        <time>2009-10-02T19:09:02Z</time>
      </trkpt>
      <trkpt lat="43.93079" lon="5.22232">
        <ele>360</ele>
        <time>2009-10-02T19:09:02Z</time>
      </trkpt>
      <trkpt lat="43.9308" lon="5.22226">
        <ele>358</ele>
        <time>2009-10-02T19:09:02Z</time>
      </trkpt>
      <trkpt lat="43.93084" lon="5.22226">
        <ele>359</ele>
        <time>2009-10-02T19:09:02Z</time>
      </trkpt>
      <trkpt lat="43.93084" lon="5.2222">
        <ele>359</ele>
        <time>2009-10-02T19:09:02Z</time>
      </trkpt>
      <trkpt lat="43.93089" lon="5.2222">
        <ele>360</ele>
        <time>2009-10-02T19:09:02Z</time>
      </trkpt>
      <trkpt lat="43.93089" lon="5.22214">
        <ele>360</ele>
        <time>2009-10-02T19:09:02Z</time>
      </trkpt>
      <trkpt lat="43.93089" lon="5.22208">
        <ele>360</ele>
        <time>2009-10-02T19:09:02Z</time>
      </trkpt>
      <trkpt lat="43.93089" lon="5.22202">
        <ele>360</ele>
        <time>2009-10-02T19:09:02Z</time>
      </trkpt>
      <trkpt lat="43.93089" lon="5.22195">
        <ele>361</ele>
        <time>2009-10-02T19:09:02Z</time>
      </trkpt>
      <trkpt lat="43.9309" lon="5.22189">
        <ele>361</ele>
        <time>2009-10-02T19:09:02Z</time>
      </trkpt>
      <trkpt lat="43.9309" lon="5.22183">
        <ele>361</ele>
        <time>2009-10-02T19:09:02Z</time>
      </trkpt>
      <trkpt lat="43.9309" lon="5.22177">
        <ele>361</ele>
        <time>2009-10-02T19:09:02Z</time>
      </trkpt>
      <trkpt lat="43.9309" lon="5.22171">
        <ele>361</ele>
        <time>2009-10-02T19:09:02Z</time>
      </trkpt>
      <trkpt lat="43.9309" lon="5.22164">
        <ele>361</ele>
        <time>2009-10-02T19:09:02Z</time>
      </trkpt>
      <trkpt lat="43.9309" lon="5.22158">
        <ele>361</ele>
        <time>2009-10-02T19:09:02Z</time>
      </trkpt>
      <trkpt lat="43.93091" lon="5.22152">
        <ele>361</ele>
        <time>2009-10-02T19:09:02Z</time>
      </trkpt>
      <trkpt lat="43.93091" lon="5.22146">
        <ele>361</ele>
        <time>2009-10-02T19:09:02Z</time>
      </trkpt>
      <trkpt lat="43.93091" lon="5.22139">
        <ele>361</ele>
        <time>2009-10-02T19:09:02Z</time>
      </trkpt>
      <trkpt lat="43.93091" lon="5.22133">
        <ele>361</ele>
        <time>2009-10-02T19:09:02Z</time>
      </trkpt>
      <trkpt lat="43.93091" lon="5.22127">
        <ele>361</ele>
        <time>2009-10-02T19:09:02Z</time>
      </trkpt>
      <trkpt lat="43.93091" lon="5.22121">
        <ele>361</ele>
        <time>2009-10-02T19:09:02Z</time>
      </trkpt>
      <trkpt lat="43.93096" lon="5.22121">
        <ele>362</ele>
        <time>2009-10-02T19:09:02Z</time>
      </trkpt>
      <trkpt lat="43.93096" lon="5.22115">
        <ele>362</ele>
        <time>2009-10-02T19:09:02Z</time>
      </trkpt>
      <trkpt lat="43.93101" lon="5.22115">
        <ele>363</ele>
        <time>2009-10-02T19:09:02Z</time>
      </trkpt>
      <trkpt lat="43.93101" lon="5.22109">
        <ele>363</ele>
        <time>2009-10-02T19:09:02Z</time>
      </trkpt>
      <trkpt lat="43.93101" lon="5.22103">
        <ele>363</ele>
        <time>2009-10-02T19:09:02Z</time>
      </trkpt>
      <trkpt lat="43.93105" lon="5.22103">
        <ele>363</ele>
        <time>2009-10-02T19:09:02Z</time>
      </trkpt>
      <trkpt lat="43.9311" lon="5.22097">
        <ele>363</ele>
        <time>2009-10-02T19:09:02Z</time>
      </trkpt>
      <trkpt lat="43.9311" lon="5.22091">
        <ele>363</ele>
        <time>2009-10-02T19:09:02Z</time>
      </trkpt>
      <trkpt lat="43.93115" lon="5.22091">
        <ele>363</ele>
        <time>2009-10-02T19:09:02Z</time>
      </trkpt>
      <trkpt lat="43.93115" lon="5.22085">
        <ele>363</ele>
        <time>2009-10-02T19:09:02Z</time>
      </trkpt>
      <trkpt lat="43.93119" lon="5.22085">
        <ele>362</ele>
        <time>2009-10-02T19:09:02Z</time>
      </trkpt>
      <trkpt lat="43.93124" lon="5.22085">
        <ele>362</ele>
        <time>2009-10-02T19:09:02Z</time>
      </trkpt>
      <trkpt lat="43.93128" lon="5.22085">
        <ele>362</ele>
        <time>2009-10-02T19:09:02Z</time>
      </trkpt>
      <trkpt lat="43.93133" lon="5.22086">
        <ele>361</ele>
        <time>2009-10-02T19:09:02Z</time>
      </trkpt>
      <trkpt lat="43.93137" lon="5.22086">
        <ele>361</ele>
        <time>2009-10-02T19:09:02Z</time>
      </trkpt>
      <trkpt lat="43.93137" lon="5.22092">
        <ele>361</ele>
        <time>2009-10-02T19:09:02Z</time>
      </trkpt>
      <trkpt lat="43.93142" lon="5.22092">
        <ele>361</ele>
        <time>2009-10-02T19:09:02Z</time>
      </trkpt>
      <trkpt lat="43.93141" lon="5.22098">
        <ele>361</ele>
        <time>2009-10-02T19:09:02Z</time>
      </trkpt>
      <trkpt lat="43.93146" lon="5.22099">
        <ele>360</ele>
        <time>2009-10-02T19:09:02Z</time>
      </trkpt>
      <trkpt lat="43.93146" lon="5.22105">
        <ele>361</ele>
        <time>2009-10-02T19:09:02Z</time>
      </trkpt>
      <trkpt lat="43.9315" lon="5.22105">
        <ele>360</ele>
        <time>2009-10-02T19:09:02Z</time>
      </trkpt>
      <trkpt lat="43.9315" lon="5.22111">
        <ele>361</ele>
        <time>2009-10-02T19:09:02Z</time>
      </trkpt>
      <trkpt lat="43.9315" lon="5.22118">
        <ele>362</ele>
        <time>2009-10-02T19:09:02Z</time>
      </trkpt>
      <trkpt lat="43.93154" lon="5.22118">
        <ele>362</ele>
        <time>2009-10-02T19:09:02Z</time>
      </trkpt>
      <trkpt lat="43.93159" lon="5.22124">
        <ele>363</ele>
        <time>2009-10-02T19:09:02Z</time>
      </trkpt>
      <trkpt lat="43.93159" lon="5.2213">
        <ele>365</ele>
        <time>2009-10-02T19:09:02Z</time>
      </trkpt>
      <trkpt lat="43.93163" lon="5.22131">
        <ele>365</ele>
        <time>2009-10-02T19:09:02Z</time>
      </trkpt>
      <trkpt lat="43.93163" lon="5.22137">
        <ele>367</ele>
        <time>2009-10-02T19:09:02Z</time>
      </trkpt>
      <trkpt lat="43.93167" lon="5.22137">
        <ele>367</ele>
        <time>2009-10-02T19:09:02Z</time>
      </trkpt>
      <trkpt lat="43.93172" lon="5.22144">
        <ele>370</ele>
        <time>2009-10-02T19:09:02Z</time>
      </trkpt>
      <trkpt lat="43.93176" lon="5.2215">
        <ele>373</ele>
        <time>2009-10-02T19:09:02Z</time>
      </trkpt>
      <trkpt lat="43.93181" lon="5.2215">
        <ele>373</ele>
        <time>2009-10-02T19:09:02Z</time>
      </trkpt>
      <trkpt lat="43.9318" lon="5.22156">
        <ele>375</ele>
        <time>2009-10-02T19:09:02Z</time>
      </trkpt>
      <trkpt lat="43.93185" lon="5.22157">
        <ele>376</ele>
        <time>2009-10-02T19:09:02Z</time>
      </trkpt>
      <trkpt lat="43.93189" lon="5.22157">
        <ele>377</ele>
        <time>2009-10-02T19:09:02Z</time>
      </trkpt>
      <trkpt lat="43.93194" lon="5.22157">
        <ele>378</ele>
        <time>2009-10-02T19:09:02Z</time>
      </trkpt>
      <trkpt lat="43.93198" lon="5.22157">
        <ele>379</ele>
        <time>2009-10-02T19:09:02Z</time>
      </trkpt>
      <trkpt lat="43.93203" lon="5.22158">
        <ele>379</ele>
        <time>2009-10-02T19:09:02Z</time>
      </trkpt>
      <trkpt lat="43.93207" lon="5.22158">
        <ele>381</ele>
        <time>2009-10-02T19:09:02Z</time>
      </trkpt>
      <trkpt lat="43.93212" lon="5.22158">
        <ele>383</ele>
        <time>2009-10-02T19:09:02Z</time>
      </trkpt>
      <trkpt lat="43.93216" lon="5.22158">
        <ele>384</ele>
        <time>2009-10-02T19:09:02Z</time>
      </trkpt>
      <trkpt lat="43.93221" lon="5.22159">
        <ele>386</ele>
        <time>2009-10-02T19:09:02Z</time>
      </trkpt>
      <trkpt lat="43.93225" lon="5.22159">
        <ele>388</ele>
        <time>2009-10-02T19:09:02Z</time>
      </trkpt>
      <trkpt lat="43.9323" lon="5.22159">
        <ele>390</ele>
        <time>2009-10-02T19:09:02Z</time>
      </trkpt>
      <trkpt lat="43.93234" lon="5.22159">
        <ele>392</ele>
        <time>2009-10-02T19:09:02Z</time>
      </trkpt>
      <trkpt lat="43.93239" lon="5.22159">
        <ele>394</ele>
        <time>2009-10-02T19:09:02Z</time>
      </trkpt>
      <trkpt lat="43.93243" lon="5.2216">
        <ele>396</ele>
        <time>2009-10-02T19:09:02Z</time>
      </trkpt>
      <trkpt lat="43.93248" lon="5.2216">
        <ele>398</ele>
        <time>2009-10-02T19:09:02Z</time>
      </trkpt>
      <trkpt lat="43.93252" lon="5.2216">
        <ele>399</ele>
        <time>2009-10-02T19:09:02Z</time>
      </trkpt>
      <trkpt lat="43.93257" lon="5.2216">
        <ele>399</ele>
        <time>2009-10-02T19:09:02Z</time>
      </trkpt>
      <trkpt lat="43.93261" lon="5.22161">
        <ele>400</ele>
        <time>2009-10-02T19:09:02Z</time>
      </trkpt>
      <trkpt lat="43.93266" lon="5.22161">
        <ele>400</ele>
        <time>2009-10-02T19:09:02Z</time>
      </trkpt>
      <trkpt lat="43.9327" lon="5.22161">
        <ele>401</ele>
        <time>2009-10-02T19:09:02Z</time>
      </trkpt>
      <trkpt lat="43.93275" lon="5.22161">
        <ele>401</ele>
        <time>2009-10-02T19:09:02Z</time>
      </trkpt>
      <trkpt lat="43.93279" lon="5.22161">
        <ele>402</ele>
        <time>2009-10-02T19:09:02Z</time>
      </trkpt>
      <trkpt lat="43.93284" lon="5.22162">
        <ele>402</ele>
        <time>2009-10-02T19:09:02Z</time>
      </trkpt>
      <trkpt lat="43.93288" lon="5.22162">
        <ele>403</ele>
        <time>2009-10-02T19:09:02Z</time>
      </trkpt>
      <trkpt lat="43.93293" lon="5.22162">
        <ele>403</ele>
        <time>2009-10-02T19:09:02Z</time>
      </trkpt>
      <trkpt lat="43.93297" lon="5.22162">
        <ele>403</ele>
        <time>2009-10-02T19:09:02Z</time>
      </trkpt>
      <trkpt lat="43.93302" lon="5.22163">
        <ele>401</ele>
        <time>2009-10-02T19:09:02Z</time>
      </trkpt>
      <trkpt lat="43.93306" lon="5.22169">
        <ele>402</ele>
        <time>2009-10-02T19:09:02Z</time>
      </trkpt>
      <trkpt lat="43.93311" lon="5.22169">
        <ele>400</ele>
        <time>2009-10-02T19:09:02Z</time>
      </trkpt>
      <trkpt lat="43.9331" lon="5.22176">
        <ele>403</ele>
        <time>2009-10-02T19:09:02Z</time>
      </trkpt>
      <trkpt lat="43.93315" lon="5.22176">
        <ele>401</ele>
        <time>2009-10-02T19:09:02Z</time>
      </trkpt>
      <trkpt lat="43.93319" lon="5.22176">
        <ele>400</ele>
        <time>2009-10-02T19:09:02Z</time>
      </trkpt>
      <trkpt lat="43.93324" lon="5.22176">
        <ele>398</ele>
        <time>2009-10-02T19:09:02Z</time>
      </trkpt>
      <trkpt lat="43.93328" lon="5.22176">
        <ele>396</ele>
        <time>2009-10-02T19:09:02Z</time>
      </trkpt>
      <trkpt lat="43.93333" lon="5.22177">
        <ele>395</ele>
        <time>2009-10-02T19:09:02Z</time>
      </trkpt>
      <trkpt lat="43.93337" lon="5.22177">
        <ele>393</ele>
        <time>2009-10-02T19:09:02Z</time>
      </trkpt>
      <trkpt lat="43.93342" lon="5.22177">
        <ele>392</ele>
        <time>2009-10-02T19:09:02Z</time>
      </trkpt>
      <trkpt lat="43.93346" lon="5.22177">
        <ele>392</ele>
        <time>2009-10-02T19:09:02Z</time>
      </trkpt>
      <trkpt lat="43.93351" lon="5.22178">
        <ele>392</ele>
        <time>2009-10-02T19:09:02Z</time>
      </trkpt>
      <trkpt lat="43.93355" lon="5.22178">
        <ele>392</ele>
        <time>2009-10-02T19:09:02Z</time>
      </trkpt>
      <trkpt lat="43.9336" lon="5.22178">
        <ele>392</ele>
        <time>2009-10-02T19:09:02Z</time>
      </trkpt>
      <trkpt lat="43.93364" lon="5.22178">
        <ele>392</ele>
        <time>2009-10-02T19:09:02Z</time>
      </trkpt>
      <trkpt lat="43.93369" lon="5.22178">
        <ele>392</ele>
        <time>2009-10-02T19:09:02Z</time>
      </trkpt>
      <trkpt lat="43.93373" lon="5.22179">
        <ele>392</ele>
        <time>2009-10-02T19:09:02Z</time>
      </trkpt>
      <trkpt lat="43.93378" lon="5.22179">
        <ele>392</ele>
        <time>2009-10-02T19:09:02Z</time>
      </trkpt>
      <trkpt lat="43.93382" lon="5.22179">
        <ele>392</ele>
        <time>2009-10-02T19:09:02Z</time>
      </trkpt>
      <trkpt lat="43.93387" lon="5.22179">
        <ele>393</ele>
        <time>2009-10-02T19:09:02Z</time>
      </trkpt>
      <trkpt lat="43.93391" lon="5.2218">
        <ele>394</ele>
        <time>2009-10-02T19:09:02Z</time>
      </trkpt>
      <trkpt lat="43.93396" lon="5.2218">
        <ele>395</ele>
        <time>2009-10-02T19:09:02Z</time>
      </trkpt>
      <trkpt lat="43.934" lon="5.2218">
        <ele>396</ele>
        <time>2009-10-02T19:09:02Z</time>
      </trkpt>
      <trkpt lat="43.93405" lon="5.2218">
        <ele>397</ele>
        <time>2009-10-02T19:09:02Z</time>
      </trkpt>
      <trkpt lat="43.93405" lon="5.22174">
        <ele>394</ele>
        <time>2009-10-02T19:09:02Z</time>
      </trkpt>
      <trkpt lat="43.93409" lon="5.22174">
        <ele>395</ele>
        <time>2009-10-02T19:09:02Z</time>
      </trkpt>
      <trkpt lat="43.93414" lon="5.22175">
        <ele>396</ele>
        <time>2009-10-02T19:09:02Z</time>
      </trkpt>
      <trkpt lat="43.93418" lon="5.22175">
        <ele>397</ele>
        <time>2009-10-02T19:09:02Z</time>
      </trkpt>
      <trkpt lat="43.93423" lon="5.22175">
        <ele>398</ele>
        <time>2009-10-02T19:09:02Z</time>
      </trkpt>
      <trkpt lat="43.93427" lon="5.22175">
        <ele>399</ele>
        <time>2009-10-02T19:09:02Z</time>
      </trkpt>
      <trkpt lat="43.93432" lon="5.22175">
        <ele>400</ele>
        <time>2009-10-02T19:09:02Z</time>
      </trkpt>
      <trkpt lat="43.93436" lon="5.22176">
        <ele>401</ele>
        <time>2009-10-02T19:09:02Z</time>
      </trkpt>
      <trkpt lat="43.93441" lon="5.22176">
        <ele>402</ele>
        <time>2009-10-02T19:09:02Z</time>
      </trkpt>
      <trkpt lat="43.93445" lon="5.22176">
        <ele>404</ele>
        <time>2009-10-02T19:09:02Z</time>
      </trkpt>
      <trkpt lat="43.9345" lon="5.22176">
        <ele>405</ele>
        <time>2009-10-02T19:09:02Z</time>
      </trkpt>
      <trkpt lat="43.93454" lon="5.22177">
        <ele>406</ele>
        <time>2009-10-02T19:09:02Z</time>
      </trkpt>
      <trkpt lat="43.93459" lon="5.22177">
        <ele>407</ele>
        <time>2009-10-02T19:09:02Z</time>
      </trkpt>
      <trkpt lat="43.93463" lon="5.22177">
        <ele>408</ele>
        <time>2009-10-02T19:09:02Z</time>
      </trkpt>
      <trkpt lat="43.93468" lon="5.22177">
        <ele>409</ele>
        <time>2009-10-02T19:09:02Z</time>
      </trkpt>
      <trkpt lat="43.93472" lon="5.22178">
        <ele>410</ele>
        <time>2009-10-02T19:09:02Z</time>
      </trkpt>
      <trkpt lat="43.93477" lon="5.22178">
        <ele>411</ele>
        <time>2009-10-02T19:09:02Z</time>
      </trkpt>
      <trkpt lat="43.93477" lon="5.22172">
        <ele>408</ele>
        <time>2009-10-02T19:09:02Z</time>
      </trkpt>
      <trkpt lat="43.93481" lon="5.22172">
        <ele>409</ele>
        <time>2009-10-02T19:09:02Z</time>
      </trkpt>
      <trkpt lat="43.93486" lon="5.22172">
        <ele>410</ele>
        <time>2009-10-02T19:09:02Z</time>
      </trkpt>
      <trkpt lat="43.9349" lon="5.22172">
        <ele>411</ele>
        <time>2009-10-02T19:09:02Z</time>
      </trkpt>
      <trkpt lat="43.93495" lon="5.22172">
        <ele>412</ele>
        <time>2009-10-02T19:09:02Z</time>
      </trkpt>
      <trkpt lat="43.93499" lon="5.22173">
        <ele>412</ele>
        <time>2009-10-02T19:09:02Z</time>
      </trkpt>
      <trkpt lat="43.93504" lon="5.22173">
        <ele>413</ele>
        <time>2009-10-02T19:09:02Z</time>
      </trkpt>
      <trkpt lat="43.93508" lon="5.22173">
        <ele>414</ele>
        <time>2009-10-02T19:09:02Z</time>
      </trkpt>
      <trkpt lat="43.93513" lon="5.22173">
        <ele>415</ele>
        <time>2009-10-02T19:09:02Z</time>
      </trkpt>
      <trkpt lat="43.93517" lon="5.22174">
        <ele>416</ele>
        <time>2009-10-02T19:09:02Z</time>
      </trkpt>
      <trkpt lat="43.93522" lon="5.22174">
        <ele>417</ele>
        <time>2009-10-02T19:09:02Z</time>
      </trkpt>
      <trkpt lat="43.93526" lon="5.22174">
        <ele>419</ele>
        <time>2009-10-02T19:09:02Z</time>
      </trkpt>
      <trkpt lat="43.93531" lon="5.22174">
        <ele>421</ele>
        <time>2009-10-02T19:09:02Z</time>
      </trkpt>
      <trkpt lat="43.93535" lon="5.22174">
        <ele>422</ele>
        <time>2009-10-02T19:09:02Z</time>
      </trkpt>
      <trkpt lat="43.9354" lon="5.22175">
        <ele>424</ele>
        <time>2009-10-02T19:09:02Z</time>
      </trkpt>
      <trkpt lat="43.93544" lon="5.22175">
        <ele>425</ele>
        <time>2009-10-02T19:09:02Z</time>
      </trkpt>
      <trkpt lat="43.93549" lon="5.22175">
        <ele>427</ele>
        <time>2009-10-02T19:09:02Z</time>
      </trkpt>
      <trkpt lat="43.93553" lon="5.22175">
        <ele>429</ele>
        <time>2009-10-02T19:09:02Z</time>
      </trkpt>
      <trkpt lat="43.93558" lon="5.22176">
        <ele>430</ele>
        <time>2009-10-02T19:09:02Z</time>
      </trkpt>
      <trkpt lat="43.93562" lon="5.2217">
        <ele>429</ele>
        <time>2009-10-02T19:09:02Z</time>
      </trkpt>
      <trkpt lat="43.93567" lon="5.22164">
        <ele>428</ele>
        <time>2009-10-02T19:09:02Z</time>
      </trkpt>
      <trkpt lat="43.93572" lon="5.22164">
        <ele>428</ele>
        <time>2009-10-02T19:09:02Z</time>
      </trkpt>
      <trkpt lat="43.93576" lon="5.22164">
        <ele>429</ele>
        <time>2009-10-02T19:09:02Z</time>
      </trkpt>
      <trkpt lat="43.93576" lon="5.22158">
        <ele>426</ele>
        <time>2009-10-02T19:09:02Z</time>
      </trkpt>
      <trkpt lat="43.93581" lon="5.22152">
        <ele>424</ele>
        <time>2009-10-02T19:09:02Z</time>
      </trkpt>
      <trkpt lat="43.93581" lon="5.22146">
        <ele>421</ele>
        <time>2009-10-02T19:09:02Z</time>
      </trkpt>
      <trkpt lat="43.93586" lon="5.22146">
        <ele>422</ele>
        <time>2009-10-02T19:09:02Z</time>
      </trkpt>
      <trkpt lat="43.93586" lon="5.2214">
        <ele>419</ele>
        <time>2009-10-02T19:09:02Z</time>
      </trkpt>
      <trkpt lat="43.9359" lon="5.2214">
        <ele>419</ele>
        <time>2009-10-02T19:09:02Z</time>
      </trkpt>
      <trkpt lat="43.93595" lon="5.2214">
        <ele>420</ele>
        <time>2009-10-02T19:09:02Z</time>
      </trkpt>
      <trkpt lat="43.93599" lon="5.2214">
        <ele>420</ele>
        <time>2009-10-02T19:09:02Z</time>
      </trkpt>
      <trkpt lat="43.93604" lon="5.22141">
        <ele>421</ele>
        <time>2009-10-02T19:09:02Z</time>
      </trkpt>
      <trkpt lat="43.93608" lon="5.22141">
        <ele>421</ele>
        <time>2009-10-02T19:09:02Z</time>
      </trkpt>
      <trkpt lat="43.93613" lon="5.22141">
        <ele>421</ele>
        <time>2009-10-02T19:09:02Z</time>
      </trkpt>
      <trkpt lat="43.93617" lon="5.22141">
        <ele>420</ele>
        <time>2009-10-02T19:09:02Z</time>
      </trkpt>
      <trkpt lat="43.93622" lon="5.22142">
        <ele>419</ele>
        <time>2009-10-02T19:09:02Z</time>
      </trkpt>
      <trkpt lat="43.93626" lon="5.22142">
        <ele>418</ele>
        <time>2009-10-02T19:09:02Z</time>
      </trkpt>
      <trkpt lat="43.93631" lon="5.22142">
        <ele>417</ele>
        <time>2009-10-02T19:09:02Z</time>
      </trkpt>
      <trkpt lat="43.93635" lon="5.22142">
        <ele>416</ele>
        <time>2009-10-02T19:09:02Z</time>
      </trkpt>
      <trkpt lat="43.9364" lon="5.22142">
        <ele>416</ele>
        <time>2009-10-02T19:09:02Z</time>
      </trkpt>
      <trkpt lat="43.93644" lon="5.22143">
        <ele>415</ele>
        <time>2009-10-02T19:09:02Z</time>
      </trkpt>
      <trkpt lat="43.93649" lon="5.22143">
        <ele>414</ele>
        <time>2009-10-02T19:09:02Z</time>
      </trkpt>
      <trkpt lat="43.93653" lon="5.22143">
        <ele>413</ele>
        <time>2009-10-02T19:09:02Z</time>
      </trkpt>
      <trkpt lat="43.93658" lon="5.22143">
        <ele>412</ele>
        <time>2009-10-02T19:09:02Z</time>
      </trkpt>
      <trkpt lat="43.93662" lon="5.22144">
        <ele>411</ele>
        <time>2009-10-02T19:09:02Z</time>
      </trkpt>
      <trkpt lat="43.93667" lon="5.22144">
        <ele>411</ele>
        <time>2009-10-02T19:09:02Z</time>
      </trkpt>
      <trkpt lat="43.93671" lon="5.22144">
        <ele>410</ele>
        <time>2009-10-02T19:09:02Z</time>
      </trkpt>
      <trkpt lat="43.93676" lon="5.22144">
        <ele>410</ele>
        <time>2009-10-02T19:09:02Z</time>
      </trkpt>
      <trkpt lat="43.9368" lon="5.22144">
        <ele>409</ele>
        <time>2009-10-02T19:09:02Z</time>
      </trkpt>
      <trkpt lat="43.93685" lon="5.22145">
        <ele>409</ele>
        <time>2009-10-02T19:09:02Z</time>
      </trkpt>
      <trkpt lat="43.93689" lon="5.22145">
        <ele>408</ele>
        <time>2009-10-02T19:09:02Z</time>
      </trkpt>
      <trkpt lat="43.93689" lon="5.22151">
        <ele>412</ele>
        <time>2009-10-02T19:09:02Z</time>
      </trkpt>
      <trkpt lat="43.93693" lon="5.22151">
        <ele>411</ele>
        <time>2009-10-02T19:09:02Z</time>
      </trkpt>
      <trkpt lat="43.93698" lon="5.22152">
        <ele>411</ele>
        <time>2009-10-02T19:09:02Z</time>
      </trkpt>
      <trkpt lat="43.93698" lon="5.22158">
        <ele>414</ele>
        <time>2009-10-02T19:09:02Z</time>
      </trkpt>
      <trkpt lat="43.93702" lon="5.22158">
        <ele>414</ele>
        <time>2009-10-02T19:09:02Z</time>
      </trkpt>
      <trkpt lat="43.93707" lon="5.22158">
        <ele>414</ele>
        <time>2009-10-02T19:09:02Z</time>
      </trkpt>
      <trkpt lat="43.93711" lon="5.22159">
        <ele>414</ele>
        <time>2009-10-02T19:09:02Z</time>
      </trkpt>
      <trkpt lat="43.93716" lon="5.22159">
        <ele>414</ele>
        <time>2009-10-02T19:09:02Z</time>
      </trkpt>
      <trkpt lat="43.9372" lon="5.22159">
        <ele>414</ele>
        <time>2009-10-02T19:09:02Z</time>
      </trkpt>
      <trkpt lat="43.93725" lon="5.22159">
        <ele>414</ele>
        <time>2009-10-02T19:09:02Z</time>
      </trkpt>
      <trkpt lat="43.93729" lon="5.22159">
        <ele>414</ele>
        <time>2009-10-02T19:09:02Z</time>
      </trkpt>
      <trkpt lat="43.93734" lon="5.2216">
        <ele>414</ele>
        <time>2009-10-02T19:09:02Z</time>
      </trkpt>
      <trkpt lat="43.93738" lon="5.2216">
        <ele>414</ele>
        <time>2009-10-02T19:09:02Z</time>
      </trkpt>
      <trkpt lat="43.93743" lon="5.2216">
        <ele>414</ele>
        <time>2009-10-02T19:09:02Z</time>
      </trkpt>
      <trkpt lat="43.93747" lon="5.2216">
        <ele>415</ele>
        <time>2009-10-02T19:09:02Z</time>
      </trkpt>
      <trkpt lat="43.93752" lon="5.22154">
        <ele>412</ele>
        <time>2009-10-02T19:09:02Z</time>
      </trkpt>
      <trkpt lat="43.93756" lon="5.22155">
        <ele>412</ele>
        <time>2009-10-02T19:09:02Z</time>
      </trkpt>
      <trkpt lat="43.93761" lon="5.22155">
        <ele>412</ele>
        <time>2009-10-02T19:09:02Z</time>
      </trkpt>
      <trkpt lat="43.93765" lon="5.22155">
        <ele>412</ele>
        <time>2009-10-02T19:09:02Z</time>
      </trkpt>
      <trkpt lat="43.93765" lon="5.22149">
        <ele>409</ele>
        <time>2009-10-02T19:09:02Z</time>
      </trkpt>
      <trkpt lat="43.9377" lon="5.22149">
        <ele>409</ele>
        <time>2009-10-02T19:09:02Z</time>
      </trkpt>
      <trkpt lat="43.93774" lon="5.22149">
        <ele>409</ele>
        <time>2009-10-02T19:09:02Z</time>
      </trkpt>
      <trkpt lat="43.93779" lon="5.2215">
        <ele>409</ele>
        <time>2009-10-02T19:09:02Z</time>
      </trkpt>
      <trkpt lat="43.93783" lon="5.2215">
        <ele>409</ele>
        <time>2009-10-02T19:09:02Z</time>
      </trkpt>
      <trkpt lat="43.93788" lon="5.2215">
        <ele>409</ele>
        <time>2009-10-02T19:09:02Z</time>
      </trkpt>
      <trkpt lat="43.93792" lon="5.2215">
        <ele>409</ele>
        <time>2009-10-02T19:09:02Z</time>
      </trkpt>
      <trkpt lat="43.93797" lon="5.2215">
        <ele>408</ele>
        <time>2009-10-02T19:09:02Z</time>
      </trkpt>
      <trkpt lat="43.93801" lon="5.22151">
        <ele>408</ele>
        <time>2009-10-02T19:09:02Z</time>
      </trkpt>
      <trkpt lat="43.93806" lon="5.22151">
        <ele>407</ele>
        <time>2009-10-02T19:09:02Z</time>
      </trkpt>
      <trkpt lat="43.9381" lon="5.22151">
        <ele>406</ele>
        <time>2009-10-02T19:09:02Z</time>
      </trkpt>
      <trkpt lat="43.93815" lon="5.22151">
        <ele>406</ele>
        <time>2009-10-02T19:09:02Z</time>
      </trkpt>
      <trkpt lat="43.93819" lon="5.22152">
        <ele>405</ele>
        <time>2009-10-02T19:09:02Z</time>
      </trkpt>
      <trkpt lat="43.93824" lon="5.22152">
        <ele>404</ele>
        <time>2009-10-02T19:09:02Z</time>
      </trkpt>
      <trkpt lat="43.93828" lon="5.22152">
        <ele>404</ele>
        <time>2009-10-02T19:09:02Z</time>
      </trkpt>
      <trkpt lat="43.93833" lon="5.22152">
        <ele>403</ele>
        <time>2009-10-02T19:09:02Z</time>
      </trkpt>
      <trkpt lat="43.93833" lon="5.22158">
        <ele>406</ele>
        <time>2009-10-02T19:09:02Z</time>
      </trkpt>
      <trkpt lat="43.93837" lon="5.22159">
        <ele>405</ele>
        <time>2009-10-02T19:09:02Z</time>
      </trkpt>
      <trkpt lat="43.93842" lon="5.22159">
        <ele>405</ele>
        <time>2009-10-02T19:09:02Z</time>
      </trkpt>
      <trkpt lat="43.93841" lon="5.22165">
        <ele>408</ele>
        <time>2009-10-02T19:09:02Z</time>
      </trkpt>
      <trkpt lat="43.93846" lon="5.22165">
        <ele>408</ele>
        <time>2009-10-02T19:09:02Z</time>
      </trkpt>
      <trkpt lat="43.9385" lon="5.22166">
        <ele>408</ele>
        <time>2009-10-02T19:09:02Z</time>
      </trkpt>
      <trkpt lat="43.93855" lon="5.22166">
        <ele>407</ele>
        <time>2009-10-02T19:09:02Z</time>
      </trkpt>
      <trkpt lat="43.93859" lon="5.22166">
        <ele>407</ele>
        <time>2009-10-02T19:09:02Z</time>
      </trkpt>
      <trkpt lat="43.93864" lon="5.22166">
        <ele>407</ele>
        <time>2009-10-02T19:09:02Z</time>
      </trkpt>
      <trkpt lat="43.93868" lon="5.22173">
        <ele>409</ele>
        <time>2009-10-02T19:09:02Z</time>
      </trkpt>
      <trkpt lat="43.93873" lon="5.22173">
        <ele>409</ele>
        <time>2009-10-02T19:09:02Z</time>
      </trkpt>
      <trkpt lat="43.93877" lon="5.22173">
        <ele>408</ele>
        <time>2009-10-02T19:09:02Z</time>
      </trkpt>
      <trkpt lat="43.93882" lon="5.22173">
        <ele>408</ele>
        <time>2009-10-02T19:09:02Z</time>
      </trkpt>
      <trkpt lat="43.93886" lon="5.22174">
        <ele>408</ele>
        <time>2009-10-02T19:09:02Z</time>
      </trkpt>
      <trkpt lat="43.9389" lon="5.2218">
        <ele>410</ele>
        <time>2009-10-02T19:09:02Z</time>
      </trkpt>
      <trkpt lat="43.93895" lon="5.2218">
        <ele>410</ele>
        <time>2009-10-02T19:09:02Z</time>
      </trkpt>
      <trkpt lat="43.93899" lon="5.22181">
        <ele>410</ele>
        <time>2009-10-02T19:09:02Z</time>
      </trkpt>
      <trkpt lat="43.93904" lon="5.22181">
        <ele>410</ele>
        <time>2009-10-02T19:09:02Z</time>
      </trkpt>
      <trkpt lat="43.93908" lon="5.22181">
        <ele>410</ele>
        <time>2009-10-02T19:09:02Z</time>
      </trkpt>
      <trkpt lat="43.93913" lon="5.22187">
        <ele>412</ele>
        <time>2009-10-02T19:09:02Z</time>
      </trkpt>
      <trkpt lat="43.93917" lon="5.22194">
        <ele>413</ele>
        <time>2009-10-02T19:09:02Z</time>
      </trkpt>
      <trkpt lat="43.93922" lon="5.22194">
        <ele>413</ele>
        <time>2009-10-02T19:09:02Z</time>
      </trkpt>
      <trkpt lat="43.93913" lon="5.22187">
        <ele>412</ele>
        <time>2009-10-02T19:09:02Z</time>
      </trkpt>
      <trkpt lat="43.93917" lon="5.22188">
        <ele>412</ele>
        <time>2009-10-02T19:09:02Z</time>
      </trkpt>
      <trkpt lat="43.93917" lon="5.22194">
        <ele>413</ele>
        <time>2009-10-02T19:09:02Z</time>
      </trkpt>
      <trkpt lat="43.93926" lon="5.22201">
        <ele>413</ele>
        <time>2009-10-02T19:09:02Z</time>
      </trkpt>
      <trkpt lat="43.93935" lon="5.22201">
        <ele>411</ele>
        <time>2009-10-02T19:09:02Z</time>
      </trkpt>
      <trkpt lat="43.93939" lon="5.22207">
        <ele>411</ele>
        <time>2009-10-02T19:09:02Z</time>
      </trkpt>
      <trkpt lat="43.93939" lon="5.22201">
        <ele>410</ele>
        <time>2009-10-02T19:09:02Z</time>
      </trkpt>
      <trkpt lat="43.93935" lon="5.22201">
        <ele>411</ele>
        <time>2009-10-02T19:09:02Z</time>
      </trkpt>
      <trkpt lat="43.93935" lon="5.22195">
        <ele>410</ele>
        <time>2009-10-02T19:09:02Z</time>
      </trkpt>
      <trkpt lat="43.9394" lon="5.22195">
        <ele>409</ele>
        <time>2009-10-02T19:09:02Z</time>
      </trkpt>
      <trkpt lat="43.93944" lon="5.22195">
        <ele>408</ele>
        <time>2009-10-02T19:09:02Z</time>
      </trkpt>
      <trkpt lat="43.93944" lon="5.22189">
        <ele>407</ele>
        <time>2009-10-02T19:09:02Z</time>
      </trkpt>
      <trkpt lat="43.93949" lon="5.22189">
        <ele>406</ele>
        <time>2009-10-02T19:09:02Z</time>
      </trkpt>
      <trkpt lat="43.93949" lon="5.22183">
        <ele>406</ele>
        <time>2009-10-02T19:09:02Z</time>
      </trkpt>
      <trkpt lat="43.93953" lon="5.22183">
        <ele>405</ele>
        <time>2009-10-02T19:09:02Z</time>
      </trkpt>
      <trkpt lat="43.93954" lon="5.22177">
        <ele>404</ele>
        <time>2009-10-02T19:09:02Z</time>
      </trkpt>
      <trkpt lat="43.93958" lon="5.22177">
        <ele>404</ele>
        <time>2009-10-02T19:09:02Z</time>
      </trkpt>
      <trkpt lat="43.93958" lon="5.22171">
        <ele>403</ele>
        <time>2009-10-02T19:09:02Z</time>
      </trkpt>
      <trkpt lat="43.93963" lon="5.22171">
        <ele>403</ele>
        <time>2009-10-02T19:09:02Z</time>
      </trkpt>
      <trkpt lat="43.93967" lon="5.22172">
        <ele>402</ele>
        <time>2009-10-02T19:09:02Z</time>
      </trkpt>
      <trkpt lat="43.93972" lon="5.22172">
        <ele>402</ele>
        <time>2009-10-02T19:09:02Z</time>
      </trkpt>
      <trkpt lat="43.93976" lon="5.22172">
        <ele>403</ele>
        <time>2009-10-02T19:09:02Z</time>
      </trkpt>
      <trkpt lat="43.93981" lon="5.22172">
        <ele>403</ele>
        <time>2009-10-02T19:09:02Z</time>
      </trkpt>
      <trkpt lat="43.93985" lon="5.22172">
        <ele>404</ele>
        <time>2009-10-02T19:09:02Z</time>
      </trkpt>
      <trkpt lat="43.93985" lon="5.22179">
        <ele>404</ele>
        <time>2009-10-02T19:09:02Z</time>
      </trkpt>
      <trkpt lat="43.93989" lon="5.22185">
        <ele>404</ele>
        <time>2009-10-02T19:09:02Z</time>
      </trkpt>
      <trkpt lat="43.93989" lon="5.22191">
        <ele>404</ele>
        <time>2009-10-02T19:09:02Z</time>
      </trkpt>
      <trkpt lat="43.93994" lon="5.22192">
        <ele>404</ele>
        <time>2009-10-02T19:09:02Z</time>
      </trkpt>
      <trkpt lat="43.93993" lon="5.22198">
        <ele>404</ele>
        <time>2009-10-02T19:09:02Z</time>
      </trkpt>
      <trkpt lat="43.93993" lon="5.22204">
        <ele>404</ele>
        <time>2009-10-02T19:09:02Z</time>
      </trkpt>
      <trkpt lat="43.93993" lon="5.2221">
        <ele>404</ele>
        <time>2009-10-02T19:09:02Z</time>
      </trkpt>
      <trkpt lat="43.93998" lon="5.2221">
        <ele>404</ele>
        <time>2009-10-02T19:09:02Z</time>
      </trkpt>
      <trkpt lat="43.94002" lon="5.22211">
        <ele>404</ele>
        <time>2009-10-02T19:09:02Z</time>
      </trkpt>
      <trkpt lat="43.94006" lon="5.22217">
        <ele>404</ele>
        <time>2009-10-02T19:09:02Z</time>
      </trkpt>
      <trkpt lat="43.94011" lon="5.22224">
        <ele>403</ele>
        <time>2009-10-02T19:09:02Z</time>
      </trkpt>
      <trkpt lat="43.94011" lon="5.2223">
        <ele>403</ele>
        <time>2009-10-02T19:09:02Z</time>
      </trkpt>
      <trkpt lat="43.94015" lon="5.2223">
        <ele>403</ele>
        <time>2009-10-02T19:09:02Z</time>
      </trkpt>
      <trkpt lat="43.94015" lon="5.22236">
        <ele>403</ele>
        <time>2009-10-02T19:09:02Z</time>
      </trkpt>
      <trkpt lat="43.94019" lon="5.22236">
        <ele>404</ele>
        <time>2009-10-02T19:09:02Z</time>
      </trkpt>
      <trkpt lat="43.94019" lon="5.22243">
        <ele>404</ele>
        <time>2009-10-02T19:09:02Z</time>
      </trkpt>
      <trkpt lat="43.94024" lon="5.22243">
        <ele>405</ele>
        <time>2009-10-02T19:09:02Z</time>
      </trkpt>
      <trkpt lat="43.94024" lon="5.22249">
        <ele>404</ele>
        <time>2009-10-02T19:09:02Z</time>
      </trkpt>
      <trkpt lat="43.94028" lon="5.22249">
        <ele>405</ele>
        <time>2009-10-02T19:09:02Z</time>
      </trkpt>
      <trkpt lat="43.94028" lon="5.22256">
        <ele>404</ele>
        <time>2009-10-02T19:09:02Z</time>
      </trkpt>
      <trkpt lat="43.94032" lon="5.22256">
        <ele>405</ele>
        <time>2009-10-02T19:09:02Z</time>
      </trkpt>
      <trkpt lat="43.94037" lon="5.22256">
        <ele>406</ele>
        <time>2009-10-02T19:09:02Z</time>
      </trkpt>
      <trkpt lat="43.94037" lon="5.22262">
        <ele>405</ele>
        <time>2009-10-02T19:09:02Z</time>
      </trkpt>
      <trkpt lat="43.94041" lon="5.22262">
        <ele>406</ele>
        <time>2009-10-02T19:09:02Z</time>
      </trkpt>
      <trkpt lat="43.94046" lon="5.22263">
        <ele>406</ele>
        <time>2009-10-02T19:09:02Z</time>
      </trkpt>
      <trkpt lat="43.94046" lon="5.22269">
        <ele>405</ele>
        <time>2009-10-02T19:09:02Z</time>
      </trkpt>
      <trkpt lat="43.9405" lon="5.22269">
        <ele>406</ele>
        <time>2009-10-02T19:09:02Z</time>
      </trkpt>
      <trkpt lat="43.9405" lon="5.22275">
        <ele>404</ele>
        <time>2009-10-02T19:09:02Z</time>
      </trkpt>
      <trkpt lat="43.94054" lon="5.22276">
        <ele>405</ele>
        <time>2009-10-02T19:09:02Z</time>
      </trkpt>
      <trkpt lat="43.94059" lon="5.22276">
        <ele>405</ele>
        <time>2009-10-02T19:09:02Z</time>
      </trkpt>
      <trkpt lat="43.94059" lon="5.22282">
        <ele>406</ele>
        <time>2009-10-02T19:09:02Z</time>
      </trkpt>
      <trkpt lat="43.94059" lon="5.22288">
        <ele>407</ele>
        <time>2009-10-02T19:09:02Z</time>
      </trkpt>
      <trkpt lat="43.94058" lon="5.22294">
        <ele>409</ele>
        <time>2009-10-02T19:09:02Z</time>
      </trkpt>
      <trkpt lat="43.94058" lon="5.22301">
        <ele>410</ele>
        <time>2009-10-02T19:09:02Z</time>
      </trkpt>
      <trkpt lat="43.94058" lon="5.22307">
        <ele>411</ele>
        <time>2009-10-02T19:09:02Z</time>
      </trkpt>
      <trkpt lat="43.94058" lon="5.22313">
        <ele>412</ele>
        <time>2009-10-02T19:09:02Z</time>
      </trkpt>
      <trkpt lat="43.94058" lon="5.22319">
        <ele>413</ele>
        <time>2009-10-02T19:09:02Z</time>
      </trkpt>
      <trkpt lat="43.94058" lon="5.22326">
        <ele>415</ele>
        <time>2009-10-02T19:09:02Z</time>
      </trkpt>
      <trkpt lat="43.94057" lon="5.22332">
        <ele>416</ele>
        <time>2009-10-02T19:09:02Z</time>
      </trkpt>
      <trkpt lat="43.94062" lon="5.22338">
        <ele>418</ele>
        <time>2009-10-02T19:09:02Z</time>
      </trkpt>
      <trkpt lat="43.94066" lon="5.22338">
        <ele>418</ele>
        <time>2009-10-02T19:09:02Z</time>
      </trkpt>
      <trkpt lat="43.94066" lon="5.22345">
        <ele>421</ele>
        <time>2009-10-02T19:09:02Z</time>
      </trkpt>
      <trkpt lat="43.94071" lon="5.22345">
        <ele>421</ele>
        <time>2009-10-02T19:09:02Z</time>
      </trkpt>
      <trkpt lat="43.94075" lon="5.22345">
        <ele>421</ele>
        <time>2009-10-02T19:09:02Z</time>
      </trkpt>
      <trkpt lat="43.94075" lon="5.22351">
        <ele>424</ele>
        <time>2009-10-02T19:09:02Z</time>
      </trkpt>
      <trkpt lat="43.94079" lon="5.22352">
        <ele>424</ele>
        <time>2009-10-02T19:09:02Z</time>
      </trkpt>
      <trkpt lat="43.94079" lon="5.22358">
        <ele>427</ele>
        <time>2009-10-02T19:09:02Z</time>
      </trkpt>
      <trkpt lat="43.94084" lon="5.22358">
        <ele>427</ele>
        <time>2009-10-02T19:09:02Z</time>
      </trkpt>
      <trkpt lat="43.94084" lon="5.22364">
        <ele>430</ele>
        <time>2009-10-02T19:09:02Z</time>
      </trkpt>
      <trkpt lat="43.94088" lon="5.22364">
        <ele>430</ele>
        <time>2009-10-02T19:09:02Z</time>
      </trkpt>
      <trkpt lat="43.94092" lon="5.22365">
        <ele>431</ele>
        <time>2009-10-02T19:09:02Z</time>
      </trkpt>
      <trkpt lat="43.94097" lon="5.22365">
        <ele>431</ele>
        <time>2009-10-02T19:09:02Z</time>
      </trkpt>
      <trkpt lat="43.94101" lon="5.22365">
        <ele>431</ele>
        <time>2009-10-02T19:09:02Z</time>
      </trkpt>
      <trkpt lat="43.94106" lon="5.22365">
        <ele>432</ele>
        <time>2009-10-02T19:09:02Z</time>
      </trkpt>
      <trkpt lat="43.94111" lon="5.22359">
        <ele>430</ele>
        <time>2009-10-02T19:09:02Z</time>
      </trkpt>
      <trkpt lat="43.94115" lon="5.22353">
        <ele>428</ele>
        <time>2009-10-02T19:09:02Z</time>
      </trkpt>
      <trkpt lat="43.9412" lon="5.22354">
        <ele>429</ele>
        <time>2009-10-02T19:09:02Z</time>
      </trkpt>
      <trkpt lat="43.94124" lon="5.22354">
        <ele>430</ele>
        <time>2009-10-02T19:09:02Z</time>
      </trkpt>
      <trkpt lat="43.94124" lon="5.22348">
        <ele>428</ele>
        <time>2009-10-02T19:09:02Z</time>
      </trkpt>
      <trkpt lat="43.94129" lon="5.22348">
        <ele>429</ele>
        <time>2009-10-02T19:09:02Z</time>
      </trkpt>
      <trkpt lat="43.94134" lon="5.22342">
        <ele>428</ele>
        <time>2009-10-02T19:09:02Z</time>
      </trkpt>
      <trkpt lat="43.94134" lon="5.22336">
        <ele>426</ele>
        <time>2009-10-02T19:09:02Z</time>
      </trkpt>
      <trkpt lat="43.94138" lon="5.2233">
        <ele>425</ele>
        <time>2009-10-02T19:09:02Z</time>
      </trkpt>
      <trkpt lat="43.94143" lon="5.2233">
        <ele>426</ele>
        <time>2009-10-02T19:09:02Z</time>
      </trkpt>
      <trkpt lat="43.94147" lon="5.2233">
        <ele>426</ele>
        <time>2009-10-02T19:09:02Z</time>
      </trkpt>
      <trkpt lat="43.94152" lon="5.2233">
        <ele>426</ele>
        <time>2009-10-02T19:09:02Z</time>
      </trkpt>
      <trkpt lat="43.94156" lon="5.22331">
        <ele>426</ele>
        <time>2009-10-02T19:09:02Z</time>
      </trkpt>
      <trkpt lat="43.94161" lon="5.22331">
        <ele>426</ele>
        <time>2009-10-02T19:09:02Z</time>
      </trkpt>
      <trkpt lat="43.94165" lon="5.22331">
        <ele>426</ele>
        <time>2009-10-02T19:09:02Z</time>
      </trkpt>
      <trkpt lat="43.9417" lon="5.22331">
        <ele>426</ele>
        <time>2009-10-02T19:09:02Z</time>
      </trkpt>
      <trkpt lat="43.9417" lon="5.22337">
        <ele>427</ele>
        <time>2009-10-02T19:09:02Z</time>
      </trkpt>
      <trkpt lat="43.94174" lon="5.22338">
        <ele>427</ele>
        <time>2009-10-02T19:09:02Z</time>
      </trkpt>
      <trkpt lat="43.94179" lon="5.22338">
        <ele>427</ele>
        <time>2009-10-02T19:09:02Z</time>
      </trkpt>
      <trkpt lat="43.94183" lon="5.22338">
        <ele>427</ele>
        <time>2009-10-02T19:09:02Z</time>
      </trkpt>
      <trkpt lat="43.94188" lon="5.22338">
        <ele>427</ele>
        <time>2009-10-02T19:09:02Z</time>
      </trkpt>
      <trkpt lat="43.94192" lon="5.22339">
        <ele>426</ele>
        <time>2009-10-02T19:09:02Z</time>
      </trkpt>
      <trkpt lat="43.94192" lon="5.22332">
        <ele>425</ele>
        <time>2009-10-02T19:09:02Z</time>
      </trkpt>
      <trkpt lat="43.94197" lon="5.22333">
        <ele>424</ele>
        <time>2009-10-02T19:09:02Z</time>
      </trkpt>
      <trkpt lat="43.94197" lon="5.22326">
        <ele>423</ele>
        <time>2009-10-02T19:09:02Z</time>
      </trkpt>
      <trkpt lat="43.94201" lon="5.22327">
        <ele>422</ele>
        <time>2009-10-02T19:09:02Z</time>
      </trkpt>
      <trkpt lat="43.94206" lon="5.22327">
        <ele>421</ele>
        <time>2009-10-02T19:09:02Z</time>
      </trkpt>
      <trkpt lat="43.94206" lon="5.22321">
        <ele>420</ele>
        <time>2009-10-02T19:09:02Z</time>
      </trkpt>
      <trkpt lat="43.94211" lon="5.22321">
        <ele>420</ele>
        <time>2009-10-02T19:09:02Z</time>
      </trkpt>
      <trkpt lat="43.94215" lon="5.22321">
        <ele>419</ele>
        <time>2009-10-02T19:09:02Z</time>
      </trkpt>
      <trkpt lat="43.9422" lon="5.22321">
        <ele>419</ele>
        <time>2009-10-02T19:09:02Z</time>
      </trkpt>
      <trkpt lat="43.94224" lon="5.22322">
        <ele>418</ele>
        <time>2009-10-02T19:09:02Z</time>
      </trkpt>
      <trkpt lat="43.94229" lon="5.22322">
        <ele>417</ele>
        <time>2009-10-02T19:09:02Z</time>
      </trkpt>
      <trkpt lat="43.94228" lon="5.22328">
        <ele>417</ele>
        <time>2009-10-02T19:09:02Z</time>
      </trkpt>
      <trkpt lat="43.94233" lon="5.22328">
        <ele>417</ele>
        <time>2009-10-02T19:09:02Z</time>
      </trkpt>
      <trkpt lat="43.94233" lon="5.22334">
        <ele>417</ele>
        <time>2009-10-02T19:09:02Z</time>
      </trkpt>
      <trkpt lat="43.94233" lon="5.22341">
        <ele>417</ele>
        <time>2009-10-02T19:09:02Z</time>
      </trkpt>
      <trkpt lat="43.94237" lon="5.22341">
        <ele>416</ele>
        <time>2009-10-02T19:09:02Z</time>
      </trkpt>
      <trkpt lat="43.94237" lon="5.22347">
        <ele>416</ele>
        <time>2009-10-02T19:09:02Z</time>
      </trkpt>
      <trkpt lat="43.94241" lon="5.22354">
        <ele>417</ele>
        <time>2009-10-02T19:09:02Z</time>
      </trkpt>
      <trkpt lat="43.94241" lon="5.2236">
        <ele>417</ele>
        <time>2009-10-02T19:09:02Z</time>
      </trkpt>
      <trkpt lat="43.94245" lon="5.22366">
        <ele>418</ele>
        <time>2009-10-02T19:09:02Z</time>
      </trkpt>
      <trkpt lat="43.94245" lon="5.22372">
        <ele>418</ele>
        <time>2009-10-02T19:09:02Z</time>
      </trkpt>
      <trkpt lat="43.9425" lon="5.22373">
        <ele>418</ele>
        <time>2009-10-02T19:09:02Z</time>
      </trkpt>
      <trkpt lat="43.9425" lon="5.22379">
        <ele>419</ele>
        <time>2009-10-02T19:09:02Z</time>
      </trkpt>
      <trkpt lat="43.94254" lon="5.22385">
        <ele>419</ele>
        <time>2009-10-02T19:09:02Z</time>
      </trkpt>
      <trkpt lat="43.94254" lon="5.22392">
        <ele>419</ele>
        <time>2009-10-02T19:09:02Z</time>
      </trkpt>
      <trkpt lat="43.94258" lon="5.22392">
        <ele>419</ele>
        <time>2009-10-02T19:09:02Z</time>
      </trkpt>
      <trkpt lat="43.94258" lon="5.22398">
        <ele>419</ele>
        <time>2009-10-02T19:09:02Z</time>
      </trkpt>
      <trkpt lat="43.94263" lon="5.22398">
        <ele>420</ele>
        <time>2009-10-02T19:09:02Z</time>
      </trkpt>
      <trkpt lat="43.94267" lon="5.22398">
        <ele>420</ele>
        <time>2009-10-02T19:09:02Z</time>
      </trkpt>
      <trkpt lat="43.94272" lon="5.22399">
        <ele>420</ele>
        <time>2009-10-02T19:09:02Z</time>
      </trkpt>
      <trkpt lat="43.94276" lon="5.22399">
        <ele>420</ele>
        <time>2009-10-02T19:09:02Z</time>
      </trkpt>
      <trkpt lat="43.94276" lon="5.22405">
        <ele>420</ele>
        <time>2009-10-02T19:09:02Z</time>
      </trkpt>
      <trkpt lat="43.9428" lon="5.22405">
        <ele>420</ele>
        <time>2009-10-02T19:09:02Z</time>
      </trkpt>
      <trkpt lat="43.94285" lon="5.22406">
        <ele>421</ele>
        <time>2009-10-02T19:09:02Z</time>
      </trkpt>
      <trkpt lat="43.94289" lon="5.22406">
        <ele>421</ele>
        <time>2009-10-02T19:09:02Z</time>
      </trkpt>
      <trkpt lat="43.94294" lon="5.22406">
        <ele>422</ele>
        <time>2009-10-02T19:09:02Z</time>
      </trkpt>
      <trkpt lat="43.94298" lon="5.22406">
        <ele>422</ele>
        <time>2009-10-02T19:09:02Z</time>
      </trkpt>
      <trkpt lat="43.94298" lon="5.22412">
        <ele>422</ele>
        <time>2009-10-02T19:09:02Z</time>
      </trkpt>
      <trkpt lat="43.94303" lon="5.22413">
        <ele>423</ele>
        <time>2009-10-02T19:09:02Z</time>
      </trkpt>
      <trkpt lat="43.94302" lon="5.22419">
        <ele>425</ele>
        <time>2009-10-02T19:09:02Z</time>
      </trkpt>
      <trkpt lat="43.94307" lon="5.22419">
        <ele>425</ele>
        <time>2009-10-02T19:09:02Z</time>
      </trkpt>
      <trkpt lat="43.94311" lon="5.22426">
        <ele>427</ele>
        <time>2009-10-02T19:09:02Z</time>
      </trkpt>
      <trkpt lat="43.94311" lon="5.22432">
        <ele>429</ele>
        <time>2009-10-02T19:09:02Z</time>
      </trkpt>
      <trkpt lat="43.94316" lon="5.22432">
        <ele>430</ele>
        <time>2009-10-02T19:09:02Z</time>
      </trkpt>
      <trkpt lat="43.9432" lon="5.22438">
        <ele>432</ele>
        <time>2009-10-02T19:09:02Z</time>
      </trkpt>
      <trkpt lat="43.94324" lon="5.22439">
        <ele>432</ele>
        <time>2009-10-02T19:09:02Z</time>
      </trkpt>
      <trkpt lat="43.94329" lon="5.22439">
        <ele>432</ele>
        <time>2009-10-02T19:09:02Z</time>
      </trkpt>
      <trkpt lat="43.94333" lon="5.22439">
        <ele>432</ele>
        <time>2009-10-02T19:09:02Z</time>
      </trkpt>
      <trkpt lat="43.94338" lon="5.22446">
        <ele>434</ele>
        <time>2009-10-02T19:09:02Z</time>
      </trkpt>
      <trkpt lat="43.94338" lon="5.22452">
        <ele>436</ele>
        <time>2009-10-02T19:09:02Z</time>
      </trkpt>
      <trkpt lat="43.94342" lon="5.22452">
        <ele>436</ele>
        <time>2009-10-02T19:09:02Z</time>
      </trkpt>
      <trkpt lat="43.94342" lon="5.22458">
        <ele>438</ele>
        <time>2009-10-02T19:09:02Z</time>
      </trkpt>
      <trkpt lat="43.94342" lon="5.22464">
        <ele>440</ele>
        <time>2009-10-02T19:09:02Z</time>
      </trkpt>
      <trkpt lat="43.94346" lon="5.22465">
        <ele>440</ele>
        <time>2009-10-02T19:09:02Z</time>
      </trkpt>
      <trkpt lat="43.94346" lon="5.22471">
        <ele>441</ele>
        <time>2009-10-02T19:09:02Z</time>
      </trkpt>
      <trkpt lat="43.94351" lon="5.22471">
        <ele>441</ele>
        <time>2009-10-02T19:09:02Z</time>
      </trkpt>
      <trkpt lat="43.9435" lon="5.22477">
        <ele>443</ele>
        <time>2009-10-02T19:09:02Z</time>
      </trkpt>
      <trkpt lat="43.94355" lon="5.22478">
        <ele>443</ele>
        <time>2009-10-02T19:09:02Z</time>
      </trkpt>
      <trkpt lat="43.94359" lon="5.22478">
        <ele>443</ele>
        <time>2009-10-02T19:09:02Z</time>
      </trkpt>
      <trkpt lat="43.94359" lon="5.22484">
        <ele>444</ele>
        <time>2009-10-02T19:09:02Z</time>
      </trkpt>
      <trkpt lat="43.94364" lon="5.22484">
        <ele>444</ele>
        <time>2009-10-02T19:09:02Z</time>
      </trkpt>
      <trkpt lat="43.94368" lon="5.22485">
        <ele>444</ele>
        <time>2009-10-02T19:09:02Z</time>
      </trkpt>
      <trkpt lat="43.94373" lon="5.22485">
        <ele>444</ele>
        <time>2009-10-02T19:09:02Z</time>
      </trkpt>
      <trkpt lat="43.94377" lon="5.22485">
        <ele>443</ele>
        <time>2009-10-02T19:09:02Z</time>
      </trkpt>
      <trkpt lat="43.94382" lon="5.22485">
        <ele>443</ele>
        <time>2009-10-02T19:09:02Z</time>
      </trkpt>
      <trkpt lat="43.94382" lon="5.22491">
        <ele>444</ele>
        <time>2009-10-02T19:09:02Z</time>
      </trkpt>
      <trkpt lat="43.94386" lon="5.22498">
        <ele>445</ele>
        <time>2009-10-02T19:09:02Z</time>
      </trkpt>
      <trkpt lat="43.94386" lon="5.22504">
        <ele>447</ele>
        <time>2009-10-02T19:09:02Z</time>
      </trkpt>
      <trkpt lat="43.9439" lon="5.22511">
        <ele>447</ele>
        <time>2009-10-02T19:09:02Z</time>
      </trkpt>
      <trkpt lat="43.9439" lon="5.22517">
        <ele>449</ele>
        <time>2009-10-02T19:09:02Z</time>
      </trkpt>
      <trkpt lat="43.94394" lon="5.22523">
        <ele>449</ele>
        <time>2009-10-02T19:09:02Z</time>
      </trkpt>
      <trkpt lat="43.94394" lon="5.22529">
        <ele>451</ele>
        <time>2009-10-02T19:09:02Z</time>
      </trkpt>
      <trkpt lat="43.94398" lon="5.2253">
        <ele>450</ele>
        <time>2009-10-02T19:09:02Z</time>
      </trkpt>
      <trkpt lat="43.94398" lon="5.22536">
        <ele>451</ele>
        <time>2009-10-02T19:09:02Z</time>
      </trkpt>
      <trkpt lat="43.94403" lon="5.22536">
        <ele>451</ele>
        <time>2009-10-02T19:09:02Z</time>
      </trkpt>
      <trkpt lat="43.94407" lon="5.22536">
        <ele>450</ele>
        <time>2009-10-02T19:09:02Z</time>
      </trkpt>
      <trkpt lat="43.94412" lon="5.22537">
        <ele>449</ele>
        <time>2009-10-02T19:09:02Z</time>
      </trkpt>
      <trkpt lat="43.94416" lon="5.22537">
        <ele>448</ele>
        <time>2009-10-02T19:09:02Z</time>
      </trkpt>
      <trkpt lat="43.94421" lon="5.22537">
        <ele>447</ele>
        <time>2009-10-02T19:09:02Z</time>
      </trkpt>
      <trkpt lat="43.94421" lon="5.22543">
        <ele>448</ele>
        <time>2009-10-02T19:09:02Z</time>
      </trkpt>
      <trkpt lat="43.94425" lon="5.22543">
        <ele>447</ele>
        <time>2009-10-02T19:09:02Z</time>
      </trkpt>
      <trkpt lat="43.9443" lon="5.22544">
        <ele>446</ele>
        <time>2009-10-02T19:09:02Z</time>
      </trkpt>
      <trkpt lat="43.94434" lon="5.2255">
        <ele>446</ele>
        <time>2009-10-02T19:09:02Z</time>
      </trkpt>
      <trkpt lat="43.94438" lon="5.2255">
        <ele>445</ele>
        <time>2009-10-02T19:09:02Z</time>
      </trkpt>
      <trkpt lat="43.94443" lon="5.22551">
        <ele>444</ele>
        <time>2009-10-02T19:09:02Z</time>
      </trkpt>
      <trkpt lat="43.94443" lon="5.22557">
        <ele>445</ele>
        <time>2009-10-02T19:09:02Z</time>
      </trkpt>
      <trkpt lat="43.94447" lon="5.22557">
        <ele>444</ele>
        <time>2009-10-02T19:09:02Z</time>
      </trkpt>
      <trkpt lat="43.94447" lon="5.22563">
        <ele>445</ele>
        <time>2009-10-02T19:09:02Z</time>
      </trkpt>
      <trkpt lat="43.94447" lon="5.22569">
        <ele>446</ele>
        <time>2009-10-02T19:09:02Z</time>
      </trkpt>
      <trkpt lat="43.94451" lon="5.2257">
        <ele>445</ele>
        <time>2009-10-02T19:09:02Z</time>
      </trkpt>
      <trkpt lat="43.94451" lon="5.22576">
        <ele>446</ele>
        <time>2009-10-02T19:09:02Z</time>
      </trkpt>
      <trkpt lat="43.94451" lon="5.22582">
        <ele>447</ele>
        <time>2009-10-02T19:09:02Z</time>
      </trkpt>
      <trkpt lat="43.94456" lon="5.22582">
        <ele>446</ele>
        <time>2009-10-02T19:09:02Z</time>
      </trkpt>
      <trkpt lat="43.94455" lon="5.22589">
        <ele>447</ele>
        <time>2009-10-02T19:09:02Z</time>
      </trkpt>
      <trkpt lat="43.9446" lon="5.22595">
        <ele>446</ele>
        <time>2009-10-02T19:09:02Z</time>
      </trkpt>
      <trkpt lat="43.9446" lon="5.22601">
        <ele>448</ele>
        <time>2009-10-02T19:09:02Z</time>
      </trkpt>
      <trkpt lat="43.94464" lon="5.22601">
        <ele>446</ele>
        <time>2009-10-02T19:09:02Z</time>
      </trkpt>
      <trkpt lat="43.94464" lon="5.22608">
        <ele>448</ele>
        <time>2009-10-02T19:09:02Z</time>
      </trkpt>
      <trkpt lat="43.94468" lon="5.22608">
        <ele>447</ele>
        <time>2009-10-02T19:09:02Z</time>
      </trkpt>
      <trkpt lat="43.94468" lon="5.22614">
        <ele>448</ele>
        <time>2009-10-02T19:09:02Z</time>
      </trkpt>
      <trkpt lat="43.94468" lon="5.2262">
        <ele>449</ele>
        <time>2009-10-02T19:09:02Z</time>
      </trkpt>
      <trkpt lat="43.94473" lon="5.22621">
        <ele>448</ele>
        <time>2009-10-02T19:09:02Z</time>
      </trkpt>
      <trkpt lat="43.94477" lon="5.22627">
        <ele>448</ele>
        <time>2009-10-02T19:09:02Z</time>
      </trkpt>
      <trkpt lat="43.94481" lon="5.22627">
        <ele>447</ele>
        <time>2009-10-02T19:09:02Z</time>
      </trkpt>
      <trkpt lat="43.94486" lon="5.22627">
        <ele>446</ele>
        <time>2009-10-02T19:09:02Z</time>
      </trkpt>
      <trkpt lat="43.9449" lon="5.22628">
        <ele>445</ele>
        <time>2009-10-02T19:09:02Z</time>
      </trkpt>
      <trkpt lat="43.9449" lon="5.22634">
        <ele>446</ele>
        <time>2009-10-02T19:09:02Z</time>
      </trkpt>
      <trkpt lat="43.94495" lon="5.22634">
        <ele>445</ele>
        <time>2009-10-02T19:09:02Z</time>
      </trkpt>
      <trkpt lat="43.94499" lon="5.22634">
        <ele>444</ele>
        <time>2009-10-02T19:09:02Z</time>
      </trkpt>
      <trkpt lat="43.94499" lon="5.22641">
        <ele>445</ele>
        <time>2009-10-02T19:09:02Z</time>
      </trkpt>
      <trkpt lat="43.94503" lon="5.22647">
        <ele>445</ele>
        <time>2009-10-02T19:09:02Z</time>
      </trkpt>
      <trkpt lat="43.94503" lon="5.22653">
        <ele>446</ele>
        <time>2009-10-02T19:09:02Z</time>
      </trkpt>
      <trkpt lat="43.94508" lon="5.22653">
        <ele>445</ele>
        <time>2009-10-02T19:09:02Z</time>
      </trkpt>
      <trkpt lat="43.94507" lon="5.2266">
        <ele>446</ele>
        <time>2009-10-02T19:09:02Z</time>
      </trkpt>
      <trkpt lat="43.94512" lon="5.2266">
        <ele>444</ele>
        <time>2009-10-02T19:09:02Z</time>
      </trkpt>
      <trkpt lat="43.94512" lon="5.22666">
        <ele>445</ele>
        <time>2009-10-02T19:09:02Z</time>
      </trkpt>
      <trkpt lat="43.94516" lon="5.22673">
        <ele>445</ele>
        <time>2009-10-02T19:09:02Z</time>
      </trkpt>
      <trkpt lat="43.94516" lon="5.22679">
        <ele>446</ele>
        <time>2009-10-02T19:09:02Z</time>
      </trkpt>
      <trkpt lat="43.94516" lon="5.22685">
        <ele>447</ele>
        <time>2009-10-02T19:09:02Z</time>
      </trkpt>
      <trkpt lat="43.9452" lon="5.22691">
        <ele>446</ele>
        <time>2009-10-02T19:09:02Z</time>
      </trkpt>
      <trkpt lat="43.9452" lon="5.22698">
        <ele>447</ele>
        <time>2009-10-02T19:09:02Z</time>
      </trkpt>
      <trkpt lat="43.94524" lon="5.22698">
        <ele>446</ele>
        <time>2009-10-02T19:09:02Z</time>
      </trkpt>
      <trkpt lat="43.94524" lon="5.22704">
        <ele>447</ele>
        <time>2009-10-02T19:09:02Z</time>
      </trkpt>
      <trkpt lat="43.94529" lon="5.22704">
        <ele>446</ele>
        <time>2009-10-02T19:09:02Z</time>
      </trkpt>
      <trkpt lat="43.94529" lon="5.22711">
        <ele>447</ele>
        <time>2009-10-02T19:09:02Z</time>
      </trkpt>
      <trkpt lat="43.94533" lon="5.22711">
        <ele>445</ele>
        <time>2009-10-02T19:09:02Z</time>
      </trkpt>
      <trkpt lat="43.94533" lon="5.22717">
        <ele>446</ele>
        <time>2009-10-02T19:09:02Z</time>
      </trkpt>
      <trkpt lat="43.94537" lon="5.22723">
        <ele>446</ele>
        <time>2009-10-02T19:09:02Z</time>
      </trkpt>
      <trkpt lat="43.94542" lon="5.2273">
        <ele>446</ele>
        <time>2009-10-02T19:09:02Z</time>
      </trkpt>
      <trkpt lat="43.94546" lon="5.2273">
        <ele>445</ele>
        <time>2009-10-02T19:09:02Z</time>
      </trkpt>
      <trkpt lat="43.94546" lon="5.22736">
        <ele>446</ele>
        <time>2009-10-02T19:09:02Z</time>
      </trkpt>
      <trkpt lat="43.94546" lon="5.22743">
        <ele>447</ele>
        <time>2009-10-02T19:09:02Z</time>
      </trkpt>
      <trkpt lat="43.9455" lon="5.22743">
        <ele>446</ele>
        <time>2009-10-02T19:09:02Z</time>
      </trkpt>
      <trkpt lat="43.9455" lon="5.22749">
        <ele>447</ele>
        <time>2009-10-02T19:09:02Z</time>
      </trkpt>
      <trkpt lat="43.94555" lon="5.22749">
        <ele>446</ele>
        <time>2009-10-02T19:09:02Z</time>
      </trkpt>
      <trkpt lat="43.94554" lon="5.22755">
        <ele>448</ele>
        <time>2009-10-02T19:09:02Z</time>
      </trkpt>
      <trkpt lat="43.94559" lon="5.22762">
        <ele>448</ele>
        <time>2009-10-02T19:09:02Z</time>
      </trkpt>
      <trkpt lat="43.94563" lon="5.22768">
        <ele>448</ele>
        <time>2009-10-02T19:09:02Z</time>
      </trkpt>
      <trkpt lat="43.94567" lon="5.22775">
        <ele>448</ele>
        <time>2009-10-02T19:09:02Z</time>
      </trkpt>
      <trkpt lat="43.94567" lon="5.22781">
        <ele>450</ele>
        <time>2009-10-02T19:09:02Z</time>
      </trkpt>
      <trkpt lat="43.94572" lon="5.22781">
        <ele>449</ele>
        <time>2009-10-02T19:09:02Z</time>
      </trkpt>
      <trkpt lat="43.94572" lon="5.22787">
        <ele>450</ele>
        <time>2009-10-02T19:09:02Z</time>
      </trkpt>
      <trkpt lat="43.94576" lon="5.22788">
        <ele>449</ele>
        <time>2009-10-02T19:09:02Z</time>
      </trkpt>
      <trkpt lat="43.94576" lon="5.22794">
        <ele>450</ele>
        <time>2009-10-02T19:09:02Z</time>
      </trkpt>
      <trkpt lat="43.9458" lon="5.22794">
        <ele>449</ele>
        <time>2009-10-02T19:09:02Z</time>
      </trkpt>
      <trkpt lat="43.9458" lon="5.228">
        <ele>451</ele>
        <time>2009-10-02T19:09:02Z</time>
      </trkpt>
      <trkpt lat="43.94585" lon="5.22801">
        <ele>449</ele>
        <time>2009-10-02T19:09:02Z</time>
      </trkpt>
      <trkpt lat="43.94585" lon="5.22807">
        <ele>451</ele>
        <time>2009-10-02T19:09:02Z</time>
      </trkpt>
      <trkpt lat="43.94589" lon="5.22807">
        <ele>449</ele>
        <time>2009-10-02T19:09:02Z</time>
      </trkpt>
      <trkpt lat="43.94594" lon="5.22807">
        <ele>448</ele>
        <time>2009-10-02T19:09:02Z</time>
      </trkpt>
      <trkpt lat="43.94598" lon="5.22814">
        <ele>448</ele>
        <time>2009-10-02T19:09:02Z</time>
      </trkpt>
      <trkpt lat="43.94598" lon="5.2282">
        <ele>450</ele>
        <time>2009-10-02T19:09:02Z</time>
      </trkpt>
      <trkpt lat="43.94602" lon="5.2282">
        <ele>448</ele>
        <time>2009-10-02T19:09:02Z</time>
      </trkpt>
      <trkpt lat="43.94602" lon="5.22826">
        <ele>450</ele>
        <time>2009-10-02T19:09:02Z</time>
      </trkpt>
      <trkpt lat="43.94606" lon="5.22827">
        <ele>448</ele>
        <time>2009-10-02T19:09:02Z</time>
      </trkpt>
      <trkpt lat="43.94611" lon="5.22827">
        <ele>447</ele>
        <time>2009-10-02T19:09:02Z</time>
      </trkpt>
      <trkpt lat="43.94615" lon="5.22827">
        <ele>446</ele>
        <time>2009-10-02T19:09:02Z</time>
      </trkpt>
      <trkpt lat="43.94615" lon="5.22833">
        <ele>447</ele>
        <time>2009-10-02T19:09:02Z</time>
      </trkpt>
      <trkpt lat="43.9462" lon="5.22833">
        <ele>446</ele>
        <time>2009-10-02T19:09:02Z</time>
      </trkpt>
      <trkpt lat="43.9462" lon="5.2284">
        <ele>448</ele>
        <time>2009-10-02T19:09:02Z</time>
      </trkpt>
      <trkpt lat="43.94624" lon="5.2284">
        <ele>446</ele>
        <time>2009-10-02T19:09:02Z</time>
      </trkpt>
      <trkpt lat="43.94624" lon="5.22846">
        <ele>448</ele>
        <time>2009-10-02T19:09:02Z</time>
      </trkpt>
      <trkpt lat="43.94628" lon="5.22846">
        <ele>447</ele>
        <time>2009-10-02T19:09:02Z</time>
      </trkpt>
      <trkpt lat="43.94628" lon="5.22853">
        <ele>448</ele>
        <time>2009-10-02T19:09:02Z</time>
      </trkpt>
      <trkpt lat="43.94633" lon="5.22853">
        <ele>447</ele>
        <time>2009-10-02T19:09:02Z</time>
      </trkpt>
      <trkpt lat="43.94633" lon="5.22859">
        <ele>448</ele>
        <time>2009-10-02T19:09:02Z</time>
      </trkpt>
      <trkpt lat="43.94637" lon="5.22859">
        <ele>447</ele>
        <time>2009-10-02T19:09:02Z</time>
      </trkpt>
      <trkpt lat="43.94641" lon="5.22866">
        <ele>447</ele>
        <time>2009-10-02T19:09:02Z</time>
      </trkpt>
      <trkpt lat="43.94646" lon="5.22866">
        <ele>446</ele>
        <time>2009-10-02T19:09:02Z</time>
      </trkpt>
      <trkpt lat="43.94646" lon="5.22872">
        <ele>447</ele>
        <time>2009-10-02T19:09:02Z</time>
      </trkpt>
      <trkpt lat="43.9465" lon="5.22879">
        <ele>447</ele>
        <time>2009-10-02T19:09:02Z</time>
      </trkpt>
      <trkpt lat="43.94654" lon="5.22885">
        <ele>446</ele>
        <time>2009-10-02T19:09:02Z</time>
      </trkpt>
      <trkpt lat="43.94659" lon="5.22885">
        <ele>445</ele>
        <time>2009-10-02T19:09:02Z</time>
      </trkpt>
      <trkpt lat="43.94663" lon="5.22892">
        <ele>445</ele>
        <time>2009-10-02T19:09:02Z</time>
      </trkpt>
      <trkpt lat="43.94668" lon="5.22898">
        <ele>445</ele>
        <time>2009-10-02T19:09:02Z</time>
      </trkpt>
      <trkpt lat="43.94672" lon="5.22905">
        <ele>445</ele>
        <time>2009-10-02T19:09:02Z</time>
      </trkpt>
      <trkpt lat="43.94676" lon="5.22905">
        <ele>444</ele>
        <time>2009-10-02T19:09:02Z</time>
      </trkpt>
      <trkpt lat="43.94676" lon="5.22911">
        <ele>445</ele>
        <time>2009-10-02T19:09:02Z</time>
      </trkpt>
      <trkpt lat="43.94681" lon="5.22911">
        <ele>444</ele>
        <time>2009-10-02T19:09:02Z</time>
      </trkpt>
      <trkpt lat="43.94685" lon="5.22912">
        <ele>442</ele>
        <time>2009-10-02T19:09:02Z</time>
      </trkpt>
      <trkpt lat="43.94685" lon="5.22918">
        <ele>443</ele>
        <time>2009-10-02T19:09:02Z</time>
      </trkpt>
      <trkpt lat="43.9469" lon="5.22918">
        <ele>442</ele>
        <time>2009-10-02T19:09:02Z</time>
      </trkpt>
      <trkpt lat="43.94694" lon="5.22924">
        <ele>442</ele>
        <time>2009-10-02T19:09:02Z</time>
      </trkpt>
      <trkpt lat="43.94698" lon="5.22925">
        <ele>441</ele>
        <time>2009-10-02T19:09:02Z</time>
      </trkpt>
      <trkpt lat="43.94703" lon="5.22925">
        <ele>439</ele>
        <time>2009-10-02T19:09:02Z</time>
      </trkpt>
      <trkpt lat="43.94707" lon="5.22925">
        <ele>438</ele>
        <time>2009-10-02T19:09:02Z</time>
      </trkpt>
      <trkpt lat="43.94707" lon="5.22931">
        <ele>439</ele>
        <time>2009-10-02T19:09:02Z</time>
      </trkpt>
      <trkpt lat="43.94712" lon="5.22932">
        <ele>438</ele>
        <time>2009-10-02T19:09:02Z</time>
      </trkpt>
      <trkpt lat="43.94711" lon="5.22938">
        <ele>438</ele>
        <time>2009-10-02T19:09:02Z</time>
      </trkpt>
      <trkpt lat="43.94716" lon="5.22944">
        <ele>438</ele>
        <time>2009-10-02T19:09:02Z</time>
      </trkpt>
      <trkpt lat="43.94716" lon="5.2295">
        <ele>439</ele>
        <time>2009-10-02T19:09:02Z</time>
      </trkpt>
      <trkpt lat="43.9472" lon="5.22957">
        <ele>440</ele>
        <time>2009-10-02T19:09:02Z</time>
      </trkpt>
      <trkpt lat="43.9472" lon="5.22963">
        <ele>440</ele>
        <time>2009-10-02T19:09:02Z</time>
      </trkpt>
      <trkpt lat="43.94724" lon="5.22963">
        <ele>440</ele>
        <time>2009-10-02T19:09:02Z</time>
      </trkpt>
      <trkpt lat="43.94724" lon="5.2297">
        <ele>441</ele>
        <time>2009-10-02T19:09:02Z</time>
      </trkpt>
      <trkpt lat="43.94728" lon="5.22976">
        <ele>441</ele>
        <time>2009-10-02T19:09:02Z</time>
      </trkpt>
      <trkpt lat="43.94733" lon="5.22976">
        <ele>440</ele>
        <time>2009-10-02T19:09:02Z</time>
      </trkpt>
      <trkpt lat="43.94733" lon="5.22982">
        <ele>441</ele>
        <time>2009-10-02T19:09:02Z</time>
      </trkpt>
      <trkpt lat="43.94737" lon="5.22989">
        <ele>441</ele>
        <time>2009-10-02T19:09:02Z</time>
      </trkpt>
      <trkpt lat="43.94741" lon="5.22995">
        <ele>441</ele>
        <time>2009-10-02T19:09:02Z</time>
      </trkpt>
      <trkpt lat="43.94741" lon="5.23002">
        <ele>442</ele>
        <time>2009-10-02T19:09:02Z</time>
      </trkpt>
      <trkpt lat="43.94746" lon="5.23002">
        <ele>441</ele>
        <time>2009-10-02T19:09:02Z</time>
      </trkpt>
      <trkpt lat="43.94746" lon="5.23008">
        <ele>442</ele>
        <time>2009-10-02T19:09:02Z</time>
      </trkpt>
      <trkpt lat="43.9475" lon="5.23008">
        <ele>441</ele>
        <time>2009-10-02T19:09:02Z</time>
      </trkpt>
      <trkpt lat="43.9475" lon="5.23014">
        <ele>442</ele>
        <time>2009-10-02T19:09:02Z</time>
      </trkpt>
      <trkpt lat="43.94754" lon="5.23021">
        <ele>443</ele>
        <time>2009-10-02T19:09:02Z</time>
      </trkpt>
      <trkpt lat="43.94759" lon="5.23021">
        <ele>442</ele>
        <time>2009-10-02T19:09:02Z</time>
      </trkpt>
      <trkpt lat="43.94759" lon="5.23027">
        <ele>443</ele>
        <time>2009-10-02T19:09:02Z</time>
      </trkpt>
      <trkpt lat="43.94763" lon="5.23028">
        <ele>443</ele>
        <time>2009-10-02T19:09:02Z</time>
      </trkpt>
      <trkpt lat="43.94767" lon="5.23034">
        <ele>443</ele>
        <time>2009-10-02T19:09:02Z</time>
      </trkpt>
      <trkpt lat="43.94772" lon="5.23034">
        <ele>443</ele>
        <time>2009-10-02T19:09:02Z</time>
      </trkpt>
      <trkpt lat="43.94772" lon="5.2304">
        <ele>444</ele>
        <time>2009-10-02T19:09:02Z</time>
      </trkpt>
      <trkpt lat="43.94776" lon="5.23041">
        <ele>443</ele>
        <time>2009-10-02T19:09:02Z</time>
      </trkpt>
      <trkpt lat="43.94781" lon="5.23047">
        <ele>444</ele>
        <time>2009-10-02T19:09:02Z</time>
      </trkpt>
      <trkpt lat="43.94785" lon="5.23047">
        <ele>444</ele>
        <time>2009-10-02T19:09:02Z</time>
      </trkpt>
      <trkpt lat="43.94785" lon="5.23054">
        <ele>444</ele>
        <time>2009-10-02T19:09:02Z</time>
      </trkpt>
      <trkpt lat="43.94789" lon="5.23054">
        <ele>444</ele>
        <time>2009-10-02T19:09:02Z</time>
      </trkpt>
      <trkpt lat="43.94794" lon="5.23054">
        <ele>444</ele>
        <time>2009-10-02T19:09:02Z</time>
      </trkpt>
      <trkpt lat="43.94798" lon="5.23054">
        <ele>443</ele>
        <time>2009-10-02T19:09:02Z</time>
      </trkpt>
      <trkpt lat="43.94803" lon="5.23054">
        <ele>443</ele>
        <time>2009-10-02T19:09:02Z</time>
      </trkpt>
      <trkpt lat="43.94807" lon="5.23055">
        <ele>443</ele>
        <time>2009-10-02T19:09:02Z</time>
      </trkpt>
      <trkpt lat="43.94812" lon="5.23055">
        <ele>442</ele>
        <time>2009-10-02T19:09:02Z</time>
      </trkpt>
      <trkpt lat="43.94816" lon="5.23055">
        <ele>442</ele>
        <time>2009-10-02T19:09:02Z</time>
      </trkpt>
      <trkpt lat="43.94821" lon="5.23062">
        <ele>442</ele>
        <time>2009-10-02T19:09:02Z</time>
      </trkpt>
      <trkpt lat="43.94825" lon="5.23062">
        <ele>442</ele>
        <time>2009-10-02T19:09:02Z</time>
      </trkpt>
      <trkpt lat="43.9483" lon="5.23062">
        <ele>441</ele>
        <time>2009-10-02T19:09:02Z</time>
      </trkpt>
      <trkpt lat="43.94834" lon="5.23069">
        <ele>441</ele>
        <time>2009-10-02T19:09:02Z</time>
      </trkpt>
      <trkpt lat="43.94838" lon="5.23069">
        <ele>441</ele>
        <time>2009-10-02T19:09:02Z</time>
      </trkpt>
      <trkpt lat="43.94843" lon="5.23069">
        <ele>441</ele>
        <time>2009-10-02T19:09:02Z</time>
      </trkpt>
      <trkpt lat="43.94847" lon="5.23069">
        <ele>440</ele>
        <time>2009-10-02T19:09:02Z</time>
      </trkpt>
      <trkpt lat="43.94852" lon="5.23069">
        <ele>440</ele>
        <time>2009-10-02T19:09:02Z</time>
      </trkpt>
      <trkpt lat="43.94856" lon="5.23076">
        <ele>440</ele>
        <time>2009-10-02T19:09:02Z</time>
      </trkpt>
      <trkpt lat="43.94861" lon="5.23076">
        <ele>440</ele>
        <time>2009-10-02T19:09:02Z</time>
      </trkpt>
      <trkpt lat="43.94865" lon="5.23076">
        <ele>440</ele>
        <time>2009-10-02T19:09:02Z</time>
      </trkpt>
      <trkpt lat="43.94865" lon="5.23083">
        <ele>440</ele>
        <time>2009-10-02T19:09:02Z</time>
      </trkpt>
      <trkpt lat="43.9487" lon="5.23083">
        <ele>440</ele>
        <time>2009-10-02T19:09:02Z</time>
      </trkpt>
      <trkpt lat="43.94874" lon="5.23083">
        <ele>439</ele>
        <time>2009-10-02T19:09:02Z</time>
      </trkpt>
      <trkpt lat="43.94874" lon="5.23089">
        <ele>440</ele>
        <time>2009-10-02T19:09:02Z</time>
      </trkpt>
      <trkpt lat="43.94878" lon="5.23089">
        <ele>439</ele>
        <time>2009-10-02T19:09:02Z</time>
      </trkpt>
      <trkpt lat="43.94883" lon="5.23096">
        <ele>439</ele>
        <time>2009-10-02T19:09:02Z</time>
      </trkpt>
      <trkpt lat="43.94883" lon="5.23102">
        <ele>439</ele>
        <time>2009-10-02T19:09:02Z</time>
      </trkpt>
      <trkpt lat="43.94882" lon="5.23108">
        <ele>439</ele>
        <time>2009-10-02T19:09:02Z</time>
      </trkpt>
      <trkpt lat="43.94882" lon="5.23115">
        <ele>439</ele>
        <time>2009-10-02T19:09:02Z</time>
      </trkpt>
      <trkpt lat="43.94882" lon="5.23121">
        <ele>440</ele>
        <time>2009-10-02T19:09:02Z</time>
      </trkpt>
      <trkpt lat="43.94882" lon="5.23115">
        <ele>439</ele>
        <time>2009-10-02T19:09:02Z</time>
      </trkpt>
      <trkpt lat="43.94882" lon="5.23108">
        <ele>439</ele>
        <time>2009-10-02T19:09:02Z</time>
      </trkpt>
      <trkpt lat="43.94883" lon="5.23102">
        <ele>439</ele>
        <time>2009-10-02T19:09:02Z</time>
      </trkpt>
      <trkpt lat="43.94883" lon="5.23096">
        <ele>439</ele>
        <time>2009-10-02T19:09:02Z</time>
      </trkpt>
      <trkpt lat="43.94883" lon="5.2309">
        <ele>439</ele>
        <time>2009-10-02T19:09:02Z</time>
      </trkpt>
      <trkpt lat="43.94878" lon="5.23121">
        <ele>440</ele>
        <time>2009-10-02T19:09:02Z</time>
      </trkpt>
      <trkpt lat="43.94882" lon="5.23121">
        <ele>440</ele>
        <time>2009-10-02T19:09:02Z</time>
      </trkpt>
      <trkpt lat="43.94887" lon="5.23121">
        <ele>439</ele>
        <time>2009-10-02T19:09:02Z</time>
      </trkpt>
      <trkpt lat="43.94891" lon="5.23121">
        <ele>439</ele>
        <time>2009-10-02T19:09:02Z</time>
      </trkpt>
      <trkpt lat="43.94891" lon="5.23127">
        <ele>439</ele>
        <time>2009-10-02T19:09:02Z</time>
      </trkpt>
      <trkpt lat="43.94891" lon="5.23134">
        <ele>439</ele>
        <time>2009-10-02T19:09:02Z</time>
      </trkpt>
      <trkpt lat="43.94891" lon="5.2314">
        <ele>439</ele>
        <time>2009-10-02T19:09:02Z</time>
      </trkpt>
      <trkpt lat="43.9489" lon="5.23146">
        <ele>439</ele>
        <time>2009-10-02T19:09:02Z</time>
      </trkpt>
      <trkpt lat="43.9489" lon="5.23152">
        <ele>439</ele>
        <time>2009-10-02T19:09:02Z</time>
      </trkpt>
      <trkpt lat="43.9489" lon="5.23159">
        <ele>439</ele>
        <time>2009-10-02T19:09:02Z</time>
      </trkpt>
      <trkpt lat="43.9489" lon="5.23165">
        <ele>439</ele>
        <time>2009-10-02T19:09:02Z</time>
      </trkpt>
      <trkpt lat="43.9489" lon="5.23171">
        <ele>439</ele>
        <time>2009-10-02T19:09:02Z</time>
      </trkpt>
      <trkpt lat="43.9489" lon="5.23177">
        <ele>439</ele>
        <time>2009-10-02T19:09:02Z</time>
      </trkpt>
      <trkpt lat="43.94889" lon="5.23183">
        <ele>439</ele>
        <time>2009-10-02T19:09:02Z</time>
      </trkpt>
      <trkpt lat="43.94889" lon="5.2319">
        <ele>439</ele>
        <time>2009-10-02T19:09:02Z</time>
      </trkpt>
      <trkpt lat="43.94885" lon="5.23189">
        <ele>439</ele>
        <time>2009-10-02T19:09:02Z</time>
      </trkpt>
      <trkpt lat="43.94885" lon="5.23196">
        <ele>439</ele>
        <time>2009-10-02T19:09:02Z</time>
      </trkpt>
      <trkpt lat="43.94884" lon="5.23202">
        <ele>439</ele>
        <time>2009-10-02T19:09:02Z</time>
      </trkpt>
      <trkpt lat="43.94884" lon="5.23208">
        <ele>440</ele>
        <time>2009-10-02T19:09:02Z</time>
      </trkpt>
      <trkpt lat="43.94884" lon="5.23214">
        <ele>440</ele>
        <time>2009-10-02T19:09:02Z</time>
      </trkpt>
      <trkpt lat="43.94884" lon="5.2322">
        <ele>440</ele>
        <time>2009-10-02T19:09:02Z</time>
      </trkpt>
      <trkpt lat="43.94884" lon="5.23227">
        <ele>440</ele>
        <time>2009-10-02T19:09:02Z</time>
      </trkpt>
      <trkpt lat="43.94884" lon="5.23233">
        <ele>440</ele>
        <time>2009-10-02T19:09:02Z</time>
      </trkpt>
      <trkpt lat="43.94883" lon="5.23239">
        <ele>440</ele>
        <time>2009-10-02T19:09:02Z</time>
      </trkpt>
      <trkpt lat="43.94883" lon="5.23245">
        <ele>440</ele>
        <time>2009-10-02T19:09:02Z</time>
      </trkpt>
      <trkpt lat="43.94883" lon="5.23252">
        <ele>440</ele>
        <time>2009-10-02T19:09:02Z</time>
      </trkpt>
      <trkpt lat="43.94883" lon="5.23258">
        <ele>441</ele>
        <time>2009-10-02T19:09:02Z</time>
      </trkpt>
      <trkpt lat="43.94883" lon="5.23264">
        <ele>441</ele>
        <time>2009-10-02T19:09:02Z</time>
      </trkpt>
      <trkpt lat="43.94883" lon="5.2327">
        <ele>441</ele>
        <time>2009-10-02T19:09:02Z</time>
      </trkpt>
      <trkpt lat="43.94882" lon="5.23276">
        <ele>441</ele>
        <time>2009-10-02T19:09:02Z</time>
      </trkpt>
      <trkpt lat="43.94882" lon="5.23283">
        <ele>442</ele>
        <time>2009-10-02T19:09:02Z</time>
      </trkpt>
      <trkpt lat="43.94882" lon="5.23289">
        <ele>442</ele>
        <time>2009-10-02T19:09:02Z</time>
      </trkpt>
      <trkpt lat="43.94882" lon="5.23295">
        <ele>442</ele>
        <time>2009-10-02T19:09:02Z</time>
      </trkpt>
      <trkpt lat="43.94882" lon="5.23301">
        <ele>443</ele>
        <time>2009-10-02T19:09:02Z</time>
      </trkpt>
      <trkpt lat="43.94882" lon="5.23308">
        <ele>443</ele>
        <time>2009-10-02T19:09:02Z</time>
      </trkpt>
      <trkpt lat="43.94881" lon="5.23314">
        <ele>443</ele>
        <time>2009-10-02T19:09:02Z</time>
      </trkpt>
      <trkpt lat="43.94881" lon="5.2332">
        <ele>444</ele>
        <time>2009-10-02T19:09:02Z</time>
      </trkpt>
      <trkpt lat="43.94881" lon="5.23326">
        <ele>444</ele>
        <time>2009-10-02T19:09:02Z</time>
      </trkpt>
      <trkpt lat="43.94881" lon="5.23332">
        <ele>444</ele>
        <time>2009-10-02T19:09:02Z</time>
      </trkpt>
      <trkpt lat="43.94881" lon="5.23339">
        <ele>445</ele>
        <time>2009-10-02T19:09:02Z</time>
      </trkpt>
      <trkpt lat="43.94881" lon="5.23345">
        <ele>445</ele>
        <time>2009-10-02T19:09:02Z</time>
      </trkpt>
      <trkpt lat="43.9488" lon="5.23351">
        <ele>445</ele>
        <time>2009-10-02T19:09:02Z</time>
      </trkpt>
      <trkpt lat="43.9488" lon="5.23357">
        <ele>446</ele>
        <time>2009-10-02T19:09:02Z</time>
      </trkpt>
      <trkpt lat="43.9488" lon="5.23364">
        <ele>446</ele>
        <time>2009-10-02T19:09:02Z</time>
      </trkpt>
      <trkpt lat="43.9488" lon="5.2337">
        <ele>447</ele>
        <time>2009-10-02T19:09:02Z</time>
      </trkpt>
      <trkpt lat="43.9488" lon="5.23376">
        <ele>447</ele>
        <time>2009-10-02T19:09:02Z</time>
      </trkpt>
      <trkpt lat="43.9488" lon="5.23382">
        <ele>447</ele>
        <time>2009-10-02T19:09:02Z</time>
      </trkpt>
      <trkpt lat="43.94879" lon="5.23388">
        <ele>447</ele>
        <time>2009-10-02T19:09:02Z</time>
      </trkpt>
      <trkpt lat="43.94879" lon="5.23395">
        <ele>447</ele>
        <time>2009-10-02T19:09:02Z</time>
      </trkpt>
      <trkpt lat="43.94879" lon="5.23401">
        <ele>447</ele>
        <time>2009-10-02T19:09:02Z</time>
      </trkpt>
      <trkpt lat="43.94883" lon="5.23407">
        <ele>447</ele>
        <time>2009-10-02T19:09:02Z</time>
      </trkpt>
      <trkpt lat="43.94883" lon="5.23413">
        <ele>447</ele>
        <time>2009-10-02T19:09:02Z</time>
      </trkpt>
      <trkpt lat="43.94883" lon="5.2342">
        <ele>447</ele>
        <time>2009-10-02T19:09:02Z</time>
      </trkpt>
      <trkpt lat="43.94883" lon="5.23426">
        <ele>447</ele>
        <time>2009-10-02T19:09:02Z</time>
      </trkpt>
      <trkpt lat="43.94887" lon="5.23426">
        <ele>448</ele>
        <time>2009-10-02T19:09:02Z</time>
      </trkpt>
      <trkpt lat="43.94892" lon="5.23426">
        <ele>449</ele>
        <time>2009-10-02T19:09:02Z</time>
      </trkpt>
      <trkpt lat="43.94896" lon="5.23427">
        <ele>450</ele>
        <time>2009-10-02T19:09:02Z</time>
      </trkpt>
      <trkpt lat="43.94901" lon="5.23433">
        <ele>450</ele>
        <time>2009-10-02T19:09:02Z</time>
      </trkpt>
      <trkpt lat="43.94905" lon="5.23433">
        <ele>451</ele>
        <time>2009-10-02T19:09:02Z</time>
      </trkpt>
      <trkpt lat="43.94905" lon="5.23439">
        <ele>451</ele>
        <time>2009-10-02T19:09:02Z</time>
      </trkpt>
      <trkpt lat="43.9491" lon="5.2344">
        <ele>452</ele>
        <time>2009-10-02T19:09:02Z</time>
      </trkpt>
      <trkpt lat="43.94909" lon="5.23446">
        <ele>451</ele>
        <time>2009-10-02T19:09:02Z</time>
      </trkpt>
      <trkpt lat="43.94914" lon="5.23446">
        <ele>452</ele>
        <time>2009-10-02T19:09:02Z</time>
      </trkpt>
      <trkpt lat="43.94914" lon="5.23452">
        <ele>452</ele>
        <time>2009-10-02T19:09:02Z</time>
      </trkpt>
      <trkpt lat="43.94914" lon="5.23459">
        <ele>452</ele>
        <time>2009-10-02T19:09:02Z</time>
      </trkpt>
      <trkpt lat="43.94913" lon="5.23465">
        <ele>452</ele>
        <time>2009-10-02T19:09:02Z</time>
      </trkpt>
      <trkpt lat="43.94913" lon="5.23471">
        <ele>452</ele>
        <time>2009-10-02T19:09:02Z</time>
      </trkpt>
      <trkpt lat="43.94913" lon="5.23477">
        <ele>451</ele>
        <time>2009-10-02T19:09:02Z</time>
      </trkpt>
      <trkpt lat="43.94913" lon="5.23483">
        <ele>451</ele>
        <time>2009-10-02T19:09:02Z</time>
      </trkpt>
      <trkpt lat="43.94917" lon="5.23484">
        <ele>452</ele>
        <time>2009-10-02T19:09:02Z</time>
      </trkpt>
      <trkpt lat="43.94917" lon="5.2349">
        <ele>452</ele>
        <time>2009-10-02T19:09:02Z</time>
      </trkpt>
      <trkpt lat="43.94917" lon="5.23496">
        <ele>452</ele>
        <time>2009-10-02T19:09:02Z</time>
      </trkpt>
      <trkpt lat="43.94917" lon="5.23502">
        <ele>451</ele>
        <time>2009-10-02T19:09:02Z</time>
      </trkpt>
      <trkpt lat="43.94917" lon="5.23509">
        <ele>451</ele>
        <time>2009-10-02T19:09:02Z</time>
      </trkpt>
      <trkpt lat="43.94917" lon="5.23515">
        <ele>451</ele>
        <time>2009-10-02T19:09:02Z</time>
      </trkpt>
      <trkpt lat="43.94916" lon="5.23521">
        <ele>451</ele>
        <time>2009-10-02T19:09:02Z</time>
      </trkpt>
      <trkpt lat="43.94916" lon="5.23527">
        <ele>452</ele>
        <time>2009-10-02T19:09:02Z</time>
      </trkpt>
      <trkpt lat="43.94916" lon="5.23533">
        <ele>452</ele>
        <time>2009-10-02T19:09:02Z</time>
      </trkpt>
      <trkpt lat="43.94916" lon="5.2354">
        <ele>452</ele>
        <time>2009-10-02T19:09:02Z</time>
      </trkpt>
      <trkpt lat="43.9492" lon="5.23546">
        <ele>452</ele>
        <time>2009-10-02T19:09:02Z</time>
      </trkpt>
      <trkpt lat="43.94925" lon="5.23553">
        <ele>452</ele>
        <time>2009-10-02T19:09:02Z</time>
      </trkpt>
      <trkpt lat="43.94929" lon="5.23559">
        <ele>453</ele>
        <time>2009-10-02T19:09:02Z</time>
      </trkpt>
      <trkpt lat="43.94929" lon="5.23565">
        <ele>453</ele>
        <time>2009-10-02T19:09:02Z</time>
      </trkpt>
      <trkpt lat="43.94933" lon="5.23565">
        <ele>453</ele>
        <time>2009-10-02T19:09:02Z</time>
      </trkpt>
      <trkpt lat="43.94933" lon="5.23572">
        <ele>453</ele>
        <time>2009-10-02T19:09:02Z</time>
      </trkpt>
      <trkpt lat="43.94933" lon="5.23578">
        <ele>453</ele>
        <time>2009-10-02T19:09:02Z</time>
      </trkpt>
      <trkpt lat="43.94933" lon="5.23584">
        <ele>454</ele>
        <time>2009-10-02T19:09:02Z</time>
      </trkpt>
      <trkpt lat="43.94933" lon="5.2359">
        <ele>454</ele>
        <time>2009-10-02T19:09:02Z</time>
      </trkpt>
      <trkpt lat="43.94937" lon="5.23591">
        <ele>454</ele>
        <time>2009-10-02T19:09:02Z</time>
      </trkpt>
      <trkpt lat="43.94937" lon="5.23597">
        <ele>454</ele>
        <time>2009-10-02T19:09:02Z</time>
      </trkpt>
      <trkpt lat="43.94941" lon="5.23597">
        <ele>455</ele>
        <time>2009-10-02T19:09:02Z</time>
      </trkpt>
      <trkpt lat="43.94941" lon="5.23603">
        <ele>455</ele>
        <time>2009-10-02T19:09:02Z</time>
      </trkpt>
      <trkpt lat="43.94946" lon="5.23603">
        <ele>455</ele>
        <time>2009-10-02T19:09:02Z</time>
      </trkpt>
      <trkpt lat="43.9495" lon="5.23604">
        <ele>456</ele>
        <time>2009-10-02T19:09:02Z</time>
      </trkpt>
      <trkpt lat="43.9495" lon="5.2361">
        <ele>456</ele>
        <time>2009-10-02T19:09:02Z</time>
      </trkpt>
      <trkpt lat="43.94954" lon="5.23616">
        <ele>457</ele>
        <time>2009-10-02T19:09:02Z</time>
      </trkpt>
      <trkpt lat="43.94954" lon="5.23623">
        <ele>457</ele>
        <time>2009-10-02T19:09:02Z</time>
      </trkpt>
      <trkpt lat="43.94959" lon="5.23623">
        <ele>457</ele>
        <time>2009-10-02T19:09:02Z</time>
      </trkpt>
      <trkpt lat="43.94958" lon="5.23629">
        <ele>457</ele>
        <time>2009-10-02T19:09:02Z</time>
      </trkpt>
      <trkpt lat="43.94963" lon="5.23629">
        <ele>458</ele>
        <time>2009-10-02T19:09:02Z</time>
      </trkpt>
      <trkpt lat="43.94963" lon="5.23635">
        <ele>458</ele>
        <time>2009-10-02T19:09:02Z</time>
      </trkpt>
      <trkpt lat="43.94967" lon="5.23642">
        <ele>458</ele>
        <time>2009-10-02T19:09:02Z</time>
      </trkpt>
      <trkpt lat="43.94971" lon="5.23648">
        <ele>459</ele>
        <time>2009-10-02T19:09:02Z</time>
      </trkpt>
      <trkpt lat="43.94971" lon="5.23655">
        <ele>459</ele>
        <time>2009-10-02T19:09:02Z</time>
      </trkpt>
      <trkpt lat="43.94976" lon="5.23655">
        <ele>459</ele>
        <time>2009-10-02T19:09:02Z</time>
      </trkpt>
      <trkpt lat="43.9498" lon="5.23655">
        <ele>460</ele>
        <time>2009-10-02T19:09:02Z</time>
      </trkpt>
      <trkpt lat="43.94985" lon="5.23655">
        <ele>460</ele>
        <time>2009-10-02T19:09:02Z</time>
      </trkpt>
      <trkpt lat="43.94989" lon="5.23655">
        <ele>461</ele>
        <time>2009-10-02T19:09:02Z</time>
      </trkpt>
      <trkpt lat="43.94989" lon="5.23662">
        <ele>460</ele>
        <time>2009-10-02T19:09:02Z</time>
      </trkpt>
      <trkpt lat="43.94994" lon="5.23662">
        <ele>461</ele>
        <time>2009-10-02T19:09:02Z</time>
      </trkpt>
      <trkpt lat="43.94993" lon="5.23668">
        <ele>461</ele>
        <time>2009-10-02T19:09:02Z</time>
      </trkpt>
      <trkpt lat="43.94993" lon="5.23674">
        <ele>461</ele>
        <time>2009-10-02T19:09:02Z</time>
      </trkpt>
      <trkpt lat="43.94998" lon="5.23675">
        <ele>461</ele>
        <time>2009-10-02T19:09:02Z</time>
      </trkpt>
      <trkpt lat="43.94998" lon="5.23681">
        <ele>461</ele>
        <time>2009-10-02T19:09:02Z</time>
      </trkpt>
      <trkpt lat="43.95002" lon="5.23681">
        <ele>462</ele>
        <time>2009-10-02T19:09:02Z</time>
      </trkpt>
      <trkpt lat="43.95002" lon="5.23687">
        <ele>461</ele>
        <time>2009-10-02T19:09:02Z</time>
      </trkpt>
      <trkpt lat="43.95006" lon="5.23687">
        <ele>462</ele>
        <time>2009-10-02T19:09:02Z</time>
      </trkpt>
      <trkpt lat="43.95006" lon="5.23694">
        <ele>462</ele>
        <time>2009-10-02T19:09:02Z</time>
      </trkpt>
      <trkpt lat="43.95006" lon="5.237">
        <ele>462</ele>
        <time>2009-10-02T19:09:02Z</time>
      </trkpt>
      <trkpt lat="43.95006" lon="5.23706">
        <ele>462</ele>
        <time>2009-10-02T19:09:02Z</time>
      </trkpt>
      <trkpt lat="43.95006" lon="5.23712">
        <ele>462</ele>
        <time>2009-10-02T19:09:02Z</time>
      </trkpt>
      <trkpt lat="43.95006" lon="5.23719">
        <ele>462</ele>
        <time>2009-10-02T19:09:02Z</time>
      </trkpt>
      <trkpt lat="43.95005" lon="5.23725">
        <ele>462</ele>
        <time>2009-10-02T19:09:02Z</time>
      </trkpt>
      <trkpt lat="43.95005" lon="5.23731">
        <ele>462</ele>
        <time>2009-10-02T19:09:02Z</time>
      </trkpt>
      <trkpt lat="43.95005" lon="5.23737">
        <ele>462</ele>
        <time>2009-10-02T19:09:02Z</time>
      </trkpt>
      <trkpt lat="43.95005" lon="5.23743">
        <ele>463</ele>
        <time>2009-10-02T19:09:02Z</time>
      </trkpt>
      <trkpt lat="43.95" lon="5.23749">
        <ele>462</ele>
        <time>2009-10-02T19:09:02Z</time>
      </trkpt>
      <trkpt lat="43.95" lon="5.23756">
        <ele>462</ele>
        <time>2009-10-02T19:09:02Z</time>
      </trkpt>
      <trkpt lat="43.95" lon="5.23762">
        <ele>463</ele>
        <time>2009-10-02T19:09:02Z</time>
      </trkpt>
      <trkpt lat="43.95" lon="5.23768">
        <ele>463</ele>
        <time>2009-10-02T19:09:02Z</time>
      </trkpt>
      <trkpt lat="43.95" lon="5.23774">
        <ele>463</ele>
        <time>2009-10-02T19:09:02Z</time>
      </trkpt>
      <trkpt lat="43.94999" lon="5.23781">
        <ele>464</ele>
        <time>2009-10-02T19:09:02Z</time>
      </trkpt>
      <trkpt lat="43.95004" lon="5.23781">
        <ele>464</ele>
        <time>2009-10-02T19:09:02Z</time>
      </trkpt>
      <trkpt lat="43.95008" lon="5.23781">
        <ele>464</ele>
        <time>2009-10-02T19:09:02Z</time>
      </trkpt>
      <trkpt lat="43.95013" lon="5.23781">
        <ele>465</ele>
        <time>2009-10-02T19:09:02Z</time>
      </trkpt>
      <trkpt lat="43.95017" lon="5.23788">
        <ele>465</ele>
        <time>2009-10-02T19:09:02Z</time>
      </trkpt>
      <trkpt lat="43.95022" lon="5.23794">
        <ele>466</ele>
        <time>2009-10-02T19:09:02Z</time>
      </trkpt>
      <trkpt lat="43.95021" lon="5.238">
        <ele>466</ele>
        <time>2009-10-02T19:09:02Z</time>
      </trkpt>
      <trkpt lat="43.95026" lon="5.23801">
        <ele>467</ele>
        <time>2009-10-02T19:09:02Z</time>
      </trkpt>
      <trkpt lat="43.95026" lon="5.23807">
        <ele>467</ele>
        <time>2009-10-02T19:09:02Z</time>
      </trkpt>
      <trkpt lat="43.9503" lon="5.23813">
        <ele>467</ele>
        <time>2009-10-02T19:09:02Z</time>
      </trkpt>
      <trkpt lat="43.9503" lon="5.23819">
        <ele>468</ele>
        <time>2009-10-02T19:09:02Z</time>
      </trkpt>
      <trkpt lat="43.9503" lon="5.23826">
        <ele>468</ele>
        <time>2009-10-02T19:09:02Z</time>
      </trkpt>
      <trkpt lat="43.95034" lon="5.23826">
        <ele>468</ele>
        <time>2009-10-02T19:09:02Z</time>
      </trkpt>
      <trkpt lat="43.95034" lon="5.23832">
        <ele>469</ele>
        <time>2009-10-02T19:09:02Z</time>
      </trkpt>
      <trkpt lat="43.95039" lon="5.23832">
        <ele>469</ele>
        <time>2009-10-02T19:09:02Z</time>
      </trkpt>
      <trkpt lat="43.95038" lon="5.23839">
        <ele>470</ele>
        <time>2009-10-02T19:09:02Z</time>
      </trkpt>
      <trkpt lat="43.95043" lon="5.23839">
        <ele>470</ele>
        <time>2009-10-02T19:09:02Z</time>
      </trkpt>
      <trkpt lat="43.95047" lon="5.23839">
        <ele>470</ele>
        <time>2009-10-02T19:09:02Z</time>
      </trkpt>
      <trkpt lat="43.95047" lon="5.23845">
        <ele>471</ele>
        <time>2009-10-02T19:09:02Z</time>
      </trkpt>
      <trkpt lat="43.95052" lon="5.23845">
        <ele>471</ele>
        <time>2009-10-02T19:09:02Z</time>
      </trkpt>
      <trkpt lat="43.95056" lon="5.23846">
        <ele>471</ele>
        <time>2009-10-02T19:09:02Z</time>
      </trkpt>
      <trkpt lat="43.95056" lon="5.23852">
        <ele>472</ele>
        <time>2009-10-02T19:09:02Z</time>
      </trkpt>
      <trkpt lat="43.9506" lon="5.23852">
        <ele>472</ele>
        <time>2009-10-02T19:09:02Z</time>
      </trkpt>
      <trkpt lat="43.95065" lon="5.23852">
        <ele>472</ele>
        <time>2009-10-02T19:09:02Z</time>
      </trkpt>
      <trkpt lat="43.95069" lon="5.23859">
        <ele>473</ele>
        <time>2009-10-02T19:09:02Z</time>
      </trkpt>
      <trkpt lat="43.95074" lon="5.23859">
        <ele>473</ele>
        <time>2009-10-02T19:09:02Z</time>
      </trkpt>
      <trkpt lat="43.95074" lon="5.23865">
        <ele>473</ele>
        <time>2009-10-02T19:09:02Z</time>
      </trkpt>
      <trkpt lat="43.95078" lon="5.23865">
        <ele>473</ele>
        <time>2009-10-02T19:09:02Z</time>
      </trkpt>
      <trkpt lat="43.95078" lon="5.23872">
        <ele>474</ele>
        <time>2009-10-02T19:09:02Z</time>
      </trkpt>
      <trkpt lat="43.95078" lon="5.23878">
        <ele>474</ele>
        <time>2009-10-02T19:09:02Z</time>
      </trkpt>
      <trkpt lat="43.95082" lon="5.23878">
        <ele>474</ele>
        <time>2009-10-02T19:09:02Z</time>
      </trkpt>
      <trkpt lat="43.95082" lon="5.23884">
        <ele>475</ele>
        <time>2009-10-02T19:09:02Z</time>
      </trkpt>
      <trkpt lat="43.95082" lon="5.23891">
        <ele>475</ele>
        <time>2009-10-02T19:09:02Z</time>
      </trkpt>
      <trkpt lat="43.95086" lon="5.23891">
        <ele>476</ele>
        <time>2009-10-02T19:09:02Z</time>
      </trkpt>
      <trkpt lat="43.95086" lon="5.23897">
        <ele>476</ele>
        <time>2009-10-02T19:09:02Z</time>
      </trkpt>
      <trkpt lat="43.95091" lon="5.23897">
        <ele>476</ele>
        <time>2009-10-02T19:09:02Z</time>
      </trkpt>
      <trkpt lat="43.95091" lon="5.23903">
        <ele>477</ele>
        <time>2009-10-02T19:09:02Z</time>
      </trkpt>
      <trkpt lat="43.95095" lon="5.23904">
        <ele>477</ele>
        <time>2009-10-02T19:09:02Z</time>
      </trkpt>
      <trkpt lat="43.951" lon="5.23904">
        <ele>477</ele>
        <time>2009-10-02T19:09:02Z</time>
      </trkpt>
      <trkpt lat="43.95104" lon="5.23904">
        <ele>477</ele>
        <time>2009-10-02T19:09:02Z</time>
      </trkpt>
      <trkpt lat="43.95104" lon="5.2391">
        <ele>478</ele>
        <time>2009-10-02T19:09:02Z</time>
      </trkpt>
      <trkpt lat="43.95108" lon="5.23911">
        <ele>478</ele>
        <time>2009-10-02T19:09:02Z</time>
      </trkpt>
      <trkpt lat="43.95113" lon="5.23917">
        <ele>479</ele>
        <time>2009-10-02T19:09:02Z</time>
      </trkpt>
      <trkpt lat="43.95117" lon="5.23924">
        <ele>480</ele>
        <time>2009-10-02T19:09:02Z</time>
      </trkpt>
      <trkpt lat="43.95121" lon="5.2393">
        <ele>481</ele>
        <time>2009-10-02T19:09:02Z</time>
      </trkpt>
      <trkpt lat="43.95126" lon="5.2393">
        <ele>481</ele>
        <time>2009-10-02T19:09:02Z</time>
      </trkpt>
      <trkpt lat="43.95126" lon="5.23936">
        <ele>482</ele>
        <time>2009-10-02T19:09:02Z</time>
      </trkpt>
      <trkpt lat="43.9513" lon="5.23937">
        <ele>482</ele>
        <time>2009-10-02T19:09:02Z</time>
      </trkpt>
      <trkpt lat="43.95135" lon="5.23937">
        <ele>482</ele>
        <time>2009-10-02T19:09:02Z</time>
      </trkpt>
      <trkpt lat="43.95139" lon="5.23937">
        <ele>483</ele>
        <time>2009-10-02T19:09:02Z</time>
      </trkpt>
      <trkpt lat="43.95144" lon="5.23937">
        <ele>483</ele>
        <time>2009-10-02T19:09:02Z</time>
      </trkpt>
      <trkpt lat="43.95148" lon="5.23944">
        <ele>484</ele>
        <time>2009-10-02T19:09:02Z</time>
      </trkpt>
      <trkpt lat="43.95152" lon="5.23944">
        <ele>485</ele>
        <time>2009-10-02T19:09:02Z</time>
      </trkpt>
      <trkpt lat="43.95157" lon="5.23944">
        <ele>485</ele>
        <time>2009-10-02T19:09:02Z</time>
      </trkpt>
      <trkpt lat="43.95157" lon="5.2395">
        <ele>486</ele>
        <time>2009-10-02T19:09:02Z</time>
      </trkpt>
      <trkpt lat="43.95161" lon="5.23951">
        <ele>486</ele>
        <time>2009-10-02T19:09:02Z</time>
      </trkpt>
      <trkpt lat="43.95161" lon="5.23957">
        <ele>487</ele>
        <time>2009-10-02T19:09:02Z</time>
      </trkpt>
      <trkpt lat="43.95166" lon="5.23957">
        <ele>487</ele>
        <time>2009-10-02T19:09:02Z</time>
      </trkpt>
      <trkpt lat="43.9517" lon="5.23964">
        <ele>489</ele>
        <time>2009-10-02T19:09:02Z</time>
      </trkpt>
      <trkpt lat="43.95174" lon="5.23964">
        <ele>489</ele>
        <time>2009-10-02T19:09:02Z</time>
      </trkpt>
      <trkpt lat="43.95174" lon="5.2397">
        <ele>490</ele>
        <time>2009-10-02T19:09:02Z</time>
      </trkpt>
      <trkpt lat="43.95179" lon="5.2397">
        <ele>490</ele>
        <time>2009-10-02T19:09:02Z</time>
      </trkpt>
      <trkpt lat="43.95183" lon="5.2397">
        <ele>490</ele>
        <time>2009-10-02T19:09:02Z</time>
      </trkpt>
      <trkpt lat="43.95188" lon="5.23971">
        <ele>491</ele>
        <time>2009-10-02T19:09:02Z</time>
      </trkpt>
      <trkpt lat="43.95192" lon="5.23977">
        <ele>492</ele>
        <time>2009-10-02T19:09:02Z</time>
      </trkpt>
      <trkpt lat="43.95196" lon="5.23984">
        <ele>493</ele>
        <time>2009-10-02T19:09:02Z</time>
      </trkpt>
      <trkpt lat="43.95196" lon="5.2399">
        <ele>494</ele>
        <time>2009-10-02T19:09:02Z</time>
      </trkpt>
      <trkpt lat="43.95196" lon="5.23996">
        <ele>495</ele>
        <time>2009-10-02T19:09:02Z</time>
      </trkpt>
      <trkpt lat="43.95192" lon="5.23996">
        <ele>494</ele>
        <time>2009-10-02T19:09:02Z</time>
      </trkpt>
      <trkpt lat="43.95191" lon="5.24002">
        <ele>495</ele>
        <time>2009-10-02T19:09:02Z</time>
      </trkpt>
      <trkpt lat="43.95191" lon="5.24008">
        <ele>495</ele>
        <time>2009-10-02T19:09:02Z</time>
      </trkpt>
      <trkpt lat="43.95187" lon="5.24008">
        <ele>495</ele>
        <time>2009-10-02T19:09:02Z</time>
      </trkpt>
      <trkpt lat="43.95187" lon="5.24014">
        <ele>496</ele>
        <time>2009-10-02T19:09:02Z</time>
      </trkpt>
      <trkpt lat="43.95182" lon="5.24014">
        <ele>495</ele>
        <time>2009-10-02T19:09:02Z</time>
      </trkpt>
      <trkpt lat="43.95182" lon="5.2402">
        <ele>496</ele>
        <time>2009-10-02T19:09:02Z</time>
      </trkpt>
      <trkpt lat="43.95182" lon="5.24026">
        <ele>497</ele>
        <time>2009-10-02T19:09:02Z</time>
      </trkpt>
      <trkpt lat="43.95177" lon="5.24026">
        <ele>497</ele>
        <time>2009-10-02T19:09:02Z</time>
      </trkpt>
      <trkpt lat="43.95173" lon="5.24026">
        <ele>497</ele>
        <time>2009-10-02T19:09:02Z</time>
      </trkpt>
      <trkpt lat="43.95168" lon="5.24026">
        <ele>497</ele>
        <time>2009-10-02T19:09:02Z</time>
      </trkpt>
      <trkpt lat="43.95164" lon="5.24026">
        <ele>497</ele>
        <time>2009-10-02T19:09:02Z</time>
      </trkpt>
      <trkpt lat="43.95159" lon="5.24025">
        <ele>496</ele>
        <time>2009-10-02T19:09:02Z</time>
      </trkpt>
      <trkpt lat="43.95155" lon="5.24031">
        <ele>497</ele>
        <time>2009-10-02T19:09:02Z</time>
      </trkpt>
      <trkpt lat="43.95154" lon="5.24037">
        <ele>498</ele>
        <time>2009-10-02T19:09:02Z</time>
      </trkpt>
      <trkpt lat="43.9515" lon="5.24043">
        <ele>499</ele>
        <time>2009-10-02T19:09:02Z</time>
      </trkpt>
      <trkpt lat="43.95145" lon="5.24043">
        <ele>499</ele>
        <time>2009-10-02T19:09:02Z</time>
      </trkpt>
      <trkpt lat="43.95145" lon="5.24049">
        <ele>500</ele>
        <time>2009-10-02T19:09:02Z</time>
      </trkpt>
      <trkpt lat="43.95141" lon="5.24049">
        <ele>500</ele>
        <time>2009-10-02T19:09:02Z</time>
      </trkpt>
      <trkpt lat="43.95141" lon="5.24055">
        <ele>501</ele>
        <time>2009-10-02T19:09:02Z</time>
      </trkpt>
      <trkpt lat="43.9514" lon="5.24062">
        <ele>502</ele>
        <time>2009-10-02T19:09:02Z</time>
      </trkpt>
      <trkpt lat="43.95136" lon="5.24061">
        <ele>502</ele>
        <time>2009-10-02T19:09:02Z</time>
      </trkpt>
      <trkpt lat="43.95136" lon="5.24068">
        <ele>503</ele>
        <time>2009-10-02T19:09:02Z</time>
      </trkpt>
      <trkpt lat="43.95131" lon="5.24074">
        <ele>504</ele>
        <time>2009-10-02T19:09:02Z</time>
      </trkpt>
      <trkpt lat="43.95131" lon="5.2408">
        <ele>504</ele>
        <time>2009-10-02T19:09:02Z</time>
      </trkpt>
      <trkpt lat="43.95131" lon="5.24086">
        <ele>504</ele>
        <time>2009-10-02T19:09:02Z</time>
      </trkpt>
      <trkpt lat="43.95131" lon="5.24092">
        <ele>505</ele>
        <time>2009-10-02T19:09:02Z</time>
      </trkpt>
      <trkpt lat="43.95126" lon="5.24098">
        <ele>504</ele>
        <time>2009-10-02T19:09:02Z</time>
      </trkpt>
      <trkpt lat="43.95126" lon="5.24105">
        <ele>505</ele>
        <time>2009-10-02T19:09:02Z</time>
      </trkpt>
      <trkpt lat="43.95126" lon="5.24111">
        <ele>505</ele>
        <time>2009-10-02T19:09:02Z</time>
      </trkpt>
      <trkpt lat="43.95125" lon="5.24117">
        <ele>505</ele>
        <time>2009-10-02T19:09:02Z</time>
      </trkpt>
      <trkpt lat="43.95125" lon="5.24123">
        <ele>506</ele>
        <time>2009-10-02T19:09:02Z</time>
      </trkpt>
      <trkpt lat="43.95125" lon="5.24129">
        <ele>506</ele>
        <time>2009-10-02T19:09:02Z</time>
      </trkpt>
      <trkpt lat="43.9512" lon="5.24135">
        <ele>505</ele>
        <time>2009-10-02T19:09:02Z</time>
      </trkpt>
      <trkpt lat="43.9512" lon="5.24142">
        <ele>506</ele>
        <time>2009-10-02T19:09:02Z</time>
      </trkpt>
      <trkpt lat="43.9512" lon="5.24148">
        <ele>506</ele>
        <time>2009-10-02T19:09:02Z</time>
      </trkpt>
      <trkpt lat="43.9512" lon="5.24154">
        <ele>506</ele>
        <time>2009-10-02T19:09:02Z</time>
      </trkpt>
      <trkpt lat="43.9512" lon="5.2416">
        <ele>506</ele>
        <time>2009-10-02T19:09:02Z</time>
      </trkpt>
      <trkpt lat="43.9512" lon="5.24166">
        <ele>506</ele>
        <time>2009-10-02T19:09:02Z</time>
      </trkpt>
      <trkpt lat="43.95119" lon="5.24173">
        <ele>506</ele>
        <time>2009-10-02T19:09:02Z</time>
      </trkpt>
      <trkpt lat="43.95119" lon="5.24179">
        <ele>506</ele>
        <time>2009-10-02T19:09:02Z</time>
      </trkpt>
      <trkpt lat="43.95119" lon="5.24185">
        <ele>506</ele>
        <time>2009-10-02T19:09:02Z</time>
      </trkpt>
      <trkpt lat="43.95119" lon="5.24191">
        <ele>506</ele>
        <time>2009-10-02T19:09:02Z</time>
      </trkpt>
      <trkpt lat="43.95119" lon="5.24198">
        <ele>506</ele>
        <time>2009-10-02T19:09:02Z</time>
      </trkpt>
      <trkpt lat="43.95119" lon="5.24204">
        <ele>506</ele>
        <time>2009-10-02T19:09:02Z</time>
      </trkpt>
      <trkpt lat="43.95118" lon="5.2421">
        <ele>507</ele>
        <time>2009-10-02T19:09:02Z</time>
      </trkpt>
      <trkpt lat="43.95118" lon="5.24216">
        <ele>507</ele>
        <time>2009-10-02T19:09:02Z</time>
      </trkpt>
      <trkpt lat="43.95118" lon="5.24222">
        <ele>507</ele>
        <time>2009-10-02T19:09:02Z</time>
      </trkpt>
      <trkpt lat="43.95118" lon="5.24229">
        <ele>507</ele>
        <time>2009-10-02T19:09:02Z</time>
      </trkpt>
      <trkpt lat="43.95118" lon="5.24235">
        <ele>507</ele>
        <time>2009-10-02T19:09:02Z</time>
      </trkpt>
      <trkpt lat="43.95118" lon="5.24241">
        <ele>507</ele>
        <time>2009-10-02T19:09:02Z</time>
      </trkpt>
      <trkpt lat="43.95117" lon="5.24247">
        <ele>508</ele>
        <time>2009-10-02T19:09:02Z</time>
      </trkpt>
      <trkpt lat="43.95117" lon="5.24254">
        <ele>508</ele>
        <time>2009-10-02T19:09:02Z</time>
      </trkpt>
      <trkpt lat="43.95117" lon="5.2426">
        <ele>508</ele>
        <time>2009-10-02T19:09:02Z</time>
      </trkpt>
      <trkpt lat="43.95112" lon="5.24266">
        <ele>507</ele>
        <time>2009-10-02T19:09:02Z</time>
      </trkpt>
      <trkpt lat="43.95112" lon="5.24272">
        <ele>508</ele>
        <time>2009-10-02T19:09:02Z</time>
      </trkpt>
      <trkpt lat="43.95108" lon="5.24278">
        <ele>507</ele>
        <time>2009-10-02T19:09:02Z</time>
      </trkpt>
      <trkpt lat="43.95107" lon="5.24284">
        <ele>507</ele>
        <time>2009-10-02T19:09:02Z</time>
      </trkpt>
      <trkpt lat="43.95107" lon="5.2429">
        <ele>508</ele>
        <time>2009-10-02T19:09:02Z</time>
      </trkpt>
      <trkpt lat="43.95107" lon="5.24297">
        <ele>508</ele>
        <time>2009-10-02T19:09:02Z</time>
      </trkpt>
      <trkpt lat="43.95107" lon="5.24303">
        <ele>509</ele>
        <time>2009-10-02T19:09:02Z</time>
      </trkpt>
      <trkpt lat="43.95107" lon="5.24309">
        <ele>509</ele>
        <time>2009-10-02T19:09:02Z</time>
      </trkpt>
      <trkpt lat="43.95107" lon="5.24315">
        <ele>510</ele>
        <time>2009-10-02T19:09:02Z</time>
      </trkpt>
      <trkpt lat="43.95106" lon="5.24321">
        <ele>510</ele>
        <time>2009-10-02T19:09:02Z</time>
      </trkpt>
      <trkpt lat="43.95102" lon="5.24321">
        <ele>510</ele>
        <time>2009-10-02T19:09:02Z</time>
      </trkpt>
      <trkpt lat="43.95097" lon="5.24321">
        <ele>509</ele>
        <time>2009-10-02T19:09:02Z</time>
      </trkpt>
      <trkpt lat="43.95093" lon="5.24321">
        <ele>509</ele>
        <time>2009-10-02T19:09:02Z</time>
      </trkpt>
      <trkpt lat="43.95093" lon="5.24327">
        <ele>509</ele>
        <time>2009-10-02T19:09:02Z</time>
      </trkpt>
      <trkpt lat="43.95088" lon="5.24327">
        <ele>509</ele>
        <time>2009-10-02T19:09:02Z</time>
      </trkpt>
      <trkpt lat="43.95084" lon="5.24327">
        <ele>508</ele>
        <time>2009-10-02T19:09:02Z</time>
      </trkpt>
      <trkpt lat="43.95079" lon="5.24326">
        <ele>508</ele>
        <time>2009-10-02T19:09:02Z</time>
      </trkpt>
      <trkpt lat="43.95075" lon="5.24326">
        <ele>508</ele>
        <time>2009-10-02T19:09:02Z</time>
      </trkpt>
      <trkpt lat="43.9507" lon="5.24326">
        <ele>508</ele>
        <time>2009-10-02T19:09:02Z</time>
      </trkpt>
      <trkpt lat="43.95066" lon="5.24326">
        <ele>508</ele>
        <time>2009-10-02T19:09:02Z</time>
      </trkpt>
      <trkpt lat="43.95066" lon="5.24319">
        <ele>507</ele>
        <time>2009-10-02T19:09:02Z</time>
      </trkpt>
      <trkpt lat="43.95062" lon="5.24319">
        <ele>507</ele>
        <time>2009-10-02T19:09:02Z</time>
      </trkpt>
      <trkpt lat="43.95062" lon="5.24313">
        <ele>506</ele>
        <time>2009-10-02T19:09:02Z</time>
      </trkpt>
      <trkpt lat="43.95057" lon="5.24313">
        <ele>506</ele>
        <time>2009-10-02T19:09:02Z</time>
      </trkpt>
      <trkpt lat="43.95053" lon="5.24312">
        <ele>506</ele>
        <time>2009-10-02T19:09:02Z</time>
      </trkpt>
      <trkpt lat="43.95053" lon="5.24306">
        <ele>505</ele>
        <time>2009-10-02T19:09:02Z</time>
      </trkpt>
      <trkpt lat="43.95048" lon="5.24306">
        <ele>505</ele>
        <time>2009-10-02T19:09:02Z</time>
      </trkpt>
      <trkpt lat="43.95044" lon="5.243">
        <ele>504</ele>
        <time>2009-10-02T19:09:02Z</time>
      </trkpt>
      <trkpt lat="43.95044" lon="5.24293">
        <ele>504</ele>
        <time>2009-10-02T19:09:02Z</time>
      </trkpt>
      <trkpt lat="43.9504" lon="5.24293">
        <ele>504</ele>
        <time>2009-10-02T19:09:02Z</time>
      </trkpt>
      <trkpt lat="43.9504" lon="5.24287">
        <ele>503</ele>
        <time>2009-10-02T19:09:02Z</time>
      </trkpt>
      <trkpt lat="43.95035" lon="5.24287">
        <ele>503</ele>
        <time>2009-10-02T19:09:02Z</time>
      </trkpt>
      <trkpt lat="43.95036" lon="5.2428">
        <ele>503</ele>
        <time>2009-10-02T19:09:02Z</time>
      </trkpt>
      <trkpt lat="43.95031" lon="5.24274">
        <ele>502</ele>
        <time>2009-10-02T19:09:02Z</time>
      </trkpt>
      <trkpt lat="43.95031" lon="5.24268">
        <ele>502</ele>
        <time>2009-10-02T19:09:02Z</time>
      </trkpt>
      <trkpt lat="43.95027" lon="5.24268">
        <ele>502</ele>
        <time>2009-10-02T19:09:02Z</time>
      </trkpt>
      <trkpt lat="43.95027" lon="5.24261">
        <ele>501</ele>
        <time>2009-10-02T19:09:02Z</time>
      </trkpt>
      <trkpt lat="43.95023" lon="5.24261">
        <ele>502</ele>
        <time>2009-10-02T19:09:02Z</time>
      </trkpt>
      <trkpt lat="43.95018" lon="5.24261">
        <ele>502</ele>
        <time>2009-10-02T19:09:02Z</time>
      </trkpt>
      <trkpt lat="43.95014" lon="5.24261">
        <ele>502</ele>
        <time>2009-10-02T19:09:02Z</time>
      </trkpt>
      <trkpt lat="43.95009" lon="5.2426">
        <ele>502</ele>
        <time>2009-10-02T19:09:02Z</time>
      </trkpt>
      <trkpt lat="43.95005" lon="5.2426">
        <ele>503</ele>
        <time>2009-10-02T19:09:02Z</time>
      </trkpt>
      <trkpt lat="43.95" lon="5.2426">
        <ele>503</ele>
        <time>2009-10-02T19:09:02Z</time>
      </trkpt>
      <trkpt lat="43.94996" lon="5.2426">
        <ele>503</ele>
        <time>2009-10-02T19:09:02Z</time>
      </trkpt>
      <trkpt lat="43.94991" lon="5.2426">
        <ele>504</ele>
        <time>2009-10-02T19:09:02Z</time>
      </trkpt>
      <trkpt lat="43.94987" lon="5.24259">
        <ele>504</ele>
        <time>2009-10-02T19:09:02Z</time>
      </trkpt>
      <trkpt lat="43.94982" lon="5.24259">
        <ele>504</ele>
        <time>2009-10-02T19:09:02Z</time>
      </trkpt>
      <trkpt lat="43.94978" lon="5.24259">
        <ele>504</ele>
        <time>2009-10-02T19:09:02Z</time>
      </trkpt>
      <trkpt lat="43.94973" lon="5.24259">
        <ele>505</ele>
        <time>2009-10-02T19:09:02Z</time>
      </trkpt>
      <trkpt lat="43.94969" lon="5.24258">
        <ele>505</ele>
        <time>2009-10-02T19:09:02Z</time>
      </trkpt>
      <trkpt lat="43.94964" lon="5.24258">
        <ele>505</ele>
        <time>2009-10-02T19:09:02Z</time>
      </trkpt>
      <trkpt lat="43.9496" lon="5.24258">
        <ele>505</ele>
        <time>2009-10-02T19:09:02Z</time>
      </trkpt>
      <trkpt lat="43.94955" lon="5.24258">
        <ele>506</ele>
        <time>2009-10-02T19:09:02Z</time>
      </trkpt>
      <trkpt lat="43.94951" lon="5.24257">
        <ele>506</ele>
        <time>2009-10-02T19:09:02Z</time>
      </trkpt>
      <trkpt lat="43.94946" lon="5.24257">
        <ele>506</ele>
        <time>2009-10-02T19:09:02Z</time>
      </trkpt>
      <trkpt lat="43.94942" lon="5.24257">
        <ele>506</ele>
        <time>2009-10-02T19:09:02Z</time>
      </trkpt>
      <trkpt lat="43.94937" lon="5.24257">
        <ele>506</ele>
        <time>2009-10-02T19:09:02Z</time>
      </trkpt>
      <trkpt lat="43.94937" lon="5.24263">
        <ele>506</ele>
        <time>2009-10-02T19:09:02Z</time>
      </trkpt>
      <trkpt lat="43.94933" lon="5.24263">
        <ele>506</ele>
        <time>2009-10-02T19:09:02Z</time>
      </trkpt>
      <trkpt lat="43.94928" lon="5.24262">
        <ele>506</ele>
        <time>2009-10-02T19:09:02Z</time>
      </trkpt>
      <trkpt lat="43.94924" lon="5.24262">
        <ele>507</ele>
        <time>2009-10-02T19:09:02Z</time>
      </trkpt>
      <trkpt lat="43.94919" lon="5.24262">
        <ele>507</ele>
        <time>2009-10-02T19:09:02Z</time>
      </trkpt>
      <trkpt lat="43.94915" lon="5.24262">
        <ele>507</ele>
        <time>2009-10-02T19:09:02Z</time>
      </trkpt>
      <trkpt lat="43.9491" lon="5.24262">
        <ele>507</ele>
        <time>2009-10-02T19:09:02Z</time>
      </trkpt>
      <trkpt lat="43.94906" lon="5.24261">
        <ele>507</ele>
        <time>2009-10-02T19:09:02Z</time>
      </trkpt>
      <trkpt lat="43.94901" lon="5.24261">
        <ele>507</ele>
        <time>2009-10-02T19:09:02Z</time>
      </trkpt>
      <trkpt lat="43.94897" lon="5.24261">
        <ele>507</ele>
        <time>2009-10-02T19:09:02Z</time>
      </trkpt>
      <trkpt lat="43.94892" lon="5.24261">
        <ele>506</ele>
        <time>2009-10-02T19:09:02Z</time>
      </trkpt>
      <trkpt lat="43.94888" lon="5.2426">
        <ele>506</ele>
        <time>2009-10-02T19:09:02Z</time>
      </trkpt>
      <trkpt lat="43.94887" lon="5.24267">
        <ele>506</ele>
        <time>2009-10-02T19:09:02Z</time>
      </trkpt>
      <trkpt lat="43.94883" lon="5.24266">
        <ele>506</ele>
        <time>2009-10-02T19:09:02Z</time>
      </trkpt>
      <trkpt lat="43.94878" lon="5.24266">
        <ele>506</ele>
        <time>2009-10-02T19:09:02Z</time>
      </trkpt>
      <trkpt lat="43.94874" lon="5.24266">
        <ele>505</ele>
        <time>2009-10-02T19:09:02Z</time>
      </trkpt>
      <trkpt lat="43.9487" lon="5.24266">
        <ele>505</ele>
        <time>2009-10-02T19:09:02Z</time>
      </trkpt>
      <trkpt lat="43.94869" lon="5.24272">
        <ele>505</ele>
        <time>2009-10-02T19:09:02Z</time>
      </trkpt>
      <trkpt lat="43.94869" lon="5.24278">
        <ele>505</ele>
        <time>2009-10-02T19:09:02Z</time>
      </trkpt>
      <trkpt lat="43.94865" lon="5.24278">
        <ele>504</ele>
        <time>2009-10-02T19:09:02Z</time>
      </trkpt>
      <trkpt lat="43.94865" lon="5.24284">
        <ele>504</ele>
        <time>2009-10-02T19:09:02Z</time>
      </trkpt>
      <trkpt lat="43.9486" lon="5.2429">
        <ele>503</ele>
        <time>2009-10-02T19:09:02Z</time>
      </trkpt>
      <trkpt lat="43.94855" lon="5.24296">
        <ele>503</ele>
        <time>2009-10-02T19:09:02Z</time>
      </trkpt>
      <trkpt lat="43.94855" lon="5.24302">
        <ele>502</ele>
        <time>2009-10-02T19:09:02Z</time>
      </trkpt>
      <trkpt lat="43.94851" lon="5.24302">
        <ele>502</ele>
        <time>2009-10-02T19:09:02Z</time>
      </trkpt>
      <trkpt lat="43.9485" lon="5.24308">
        <ele>501</ele>
        <time>2009-10-02T19:09:02Z</time>
      </trkpt>
      <trkpt lat="43.94846" lon="5.24314">
        <ele>500</ele>
        <time>2009-10-02T19:09:02Z</time>
      </trkpt>
      <trkpt lat="43.94846" lon="5.24321">
        <ele>500</ele>
        <time>2009-10-02T19:09:02Z</time>
      </trkpt>
      <trkpt lat="43.94841" lon="5.2432">
        <ele>500</ele>
        <time>2009-10-02T19:09:02Z</time>
      </trkpt>
      <trkpt lat="43.94841" lon="5.24327">
        <ele>500</ele>
        <time>2009-10-02T19:09:02Z</time>
      </trkpt>
      <trkpt lat="43.94836" lon="5.24333">
        <ele>499</ele>
        <time>2009-10-02T19:09:02Z</time>
      </trkpt>
      <trkpt lat="43.94836" lon="5.24339">
        <ele>499</ele>
        <time>2009-10-02T19:09:02Z</time>
      </trkpt>
      <trkpt lat="43.94832" lon="5.24338">
        <ele>498</ele>
        <time>2009-10-02T19:09:02Z</time>
      </trkpt>
      <trkpt lat="43.94831" lon="5.24345">
        <ele>498</ele>
        <time>2009-10-02T19:09:02Z</time>
      </trkpt>
      <trkpt lat="43.94827" lon="5.24344">
        <ele>497</ele>
        <time>2009-10-02T19:09:02Z</time>
      </trkpt>
      <trkpt lat="43.94827" lon="5.24351">
        <ele>497</ele>
        <time>2009-10-02T19:09:02Z</time>
      </trkpt>
      <trkpt lat="43.94827" lon="5.24357">
        <ele>497</ele>
        <time>2009-10-02T19:09:02Z</time>
      </trkpt>
      <trkpt lat="43.94822" lon="5.24357">
        <ele>496</ele>
        <time>2009-10-02T19:09:02Z</time>
      </trkpt>
      <trkpt lat="43.94822" lon="5.24363">
        <ele>496</ele>
        <time>2009-10-02T19:09:02Z</time>
      </trkpt>
      <trkpt lat="43.94817" lon="5.24363">
        <ele>495</ele>
        <time>2009-10-02T19:09:02Z</time>
      </trkpt>
      <trkpt lat="43.94817" lon="5.24369">
        <ele>495</ele>
        <time>2009-10-02T19:09:02Z</time>
      </trkpt>
      <trkpt lat="43.94817" lon="5.24375">
        <ele>495</ele>
        <time>2009-10-02T19:09:02Z</time>
      </trkpt>
      <trkpt lat="43.94813" lon="5.24375">
        <ele>494</ele>
        <time>2009-10-02T19:09:02Z</time>
      </trkpt>
      <trkpt lat="43.94808" lon="5.24375">
        <ele>493</ele>
        <time>2009-10-02T19:09:02Z</time>
      </trkpt>
      <trkpt lat="43.94808" lon="5.24381">
        <ele>493</ele>
        <time>2009-10-02T19:09:02Z</time>
      </trkpt>
      <trkpt lat="43.94808" lon="5.24387">
        <ele>493</ele>
        <time>2009-10-02T19:09:02Z</time>
      </trkpt>
      <trkpt lat="43.94803" lon="5.24387">
        <ele>492</ele>
        <time>2009-10-02T19:09:02Z</time>
      </trkpt>
      <trkpt lat="43.94803" lon="5.24393">
        <ele>492</ele>
        <time>2009-10-02T19:09:02Z</time>
      </trkpt>
      <trkpt lat="43.94799" lon="5.24393">
        <ele>491</ele>
        <time>2009-10-02T19:09:02Z</time>
      </trkpt>
      <trkpt lat="43.94794" lon="5.24393">
        <ele>489</ele>
        <time>2009-10-02T19:09:02Z</time>
      </trkpt>
      <trkpt lat="43.9479" lon="5.24392">
        <ele>488</ele>
        <time>2009-10-02T19:09:02Z</time>
      </trkpt>
      <trkpt lat="43.94785" lon="5.24392">
        <ele>487</ele>
        <time>2009-10-02T19:09:02Z</time>
      </trkpt>
      <trkpt lat="43.94781" lon="5.24392">
        <ele>485</ele>
        <time>2009-10-02T19:09:02Z</time>
      </trkpt>
      <trkpt lat="43.94776" lon="5.24392">
        <ele>484</ele>
        <time>2009-10-02T19:09:02Z</time>
      </trkpt>
      <trkpt lat="43.94772" lon="5.24391">
        <ele>483</ele>
        <time>2009-10-02T19:09:02Z</time>
      </trkpt>
      <trkpt lat="43.94772" lon="5.24398">
        <ele>482</ele>
        <time>2009-10-02T19:09:02Z</time>
      </trkpt>
      <trkpt lat="43.94767" lon="5.24397">
        <ele>481</ele>
        <time>2009-10-02T19:09:02Z</time>
      </trkpt>
      <trkpt lat="43.94763" lon="5.24397">
        <ele>480</ele>
        <time>2009-10-02T19:09:02Z</time>
      </trkpt>
      <trkpt lat="43.94767" lon="5.24397">
        <ele>481</ele>
        <time>2009-10-02T19:09:02Z</time>
      </trkpt>
      <trkpt lat="43.94767" lon="5.24391">
        <ele>481</ele>
        <time>2009-10-02T19:09:02Z</time>
      </trkpt>
      <trkpt lat="43.94763" lon="5.24391">
        <ele>480</ele>
        <time>2009-10-02T19:09:02Z</time>
      </trkpt>
      <trkpt lat="43.94758" lon="5.24391">
        <ele>479</ele>
        <time>2009-10-02T19:09:02Z</time>
      </trkpt>
      <trkpt lat="43.94754" lon="5.24391">
        <ele>478</ele>
        <time>2009-10-02T19:09:02Z</time>
      </trkpt>
      <trkpt lat="43.94749" lon="5.2439">
        <ele>478</ele>
        <time>2009-10-02T19:09:02Z</time>
      </trkpt>
      <trkpt lat="43.94749" lon="5.24397">
        <ele>477</ele>
        <time>2009-10-02T19:09:02Z</time>
      </trkpt>
      <trkpt lat="43.94744" lon="5.24403">
        <ele>476</ele>
        <time>2009-10-02T19:09:02Z</time>
      </trkpt>
      <trkpt lat="43.94744" lon="5.24409">
        <ele>476</ele>
        <time>2009-10-02T19:09:02Z</time>
      </trkpt>
      <trkpt lat="43.94744" lon="5.24415">
        <ele>476</ele>
        <time>2009-10-02T19:09:02Z</time>
      </trkpt>
      <trkpt lat="43.9474" lon="5.24415">
        <ele>475</ele>
        <time>2009-10-02T19:09:02Z</time>
      </trkpt>
      <trkpt lat="43.94739" lon="5.24421">
        <ele>475</ele>
        <time>2009-10-02T19:09:02Z</time>
      </trkpt>
      <trkpt lat="43.94735" lon="5.24427">
        <ele>474</ele>
        <time>2009-10-02T19:09:02Z</time>
      </trkpt>
      <trkpt lat="43.9473" lon="5.24433">
        <ele>473</ele>
        <time>2009-10-02T19:09:02Z</time>
      </trkpt>
      <trkpt lat="43.94726" lon="5.24433">
        <ele>472</ele>
        <time>2009-10-02T19:09:02Z</time>
      </trkpt>
      <trkpt lat="43.94721" lon="5.24432">
        <ele>471</ele>
        <time>2009-10-02T19:09:02Z</time>
      </trkpt>
      <trkpt lat="43.94717" lon="5.24432">
        <ele>471</ele>
        <time>2009-10-02T19:09:02Z</time>
      </trkpt>
      <trkpt lat="43.94712" lon="5.24432">
        <ele>470</ele>
        <time>2009-10-02T19:09:02Z</time>
      </trkpt>
      <trkpt lat="43.94708" lon="5.24432">
        <ele>469</ele>
        <time>2009-10-02T19:09:02Z</time>
      </trkpt>
      <trkpt lat="43.94703" lon="5.24432">
        <ele>468</ele>
        <time>2009-10-02T19:09:02Z</time>
      </trkpt>
      <trkpt lat="43.94698" lon="5.24438">
        <ele>468</ele>
        <time>2009-10-02T19:09:02Z</time>
      </trkpt>
      <trkpt lat="43.94694" lon="5.24444">
        <ele>467</ele>
        <time>2009-10-02T19:09:02Z</time>
      </trkpt>
      <trkpt lat="43.94689" lon="5.24443">
        <ele>466</ele>
        <time>2009-10-02T19:09:02Z</time>
      </trkpt>
      <trkpt lat="43.94689" lon="5.24449">
        <ele>466</ele>
        <time>2009-10-02T19:09:02Z</time>
      </trkpt>
      <trkpt lat="43.94685" lon="5.24449">
        <ele>465</ele>
        <time>2009-10-02T19:09:02Z</time>
      </trkpt>
      <trkpt lat="43.9468" lon="5.24455">
        <ele>465</ele>
        <time>2009-10-02T19:09:02Z</time>
      </trkpt>
      <trkpt lat="43.94676" lon="5.24455">
        <ele>464</ele>
        <time>2009-10-02T19:09:02Z</time>
      </trkpt>
      <trkpt lat="43.94671" lon="5.24455">
        <ele>463</ele>
        <time>2009-10-02T19:09:02Z</time>
      </trkpt>
      <trkpt lat="43.94667" lon="5.24455">
        <ele>463</ele>
        <time>2009-10-02T19:09:02Z</time>
      </trkpt>
      <trkpt lat="43.94662" lon="5.24461">
        <ele>462</ele>
        <time>2009-10-02T19:09:02Z</time>
      </trkpt>
      <trkpt lat="43.94657" lon="5.24467">
        <ele>461</ele>
        <time>2009-10-02T19:09:02Z</time>
      </trkpt>
      <trkpt lat="43.94653" lon="5.24466">
        <ele>461</ele>
        <time>2009-10-02T19:09:02Z</time>
      </trkpt>
      <trkpt lat="43.94653" lon="5.24473">
        <ele>461</ele>
        <time>2009-10-02T19:09:02Z</time>
      </trkpt>
      <trkpt lat="43.94648" lon="5.24472">
        <ele>460</ele>
        <time>2009-10-02T19:09:02Z</time>
      </trkpt>
      <trkpt lat="43.94644" lon="5.24472">
        <ele>459</ele>
        <time>2009-10-02T19:09:02Z</time>
      </trkpt>
      <trkpt lat="43.94639" lon="5.24472">
        <ele>459</ele>
        <time>2009-10-02T19:09:02Z</time>
      </trkpt>
      <trkpt lat="43.94635" lon="5.24472">
        <ele>458</ele>
        <time>2009-10-02T19:09:02Z</time>
      </trkpt>
      <trkpt lat="43.9463" lon="5.24471">
        <ele>458</ele>
        <time>2009-10-02T19:09:02Z</time>
      </trkpt>
      <trkpt lat="43.94626" lon="5.24471">
        <ele>457</ele>
        <time>2009-10-02T19:09:02Z</time>
      </trkpt>
      <trkpt lat="43.94621" lon="5.24471">
        <ele>457</ele>
        <time>2009-10-02T19:09:02Z</time>
      </trkpt>
      <trkpt lat="43.94617" lon="5.24471">
        <ele>456</ele>
        <time>2009-10-02T19:09:02Z</time>
      </trkpt>
      <trkpt lat="43.94612" lon="5.2447">
        <ele>455</ele>
        <time>2009-10-02T19:09:02Z</time>
      </trkpt>
      <trkpt lat="43.94608" lon="5.2447">
        <ele>455</ele>
        <time>2009-10-02T19:09:02Z</time>
      </trkpt>
      <trkpt lat="43.94603" lon="5.2447">
        <ele>454</ele>
        <time>2009-10-02T19:09:02Z</time>
      </trkpt>
      <trkpt lat="43.94599" lon="5.2447">
        <ele>454</ele>
        <time>2009-10-02T19:09:02Z</time>
      </trkpt>
      <trkpt lat="43.94594" lon="5.2447">
        <ele>453</ele>
        <time>2009-10-02T19:09:02Z</time>
      </trkpt>
      <trkpt lat="43.9459" lon="5.24463">
        <ele>453</ele>
        <time>2009-10-02T19:09:02Z</time>
      </trkpt>
      <trkpt lat="43.9459" lon="5.24457">
        <ele>453</ele>
        <time>2009-10-02T19:09:02Z</time>
      </trkpt>
      <trkpt lat="43.9459" lon="5.24451">
        <ele>453</ele>
        <time>2009-10-02T19:09:02Z</time>
      </trkpt>
      <trkpt lat="43.9459" lon="5.24444">
        <ele>454</ele>
        <time>2009-10-02T19:09:02Z</time>
      </trkpt>
      <trkpt lat="43.94591" lon="5.24438">
        <ele>454</ele>
        <time>2009-10-02T19:09:02Z</time>
      </trkpt>
      <trkpt lat="43.94591" lon="5.24432">
        <ele>454</ele>
        <time>2009-10-02T19:09:02Z</time>
      </trkpt>
      <trkpt lat="43.94591" lon="5.24426">
        <ele>454</ele>
        <time>2009-10-02T19:09:02Z</time>
      </trkpt>
      <trkpt lat="43.94591" lon="5.2442">
        <ele>455</ele>
        <time>2009-10-02T19:09:02Z</time>
      </trkpt>
      <trkpt lat="43.94591" lon="5.24413">
        <ele>455</ele>
        <time>2009-10-02T19:09:02Z</time>
      </trkpt>
      <trkpt lat="43.94587" lon="5.24407">
        <ele>455</ele>
        <time>2009-10-02T19:09:02Z</time>
      </trkpt>
      <trkpt lat="43.94587" lon="5.24401">
        <ele>455</ele>
        <time>2009-10-02T19:09:02Z</time>
      </trkpt>
      <trkpt lat="43.94583" lon="5.24394">
        <ele>455</ele>
        <time>2009-10-02T19:09:02Z</time>
      </trkpt>
      <trkpt lat="43.94583" lon="5.24388">
        <ele>456</ele>
        <time>2009-10-02T19:09:02Z</time>
      </trkpt>
      <trkpt lat="43.94578" lon="5.24388">
        <ele>455</ele>
        <time>2009-10-02T19:09:02Z</time>
      </trkpt>
      <trkpt lat="43.94579" lon="5.24382">
        <ele>456</ele>
        <time>2009-10-02T19:09:02Z</time>
      </trkpt>
      <trkpt lat="43.94579" lon="5.24375">
        <ele>456</ele>
        <time>2009-10-02T19:09:02Z</time>
      </trkpt>
      <trkpt lat="43.94579" lon="5.24369">
        <ele>456</ele>
        <time>2009-10-02T19:09:02Z</time>
      </trkpt>
      <trkpt lat="43.94579" lon="5.24363">
        <ele>457</ele>
        <time>2009-10-02T19:09:02Z</time>
      </trkpt>
      <trkpt lat="43.94579" lon="5.24357">
        <ele>457</ele>
        <time>2009-10-02T19:09:02Z</time>
      </trkpt>
      <trkpt lat="43.94579" lon="5.2435">
        <ele>458</ele>
        <time>2009-10-02T19:09:02Z</time>
      </trkpt>
      <trkpt lat="43.9458" lon="5.24344">
        <ele>458</ele>
        <time>2009-10-02T19:09:02Z</time>
      </trkpt>
      <trkpt lat="43.94584" lon="5.24344">
        <ele>458</ele>
        <time>2009-10-02T19:09:02Z</time>
      </trkpt>
      <trkpt lat="43.94584" lon="5.24338">
        <ele>459</ele>
        <time>2009-10-02T19:09:02Z</time>
      </trkpt>
      <trkpt lat="43.94584" lon="5.24332">
        <ele>459</ele>
        <time>2009-10-02T19:09:02Z</time>
      </trkpt>
      <trkpt lat="43.94585" lon="5.24326">
        <ele>459</ele>
        <time>2009-10-02T19:09:02Z</time>
      </trkpt>
      <trkpt lat="43.94585" lon="5.2432">
        <ele>459</ele>
        <time>2009-10-02T19:09:02Z</time>
      </trkpt>
      <trkpt lat="43.94585" lon="5.24313">
        <ele>460</ele>
        <time>2009-10-02T19:09:02Z</time>
      </trkpt>
      <trkpt lat="43.94585" lon="5.24307">
        <ele>460</ele>
        <time>2009-10-02T19:09:02Z</time>
      </trkpt>
      <trkpt lat="43.94585" lon="5.24301">
        <ele>460</ele>
        <time>2009-10-02T19:09:02Z</time>
      </trkpt>
      <trkpt lat="43.94585" lon="5.24295">
        <ele>461</ele>
        <time>2009-10-02T19:09:02Z</time>
      </trkpt>
      <trkpt lat="43.94586" lon="5.24289">
        <ele>461</ele>
        <time>2009-10-02T19:09:02Z</time>
      </trkpt>
      <trkpt lat="43.94586" lon="5.24282">
        <ele>461</ele>
        <time>2009-10-02T19:09:02Z</time>
      </trkpt>
      <trkpt lat="43.94586" lon="5.24276">
        <ele>462</ele>
        <time>2009-10-02T19:09:02Z</time>
      </trkpt>
      <trkpt lat="43.94586" lon="5.2427">
        <ele>462</ele>
        <time>2009-10-02T19:09:02Z</time>
      </trkpt>
      <trkpt lat="43.94582" lon="5.2427">
        <ele>461</ele>
        <time>2009-10-02T19:09:02Z</time>
      </trkpt>
      <trkpt lat="43.94582" lon="5.24263">
        <ele>461</ele>
        <time>2009-10-02T19:09:02Z</time>
      </trkpt>
      <trkpt lat="43.94582" lon="5.24257">
        <ele>462</ele>
        <time>2009-10-02T19:09:02Z</time>
      </trkpt>
      <trkpt lat="43.94582" lon="5.24251">
        <ele>462</ele>
        <time>2009-10-02T19:09:02Z</time>
      </trkpt>
      <trkpt lat="43.94582" lon="5.24245">
        <ele>462</ele>
        <time>2009-10-02T19:09:02Z</time>
      </trkpt>
      <trkpt lat="43.94582" lon="5.24239">
        <ele>463</ele>
        <time>2009-10-02T19:09:02Z</time>
      </trkpt>
      <trkpt lat="43.94583" lon="5.24232">
        <ele>463</ele>
        <time>2009-10-02T19:09:02Z</time>
      </trkpt>
      <trkpt lat="43.94583" lon="5.24226">
        <ele>463</ele>
        <time>2009-10-02T19:09:02Z</time>
      </trkpt>
      <trkpt lat="43.94583" lon="5.2422">
        <ele>464</ele>
        <time>2009-10-02T19:09:02Z</time>
      </trkpt>
      <trkpt lat="43.94579" lon="5.24213">
        <ele>464</ele>
        <time>2009-10-02T19:09:02Z</time>
      </trkpt>
      <trkpt lat="43.94579" lon="5.24207">
        <ele>464</ele>
        <time>2009-10-02T19:09:02Z</time>
      </trkpt>
      <trkpt lat="43.94574" lon="5.24201">
        <ele>464</ele>
        <time>2009-10-02T19:09:02Z</time>
      </trkpt>
      <trkpt lat="43.94575" lon="5.24195">
        <ele>465</ele>
        <time>2009-10-02T19:09:02Z</time>
      </trkpt>
      <trkpt lat="43.94575" lon="5.24188">
        <ele>465</ele>
        <time>2009-10-02T19:09:02Z</time>
      </trkpt>
      <trkpt lat="43.9457" lon="5.24182">
        <ele>465</ele>
        <time>2009-10-02T19:09:02Z</time>
      </trkpt>
      <trkpt lat="43.94571" lon="5.24176">
        <ele>465</ele>
        <time>2009-10-02T19:09:02Z</time>
      </trkpt>
      <trkpt lat="43.94571" lon="5.24169">
        <ele>466</ele>
        <time>2009-10-02T19:09:02Z</time>
      </trkpt>
      <trkpt lat="43.94566" lon="5.24169">
        <ele>465</ele>
        <time>2009-10-02T19:09:02Z</time>
      </trkpt>
      <trkpt lat="43.94566" lon="5.24163">
        <ele>466</ele>
        <time>2009-10-02T19:09:02Z</time>
      </trkpt>
      <trkpt lat="43.94567" lon="5.24157">
        <ele>467</ele>
        <time>2009-10-02T19:09:02Z</time>
      </trkpt>
      <trkpt lat="43.94567" lon="5.24151">
        <ele>469</ele>
        <time>2009-10-02T19:09:02Z</time>
      </trkpt>
      <trkpt lat="43.94562" lon="5.2415">
        <ele>468</ele>
        <time>2009-10-02T19:09:02Z</time>
      </trkpt>
      <trkpt lat="43.94558" lon="5.2415">
        <ele>467</ele>
        <time>2009-10-02T19:09:02Z</time>
      </trkpt>
      <trkpt lat="43.94558" lon="5.24144">
        <ele>468</ele>
        <time>2009-10-02T19:09:02Z</time>
      </trkpt>
      <trkpt lat="43.94553" lon="5.24144">
        <ele>467</ele>
        <time>2009-10-02T19:09:02Z</time>
      </trkpt>
      <trkpt lat="43.94554" lon="5.24137">
        <ele>468</ele>
        <time>2009-10-02T19:09:02Z</time>
      </trkpt>
      <trkpt lat="43.94549" lon="5.24137">
        <ele>467</ele>
        <time>2009-10-02T19:09:02Z</time>
      </trkpt>
      <trkpt lat="43.94545" lon="5.24137">
        <ele>466</ele>
        <time>2009-10-02T19:09:02Z</time>
      </trkpt>
      <trkpt lat="43.9454" lon="5.24137">
        <ele>465</ele>
        <time>2009-10-02T19:09:02Z</time>
      </trkpt>
      <trkpt lat="43.94536" lon="5.2413">
        <ele>466</ele>
        <time>2009-10-02T19:09:02Z</time>
      </trkpt>
      <trkpt lat="43.94531" lon="5.24124">
        <ele>466</ele>
        <time>2009-10-02T19:09:02Z</time>
      </trkpt>
      <trkpt lat="43.94527" lon="5.24124">
        <ele>465</ele>
        <time>2009-10-02T19:09:02Z</time>
      </trkpt>
      <trkpt lat="43.94522" lon="5.24123">
        <ele>464</ele>
        <time>2009-10-02T19:09:02Z</time>
      </trkpt>
      <trkpt lat="43.94518" lon="5.24123">
        <ele>464</ele>
        <time>2009-10-02T19:09:02Z</time>
      </trkpt>
      <trkpt lat="43.94513" lon="5.24123">
        <ele>463</ele>
        <time>2009-10-02T19:09:02Z</time>
      </trkpt>
      <trkpt lat="43.94509" lon="5.24123">
        <ele>462</ele>
        <time>2009-10-02T19:09:02Z</time>
      </trkpt>
      <trkpt lat="43.94509" lon="5.24117">
        <ele>463</ele>
        <time>2009-10-02T19:09:02Z</time>
      </trkpt>
      <trkpt lat="43.94505" lon="5.24116">
        <ele>462</ele>
        <time>2009-10-02T19:09:02Z</time>
      </trkpt>
      <trkpt lat="43.945" lon="5.24116">
        <ele>462</ele>
        <time>2009-10-02T19:09:02Z</time>
      </trkpt>
      <trkpt lat="43.94496" lon="5.24116">
        <ele>461</ele>
        <time>2009-10-02T19:09:02Z</time>
      </trkpt>
      <trkpt lat="43.94496" lon="5.2411">
        <ele>462</ele>
        <time>2009-10-02T19:09:02Z</time>
      </trkpt>
      <trkpt lat="43.94491" lon="5.24109">
        <ele>462</ele>
        <time>2009-10-02T19:09:02Z</time>
      </trkpt>
      <trkpt lat="43.94492" lon="5.24103">
        <ele>463</ele>
        <time>2009-10-02T19:09:02Z</time>
      </trkpt>
      <trkpt lat="43.94487" lon="5.24103">
        <ele>462</ele>
        <time>2009-10-02T19:09:02Z</time>
      </trkpt>
      <trkpt lat="43.94483" lon="5.24097">
        <ele>463</ele>
        <time>2009-10-02T19:09:02Z</time>
      </trkpt>
      <trkpt lat="43.94478" lon="5.2409">
        <ele>464</ele>
        <time>2009-10-02T19:09:02Z</time>
      </trkpt>
      <trkpt lat="43.94474" lon="5.2409">
        <ele>463</ele>
        <time>2009-10-02T19:09:02Z</time>
      </trkpt>
      <trkpt lat="43.94474" lon="5.24084">
        <ele>464</ele>
        <time>2009-10-02T19:09:02Z</time>
      </trkpt>
      <trkpt lat="43.9447" lon="5.24083">
        <ele>464</ele>
        <time>2009-10-02T19:09:02Z</time>
      </trkpt>
      <trkpt lat="43.9447" lon="5.24077">
        <ele>465</ele>
        <time>2009-10-02T19:09:02Z</time>
      </trkpt>
      <trkpt lat="43.94465" lon="5.24077">
        <ele>465</ele>
        <time>2009-10-02T19:09:02Z</time>
      </trkpt>
      <trkpt lat="43.94461" lon="5.24077">
        <ele>464</ele>
        <time>2009-10-02T19:09:02Z</time>
      </trkpt>
      <trkpt lat="43.94456" lon="5.24076">
        <ele>464</ele>
        <time>2009-10-02T19:09:02Z</time>
      </trkpt>
      <trkpt lat="43.94452" lon="5.24076">
        <ele>464</ele>
        <time>2009-10-02T19:09:02Z</time>
      </trkpt>
      <trkpt lat="43.94447" lon="5.24076">
        <ele>464</ele>
        <time>2009-10-02T19:09:02Z</time>
      </trkpt>
      <trkpt lat="43.94443" lon="5.2407">
        <ele>465</ele>
        <time>2009-10-02T19:09:02Z</time>
      </trkpt>
      <trkpt lat="43.94438" lon="5.24069">
        <ele>465</ele>
        <time>2009-10-02T19:09:02Z</time>
      </trkpt>
      <trkpt lat="43.94434" lon="5.24069">
        <ele>465</ele>
        <time>2009-10-02T19:09:02Z</time>
      </trkpt>
      <trkpt lat="43.94429" lon="5.24069">
        <ele>465</ele>
        <time>2009-10-02T19:09:02Z</time>
      </trkpt>
      <trkpt lat="43.94425" lon="5.24069">
        <ele>465</ele>
        <time>2009-10-02T19:09:02Z</time>
      </trkpt>
      <trkpt lat="43.9442" lon="5.24068">
        <ele>465</ele>
        <time>2009-10-02T19:09:02Z</time>
      </trkpt>
      <trkpt lat="43.94416" lon="5.24062">
        <ele>467</ele>
        <time>2009-10-02T19:09:02Z</time>
      </trkpt>
      <trkpt lat="43.94412" lon="5.24062">
        <ele>467</ele>
        <time>2009-10-02T19:09:02Z</time>
      </trkpt>
      <trkpt lat="43.94407" lon="5.24055">
        <ele>468</ele>
        <time>2009-10-02T19:09:02Z</time>
      </trkpt>
      <trkpt lat="43.94403" lon="5.24049">
        <ele>470</ele>
        <time>2009-10-02T19:09:02Z</time>
      </trkpt>
      <trkpt lat="43.94399" lon="5.24049">
        <ele>470</ele>
        <time>2009-10-02T19:09:02Z</time>
      </trkpt>
      <trkpt lat="43.94394" lon="5.24042">
        <ele>472</ele>
        <time>2009-10-02T19:09:02Z</time>
      </trkpt>
      <trkpt lat="43.9439" lon="5.24042">
        <ele>472</ele>
        <time>2009-10-02T19:09:02Z</time>
      </trkpt>
      <trkpt lat="43.9439" lon="5.24036">
        <ele>473</ele>
        <time>2009-10-02T19:09:02Z</time>
      </trkpt>
      <trkpt lat="43.94385" lon="5.24036">
        <ele>474</ele>
        <time>2009-10-02T19:09:02Z</time>
      </trkpt>
      <trkpt lat="43.94381" lon="5.24029">
        <ele>475</ele>
        <time>2009-10-02T19:09:02Z</time>
      </trkpt>
      <trkpt lat="43.94377" lon="5.24029">
        <ele>475</ele>
        <time>2009-10-02T19:09:02Z</time>
      </trkpt>
      <trkpt lat="43.94377" lon="5.24023">
        <ele>477</ele>
        <time>2009-10-02T19:09:02Z</time>
      </trkpt>
      <trkpt lat="43.94372" lon="5.24022">
        <ele>477</ele>
        <time>2009-10-02T19:09:02Z</time>
      </trkpt>
      <trkpt lat="43.94372" lon="5.24016">
        <ele>478</ele>
        <time>2009-10-02T19:09:02Z</time>
      </trkpt>
      <trkpt lat="43.94368" lon="5.24016">
        <ele>478</ele>
        <time>2009-10-02T19:09:02Z</time>
      </trkpt>
      <trkpt lat="43.94368" lon="5.2401">
        <ele>480</ele>
        <time>2009-10-02T19:09:02Z</time>
      </trkpt>
      <trkpt lat="43.94368" lon="5.24004">
        <ele>481</ele>
        <time>2009-10-02T19:09:02Z</time>
      </trkpt>
      <trkpt lat="43.94364" lon="5.24003">
        <ele>481</ele>
        <time>2009-10-02T19:09:02Z</time>
      </trkpt>
      <trkpt lat="43.94359" lon="5.24003">
        <ele>481</ele>
        <time>2009-10-02T19:09:02Z</time>
      </trkpt>
      <trkpt lat="43.94359" lon="5.23997">
        <ele>482</ele>
        <time>2009-10-02T19:09:02Z</time>
      </trkpt>
      <trkpt lat="43.9436" lon="5.23991">
        <ele>484</ele>
        <time>2009-10-02T19:09:02Z</time>
      </trkpt>
      <trkpt lat="43.9436" lon="5.23984">
        <ele>485</ele>
        <time>2009-10-02T19:09:02Z</time>
      </trkpt>
      <trkpt lat="43.9436" lon="5.23978">
        <ele>487</ele>
        <time>2009-10-02T19:09:02Z</time>
      </trkpt>
      <trkpt lat="43.94355" lon="5.23978">
        <ele>487</ele>
        <time>2009-10-02T19:09:02Z</time>
      </trkpt>
      <trkpt lat="43.94356" lon="5.23972">
        <ele>488</ele>
        <time>2009-10-02T19:09:02Z</time>
      </trkpt>
      <trkpt lat="43.94351" lon="5.23965">
        <ele>489</ele>
        <time>2009-10-02T19:09:02Z</time>
      </trkpt>
      <trkpt lat="43.94351" lon="5.23959">
        <ele>490</ele>
        <time>2009-10-02T19:09:02Z</time>
      </trkpt>
      <trkpt lat="43.94347" lon="5.23959">
        <ele>490</ele>
        <time>2009-10-02T19:09:02Z</time>
      </trkpt>
      <trkpt lat="43.94347" lon="5.23953">
        <ele>491</ele>
        <time>2009-10-02T19:09:02Z</time>
      </trkpt>
      <trkpt lat="43.94343" lon="5.23952">
        <ele>491</ele>
        <time>2009-10-02T19:09:02Z</time>
      </trkpt>
      <trkpt lat="43.94343" lon="5.23946">
        <ele>492</ele>
        <time>2009-10-02T19:09:02Z</time>
      </trkpt>
      <trkpt lat="43.94338" lon="5.23946">
        <ele>492</ele>
        <time>2009-10-02T19:09:02Z</time>
      </trkpt>
      <trkpt lat="43.94338" lon="5.2394">
        <ele>493</ele>
        <time>2009-10-02T19:09:02Z</time>
      </trkpt>
      <trkpt lat="43.94339" lon="5.23934">
        <ele>494</ele>
        <time>2009-10-02T19:09:02Z</time>
      </trkpt>
      <trkpt lat="43.94339" lon="5.23927">
        <ele>495</ele>
        <time>2009-10-02T19:09:02Z</time>
      </trkpt>
      <trkpt lat="43.94343" lon="5.23921">
        <ele>496</ele>
        <time>2009-10-02T19:09:02Z</time>
      </trkpt>
      <trkpt lat="43.94344" lon="5.23915">
        <ele>497</ele>
        <time>2009-10-02T19:09:02Z</time>
      </trkpt>
      <trkpt lat="43.94348" lon="5.23915">
        <ele>498</ele>
        <time>2009-10-02T19:09:02Z</time>
      </trkpt>
      <trkpt lat="43.94348" lon="5.23909">
        <ele>499</ele>
        <time>2009-10-02T19:09:02Z</time>
      </trkpt>
      <trkpt lat="43.94348" lon="5.23903">
        <ele>499</ele>
        <time>2009-10-02T19:09:02Z</time>
      </trkpt>
      <trkpt lat="43.94353" lon="5.23903">
        <ele>499</ele>
        <time>2009-10-02T19:09:02Z</time>
      </trkpt>
      <trkpt lat="43.94353" lon="5.23897">
        <ele>499</ele>
        <time>2009-10-02T19:09:02Z</time>
      </trkpt>
      <trkpt lat="43.94358" lon="5.23897">
        <ele>500</ele>
        <time>2009-10-02T19:09:02Z</time>
      </trkpt>
      <trkpt lat="43.94362" lon="5.23897">
        <ele>500</ele>
        <time>2009-10-02T19:09:02Z</time>
      </trkpt>
      <trkpt lat="43.94362" lon="5.23891">
        <ele>500</ele>
        <time>2009-10-02T19:09:02Z</time>
      </trkpt>
      <trkpt lat="43.94367" lon="5.23891">
        <ele>501</ele>
        <time>2009-10-02T19:09:02Z</time>
      </trkpt>
      <trkpt lat="43.94371" lon="5.23885">
        <ele>502</ele>
        <time>2009-10-02T19:09:02Z</time>
      </trkpt>
      <trkpt lat="43.94376" lon="5.23886">
        <ele>502</ele>
        <time>2009-10-02T19:09:02Z</time>
      </trkpt>
      <trkpt lat="43.94376" lon="5.23879">
        <ele>502</ele>
        <time>2009-10-02T19:09:02Z</time>
      </trkpt>
      <trkpt lat="43.94376" lon="5.23873">
        <ele>502</ele>
        <time>2009-10-02T19:09:02Z</time>
      </trkpt>
      <trkpt lat="43.94381" lon="5.23873">
        <ele>503</ele>
        <time>2009-10-02T19:09:02Z</time>
      </trkpt>
      <trkpt lat="43.94381" lon="5.23867">
        <ele>503</ele>
        <time>2009-10-02T19:09:02Z</time>
      </trkpt>
      <trkpt lat="43.94385" lon="5.23867">
        <ele>503</ele>
        <time>2009-10-02T19:09:02Z</time>
      </trkpt>
      <trkpt lat="43.94386" lon="5.23861">
        <ele>503</ele>
        <time>2009-10-02T19:09:02Z</time>
      </trkpt>
      <trkpt lat="43.9439" lon="5.23861">
        <ele>503</ele>
        <time>2009-10-02T19:09:02Z</time>
      </trkpt>
      <trkpt lat="43.94395" lon="5.23862">
        <ele>504</ele>
        <time>2009-10-02T19:09:02Z</time>
      </trkpt>
      <trkpt lat="43.94395" lon="5.23855">
        <ele>504</ele>
        <time>2009-10-02T19:09:02Z</time>
      </trkpt>
      <trkpt lat="43.94399" lon="5.23856">
        <ele>504</ele>
        <time>2009-10-02T19:09:02Z</time>
      </trkpt>
      <trkpt lat="43.94399" lon="5.23849">
        <ele>505</ele>
        <time>2009-10-02T19:09:02Z</time>
      </trkpt>
      <trkpt lat="43.94404" lon="5.2385">
        <ele>505</ele>
        <time>2009-10-02T19:09:02Z</time>
      </trkpt>
      <trkpt lat="43.94408" lon="5.2385">
        <ele>505</ele>
        <time>2009-10-02T19:09:02Z</time>
      </trkpt>
      <trkpt lat="43.94408" lon="5.23844">
        <ele>505</ele>
        <time>2009-10-02T19:09:02Z</time>
      </trkpt>
      <trkpt lat="43.94409" lon="5.23837">
        <ele>505</ele>
        <time>2009-10-02T19:09:02Z</time>
      </trkpt>
      <trkpt lat="43.94409" lon="5.23831">
        <ele>505</ele>
        <time>2009-10-02T19:09:02Z</time>
      </trkpt>
      <trkpt lat="43.94409" lon="5.23825">
        <ele>505</ele>
        <time>2009-10-02T19:09:02Z</time>
      </trkpt>
      <trkpt lat="43.94409" lon="5.23819">
        <ele>505</ele>
        <time>2009-10-02T19:09:02Z</time>
      </trkpt>
      <trkpt lat="43.94409" lon="5.23813">
        <ele>504</ele>
        <time>2009-10-02T19:09:02Z</time>
      </trkpt>
      <trkpt lat="43.94409" lon="5.23806">
        <ele>504</ele>
        <time>2009-10-02T19:09:02Z</time>
      </trkpt>
      <trkpt lat="43.9441" lon="5.238">
        <ele>504</ele>
        <time>2009-10-02T19:09:02Z</time>
      </trkpt>
      <trkpt lat="43.9441" lon="5.23794">
        <ele>504</ele>
        <time>2009-10-02T19:09:02Z</time>
      </trkpt>
      <trkpt lat="43.9441" lon="5.23788">
        <ele>504</ele>
        <time>2009-10-02T19:09:02Z</time>
      </trkpt>
      <trkpt lat="43.9441" lon="5.23782">
        <ele>504</ele>
        <time>2009-10-02T19:09:02Z</time>
      </trkpt>
      <trkpt lat="43.9441" lon="5.23775">
        <ele>503</ele>
        <time>2009-10-02T19:09:02Z</time>
      </trkpt>
      <trkpt lat="43.9441" lon="5.23769">
        <ele>503</ele>
        <time>2009-10-02T19:09:02Z</time>
      </trkpt>
      <trkpt lat="43.94411" lon="5.23763">
        <ele>503</ele>
        <time>2009-10-02T19:09:02Z</time>
      </trkpt>
      <trkpt lat="43.94411" lon="5.23757">
        <ele>503</ele>
        <time>2009-10-02T19:09:02Z</time>
      </trkpt>
      <trkpt lat="43.94411" lon="5.2375">
        <ele>502</ele>
        <time>2009-10-02T19:09:02Z</time>
      </trkpt>
      <trkpt lat="43.94411" lon="5.23744">
        <ele>502</ele>
        <time>2009-10-02T19:09:02Z</time>
      </trkpt>
      <trkpt lat="43.94416" lon="5.23744">
        <ele>503</ele>
        <time>2009-10-02T19:09:02Z</time>
      </trkpt>
      <trkpt lat="43.94416" lon="5.23738">
        <ele>503</ele>
        <time>2009-10-02T19:09:02Z</time>
      </trkpt>
      <trkpt lat="43.94416" lon="5.23732">
        <ele>502</ele>
        <time>2009-10-02T19:09:02Z</time>
      </trkpt>
      <trkpt lat="43.9442" lon="5.23732">
        <ele>503</ele>
        <time>2009-10-02T19:09:02Z</time>
      </trkpt>
      <trkpt lat="43.94421" lon="5.23726">
        <ele>503</ele>
        <time>2009-10-02T19:09:02Z</time>
      </trkpt>
      <trkpt lat="43.94421" lon="5.2372">
        <ele>502</ele>
        <time>2009-10-02T19:09:02Z</time>
      </trkpt>
      <trkpt lat="43.94421" lon="5.23714">
        <ele>502</ele>
        <time>2009-10-02T19:09:02Z</time>
      </trkpt>
      <trkpt lat="43.94421" lon="5.23707">
        <ele>502</ele>
        <time>2009-10-02T19:09:02Z</time>
      </trkpt>
      <trkpt lat="43.94426" lon="5.23701">
        <ele>502</ele>
        <time>2009-10-02T19:09:02Z</time>
      </trkpt>
      <trkpt lat="43.9443" lon="5.23695">
        <ele>502</ele>
        <time>2009-10-02T19:09:02Z</time>
      </trkpt>
      <trkpt lat="43.94431" lon="5.23689">
        <ele>502</ele>
        <time>2009-10-02T19:09:02Z</time>
      </trkpt>
      <trkpt lat="43.94431" lon="5.23683">
        <ele>502</ele>
        <time>2009-10-02T19:09:02Z</time>
      </trkpt>
      <trkpt lat="43.94435" lon="5.23683">
        <ele>502</ele>
        <time>2009-10-02T19:09:02Z</time>
      </trkpt>
      <trkpt lat="43.94435" lon="5.23677">
        <ele>502</ele>
        <time>2009-10-02T19:09:02Z</time>
      </trkpt>
      <trkpt lat="43.9444" lon="5.23677">
        <ele>502</ele>
        <time>2009-10-02T19:09:02Z</time>
      </trkpt>
      <trkpt lat="43.9444" lon="5.23671">
        <ele>502</ele>
        <time>2009-10-02T19:09:02Z</time>
      </trkpt>
      <trkpt lat="43.94445" lon="5.23665">
        <ele>502</ele>
        <time>2009-10-02T19:09:02Z</time>
      </trkpt>
      <trkpt lat="43.94445" lon="5.23659">
        <ele>502</ele>
        <time>2009-10-02T19:09:02Z</time>
      </trkpt>
      <trkpt lat="43.94449" lon="5.23659">
        <ele>502</ele>
        <time>2009-10-02T19:09:02Z</time>
      </trkpt>
      <trkpt lat="43.9445" lon="5.23653">
        <ele>502</ele>
        <time>2009-10-02T19:09:02Z</time>
      </trkpt>
      <trkpt lat="43.9445" lon="5.23647">
        <ele>501</ele>
        <time>2009-10-02T19:09:02Z</time>
      </trkpt>
      <trkpt lat="43.9445" lon="5.2364">
        <ele>501</ele>
        <time>2009-10-02T19:09:02Z</time>
      </trkpt>
      <trkpt lat="43.94454" lon="5.23641">
        <ele>501</ele>
        <time>2009-10-02T19:09:02Z</time>
      </trkpt>
      <trkpt lat="43.94459" lon="5.23641">
        <ele>502</ele>
        <time>2009-10-02T19:09:02Z</time>
      </trkpt>
      <trkpt lat="43.94459" lon="5.23635">
        <ele>502</ele>
        <time>2009-10-02T19:09:02Z</time>
      </trkpt>
      <trkpt lat="43.94464" lon="5.23635">
        <ele>502</ele>
        <time>2009-10-02T19:09:02Z</time>
      </trkpt>
      <trkpt lat="43.94464" lon="5.23629">
        <ele>502</ele>
        <time>2009-10-02T19:09:02Z</time>
      </trkpt>
      <trkpt lat="43.94464" lon="5.23622">
        <ele>502</ele>
        <time>2009-10-02T19:09:02Z</time>
      </trkpt>
      <trkpt lat="43.94464" lon="5.23616">
        <ele>502</ele>
        <time>2009-10-02T19:09:02Z</time>
      </trkpt>
      <trkpt lat="43.94464" lon="5.2361">
        <ele>501</ele>
        <time>2009-10-02T19:09:02Z</time>
      </trkpt>
      <trkpt lat="43.94469" lon="5.2361">
        <ele>502</ele>
        <time>2009-10-02T19:09:02Z</time>
      </trkpt>
      <trkpt lat="43.94469" lon="5.23604">
        <ele>502</ele>
        <time>2009-10-02T19:09:02Z</time>
      </trkpt>
      <trkpt lat="43.94469" lon="5.23598">
        <ele>502</ele>
        <time>2009-10-02T19:09:02Z</time>
      </trkpt>
      <trkpt lat="43.94469" lon="5.23592">
        <ele>501</ele>
        <time>2009-10-02T19:09:02Z</time>
      </trkpt>
      <trkpt lat="43.94469" lon="5.23585">
        <ele>501</ele>
        <time>2009-10-02T19:09:02Z</time>
      </trkpt>
      <trkpt lat="43.9447" lon="5.23579">
        <ele>501</ele>
        <time>2009-10-02T19:09:02Z</time>
      </trkpt>
      <trkpt lat="43.9447" lon="5.23573">
        <ele>501</ele>
        <time>2009-10-02T19:09:02Z</time>
      </trkpt>
      <trkpt lat="43.9447" lon="5.23567">
        <ele>500</ele>
        <time>2009-10-02T19:09:02Z</time>
      </trkpt>
      <trkpt lat="43.94474" lon="5.23567">
        <ele>501</ele>
        <time>2009-10-02T19:09:02Z</time>
      </trkpt>
      <trkpt lat="43.94479" lon="5.23561">
        <ele>501</ele>
        <time>2009-10-02T19:09:02Z</time>
      </trkpt>
      <trkpt lat="43.94479" lon="5.23555">
        <ele>501</ele>
        <time>2009-10-02T19:09:02Z</time>
      </trkpt>
      <trkpt lat="43.94484" lon="5.23555">
        <ele>501</ele>
        <time>2009-10-02T19:09:02Z</time>
      </trkpt>
      <trkpt lat="43.94484" lon="5.23549">
        <ele>501</ele>
        <time>2009-10-02T19:09:02Z</time>
      </trkpt>
      <trkpt lat="43.94488" lon="5.23549">
        <ele>502</ele>
        <time>2009-10-02T19:09:02Z</time>
      </trkpt>
      <trkpt lat="43.94493" lon="5.23549">
        <ele>502</ele>
        <time>2009-10-02T19:09:02Z</time>
      </trkpt>
      <trkpt lat="43.94493" lon="5.23543">
        <ele>502</ele>
        <time>2009-10-02T19:09:02Z</time>
      </trkpt>
      <trkpt lat="43.94497" lon="5.23543">
        <ele>502</ele>
        <time>2009-10-02T19:09:02Z</time>
      </trkpt>
      <trkpt lat="43.94498" lon="5.23537">
        <ele>502</ele>
        <time>2009-10-02T19:09:02Z</time>
      </trkpt>
      <trkpt lat="43.94498" lon="5.23531">
        <ele>502</ele>
        <time>2009-10-02T19:09:02Z</time>
      </trkpt>
      <trkpt lat="43.94498" lon="5.23525">
        <ele>502</ele>
        <time>2009-10-02T19:09:02Z</time>
      </trkpt>
      <trkpt lat="43.94498" lon="5.23518">
        <ele>502</ele>
        <time>2009-10-02T19:09:02Z</time>
      </trkpt>
      <trkpt lat="43.94498" lon="5.23512">
        <ele>502</ele>
        <time>2009-10-02T19:09:02Z</time>
      </trkpt>
      <trkpt lat="43.94498" lon="5.23506">
        <ele>501</ele>
        <time>2009-10-02T19:09:02Z</time>
      </trkpt>
      <trkpt lat="43.94499" lon="5.235">
        <ele>501</ele>
        <time>2009-10-02T19:09:02Z</time>
      </trkpt>
      <trkpt lat="43.94494" lon="5.23499">
        <ele>501</ele>
        <time>2009-10-02T19:09:02Z</time>
      </trkpt>
      <trkpt lat="43.94494" lon="5.23493">
        <ele>501</ele>
        <time>2009-10-02T19:09:02Z</time>
      </trkpt>
      <trkpt lat="43.94494" lon="5.23487">
        <ele>501</ele>
        <time>2009-10-02T19:09:02Z</time>
      </trkpt>
      <trkpt lat="43.94495" lon="5.23481">
        <ele>501</ele>
        <time>2009-10-02T19:09:02Z</time>
      </trkpt>
      <trkpt lat="43.94495" lon="5.23475">
        <ele>501</ele>
        <time>2009-10-02T19:09:02Z</time>
      </trkpt>
      <trkpt lat="43.94495" lon="5.23468">
        <ele>501</ele>
        <time>2009-10-02T19:09:02Z</time>
      </trkpt>
      <trkpt lat="43.94495" lon="5.23462">
        <ele>501</ele>
        <time>2009-10-02T19:09:02Z</time>
      </trkpt>
      <trkpt lat="43.94495" lon="5.23456">
        <ele>501</ele>
        <time>2009-10-02T19:09:02Z</time>
      </trkpt>
      <trkpt lat="43.94495" lon="5.2345">
        <ele>501</ele>
        <time>2009-10-02T19:09:02Z</time>
      </trkpt>
      <trkpt lat="43.94496" lon="5.23443">
        <ele>500</ele>
        <time>2009-10-02T19:09:02Z</time>
      </trkpt>
      <trkpt lat="43.94496" lon="5.23437">
        <ele>500</ele>
        <time>2009-10-02T19:09:02Z</time>
      </trkpt>
      <trkpt lat="43.94496" lon="5.23431">
        <ele>500</ele>
        <time>2009-10-02T19:09:02Z</time>
      </trkpt>
      <trkpt lat="43.94496" lon="5.23425">
        <ele>500</ele>
        <time>2009-10-02T19:09:02Z</time>
      </trkpt>
      <trkpt lat="43.94496" lon="5.23419">
        <ele>500</ele>
        <time>2009-10-02T19:09:02Z</time>
      </trkpt>
      <trkpt lat="43.94496" lon="5.23412">
        <ele>500</ele>
        <time>2009-10-02T19:09:02Z</time>
      </trkpt>
      <trkpt lat="43.94497" lon="5.23406">
        <ele>500</ele>
        <time>2009-10-02T19:09:02Z</time>
      </trkpt>
      <trkpt lat="43.94497" lon="5.234">
        <ele>500</ele>
        <time>2009-10-02T19:09:02Z</time>
      </trkpt>
      <trkpt lat="43.94492" lon="5.234">
        <ele>500</ele>
        <time>2009-10-02T19:09:02Z</time>
      </trkpt>
      <trkpt lat="43.94492" lon="5.23394">
        <ele>500</ele>
        <time>2009-10-02T19:09:02Z</time>
      </trkpt>
      <trkpt lat="43.94493" lon="5.23387">
        <ele>500</ele>
        <time>2009-10-02T19:09:02Z</time>
      </trkpt>
      <trkpt lat="43.94493" lon="5.23381">
        <ele>500</ele>
        <time>2009-10-02T19:09:02Z</time>
      </trkpt>
      <trkpt lat="43.94493" lon="5.23375">
        <ele>500</ele>
        <time>2009-10-02T19:09:02Z</time>
      </trkpt>
      <trkpt lat="43.94493" lon="5.23369">
        <ele>500</ele>
        <time>2009-10-02T19:09:02Z</time>
      </trkpt>
      <trkpt lat="43.94493" lon="5.23362">
        <ele>500</ele>
        <time>2009-10-02T19:09:02Z</time>
      </trkpt>
      <trkpt lat="43.94493" lon="5.23356">
        <ele>500</ele>
        <time>2009-10-02T19:09:02Z</time>
      </trkpt>
      <trkpt lat="43.94494" lon="5.2335">
        <ele>499</ele>
        <time>2009-10-02T19:09:02Z</time>
      </trkpt>
      <trkpt lat="43.94489" lon="5.2335">
        <ele>499</ele>
        <time>2009-10-02T19:09:02Z</time>
      </trkpt>
      <trkpt lat="43.94489" lon="5.23344">
        <ele>499</ele>
        <time>2009-10-02T19:09:02Z</time>
      </trkpt>
      <trkpt lat="43.94489" lon="5.23337">
        <ele>499</ele>
        <time>2009-10-02T19:09:02Z</time>
      </trkpt>
      <trkpt lat="43.9449" lon="5.23331">
        <ele>498</ele>
        <time>2009-10-02T19:09:02Z</time>
      </trkpt>
      <trkpt lat="43.9449" lon="5.23325">
        <ele>498</ele>
        <time>2009-10-02T19:09:02Z</time>
      </trkpt>
      <trkpt lat="43.9449" lon="5.23319">
        <ele>498</ele>
        <time>2009-10-02T19:09:02Z</time>
      </trkpt>
      <trkpt lat="43.9449" lon="5.23312">
        <ele>497</ele>
        <time>2009-10-02T19:09:02Z</time>
      </trkpt>
      <trkpt lat="43.94486" lon="5.23312">
        <ele>498</ele>
        <time>2009-10-02T19:09:02Z</time>
      </trkpt>
      <trkpt lat="43.94481" lon="5.23312">
        <ele>498</ele>
        <time>2009-10-02T19:09:02Z</time>
      </trkpt>
      <trkpt lat="43.94477" lon="5.23312">
        <ele>499</ele>
        <time>2009-10-02T19:09:02Z</time>
      </trkpt>
      <trkpt lat="43.94472" lon="5.23312">
        <ele>499</ele>
        <time>2009-10-02T19:09:02Z</time>
      </trkpt>
      <trkpt lat="43.94468" lon="5.23311">
        <ele>499</ele>
        <time>2009-10-02T19:09:02Z</time>
      </trkpt>
      <trkpt lat="43.94463" lon="5.23311">
        <ele>499</ele>
        <time>2009-10-02T19:09:02Z</time>
      </trkpt>
      <trkpt lat="43.94459" lon="5.23311">
        <ele>500</ele>
        <time>2009-10-02T19:09:02Z</time>
      </trkpt>
      <trkpt lat="43.94454" lon="5.23311">
        <ele>500</ele>
        <time>2009-10-02T19:09:02Z</time>
      </trkpt>
      <trkpt lat="43.9445" lon="5.2331">
        <ele>500</ele>
        <time>2009-10-02T19:09:02Z</time>
      </trkpt>
      <trkpt lat="43.94445" lon="5.2331">
        <ele>500</ele>
        <time>2009-10-02T19:09:02Z</time>
      </trkpt>
      <trkpt lat="43.94441" lon="5.2331">
        <ele>500</ele>
        <time>2009-10-02T19:09:02Z</time>
      </trkpt>
      <trkpt lat="43.94441" lon="5.23304">
        <ele>500</ele>
        <time>2009-10-02T19:09:02Z</time>
      </trkpt>
      <trkpt lat="43.94436" lon="5.23304">
        <ele>501</ele>
        <time>2009-10-02T19:09:02Z</time>
      </trkpt>
      <trkpt lat="43.94437" lon="5.23297">
        <ele>501</ele>
        <time>2009-10-02T19:09:02Z</time>
      </trkpt>
      <trkpt lat="43.94432" lon="5.23297">
        <ele>501</ele>
        <time>2009-10-02T19:09:02Z</time>
      </trkpt>
      <trkpt lat="43.94432" lon="5.23291">
        <ele>501</ele>
        <time>2009-10-02T19:09:02Z</time>
      </trkpt>
      <trkpt lat="43.94428" lon="5.23291">
        <ele>501</ele>
        <time>2009-10-02T19:09:02Z</time>
      </trkpt>
      <trkpt lat="43.94428" lon="5.23284">
        <ele>501</ele>
        <time>2009-10-02T19:09:02Z</time>
      </trkpt>
      <trkpt lat="43.94428" lon="5.23278">
        <ele>502</ele>
        <time>2009-10-02T19:09:02Z</time>
      </trkpt>
      <trkpt lat="43.94424" lon="5.23272">
        <ele>502</ele>
        <time>2009-10-02T19:09:02Z</time>
      </trkpt>
      <trkpt lat="43.94424" lon="5.23266">
        <ele>502</ele>
        <time>2009-10-02T19:09:02Z</time>
      </trkpt>
      <trkpt lat="43.94419" lon="5.23265">
        <ele>502</ele>
        <time>2009-10-02T19:09:02Z</time>
      </trkpt>
      <trkpt lat="43.9442" lon="5.23259">
        <ele>502</ele>
        <time>2009-10-02T19:09:02Z</time>
      </trkpt>
      <trkpt lat="43.9442" lon="5.23253">
        <ele>503</ele>
        <time>2009-10-02T19:09:02Z</time>
      </trkpt>
      <trkpt lat="43.94415" lon="5.23253">
        <ele>503</ele>
        <time>2009-10-02T19:09:02Z</time>
      </trkpt>
      <trkpt lat="43.94415" lon="5.23246">
        <ele>503</ele>
        <time>2009-10-02T19:09:02Z</time>
      </trkpt>
      <trkpt lat="43.94411" lon="5.2324">
        <ele>503</ele>
        <time>2009-10-02T19:09:02Z</time>
      </trkpt>
      <trkpt lat="43.94407" lon="5.2324">
        <ele>504</ele>
        <time>2009-10-02T19:09:02Z</time>
      </trkpt>
      <trkpt lat="43.94407" lon="5.23234">
        <ele>504</ele>
        <time>2009-10-02T19:09:02Z</time>
      </trkpt>
      <trkpt lat="43.94402" lon="5.23233">
        <ele>504</ele>
        <time>2009-10-02T19:09:02Z</time>
      </trkpt>
      <trkpt lat="43.94402" lon="5.23227">
        <ele>504</ele>
        <time>2009-10-02T19:09:02Z</time>
      </trkpt>
      <trkpt lat="43.94403" lon="5.23221">
        <ele>504</ele>
        <time>2009-10-02T19:09:02Z</time>
      </trkpt>
      <trkpt lat="43.94398" lon="5.23221">
        <ele>504</ele>
        <time>2009-10-02T19:09:02Z</time>
      </trkpt>
      <trkpt lat="43.94398" lon="5.23214">
        <ele>504</ele>
        <time>2009-10-02T19:09:02Z</time>
      </trkpt>
      <trkpt lat="43.94394" lon="5.23214">
        <ele>504</ele>
        <time>2009-10-02T19:09:02Z</time>
      </trkpt>
      <trkpt lat="43.94389" lon="5.23214">
        <ele>505</ele>
        <time>2009-10-02T19:09:02Z</time>
      </trkpt>
      <trkpt lat="43.94389" lon="5.23208">
        <ele>504</ele>
        <time>2009-10-02T19:09:02Z</time>
      </trkpt>
      <trkpt lat="43.94385" lon="5.23208">
        <ele>505</ele>
        <time>2009-10-02T19:09:02Z</time>
      </trkpt>
      <trkpt lat="43.94385" lon="5.23201">
        <ele>504</ele>
        <time>2009-10-02T19:09:02Z</time>
      </trkpt>
      <trkpt lat="43.94381" lon="5.23201">
        <ele>505</ele>
        <time>2009-10-02T19:09:02Z</time>
      </trkpt>
      <trkpt lat="43.94381" lon="5.23195">
        <ele>504</ele>
        <time>2009-10-02T19:09:02Z</time>
      </trkpt>
      <trkpt lat="43.94376" lon="5.23195">
        <ele>505</ele>
        <time>2009-10-02T19:09:02Z</time>
      </trkpt>
      <trkpt lat="43.94372" lon="5.23194">
        <ele>505</ele>
        <time>2009-10-02T19:09:02Z</time>
      </trkpt>
      <trkpt lat="43.94367" lon="5.23194">
        <ele>505</ele>
        <time>2009-10-02T19:09:02Z</time>
      </trkpt>
      <trkpt lat="43.94363" lon="5.23194">
        <ele>505</ele>
        <time>2009-10-02T19:09:02Z</time>
      </trkpt>
      <trkpt lat="43.94358" lon="5.23187">
        <ele>506</ele>
        <time>2009-10-02T19:09:02Z</time>
      </trkpt>
      <trkpt lat="43.94354" lon="5.23187">
        <ele>506</ele>
        <time>2009-10-02T19:09:02Z</time>
      </trkpt>
      <trkpt lat="43.94354" lon="5.23181">
        <ele>506</ele>
        <time>2009-10-02T19:09:02Z</time>
      </trkpt>
      <trkpt lat="43.9435" lon="5.23175">
        <ele>506</ele>
        <time>2009-10-02T19:09:02Z</time>
      </trkpt>
      <trkpt lat="43.94346" lon="5.23168">
        <ele>506</ele>
        <time>2009-10-02T19:09:02Z</time>
      </trkpt>
      <trkpt lat="43.94341" lon="5.23168">
        <ele>507</ele>
        <time>2009-10-02T19:09:02Z</time>
      </trkpt>
      <trkpt lat="43.94341" lon="5.23162">
        <ele>507</ele>
        <time>2009-10-02T19:09:02Z</time>
      </trkpt>
      <trkpt lat="43.94337" lon="5.23161">
        <ele>507</ele>
        <time>2009-10-02T19:09:02Z</time>
      </trkpt>
      <trkpt lat="43.94337" lon="5.23155">
        <ele>506</ele>
        <time>2009-10-02T19:09:02Z</time>
      </trkpt>
      <trkpt lat="43.94332" lon="5.23155">
        <ele>507</ele>
        <time>2009-10-02T19:09:02Z</time>
      </trkpt>
      <trkpt lat="43.94333" lon="5.23149">
        <ele>506</ele>
        <time>2009-10-02T19:09:02Z</time>
      </trkpt>
      <trkpt lat="43.94328" lon="5.23149">
        <ele>507</ele>
        <time>2009-10-02T19:09:02Z</time>
      </trkpt>
      <trkpt lat="43.94324" lon="5.23148">
        <ele>507</ele>
        <time>2009-10-02T19:09:02Z</time>
      </trkpt>
      <trkpt lat="43.94324" lon="5.23142">
        <ele>507</ele>
        <time>2009-10-02T19:09:02Z</time>
      </trkpt>
      <trkpt lat="43.94319" lon="5.23142">
        <ele>507</ele>
        <time>2009-10-02T19:09:02Z</time>
      </trkpt>
      <trkpt lat="43.94319" lon="5.23136">
        <ele>506</ele>
        <time>2009-10-02T19:09:02Z</time>
      </trkpt>
      <trkpt lat="43.94315" lon="5.23135">
        <ele>507</ele>
        <time>2009-10-02T19:09:02Z</time>
      </trkpt>
      <trkpt lat="43.9431" lon="5.23135">
        <ele>507</ele>
        <time>2009-10-02T19:09:02Z</time>
      </trkpt>
      <trkpt lat="43.94311" lon="5.23129">
        <ele>507</ele>
        <time>2009-10-02T19:09:02Z</time>
      </trkpt>
      <trkpt lat="43.94306" lon="5.23129">
        <ele>507</ele>
        <time>2009-10-02T19:09:02Z</time>
      </trkpt>
      <trkpt lat="43.94311" lon="5.23129">
        <ele>507</ele>
        <time>2009-10-02T19:09:02Z</time>
      </trkpt>
      <trkpt lat="43.94306" lon="5.23129">
        <ele>507</ele>
        <time>2009-10-02T19:09:02Z</time>
      </trkpt>
      <trkpt lat="43.94302" lon="5.23129">
        <ele>508</ele>
        <time>2009-10-02T19:09:02Z</time>
      </trkpt>
      <trkpt lat="43.94302" lon="5.23122">
        <ele>507</ele>
        <time>2009-10-02T19:09:02Z</time>
      </trkpt>
      <trkpt lat="43.94297" lon="5.23122">
        <ele>508</ele>
        <time>2009-10-02T19:09:02Z</time>
      </trkpt>
      <trkpt lat="43.94293" lon="5.23122">
        <ele>508</ele>
        <time>2009-10-02T19:09:02Z</time>
      </trkpt>
      <trkpt lat="43.94293" lon="5.23116">
        <ele>508</ele>
        <time>2009-10-02T19:09:02Z</time>
      </trkpt>
      <trkpt lat="43.94288" lon="5.23115">
        <ele>509</ele>
        <time>2009-10-02T19:09:02Z</time>
      </trkpt>
      <trkpt lat="43.94289" lon="5.23109">
        <ele>508</ele>
        <time>2009-10-02T19:09:02Z</time>
      </trkpt>
      <trkpt lat="43.94284" lon="5.23109">
        <ele>509</ele>
        <time>2009-10-02T19:09:02Z</time>
      </trkpt>
      <trkpt lat="43.9428" lon="5.23109">
        <ele>509</ele>
        <time>2009-10-02T19:09:02Z</time>
      </trkpt>
      <trkpt lat="43.9428" lon="5.23103">
        <ele>509</ele>
        <time>2009-10-02T19:09:02Z</time>
      </trkpt>
      <trkpt lat="43.94275" lon="5.23102">
        <ele>509</ele>
        <time>2009-10-02T19:09:02Z</time>
      </trkpt>
      <trkpt lat="43.94275" lon="5.23096">
        <ele>509</ele>
        <time>2009-10-02T19:09:02Z</time>
      </trkpt>
      <trkpt lat="43.94276" lon="5.2309">
        <ele>508</ele>
        <time>2009-10-02T19:09:02Z</time>
      </trkpt>
      <trkpt lat="43.94276" lon="5.23084">
        <ele>508</ele>
        <time>2009-10-02T19:09:02Z</time>
      </trkpt>
      <trkpt lat="43.94271" lon="5.23083">
        <ele>508</ele>
        <time>2009-10-02T19:09:02Z</time>
      </trkpt>
      <trkpt lat="43.94267" lon="5.23083">
        <ele>509</ele>
        <time>2009-10-02T19:09:02Z</time>
      </trkpt>
      <trkpt lat="43.94267" lon="5.23077">
        <ele>509</ele>
        <time>2009-10-02T19:09:02Z</time>
      </trkpt>
      <trkpt lat="43.94262" lon="5.23077">
        <ele>509</ele>
        <time>2009-10-02T19:09:02Z</time>
      </trkpt>
      <trkpt lat="43.94263" lon="5.23071">
        <ele>509</ele>
        <time>2009-10-02T19:09:02Z</time>
      </trkpt>
      <trkpt lat="43.94258" lon="5.2307">
        <ele>509</ele>
        <time>2009-10-02T19:09:02Z</time>
      </trkpt>
      <trkpt lat="43.94254" lon="5.2307">
        <ele>510</ele>
        <time>2009-10-02T19:09:02Z</time>
      </trkpt>
      <trkpt lat="43.94249" lon="5.23064">
        <ele>510</ele>
        <time>2009-10-02T19:09:02Z</time>
      </trkpt>
      <trkpt lat="43.94245" lon="5.23057">
        <ele>511</ele>
        <time>2009-10-02T19:09:02Z</time>
      </trkpt>
      <trkpt lat="43.94241" lon="5.23057">
        <ele>511</ele>
        <time>2009-10-02T19:09:02Z</time>
      </trkpt>
      <trkpt lat="43.94241" lon="5.23051">
        <ele>511</ele>
        <time>2009-10-02T19:09:02Z</time>
      </trkpt>
      <trkpt lat="43.94236" lon="5.23051">
        <ele>512</ele>
        <time>2009-10-02T19:09:02Z</time>
      </trkpt>
      <trkpt lat="43.94232" lon="5.2305">
        <ele>512</ele>
        <time>2009-10-02T19:09:02Z</time>
      </trkpt>
      <trkpt lat="43.94232" lon="5.23044">
        <ele>512</ele>
        <time>2009-10-02T19:09:02Z</time>
      </trkpt>
      <trkpt lat="43.94227" lon="5.23044">
        <ele>513</ele>
        <time>2009-10-02T19:09:02Z</time>
      </trkpt>
      <trkpt lat="43.94228" lon="5.23038">
        <ele>512</ele>
        <time>2009-10-02T19:09:02Z</time>
      </trkpt>
      <trkpt lat="43.94223" lon="5.23037">
        <ele>513</ele>
        <time>2009-10-02T19:09:02Z</time>
      </trkpt>
      <trkpt lat="43.94219" lon="5.23031">
        <ele>514</ele>
        <time>2009-10-02T19:09:02Z</time>
      </trkpt>
      <trkpt lat="43.94214" lon="5.23031">
        <ele>514</ele>
        <time>2009-10-02T19:09:02Z</time>
      </trkpt>
      <trkpt lat="43.9421" lon="5.2303">
        <ele>515</ele>
        <time>2009-10-02T19:09:02Z</time>
      </trkpt>
      <trkpt lat="43.94205" lon="5.2303">
        <ele>516</ele>
        <time>2009-10-02T19:09:02Z</time>
      </trkpt>
      <trkpt lat="43.94201" lon="5.2303">
        <ele>516</ele>
        <time>2009-10-02T19:09:02Z</time>
      </trkpt>
      <trkpt lat="43.94196" lon="5.23024">
        <ele>516</ele>
        <time>2009-10-02T19:09:02Z</time>
      </trkpt>
      <trkpt lat="43.94192" lon="5.23023">
        <ele>517</ele>
        <time>2009-10-02T19:09:02Z</time>
      </trkpt>
      <trkpt lat="43.94187" lon="5.23023">
        <ele>517</ele>
        <time>2009-10-02T19:09:02Z</time>
      </trkpt>
      <trkpt lat="43.94183" lon="5.23023">
        <ele>518</ele>
        <time>2009-10-02T19:09:02Z</time>
      </trkpt>
      <trkpt lat="43.94178" lon="5.23023">
        <ele>519</ele>
        <time>2009-10-02T19:09:02Z</time>
      </trkpt>
      <trkpt lat="43.94179" lon="5.23016">
        <ele>518</ele>
        <time>2009-10-02T19:09:02Z</time>
      </trkpt>
      <trkpt lat="43.94174" lon="5.23016">
        <ele>519</ele>
        <time>2009-10-02T19:09:02Z</time>
      </trkpt>
      <trkpt lat="43.9417" lon="5.23016">
        <ele>519</ele>
        <time>2009-10-02T19:09:02Z</time>
      </trkpt>
      <trkpt lat="43.94165" lon="5.23016">
        <ele>519</ele>
        <time>2009-10-02T19:09:02Z</time>
      </trkpt>
      <trkpt lat="43.94165" lon="5.2301">
        <ele>518</ele>
        <time>2009-10-02T19:09:02Z</time>
      </trkpt>
      <trkpt lat="43.94161" lon="5.23009">
        <ele>518</ele>
        <time>2009-10-02T19:09:02Z</time>
      </trkpt>
      <trkpt lat="43.94156" lon="5.23009">
        <ele>518</ele>
        <time>2009-10-02T19:09:02Z</time>
      </trkpt>
      <trkpt lat="43.94152" lon="5.23009">
        <ele>518</ele>
        <time>2009-10-02T19:09:02Z</time>
      </trkpt>
      <trkpt lat="43.94152" lon="5.23003">
        <ele>518</ele>
        <time>2009-10-02T19:09:02Z</time>
      </trkpt>
      <trkpt lat="43.94148" lon="5.23002">
        <ele>517</ele>
        <time>2009-10-02T19:09:02Z</time>
      </trkpt>
      <trkpt lat="43.94143" lon="5.22996">
        <ele>517</ele>
        <time>2009-10-02T19:09:02Z</time>
      </trkpt>
      <trkpt lat="43.94139" lon="5.2299">
        <ele>517</ele>
        <time>2009-10-02T19:09:02Z</time>
      </trkpt>
      <trkpt lat="43.94135" lon="5.22983">
        <ele>517</ele>
        <time>2009-10-02T19:09:02Z</time>
      </trkpt>
      <trkpt lat="43.9413" lon="5.22983">
        <ele>517</ele>
        <time>2009-10-02T19:09:02Z</time>
      </trkpt>
      <trkpt lat="43.9413" lon="5.22977">
        <ele>517</ele>
        <time>2009-10-02T19:09:02Z</time>
      </trkpt>
      <trkpt lat="43.94126" lon="5.2297">
        <ele>517</ele>
        <time>2009-10-02T19:09:02Z</time>
      </trkpt>
      <trkpt lat="43.94121" lon="5.2297">
        <ele>516</ele>
        <time>2009-10-02T19:09:02Z</time>
      </trkpt>
      <trkpt lat="43.94117" lon="5.22964">
        <ele>516</ele>
        <time>2009-10-02T19:09:02Z</time>
      </trkpt>
      <trkpt lat="43.94113" lon="5.22957">
        <ele>515</ele>
        <time>2009-10-02T19:09:02Z</time>
      </trkpt>
      <trkpt lat="43.94113" lon="5.22951">
        <ele>515</ele>
        <time>2009-10-02T19:09:02Z</time>
      </trkpt>
      <trkpt lat="43.94108" lon="5.22951">
        <ele>515</ele>
        <time>2009-10-02T19:09:02Z</time>
      </trkpt>
      <trkpt lat="43.94109" lon="5.22944">
        <ele>514</ele>
        <time>2009-10-02T19:09:02Z</time>
      </trkpt>
      <trkpt lat="43.94109" lon="5.22938">
        <ele>514</ele>
        <time>2009-10-02T19:09:02Z</time>
      </trkpt>
      <trkpt lat="43.94104" lon="5.22938">
        <ele>513</ele>
        <time>2009-10-02T19:09:02Z</time>
      </trkpt>
      <trkpt lat="43.94104" lon="5.22932">
        <ele>513</ele>
        <time>2009-10-02T19:09:02Z</time>
      </trkpt>
      <trkpt lat="43.94105" lon="5.22926">
        <ele>512</ele>
        <time>2009-10-02T19:09:02Z</time>
      </trkpt>
      <trkpt lat="43.941" lon="5.22925">
        <ele>512</ele>
        <time>2009-10-02T19:09:02Z</time>
      </trkpt>
      <trkpt lat="43.941" lon="5.22919">
        <ele>512</ele>
        <time>2009-10-02T19:09:02Z</time>
      </trkpt>
      <trkpt lat="43.94096" lon="5.22913">
        <ele>512</ele>
        <time>2009-10-02T19:09:02Z</time>
      </trkpt>
      <trkpt lat="43.94096" lon="5.22906">
        <ele>511</ele>
        <time>2009-10-02T19:09:02Z</time>
      </trkpt>
      <trkpt lat="43.94092" lon="5.22906">
        <ele>511</ele>
        <time>2009-10-02T19:09:02Z</time>
      </trkpt>
      <trkpt lat="43.94092" lon="5.229">
        <ele>511</ele>
        <time>2009-10-02T19:09:02Z</time>
      </trkpt>
      <trkpt lat="43.94087" lon="5.229">
        <ele>511</ele>
        <time>2009-10-02T19:09:02Z</time>
      </trkpt>
      <trkpt lat="43.94087" lon="5.22894">
        <ele>510</ele>
        <time>2009-10-02T19:09:02Z</time>
      </trkpt>
      <trkpt lat="43.94083" lon="5.22887">
        <ele>510</ele>
        <time>2009-10-02T19:09:02Z</time>
      </trkpt>
      <trkpt lat="43.94079" lon="5.22887">
        <ele>510</ele>
        <time>2009-10-02T19:09:02Z</time>
      </trkpt>
      <trkpt lat="43.94074" lon="5.22887">
        <ele>510</ele>
        <time>2009-10-02T19:09:02Z</time>
      </trkpt>
      <trkpt lat="43.94074" lon="5.2288">
        <ele>510</ele>
        <time>2009-10-02T19:09:02Z</time>
      </trkpt>
      <trkpt lat="43.9407" lon="5.2288">
        <ele>510</ele>
        <time>2009-10-02T19:09:02Z</time>
      </trkpt>
      <trkpt lat="43.94065" lon="5.2288">
        <ele>510</ele>
        <time>2009-10-02T19:09:02Z</time>
      </trkpt>
      <trkpt lat="43.94061" lon="5.2288">
        <ele>510</ele>
        <time>2009-10-02T19:09:02Z</time>
      </trkpt>
      <trkpt lat="43.94056" lon="5.22879">
        <ele>511</ele>
        <time>2009-10-02T19:09:02Z</time>
      </trkpt>
      <trkpt lat="43.94056" lon="5.22873">
        <ele>510</ele>
        <time>2009-10-02T19:09:02Z</time>
      </trkpt>
      <trkpt lat="43.94057" lon="5.22867">
        <ele>509</ele>
        <time>2009-10-02T19:09:02Z</time>
      </trkpt>
      <trkpt lat="43.94057" lon="5.22861">
        <ele>509</ele>
        <time>2009-10-02T19:09:02Z</time>
      </trkpt>
      <trkpt lat="43.94057" lon="5.22855">
        <ele>508</ele>
        <time>2009-10-02T19:09:02Z</time>
      </trkpt>
      <trkpt lat="43.94057" lon="5.22848">
        <ele>508</ele>
        <time>2009-10-02T19:09:02Z</time>
      </trkpt>
      <trkpt lat="43.94057" lon="5.22842">
        <ele>507</ele>
        <time>2009-10-02T19:09:02Z</time>
      </trkpt>
      <trkpt lat="43.94057" lon="5.22836">
        <ele>507</ele>
        <time>2009-10-02T19:09:02Z</time>
      </trkpt>
      <trkpt lat="43.94053" lon="5.2283">
        <ele>506</ele>
        <time>2009-10-02T19:09:02Z</time>
      </trkpt>
      <trkpt lat="43.94053" lon="5.22823">
        <ele>506</ele>
        <time>2009-10-02T19:09:02Z</time>
      </trkpt>
      <trkpt lat="43.94049" lon="5.22817">
        <ele>506</ele>
        <time>2009-10-02T19:09:02Z</time>
      </trkpt>
      <trkpt lat="43.94049" lon="5.22811">
        <ele>505</ele>
        <time>2009-10-02T19:09:02Z</time>
      </trkpt>
      <trkpt lat="43.94049" lon="5.22804">
        <ele>504</ele>
        <time>2009-10-02T19:09:02Z</time>
      </trkpt>
      <trkpt lat="43.94045" lon="5.22798">
        <ele>504</ele>
        <time>2009-10-02T19:09:02Z</time>
      </trkpt>
      <trkpt lat="43.94045" lon="5.22792">
        <ele>504</ele>
        <time>2009-10-02T19:09:02Z</time>
      </trkpt>
      <trkpt lat="43.94041" lon="5.22792">
        <ele>504</ele>
        <time>2009-10-02T19:09:02Z</time>
      </trkpt>
      <trkpt lat="43.94036" lon="5.22785">
        <ele>504</ele>
        <time>2009-10-02T19:09:02Z</time>
      </trkpt>
      <trkpt lat="43.94032" lon="5.22785">
        <ele>505</ele>
        <time>2009-10-02T19:09:02Z</time>
      </trkpt>
      <trkpt lat="43.94027" lon="5.22785">
        <ele>505</ele>
        <time>2009-10-02T19:09:02Z</time>
      </trkpt>
      <trkpt lat="43.94023" lon="5.22784">
        <ele>506</ele>
        <time>2009-10-02T19:09:02Z</time>
      </trkpt>
      <trkpt lat="43.94018" lon="5.22784">
        <ele>507</ele>
        <time>2009-10-02T19:09:02Z</time>
      </trkpt>
      <trkpt lat="43.94014" lon="5.22784">
        <ele>507</ele>
        <time>2009-10-02T19:09:02Z</time>
      </trkpt>
      <trkpt lat="43.94009" lon="5.22784">
        <ele>508</ele>
        <time>2009-10-02T19:09:02Z</time>
      </trkpt>
      <trkpt lat="43.94005" lon="5.22783">
        <ele>508</ele>
        <time>2009-10-02T19:09:02Z</time>
      </trkpt>
      <trkpt lat="43.94" lon="5.22783">
        <ele>509</ele>
        <time>2009-10-02T19:09:02Z</time>
      </trkpt>
      <trkpt lat="43.93996" lon="5.22783">
        <ele>509</ele>
        <time>2009-10-02T19:09:02Z</time>
      </trkpt>
      <trkpt lat="43.93991" lon="5.22783">
        <ele>510</ele>
        <time>2009-10-02T19:09:02Z</time>
      </trkpt>
      <trkpt lat="43.93987" lon="5.22783">
        <ele>510</ele>
        <time>2009-10-02T19:09:02Z</time>
      </trkpt>
      <trkpt lat="43.93982" lon="5.22782">
        <ele>510</ele>
        <time>2009-10-02T19:09:02Z</time>
      </trkpt>
      <trkpt lat="43.93978" lon="5.22782">
        <ele>510</ele>
        <time>2009-10-02T19:09:02Z</time>
      </trkpt>
      <trkpt lat="43.93973" lon="5.22782">
        <ele>511</ele>
        <time>2009-10-02T19:09:02Z</time>
      </trkpt>
      <trkpt lat="43.93969" lon="5.22782">
        <ele>511</ele>
        <time>2009-10-02T19:09:02Z</time>
      </trkpt>
      <trkpt lat="43.93965" lon="5.22775">
        <ele>511</ele>
        <time>2009-10-02T19:09:02Z</time>
      </trkpt>
      <trkpt lat="43.9396" lon="5.22769">
        <ele>511</ele>
        <time>2009-10-02T19:09:02Z</time>
      </trkpt>
      <trkpt lat="43.93956" lon="5.22769">
        <ele>511</ele>
        <time>2009-10-02T19:09:02Z</time>
      </trkpt>
      <trkpt lat="43.93956" lon="5.22762">
        <ele>510</ele>
        <time>2009-10-02T19:09:02Z</time>
      </trkpt>
      <trkpt lat="43.93952" lon="5.22756">
        <ele>510</ele>
        <time>2009-10-02T19:09:02Z</time>
      </trkpt>
      <trkpt lat="43.93947" lon="5.22749">
        <ele>509</ele>
        <time>2009-10-02T19:09:02Z</time>
      </trkpt>
      <trkpt lat="43.93947" lon="5.22743">
        <ele>509</ele>
        <time>2009-10-02T19:09:02Z</time>
      </trkpt>
      <trkpt lat="43.93943" lon="5.22743">
        <ele>509</ele>
        <time>2009-10-02T19:09:02Z</time>
      </trkpt>
      <trkpt lat="43.93943" lon="5.22737">
        <ele>508</ele>
        <time>2009-10-02T19:09:02Z</time>
      </trkpt>
      <trkpt lat="43.93939" lon="5.22737">
        <ele>508</ele>
        <time>2009-10-02T19:09:02Z</time>
      </trkpt>
      <trkpt lat="43.93939" lon="5.2273">
        <ele>508</ele>
        <time>2009-10-02T19:09:02Z</time>
      </trkpt>
      <trkpt lat="43.93934" lon="5.2273">
        <ele>508</ele>
        <time>2009-10-02T19:09:02Z</time>
      </trkpt>
      <trkpt lat="43.93935" lon="5.22724">
        <ele>507</ele>
        <time>2009-10-02T19:09:02Z</time>
      </trkpt>
      <trkpt lat="43.93935" lon="5.22718">
        <ele>507</ele>
        <time>2009-10-02T19:09:02Z</time>
      </trkpt>
      <trkpt lat="43.9393" lon="5.22717">
        <ele>506</ele>
        <time>2009-10-02T19:09:02Z</time>
      </trkpt>
      <trkpt lat="43.93926" lon="5.22717">
        <ele>506</ele>
        <time>2009-10-02T19:09:02Z</time>
      </trkpt>
      <trkpt lat="43.93921" lon="5.22717">
        <ele>506</ele>
        <time>2009-10-02T19:09:02Z</time>
      </trkpt>
      <trkpt lat="43.93917" lon="5.22717">
        <ele>506</ele>
        <time>2009-10-02T19:09:02Z</time>
      </trkpt>
      <trkpt lat="43.93912" lon="5.22717">
        <ele>506</ele>
        <time>2009-10-02T19:09:02Z</time>
      </trkpt>
      <trkpt lat="43.93908" lon="5.22716">
        <ele>506</ele>
        <time>2009-10-02T19:09:02Z</time>
      </trkpt>
      <trkpt lat="43.93903" lon="5.22716">
        <ele>505</ele>
        <time>2009-10-02T19:09:02Z</time>
      </trkpt>
      <trkpt lat="43.93903" lon="5.2271">
        <ele>505</ele>
        <time>2009-10-02T19:09:02Z</time>
      </trkpt>
      <trkpt lat="43.93904" lon="5.22704">
        <ele>504</ele>
        <time>2009-10-02T19:09:02Z</time>
      </trkpt>
      <trkpt lat="43.93899" lon="5.22703">
        <ele>504</ele>
        <time>2009-10-02T19:09:02Z</time>
      </trkpt>
      <trkpt lat="43.93899" lon="5.22697">
        <ele>503</ele>
        <time>2009-10-02T19:09:02Z</time>
      </trkpt>
      <trkpt lat="43.93895" lon="5.22697">
        <ele>503</ele>
        <time>2009-10-02T19:09:02Z</time>
      </trkpt>
      <trkpt lat="43.93895" lon="5.22691">
        <ele>502</ele>
        <time>2009-10-02T19:09:02Z</time>
      </trkpt>
      <trkpt lat="43.93895" lon="5.22685">
        <ele>502</ele>
        <time>2009-10-02T19:09:02Z</time>
      </trkpt>
      <trkpt lat="43.93895" lon="5.22678">
        <ele>501</ele>
        <time>2009-10-02T19:09:02Z</time>
      </trkpt>
      <trkpt lat="43.93895" lon="5.22672">
        <ele>500</ele>
        <time>2009-10-02T19:09:02Z</time>
      </trkpt>
      <trkpt lat="43.93891" lon="5.22672">
        <ele>500</ele>
        <time>2009-10-02T19:09:02Z</time>
      </trkpt>
      <trkpt lat="43.93891" lon="5.22666">
        <ele>499</ele>
        <time>2009-10-02T19:09:02Z</time>
      </trkpt>
      <trkpt lat="43.93891" lon="5.22659">
        <ele>499</ele>
        <time>2009-10-02T19:09:02Z</time>
      </trkpt>
      <trkpt lat="43.93891" lon="5.22653">
        <ele>498</ele>
        <time>2009-10-02T19:09:02Z</time>
      </trkpt>
      <trkpt lat="43.93887" lon="5.22653">
        <ele>498</ele>
        <time>2009-10-02T19:09:02Z</time>
      </trkpt>
      <trkpt lat="43.93887" lon="5.22647">
        <ele>497</ele>
        <time>2009-10-02T19:09:02Z</time>
      </trkpt>
      <trkpt lat="43.93887" lon="5.22641">
        <ele>497</ele>
        <time>2009-10-02T19:09:02Z</time>
      </trkpt>
      <trkpt lat="43.93883" lon="5.2264">
        <ele>496</ele>
        <time>2009-10-02T19:09:02Z</time>
      </trkpt>
      <trkpt lat="43.93878" lon="5.22634">
        <ele>495</ele>
        <time>2009-10-02T19:09:02Z</time>
      </trkpt>
      <trkpt lat="43.93874" lon="5.22634">
        <ele>495</ele>
        <time>2009-10-02T19:09:02Z</time>
      </trkpt>
      <trkpt lat="43.93869" lon="5.22633">
        <ele>495</ele>
        <time>2009-10-02T19:09:02Z</time>
      </trkpt>
      <trkpt lat="43.93874" lon="5.22634">
        <ele>495</ele>
        <time>2009-10-02T19:09:02Z</time>
      </trkpt>
      <trkpt lat="43.93874" lon="5.22627">
        <ele>494</ele>
        <time>2009-10-02T19:09:02Z</time>
      </trkpt>
      <trkpt lat="43.93874" lon="5.22621">
        <ele>493</ele>
        <time>2009-10-02T19:09:02Z</time>
      </trkpt>
      <trkpt lat="43.9387" lon="5.22621">
        <ele>493</ele>
        <time>2009-10-02T19:09:02Z</time>
      </trkpt>
      <trkpt lat="43.9387" lon="5.22615">
        <ele>492</ele>
        <time>2009-10-02T19:09:02Z</time>
      </trkpt>
      <trkpt lat="43.9387" lon="5.22609">
        <ele>492</ele>
        <time>2009-10-02T19:09:02Z</time>
      </trkpt>
      <trkpt lat="43.93866" lon="5.22608">
        <ele>491</ele>
        <time>2009-10-02T19:09:02Z</time>
      </trkpt>
      <trkpt lat="43.93866" lon="5.22602">
        <ele>491</ele>
        <time>2009-10-02T19:09:02Z</time>
      </trkpt>
      <trkpt lat="43.93861" lon="5.22602">
        <ele>490</ele>
        <time>2009-10-02T19:09:02Z</time>
      </trkpt>
      <trkpt lat="43.93857" lon="5.22602">
        <ele>490</ele>
        <time>2009-10-02T19:09:02Z</time>
      </trkpt>
      <trkpt lat="43.93852" lon="5.22601">
        <ele>490</ele>
        <time>2009-10-02T19:09:02Z</time>
      </trkpt>
      <trkpt lat="43.93848" lon="5.22601">
        <ele>489</ele>
        <time>2009-10-02T19:09:02Z</time>
      </trkpt>
      <trkpt lat="43.93843" lon="5.22601">
        <ele>489</ele>
        <time>2009-10-02T19:09:02Z</time>
      </trkpt>
      <trkpt lat="43.93839" lon="5.22601">
        <ele>489</ele>
        <time>2009-10-02T19:09:02Z</time>
      </trkpt>
      <trkpt lat="43.93834" lon="5.22601">
        <ele>488</ele>
        <time>2009-10-02T19:09:02Z</time>
      </trkpt>
      <trkpt lat="43.9383" lon="5.226">
        <ele>488</ele>
        <time>2009-10-02T19:09:02Z</time>
      </trkpt>
      <trkpt lat="43.93825" lon="5.226">
        <ele>488</ele>
        <time>2009-10-02T19:09:02Z</time>
      </trkpt>
      <trkpt lat="43.93821" lon="5.226">
        <ele>487</ele>
        <time>2009-10-02T19:09:02Z</time>
      </trkpt>
      <trkpt lat="43.93816" lon="5.226">
        <ele>487</ele>
        <time>2009-10-02T19:09:02Z</time>
      </trkpt>
      <trkpt lat="43.93812" lon="5.22599">
        <ele>487</ele>
        <time>2009-10-02T19:09:02Z</time>
      </trkpt>
      <trkpt lat="43.93807" lon="5.22599">
        <ele>487</ele>
        <time>2009-10-02T19:09:02Z</time>
      </trkpt>
      <trkpt lat="43.93803" lon="5.22599">
        <ele>487</ele>
        <time>2009-10-02T19:09:02Z</time>
      </trkpt>
      <trkpt lat="43.93798" lon="5.22599">
        <ele>486</ele>
        <time>2009-10-02T19:09:02Z</time>
      </trkpt>
      <trkpt lat="43.93794" lon="5.22598">
        <ele>486</ele>
        <time>2009-10-02T19:09:02Z</time>
      </trkpt>
      <trkpt lat="43.93789" lon="5.22598">
        <ele>486</ele>
        <time>2009-10-02T19:09:02Z</time>
      </trkpt>
      <trkpt lat="43.93785" lon="5.22598">
        <ele>486</ele>
        <time>2009-10-02T19:09:02Z</time>
      </trkpt>
      <trkpt lat="43.9378" lon="5.22598">
        <ele>486</ele>
        <time>2009-10-02T19:09:02Z</time>
      </trkpt>
      <trkpt lat="43.93776" lon="5.22598">
        <ele>485</ele>
        <time>2009-10-02T19:09:02Z</time>
      </trkpt>
      <trkpt lat="43.93771" lon="5.22597">
        <ele>485</ele>
        <time>2009-10-02T19:09:02Z</time>
      </trkpt>
      <trkpt lat="43.93767" lon="5.22597">
        <ele>485</ele>
        <time>2009-10-02T19:09:02Z</time>
      </trkpt>
      <trkpt lat="43.93762" lon="5.22597">
        <ele>485</ele>
        <time>2009-10-02T19:09:02Z</time>
      </trkpt>
      <trkpt lat="43.93758" lon="5.22597">
        <ele>484</ele>
        <time>2009-10-02T19:09:02Z</time>
      </trkpt>
      <trkpt lat="43.93753" lon="5.22596">
        <ele>484</ele>
        <time>2009-10-02T19:09:02Z</time>
      </trkpt>
      <trkpt lat="43.93749" lon="5.22596">
        <ele>484</ele>
        <time>2009-10-02T19:09:02Z</time>
      </trkpt>
      <trkpt lat="43.93744" lon="5.22596">
        <ele>484</ele>
        <time>2009-10-02T19:09:02Z</time>
      </trkpt>
      <trkpt lat="43.9374" lon="5.22596">
        <ele>484</ele>
        <time>2009-10-02T19:09:02Z</time>
      </trkpt>
      <trkpt lat="43.93736" lon="5.22595">
        <ele>483</ele>
        <time>2009-10-02T19:09:02Z</time>
      </trkpt>
      <trkpt lat="43.93731" lon="5.22595">
        <ele>483</ele>
        <time>2009-10-02T19:09:02Z</time>
      </trkpt>
      <trkpt lat="43.93727" lon="5.22595">
        <ele>483</ele>
        <time>2009-10-02T19:09:02Z</time>
      </trkpt>
      <trkpt lat="43.93722" lon="5.22595">
        <ele>482</ele>
        <time>2009-10-02T19:09:02Z</time>
      </trkpt>
      <trkpt lat="43.93718" lon="5.22595">
        <ele>482</ele>
        <time>2009-10-02T19:09:02Z</time>
      </trkpt>
      <trkpt lat="43.93713" lon="5.22594">
        <ele>481</ele>
        <time>2009-10-02T19:09:02Z</time>
      </trkpt>
      <trkpt lat="43.93709" lon="5.22594">
        <ele>481</ele>
        <time>2009-10-02T19:09:02Z</time>
      </trkpt>
      <trkpt lat="43.93704" lon="5.22594">
        <ele>480</ele>
        <time>2009-10-02T19:09:02Z</time>
      </trkpt>
      <trkpt lat="43.937" lon="5.22594">
        <ele>480</ele>
        <time>2009-10-02T19:09:02Z</time>
      </trkpt>
      <trkpt lat="43.93695" lon="5.22593">
        <ele>479</ele>
        <time>2009-10-02T19:09:02Z</time>
      </trkpt>
      <trkpt lat="43.93691" lon="5.22593">
        <ele>479</ele>
        <time>2009-10-02T19:09:02Z</time>
      </trkpt>
      <trkpt lat="43.93686" lon="5.22593">
        <ele>479</ele>
        <time>2009-10-02T19:09:02Z</time>
      </trkpt>
      <trkpt lat="43.93682" lon="5.22593">
        <ele>478</ele>
        <time>2009-10-02T19:09:02Z</time>
      </trkpt>
      <trkpt lat="43.93677" lon="5.22593">
        <ele>478</ele>
        <time>2009-10-02T19:09:02Z</time>
      </trkpt>
      <trkpt lat="43.93673" lon="5.22592">
        <ele>477</ele>
        <time>2009-10-02T19:09:02Z</time>
      </trkpt>
      <trkpt lat="43.93668" lon="5.22592">
        <ele>477</ele>
        <time>2009-10-02T19:09:02Z</time>
      </trkpt>
      <trkpt lat="43.93664" lon="5.22592">
        <ele>476</ele>
        <time>2009-10-02T19:09:02Z</time>
      </trkpt>
      <trkpt lat="43.93659" lon="5.22592">
        <ele>476</ele>
        <time>2009-10-02T19:09:02Z</time>
      </trkpt>
      <trkpt lat="43.93655" lon="5.22591">
        <ele>475</ele>
        <time>2009-10-02T19:09:02Z</time>
      </trkpt>
      <trkpt lat="43.9365" lon="5.22591">
        <ele>475</ele>
        <time>2009-10-02T19:09:02Z</time>
      </trkpt>
      <trkpt lat="43.93646" lon="5.22591">
        <ele>474</ele>
        <time>2009-10-02T19:09:02Z</time>
      </trkpt>
      <trkpt lat="43.93641" lon="5.22591">
        <ele>474</ele>
        <time>2009-10-02T19:09:02Z</time>
      </trkpt>
      <trkpt lat="43.93637" lon="5.2259">
        <ele>474</ele>
        <time>2009-10-02T19:09:02Z</time>
      </trkpt>
      <trkpt lat="43.93632" lon="5.2259">
        <ele>473</ele>
        <time>2009-10-02T19:09:02Z</time>
      </trkpt>
      <trkpt lat="43.93628" lon="5.2259">
        <ele>473</ele>
        <time>2009-10-02T19:09:02Z</time>
      </trkpt>
      <trkpt lat="43.93623" lon="5.2259">
        <ele>472</ele>
        <time>2009-10-02T19:09:02Z</time>
      </trkpt>
      <trkpt lat="43.93623" lon="5.22596">
        <ele>472</ele>
        <time>2009-10-02T19:09:02Z</time>
      </trkpt>
      <trkpt lat="43.93623" lon="5.22602">
        <ele>472</ele>
        <time>2009-10-02T19:09:02Z</time>
      </trkpt>
      <trkpt lat="43.93623" lon="5.22608">
        <ele>472</ele>
        <time>2009-10-02T19:09:02Z</time>
      </trkpt>
      <trkpt lat="43.93623" lon="5.22615">
        <ele>472</ele>
        <time>2009-10-02T19:09:02Z</time>
      </trkpt>
      <trkpt lat="43.93622" lon="5.22621">
        <ele>471</ele>
        <time>2009-10-02T19:09:02Z</time>
      </trkpt>
      <trkpt lat="43.93618" lon="5.22621">
        <ele>471</ele>
        <time>2009-10-02T19:09:02Z</time>
      </trkpt>
      <trkpt lat="43.93613" lon="5.2262">
        <ele>471</ele>
        <time>2009-10-02T19:09:02Z</time>
      </trkpt>
      <trkpt lat="43.93609" lon="5.2262">
        <ele>470</ele>
        <time>2009-10-02T19:09:02Z</time>
      </trkpt>
      <trkpt lat="43.93609" lon="5.22626">
        <ele>470</ele>
        <time>2009-10-02T19:09:02Z</time>
      </trkpt>
      <trkpt lat="43.93604" lon="5.22626">
        <ele>470</ele>
        <time>2009-10-02T19:09:02Z</time>
      </trkpt>
      <trkpt lat="43.93604" lon="5.22632">
        <ele>469</ele>
        <time>2009-10-02T19:09:02Z</time>
      </trkpt>
      <trkpt lat="43.93604" lon="5.22639">
        <ele>469</ele>
        <time>2009-10-02T19:09:02Z</time>
      </trkpt>
      <trkpt lat="43.93599" lon="5.22638">
        <ele>469</ele>
        <time>2009-10-02T19:09:02Z</time>
      </trkpt>
      <trkpt lat="43.93599" lon="5.22645">
        <ele>469</ele>
        <time>2009-10-02T19:09:02Z</time>
      </trkpt>
      <trkpt lat="43.93595" lon="5.22644">
        <ele>468</ele>
        <time>2009-10-02T19:09:02Z</time>
      </trkpt>
      <trkpt lat="43.93595" lon="5.22651">
        <ele>468</ele>
        <time>2009-10-02T19:09:02Z</time>
      </trkpt>
      <trkpt lat="43.93594" lon="5.22657">
        <ele>468</ele>
        <time>2009-10-02T19:09:02Z</time>
      </trkpt>
      <trkpt lat="43.9359" lon="5.22663">
        <ele>467</ele>
        <time>2009-10-02T19:09:02Z</time>
      </trkpt>
      <trkpt lat="43.93585" lon="5.22669">
        <ele>466</ele>
        <time>2009-10-02T19:09:02Z</time>
      </trkpt>
      <trkpt lat="43.93581" lon="5.22669">
        <ele>466</ele>
        <time>2009-10-02T19:09:02Z</time>
      </trkpt>
      <trkpt lat="43.9358" lon="5.22675">
        <ele>466</ele>
        <time>2009-10-02T19:09:02Z</time>
      </trkpt>
      <trkpt lat="43.93576" lon="5.22675">
        <ele>465</ele>
        <time>2009-10-02T19:09:02Z</time>
      </trkpt>
      <trkpt lat="43.9358" lon="5.22675">
        <ele>466</ele>
        <time>2009-10-02T19:09:02Z</time>
      </trkpt>
      <trkpt lat="43.9358" lon="5.22681">
        <ele>465</ele>
        <time>2009-10-02T19:09:02Z</time>
      </trkpt>
      <trkpt lat="43.9358" lon="5.22687">
        <ele>465</ele>
        <time>2009-10-02T19:09:02Z</time>
      </trkpt>
      <trkpt lat="43.93575" lon="5.22693">
        <ele>465</ele>
        <time>2009-10-02T19:09:02Z</time>
      </trkpt>
      <trkpt lat="43.93575" lon="5.22699">
        <ele>465</ele>
        <time>2009-10-02T19:09:02Z</time>
      </trkpt>
      <trkpt lat="43.93575" lon="5.22706">
        <ele>465</ele>
        <time>2009-10-02T19:09:02Z</time>
      </trkpt>
      <trkpt lat="43.93575" lon="5.22712">
        <ele>465</ele>
        <time>2009-10-02T19:09:02Z</time>
      </trkpt>
      <trkpt lat="43.9357" lon="5.22718">
        <ele>464</ele>
        <time>2009-10-02T19:09:02Z</time>
      </trkpt>
      <trkpt lat="43.9357" lon="5.22724">
        <ele>464</ele>
        <time>2009-10-02T19:09:02Z</time>
      </trkpt>
      <trkpt lat="43.93566" lon="5.2273">
        <ele>463</ele>
        <time>2009-10-02T19:09:02Z</time>
      </trkpt>
      <trkpt lat="43.93565" lon="5.22736">
        <ele>463</ele>
        <time>2009-10-02T19:09:02Z</time>
      </trkpt>
      <trkpt lat="43.93561" lon="5.22742">
        <ele>463</ele>
        <time>2009-10-02T19:09:02Z</time>
      </trkpt>
      <trkpt lat="43.93556" lon="5.22742">
        <ele>463</ele>
        <time>2009-10-02T19:09:02Z</time>
      </trkpt>
      <trkpt lat="43.93552" lon="5.22742">
        <ele>462</ele>
        <time>2009-10-02T19:09:02Z</time>
      </trkpt>
      <trkpt lat="43.93547" lon="5.22742">
        <ele>462</ele>
        <time>2009-10-02T19:09:02Z</time>
      </trkpt>
      <trkpt lat="43.93543" lon="5.22748">
        <ele>461</ele>
        <time>2009-10-02T19:09:02Z</time>
      </trkpt>
      <trkpt lat="43.93538" lon="5.22747">
        <ele>461</ele>
        <time>2009-10-02T19:09:02Z</time>
      </trkpt>
      <trkpt lat="43.93538" lon="5.22753">
        <ele>460</ele>
        <time>2009-10-02T19:09:02Z</time>
      </trkpt>
      <trkpt lat="43.93533" lon="5.22753">
        <ele>460</ele>
        <time>2009-10-02T19:09:02Z</time>
      </trkpt>
      <trkpt lat="43.93533" lon="5.22759">
        <ele>460</ele>
        <time>2009-10-02T19:09:02Z</time>
      </trkpt>
      <trkpt lat="43.93529" lon="5.22759">
        <ele>459</ele>
        <time>2009-10-02T19:09:02Z</time>
      </trkpt>
      <trkpt lat="43.93524" lon="5.22759">
        <ele>459</ele>
        <time>2009-10-02T19:09:02Z</time>
      </trkpt>
      <trkpt lat="43.93524" lon="5.22765">
        <ele>458</ele>
        <time>2009-10-02T19:09:02Z</time>
      </trkpt>
      <trkpt lat="43.9352" lon="5.22765">
        <ele>458</ele>
        <time>2009-10-02T19:09:02Z</time>
      </trkpt>
      <trkpt lat="43.93515" lon="5.22765">
        <ele>458</ele>
        <time>2009-10-02T19:09:02Z</time>
      </trkpt>
      <trkpt lat="43.93511" lon="5.22765">
        <ele>457</ele>
        <time>2009-10-02T19:09:02Z</time>
      </trkpt>
      <trkpt lat="43.93506" lon="5.22764">
        <ele>457</ele>
        <time>2009-10-02T19:09:02Z</time>
      </trkpt>
      <trkpt lat="43.93502" lon="5.22764">
        <ele>456</ele>
        <time>2009-10-02T19:09:02Z</time>
      </trkpt>
      <trkpt lat="43.93497" lon="5.22764">
        <ele>456</ele>
        <time>2009-10-02T19:09:02Z</time>
      </trkpt>
      <trkpt lat="43.93493" lon="5.22764">
        <ele>456</ele>
        <time>2009-10-02T19:09:02Z</time>
      </trkpt>
      <trkpt lat="43.93488" lon="5.22763">
        <ele>455</ele>
        <time>2009-10-02T19:09:02Z</time>
      </trkpt>
      <trkpt lat="43.93488" lon="5.2277">
        <ele>455</ele>
        <time>2009-10-02T19:09:02Z</time>
      </trkpt>
      <trkpt lat="43.93483" lon="5.22769">
        <ele>455</ele>
        <time>2009-10-02T19:09:02Z</time>
      </trkpt>
      <trkpt lat="43.93479" lon="5.22775">
        <ele>454</ele>
        <time>2009-10-02T19:09:02Z</time>
      </trkpt>
      <trkpt lat="43.93474" lon="5.22775">
        <ele>454</ele>
        <time>2009-10-02T19:09:02Z</time>
      </trkpt>
      <trkpt lat="43.93474" lon="5.22781">
        <ele>453</ele>
        <time>2009-10-02T19:09:02Z</time>
      </trkpt>
      <trkpt lat="43.9347" lon="5.22787">
        <ele>453</ele>
        <time>2009-10-02T19:09:02Z</time>
      </trkpt>
      <trkpt lat="43.93469" lon="5.22794">
        <ele>453</ele>
        <time>2009-10-02T19:09:02Z</time>
      </trkpt>
      <trkpt lat="43.93465" lon="5.22793">
        <ele>452</ele>
        <time>2009-10-02T19:09:02Z</time>
      </trkpt>
      <trkpt lat="43.93465" lon="5.228">
        <ele>452</ele>
        <time>2009-10-02T19:09:02Z</time>
      </trkpt>
      <trkpt lat="43.9346" lon="5.22799">
        <ele>451</ele>
        <time>2009-10-02T19:09:02Z</time>
      </trkpt>
      <trkpt lat="43.9346" lon="5.22806">
        <ele>451</ele>
        <time>2009-10-02T19:09:02Z</time>
      </trkpt>
      <trkpt lat="43.9346" lon="5.22812">
        <ele>451</ele>
        <time>2009-10-02T19:09:02Z</time>
      </trkpt>
      <trkpt lat="43.93455" lon="5.22812">
        <ele>450</ele>
        <time>2009-10-02T19:09:02Z</time>
      </trkpt>
      <trkpt lat="43.93455" lon="5.22818">
        <ele>450</ele>
        <time>2009-10-02T19:09:02Z</time>
      </trkpt>
      <trkpt lat="43.93451" lon="5.22818">
        <ele>450</ele>
        <time>2009-10-02T19:09:02Z</time>
      </trkpt>
      <trkpt lat="43.93451" lon="5.22824">
        <ele>450</ele>
        <time>2009-10-02T19:09:02Z</time>
      </trkpt>
      <trkpt lat="43.93446" lon="5.22824">
        <ele>449</ele>
        <time>2009-10-02T19:09:02Z</time>
      </trkpt>
      <trkpt lat="43.93446" lon="5.2283">
        <ele>449</ele>
        <time>2009-10-02T19:09:02Z</time>
      </trkpt>
      <trkpt lat="43.93441" lon="5.22829">
        <ele>449</ele>
        <time>2009-10-02T19:09:02Z</time>
      </trkpt>
      <trkpt lat="43.93441" lon="5.22836">
        <ele>448</ele>
        <time>2009-10-02T19:09:02Z</time>
      </trkpt>
      <trkpt lat="43.93437" lon="5.22835">
        <ele>448</ele>
        <time>2009-10-02T19:09:02Z</time>
      </trkpt>
      <trkpt lat="43.93432" lon="5.22835">
        <ele>448</ele>
        <time>2009-10-02T19:09:02Z</time>
      </trkpt>
      <trkpt lat="43.93432" lon="5.22841">
        <ele>447</ele>
        <time>2009-10-02T19:09:02Z</time>
      </trkpt>
      <trkpt lat="43.93428" lon="5.22841">
        <ele>447</ele>
        <time>2009-10-02T19:09:02Z</time>
      </trkpt>
      <trkpt lat="43.93423" lon="5.22841">
        <ele>447</ele>
        <time>2009-10-02T19:09:02Z</time>
      </trkpt>
      <trkpt lat="43.93419" lon="5.22841">
        <ele>446</ele>
        <time>2009-10-02T19:09:02Z</time>
      </trkpt>
      <trkpt lat="43.93414" lon="5.22841">
        <ele>446</ele>
        <time>2009-10-02T19:09:02Z</time>
      </trkpt>
      <trkpt lat="43.93409" lon="5.22847">
        <ele>445</ele>
        <time>2009-10-02T19:09:02Z</time>
      </trkpt>
      <trkpt lat="43.93405" lon="5.22846">
        <ele>445</ele>
        <time>2009-10-02T19:09:02Z</time>
      </trkpt>
      <trkpt lat="43.93405" lon="5.22853">
        <ele>445</ele>
        <time>2009-10-02T19:09:02Z</time>
      </trkpt>
      <trkpt lat="43.934" lon="5.22852">
        <ele>444</ele>
        <time>2009-10-02T19:09:02Z</time>
      </trkpt>
      <trkpt lat="43.93396" lon="5.22858">
        <ele>444</ele>
        <time>2009-10-02T19:09:02Z</time>
      </trkpt>
      <trkpt lat="43.93391" lon="5.22858">
        <ele>443</ele>
        <time>2009-10-02T19:09:02Z</time>
      </trkpt>
      <trkpt lat="43.93391" lon="5.22864">
        <ele>443</ele>
        <time>2009-10-02T19:09:02Z</time>
      </trkpt>
      <trkpt lat="43.93387" lon="5.22864">
        <ele>443</ele>
        <time>2009-10-02T19:09:02Z</time>
      </trkpt>
      <trkpt lat="43.93386" lon="5.2287">
        <ele>443</ele>
        <time>2009-10-02T19:09:02Z</time>
      </trkpt>
      <trkpt lat="43.93382" lon="5.2287">
        <ele>442</ele>
        <time>2009-10-02T19:09:02Z</time>
      </trkpt>
      <trkpt lat="43.93382" lon="5.22876">
        <ele>442</ele>
        <time>2009-10-02T19:09:02Z</time>
      </trkpt>
      <trkpt lat="43.93377" lon="5.22876">
        <ele>442</ele>
        <time>2009-10-02T19:09:02Z</time>
      </trkpt>
      <trkpt lat="43.93377" lon="5.22882">
        <ele>441</ele>
        <time>2009-10-02T19:09:02Z</time>
      </trkpt>
      <trkpt lat="43.93372" lon="5.22888">
        <ele>441</ele>
        <time>2009-10-02T19:09:02Z</time>
      </trkpt>
      <trkpt lat="43.93372" lon="5.22894">
        <ele>441</ele>
        <time>2009-10-02T19:09:02Z</time>
      </trkpt>
      <trkpt lat="43.93368" lon="5.22894">
        <ele>440</ele>
        <time>2009-10-02T19:09:02Z</time>
      </trkpt>
      <trkpt lat="43.93368" lon="5.229">
        <ele>440</ele>
        <time>2009-10-02T19:09:02Z</time>
      </trkpt>
      <trkpt lat="43.93363" lon="5.22906">
        <ele>439</ele>
        <time>2009-10-02T19:09:02Z</time>
      </trkpt>
      <trkpt lat="43.93363" lon="5.22913">
        <ele>439</ele>
        <time>2009-10-02T19:09:02Z</time>
      </trkpt>
      <trkpt lat="43.93358" lon="5.22912">
        <ele>439</ele>
        <time>2009-10-02T19:09:02Z</time>
      </trkpt>
      <trkpt lat="43.93358" lon="5.22919">
        <ele>438</ele>
        <time>2009-10-02T19:09:02Z</time>
      </trkpt>
      <trkpt lat="43.93354" lon="5.22918">
        <ele>438</ele>
        <time>2009-10-02T19:09:02Z</time>
      </trkpt>
      <trkpt lat="43.93349" lon="5.22918">
        <ele>437</ele>
        <time>2009-10-02T19:09:02Z</time>
      </trkpt>
      <trkpt lat="43.93344" lon="5.22924">
        <ele>437</ele>
        <time>2009-10-02T19:09:02Z</time>
      </trkpt>
      <trkpt lat="43.9334" lon="5.22924">
        <ele>436</ele>
        <time>2009-10-02T19:09:02Z</time>
      </trkpt>
      <trkpt lat="43.9334" lon="5.2293">
        <ele>436</ele>
        <time>2009-10-02T19:09:02Z</time>
      </trkpt>
      <trkpt lat="43.93335" lon="5.2293">
        <ele>435</ele>
        <time>2009-10-02T19:09:02Z</time>
      </trkpt>
      <trkpt lat="43.93331" lon="5.2293">
        <ele>435</ele>
        <time>2009-10-02T19:09:02Z</time>
      </trkpt>
      <trkpt lat="43.93326" lon="5.22929">
        <ele>434</ele>
        <time>2009-10-02T19:09:02Z</time>
      </trkpt>
      <trkpt lat="43.93322" lon="5.22929">
        <ele>434</ele>
        <time>2009-10-02T19:09:02Z</time>
      </trkpt>
      <trkpt lat="43.93317" lon="5.22929">
        <ele>433</ele>
        <time>2009-10-02T19:09:02Z</time>
      </trkpt>
      <trkpt lat="43.93313" lon="5.22929">
        <ele>433</ele>
        <time>2009-10-02T19:09:02Z</time>
      </trkpt>
      <trkpt lat="43.93308" lon="5.22929">
        <ele>433</ele>
        <time>2009-10-02T19:09:02Z</time>
      </trkpt>
      <trkpt lat="43.93304" lon="5.22928">
        <ele>432</ele>
        <time>2009-10-02T19:09:02Z</time>
      </trkpt>
      <trkpt lat="43.93299" lon="5.22928">
        <ele>432</ele>
        <time>2009-10-02T19:09:02Z</time>
      </trkpt>
      <trkpt lat="43.93295" lon="5.22928">
        <ele>431</ele>
        <time>2009-10-02T19:09:02Z</time>
      </trkpt>
      <trkpt lat="43.9329" lon="5.22928">
        <ele>431</ele>
        <time>2009-10-02T19:09:02Z</time>
      </trkpt>
      <trkpt lat="43.93286" lon="5.22927">
        <ele>430</ele>
        <time>2009-10-02T19:09:02Z</time>
      </trkpt>
      <trkpt lat="43.93281" lon="5.22927">
        <ele>430</ele>
        <time>2009-10-02T19:09:02Z</time>
      </trkpt>
      <trkpt lat="43.93277" lon="5.22933">
        <ele>429</ele>
        <time>2009-10-02T19:09:02Z</time>
      </trkpt>
      <trkpt lat="43.93277" lon="5.22939">
        <ele>429</ele>
        <time>2009-10-02T19:09:02Z</time>
      </trkpt>
      <trkpt lat="43.93272" lon="5.22939">
        <ele>428</ele>
        <time>2009-10-02T19:09:02Z</time>
      </trkpt>
      <trkpt lat="43.93267" lon="5.22945">
        <ele>427</ele>
        <time>2009-10-02T19:09:02Z</time>
      </trkpt>
      <trkpt lat="43.93263" lon="5.22945">
        <ele>427</ele>
        <time>2009-10-02T19:09:02Z</time>
      </trkpt>
      <trkpt lat="43.93263" lon="5.22951">
        <ele>427</ele>
        <time>2009-10-02T19:09:02Z</time>
      </trkpt>
      <trkpt lat="43.93258" lon="5.22951">
        <ele>426</ele>
        <time>2009-10-02T19:09:02Z</time>
      </trkpt>
      <trkpt lat="43.93254" lon="5.22951">
        <ele>426</ele>
        <time>2009-10-02T19:09:02Z</time>
      </trkpt>
      <trkpt lat="43.93249" lon="5.2295">
        <ele>426</ele>
        <time>2009-10-02T19:09:02Z</time>
      </trkpt>
      <trkpt lat="43.93245" lon="5.2295">
        <ele>425</ele>
        <time>2009-10-02T19:09:02Z</time>
      </trkpt>
      <trkpt lat="43.9324" lon="5.2295">
        <ele>425</ele>
        <time>2009-10-02T19:09:02Z</time>
      </trkpt>
      <trkpt lat="43.93236" lon="5.2295">
        <ele>425</ele>
        <time>2009-10-02T19:09:02Z</time>
      </trkpt>
      <trkpt lat="43.93231" lon="5.2295">
        <ele>424</ele>
        <time>2009-10-02T19:09:02Z</time>
      </trkpt>
      <trkpt lat="43.93227" lon="5.22949">
        <ele>424</ele>
        <time>2009-10-02T19:09:02Z</time>
      </trkpt>
      <trkpt lat="43.93222" lon="5.22949">
        <ele>423</ele>
        <time>2009-10-02T19:09:02Z</time>
      </trkpt>
      <trkpt lat="43.93218" lon="5.22949">
        <ele>423</ele>
        <time>2009-10-02T19:09:02Z</time>
      </trkpt>
      <trkpt lat="43.93218" lon="5.22955">
        <ele>423</ele>
        <time>2009-10-02T19:09:02Z</time>
      </trkpt>
      <trkpt lat="43.93213" lon="5.22955">
        <ele>422</ele>
        <time>2009-10-02T19:09:02Z</time>
      </trkpt>
      <trkpt lat="43.93213" lon="5.22961">
        <ele>422</ele>
        <time>2009-10-02T19:09:02Z</time>
      </trkpt>
      <trkpt lat="43.93209" lon="5.22961">
        <ele>422</ele>
        <time>2009-10-02T19:09:02Z</time>
      </trkpt>
      <trkpt lat="43.93204" lon="5.22961">
        <ele>421</ele>
        <time>2009-10-02T19:09:02Z</time>
      </trkpt>
      <trkpt lat="43.932" lon="5.2296">
        <ele>421</ele>
        <time>2009-10-02T19:09:02Z</time>
      </trkpt>
      <trkpt lat="43.93195" lon="5.2296">
        <ele>421</ele>
        <time>2009-10-02T19:09:02Z</time>
      </trkpt>
      <trkpt lat="43.93222" lon="5.22949">
        <ele>423</ele>
        <time>2009-10-02T19:09:02Z</time>
      </trkpt>
      <trkpt lat="43.93218" lon="5.22949">
        <ele>423</ele>
        <time>2009-10-02T19:09:02Z</time>
      </trkpt>
      <trkpt lat="43.93213" lon="5.22949">
        <ele>423</ele>
        <time>2009-10-02T19:09:02Z</time>
      </trkpt>
      <trkpt lat="43.93209" lon="5.22948">
        <ele>422</ele>
        <time>2009-10-02T19:09:02Z</time>
      </trkpt>
      <trkpt lat="43.93204" lon="5.22948">
        <ele>422</ele>
        <time>2009-10-02T19:09:02Z</time>
      </trkpt>
      <trkpt lat="43.932" lon="5.22948">
        <ele>422</ele>
        <time>2009-10-02T19:09:02Z</time>
      </trkpt>
      <trkpt lat="43.93195" lon="5.22948">
        <ele>421</ele>
        <time>2009-10-02T19:09:02Z</time>
      </trkpt>
      <trkpt lat="43.93191" lon="5.22947">
        <ele>421</ele>
        <time>2009-10-02T19:09:02Z</time>
      </trkpt>
      <trkpt lat="43.93186" lon="5.22947">
        <ele>421</ele>
        <time>2009-10-02T19:09:02Z</time>
      </trkpt>
      <trkpt lat="43.93182" lon="5.22947">
        <ele>420</ele>
        <time>2009-10-02T19:09:02Z</time>
      </trkpt>
      <trkpt lat="43.93177" lon="5.22947">
        <ele>420</ele>
        <time>2009-10-02T19:09:02Z</time>
      </trkpt>
      <trkpt lat="43.93173" lon="5.22947">
        <ele>420</ele>
        <time>2009-10-02T19:09:02Z</time>
      </trkpt>
      <trkpt lat="43.93168" lon="5.22946">
        <ele>419</ele>
        <time>2009-10-02T19:09:02Z</time>
      </trkpt>
      <trkpt lat="43.93164" lon="5.22946">
        <ele>419</ele>
        <time>2009-10-02T19:09:02Z</time>
      </trkpt>
      <trkpt lat="43.93159" lon="5.22946">
        <ele>419</ele>
        <time>2009-10-02T19:09:02Z</time>
      </trkpt>
      <trkpt lat="43.93155" lon="5.22946">
        <ele>418</ele>
        <time>2009-10-02T19:09:02Z</time>
      </trkpt>
      <trkpt lat="43.9315" lon="5.22945">
        <ele>418</ele>
        <time>2009-10-02T19:09:02Z</time>
      </trkpt>
      <trkpt lat="43.93146" lon="5.22945">
        <ele>418</ele>
        <time>2009-10-02T19:09:02Z</time>
      </trkpt>
      <trkpt lat="43.93141" lon="5.22945">
        <ele>417</ele>
        <time>2009-10-02T19:09:02Z</time>
      </trkpt>
      <trkpt lat="43.93137" lon="5.22945">
        <ele>417</ele>
        <time>2009-10-02T19:09:02Z</time>
      </trkpt>
      <trkpt lat="43.93132" lon="5.22944">
        <ele>416</ele>
        <time>2009-10-02T19:09:02Z</time>
      </trkpt>
      <trkpt lat="43.93128" lon="5.22944">
        <ele>416</ele>
        <time>2009-10-02T19:09:02Z</time>
      </trkpt>
      <trkpt lat="43.93124" lon="5.22944">
        <ele>416</ele>
        <time>2009-10-02T19:09:02Z</time>
      </trkpt>
      <trkpt lat="43.93123" lon="5.2295">
        <ele>415</ele>
        <time>2009-10-02T19:09:02Z</time>
      </trkpt>
      <trkpt lat="43.93123" lon="5.22956">
        <ele>415</ele>
        <time>2009-10-02T19:09:02Z</time>
      </trkpt>
      <trkpt lat="43.93119" lon="5.22956">
        <ele>414</ele>
        <time>2009-10-02T19:09:02Z</time>
      </trkpt>
      <trkpt lat="43.93119" lon="5.22962">
        <ele>414</ele>
        <time>2009-10-02T19:09:02Z</time>
      </trkpt>
      <trkpt lat="43.93118" lon="5.22969">
        <ele>414</ele>
        <time>2009-10-02T19:09:02Z</time>
      </trkpt>
      <trkpt lat="43.93114" lon="5.22968">
        <ele>413</ele>
        <time>2009-10-02T19:09:02Z</time>
      </trkpt>
      <trkpt lat="43.93114" lon="5.22975">
        <ele>413</ele>
        <time>2009-10-02T19:09:02Z</time>
      </trkpt>
      <trkpt lat="43.93114" lon="5.22981">
        <ele>412</ele>
        <time>2009-10-02T19:09:02Z</time>
      </trkpt>
      <trkpt lat="43.93113" lon="5.22987">
        <ele>412</ele>
        <time>2009-10-02T19:09:02Z</time>
      </trkpt>
      <trkpt lat="43.93113" lon="5.22993">
        <ele>411</ele>
        <time>2009-10-02T19:09:02Z</time>
      </trkpt>
      <trkpt lat="43.93113" lon="5.22999">
        <ele>411</ele>
        <time>2009-10-02T19:09:02Z</time>
      </trkpt>
      <trkpt lat="43.93113" lon="5.23006">
        <ele>410</ele>
        <time>2009-10-02T19:09:02Z</time>
      </trkpt>
      <trkpt lat="43.93113" lon="5.23012">
        <ele>410</ele>
        <time>2009-10-02T19:09:02Z</time>
      </trkpt>
      <trkpt lat="43.93113" lon="5.23018">
        <ele>409</ele>
        <time>2009-10-02T19:09:02Z</time>
      </trkpt>
      <trkpt lat="43.93112" lon="5.23024">
        <ele>409</ele>
        <time>2009-10-02T19:09:02Z</time>
      </trkpt>
      <trkpt lat="43.93112" lon="5.23031">
        <ele>408</ele>
        <time>2009-10-02T19:09:02Z</time>
      </trkpt>
      <trkpt lat="43.93112" lon="5.23037">
        <ele>408</ele>
        <time>2009-10-02T19:09:02Z</time>
      </trkpt>
      <trkpt lat="43.93112" lon="5.23043">
        <ele>407</ele>
        <time>2009-10-02T19:09:02Z</time>
      </trkpt>
      <trkpt lat="43.93116" lon="5.23043">
        <ele>408</ele>
        <time>2009-10-02T19:09:02Z</time>
      </trkpt>
      <trkpt lat="43.93121" lon="5.23043">
        <ele>408</ele>
        <time>2009-10-02T19:09:02Z</time>
      </trkpt>
      <trkpt lat="43.93121" lon="5.2305">
        <ele>408</ele>
        <time>2009-10-02T19:09:02Z</time>
      </trkpt>
      <trkpt lat="43.93121" lon="5.23056">
        <ele>407</ele>
        <time>2009-10-02T19:09:02Z</time>
      </trkpt>
      <trkpt lat="43.9312" lon="5.23062">
        <ele>406</ele>
        <time>2009-10-02T19:09:02Z</time>
      </trkpt>
      <trkpt lat="43.93125" lon="5.23069">
        <ele>406</ele>
        <time>2009-10-02T19:09:02Z</time>
      </trkpt>
      <trkpt lat="43.93129" lon="5.23069">
        <ele>407</ele>
        <time>2009-10-02T19:09:02Z</time>
      </trkpt>
      <trkpt lat="43.93134" lon="5.23069">
        <ele>407</ele>
        <time>2009-10-02T19:09:02Z</time>
      </trkpt>
      <trkpt lat="43.93134" lon="5.23075">
        <ele>406</ele>
        <time>2009-10-02T19:09:02Z</time>
      </trkpt>
      <trkpt lat="43.93138" lon="5.23075">
        <ele>407</ele>
        <time>2009-10-02T19:09:02Z</time>
      </trkpt>
      <trkpt lat="43.93142" lon="5.23076">
        <ele>407</ele>
        <time>2009-10-02T19:09:02Z</time>
      </trkpt>
      <trkpt lat="43.93142" lon="5.23082">
        <ele>406</ele>
        <time>2009-10-02T19:09:02Z</time>
      </trkpt>
      <trkpt lat="43.93147" lon="5.23082">
        <ele>406</ele>
        <time>2009-10-02T19:09:02Z</time>
      </trkpt>
      <trkpt lat="43.93151" lon="5.23082">
        <ele>407</ele>
        <time>2009-10-02T19:09:02Z</time>
      </trkpt>
      <trkpt lat="43.93151" lon="5.23089">
        <ele>406</ele>
        <time>2009-10-02T19:09:02Z</time>
      </trkpt>
      <trkpt lat="43.93156" lon="5.23089">
        <ele>406</ele>
        <time>2009-10-02T19:09:02Z</time>
      </trkpt>
      <trkpt lat="43.93155" lon="5.23095">
        <ele>406</ele>
        <time>2009-10-02T19:09:02Z</time>
      </trkpt>
      <trkpt lat="43.93155" lon="5.23101">
        <ele>405</ele>
        <time>2009-10-02T19:09:02Z</time>
      </trkpt>
      <trkpt lat="43.93155" lon="5.23107">
        <ele>404</ele>
        <time>2009-10-02T19:09:02Z</time>
      </trkpt>
      <trkpt lat="43.93155" lon="5.23114">
        <ele>404</ele>
        <time>2009-10-02T19:09:02Z</time>
      </trkpt>
      <trkpt lat="43.93155" lon="5.2312">
        <ele>403</ele>
        <time>2009-10-02T19:09:02Z</time>
      </trkpt>
      <trkpt lat="43.93155" lon="5.23126">
        <ele>403</ele>
        <time>2009-10-02T19:09:02Z</time>
      </trkpt>
      <trkpt lat="43.9315" lon="5.23132">
        <ele>402</ele>
        <time>2009-10-02T19:09:02Z</time>
      </trkpt>
      <trkpt lat="43.9315" lon="5.23138">
        <ele>401</ele>
        <time>2009-10-02T19:09:02Z</time>
      </trkpt>
      <trkpt lat="43.9315" lon="5.23145">
        <ele>401</ele>
        <time>2009-10-02T19:09:02Z</time>
      </trkpt>
      <trkpt lat="43.93149" lon="5.23151">
        <ele>400</ele>
        <time>2009-10-02T19:09:02Z</time>
      </trkpt>
      <trkpt lat="43.93149" lon="5.23157">
        <ele>400</ele>
        <time>2009-10-02T19:09:02Z</time>
      </trkpt>
      <trkpt lat="43.93149" lon="5.23163">
        <ele>399</ele>
        <time>2009-10-02T19:09:02Z</time>
      </trkpt>
      <trkpt lat="43.93149" lon="5.23169">
        <ele>399</ele>
        <time>2009-10-02T19:09:02Z</time>
      </trkpt>
      <trkpt lat="43.93149" lon="5.23176">
        <ele>398</ele>
        <time>2009-10-02T19:09:02Z</time>
      </trkpt>
      <trkpt lat="43.93149" lon="5.23182">
        <ele>398</ele>
        <time>2009-10-02T19:09:02Z</time>
      </trkpt>
      <trkpt lat="43.93148" lon="5.23188">
        <ele>397</ele>
        <time>2009-10-02T19:09:02Z</time>
      </trkpt>
      <trkpt lat="43.93148" lon="5.23194">
        <ele>397</ele>
        <time>2009-10-02T19:09:02Z</time>
      </trkpt>
      <trkpt lat="43.93148" lon="5.232">
        <ele>396</ele>
        <time>2009-10-02T19:09:02Z</time>
      </trkpt>
      <trkpt lat="43.93148" lon="5.23207">
        <ele>395</ele>
        <time>2009-10-02T19:09:02Z</time>
      </trkpt>
      <trkpt lat="43.93143" lon="5.23213">
        <ele>394</ele>
        <time>2009-10-02T19:09:02Z</time>
      </trkpt>
      <trkpt lat="43.93143" lon="5.23219">
        <ele>394</ele>
        <time>2009-10-02T19:09:02Z</time>
      </trkpt>
      <trkpt lat="43.93143" lon="5.23225">
        <ele>393</ele>
        <time>2009-10-02T19:09:02Z</time>
      </trkpt>
      <trkpt lat="43.93139" lon="5.23225">
        <ele>393</ele>
        <time>2009-10-02T19:09:02Z</time>
      </trkpt>
      <trkpt lat="43.93138" lon="5.23231">
        <ele>392</ele>
        <time>2009-10-02T19:09:02Z</time>
      </trkpt>
      <trkpt lat="43.93138" lon="5.23237">
        <ele>391</ele>
        <time>2009-10-02T19:09:02Z</time>
      </trkpt>
      <trkpt lat="43.93134" lon="5.23243">
        <ele>390</ele>
        <time>2009-10-02T19:09:02Z</time>
      </trkpt>
      <trkpt lat="43.93133" lon="5.23249">
        <ele>390</ele>
        <time>2009-10-02T19:09:02Z</time>
      </trkpt>
      <trkpt lat="43.93129" lon="5.23249">
        <ele>389</ele>
        <time>2009-10-02T19:09:02Z</time>
      </trkpt>
      <trkpt lat="43.93129" lon="5.23255">
        <ele>389</ele>
        <time>2009-10-02T19:09:02Z</time>
      </trkpt>
      <trkpt lat="43.93129" lon="5.23262">
        <ele>388</ele>
        <time>2009-10-02T19:09:02Z</time>
      </trkpt>
      <trkpt lat="43.93128" lon="5.23268">
        <ele>388</ele>
        <time>2009-10-02T19:09:02Z</time>
      </trkpt>
      <trkpt lat="43.93128" lon="5.23274">
        <ele>387</ele>
        <time>2009-10-02T19:09:02Z</time>
      </trkpt>
      <trkpt lat="43.93124" lon="5.23274">
        <ele>386</ele>
        <time>2009-10-02T19:09:02Z</time>
      </trkpt>
      <trkpt lat="43.93124" lon="5.2328">
        <ele>386</ele>
        <time>2009-10-02T19:09:02Z</time>
      </trkpt>
      <trkpt lat="43.93123" lon="5.23286">
        <ele>385</ele>
        <time>2009-10-02T19:09:02Z</time>
      </trkpt>
      <trkpt lat="43.93119" lon="5.23286">
        <ele>385</ele>
        <time>2009-10-02T19:09:02Z</time>
      </trkpt>
      <trkpt lat="43.93119" lon="5.23292">
        <ele>384</ele>
        <time>2009-10-02T19:09:02Z</time>
      </trkpt>
      <trkpt lat="43.93119" lon="5.23299">
        <ele>384</ele>
        <time>2009-10-02T19:09:02Z</time>
      </trkpt>
      <trkpt lat="43.93118" lon="5.23305">
        <ele>384</ele>
        <time>2009-10-02T19:09:02Z</time>
      </trkpt>
      <trkpt lat="43.93114" lon="5.23305">
        <ele>384</ele>
        <time>2009-10-02T19:09:02Z</time>
      </trkpt>
      <trkpt lat="43.93114" lon="5.23311">
        <ele>383</ele>
        <time>2009-10-02T19:09:02Z</time>
      </trkpt>
      <trkpt lat="43.93109" lon="5.23311">
        <ele>383</ele>
        <time>2009-10-02T19:09:02Z</time>
      </trkpt>
      <trkpt lat="43.93109" lon="5.23317">
        <ele>383</ele>
        <time>2009-10-02T19:09:02Z</time>
      </trkpt>
      <trkpt lat="43.93104" lon="5.23323">
        <ele>382</ele>
        <time>2009-10-02T19:09:02Z</time>
      </trkpt>
      <trkpt lat="43.931" lon="5.23329">
        <ele>382</ele>
        <time>2009-10-02T19:09:02Z</time>
      </trkpt>
      <trkpt lat="43.931" lon="5.23335">
        <ele>381</ele>
        <time>2009-10-02T19:09:02Z</time>
      </trkpt>
      <trkpt lat="43.93095" lon="5.23341">
        <ele>381</ele>
        <time>2009-10-02T19:09:02Z</time>
      </trkpt>
      <trkpt lat="43.9309" lon="5.23347">
        <ele>380</ele>
        <time>2009-10-02T19:09:02Z</time>
      </trkpt>
      <trkpt lat="43.9309" lon="5.23353">
        <ele>380</ele>
        <time>2009-10-02T19:09:02Z</time>
      </trkpt>
      <trkpt lat="43.93086" lon="5.23353">
        <ele>380</ele>
        <time>2009-10-02T19:09:02Z</time>
      </trkpt>
      <trkpt lat="43.93085" lon="5.23359">
        <ele>379</ele>
        <time>2009-10-02T19:09:02Z</time>
      </trkpt>
      <trkpt lat="43.93081" lon="5.23365">
        <ele>379</ele>
        <time>2009-10-02T19:09:02Z</time>
      </trkpt>
      <trkpt lat="43.93076" lon="5.23371">
        <ele>378</ele>
        <time>2009-10-02T19:09:02Z</time>
      </trkpt>
      <trkpt lat="43.93071" lon="5.23377">
        <ele>377</ele>
        <time>2009-10-02T19:09:02Z</time>
      </trkpt>
      <trkpt lat="43.93071" lon="5.23383">
        <ele>377</ele>
        <time>2009-10-02T19:09:02Z</time>
      </trkpt>
      <trkpt lat="43.93067" lon="5.23383">
        <ele>377</ele>
        <time>2009-10-02T19:09:02Z</time>
      </trkpt>
      <trkpt lat="43.93067" lon="5.23389">
        <ele>376</ele>
        <time>2009-10-02T19:09:02Z</time>
      </trkpt>
      <trkpt lat="43.93062" lon="5.23389">
        <ele>376</ele>
        <time>2009-10-02T19:09:02Z</time>
      </trkpt>
      <trkpt lat="43.93062" lon="5.23395">
        <ele>376</ele>
        <time>2009-10-02T19:09:02Z</time>
      </trkpt>
      <trkpt lat="43.93057" lon="5.23401">
        <ele>375</ele>
        <time>2009-10-02T19:09:02Z</time>
      </trkpt>
      <trkpt lat="43.93057" lon="5.23407">
        <ele>375</ele>
        <time>2009-10-02T19:09:02Z</time>
      </trkpt>
      <trkpt lat="43.93053" lon="5.23407">
        <ele>375</ele>
        <time>2009-10-02T19:09:02Z</time>
      </trkpt>
      <trkpt lat="43.93053" lon="5.23413">
        <ele>374</ele>
        <time>2009-10-02T19:09:02Z</time>
      </trkpt>
      <trkpt lat="43.93052" lon="5.2342">
        <ele>374</ele>
        <time>2009-10-02T19:09:02Z</time>
      </trkpt>
      <trkpt lat="43.93048" lon="5.23419">
        <ele>373</ele>
        <time>2009-10-02T19:09:02Z</time>
      </trkpt>
      <trkpt lat="43.93048" lon="5.23426">
        <ele>373</ele>
        <time>2009-10-02T19:09:02Z</time>
      </trkpt>
      <trkpt lat="43.93043" lon="5.23425">
        <ele>373</ele>
        <time>2009-10-02T19:09:02Z</time>
      </trkpt>
      <trkpt lat="43.93043" lon="5.23432">
        <ele>372</ele>
        <time>2009-10-02T19:09:02Z</time>
      </trkpt>
      <trkpt lat="43.93039" lon="5.23431">
        <ele>372</ele>
        <time>2009-10-02T19:09:02Z</time>
      </trkpt>
      <trkpt lat="43.93038" lon="5.23438">
        <ele>372</ele>
        <time>2009-10-02T19:09:02Z</time>
      </trkpt>
      <trkpt lat="43.93034" lon="5.23437">
        <ele>371</ele>
        <time>2009-10-02T19:09:02Z</time>
      </trkpt>
      <trkpt lat="43.93034" lon="5.23444">
        <ele>371</ele>
        <time>2009-10-02T19:09:02Z</time>
      </trkpt>
      <trkpt lat="43.93029" lon="5.2345">
        <ele>370</ele>
        <time>2009-10-02T19:09:02Z</time>
      </trkpt>
      <trkpt lat="43.93024" lon="5.23456">
        <ele>369</ele>
        <time>2009-10-02T19:09:02Z</time>
      </trkpt>
      <trkpt lat="43.9302" lon="5.23462">
        <ele>369</ele>
        <time>2009-10-02T19:09:02Z</time>
      </trkpt>
      <trkpt lat="43.93015" lon="5.23468">
        <ele>368</ele>
        <time>2009-10-02T19:09:02Z</time>
      </trkpt>
      <trkpt lat="43.9301" lon="5.23474">
        <ele>367</ele>
        <time>2009-10-02T19:09:02Z</time>
      </trkpt>
      <trkpt lat="43.9301" lon="5.2348">
        <ele>367</ele>
        <time>2009-10-02T19:09:02Z</time>
      </trkpt>
      <trkpt lat="43.93006" lon="5.23479">
        <ele>367</ele>
        <time>2009-10-02T19:09:02Z</time>
      </trkpt>
      <trkpt lat="43.93006" lon="5.23486">
        <ele>366</ele>
        <time>2009-10-02T19:09:02Z</time>
      </trkpt>
      <trkpt lat="43.93005" lon="5.23492">
        <ele>366</ele>
        <time>2009-10-02T19:09:02Z</time>
      </trkpt>
      <trkpt lat="43.93001" lon="5.23498">
        <ele>365</ele>
        <time>2009-10-02T19:09:02Z</time>
      </trkpt>
      <trkpt lat="43.92996" lon="5.23498">
        <ele>365</ele>
        <time>2009-10-02T19:09:02Z</time>
      </trkpt>
      <trkpt lat="43.92996" lon="5.23504">
        <ele>365</ele>
        <time>2009-10-02T19:09:02Z</time>
      </trkpt>
      <trkpt lat="43.92991" lon="5.2351">
        <ele>364</ele>
        <time>2009-10-02T19:09:02Z</time>
      </trkpt>
      <trkpt lat="43.92987" lon="5.23516">
        <ele>364</ele>
        <time>2009-10-02T19:09:02Z</time>
      </trkpt>
      <trkpt lat="43.92982" lon="5.23522">
        <ele>363</ele>
        <time>2009-10-02T19:09:02Z</time>
      </trkpt>
      <trkpt lat="43.92978" lon="5.23528">
        <ele>362</ele>
        <time>2009-10-02T19:09:02Z</time>
      </trkpt>
      <trkpt lat="43.92973" lon="5.23534">
        <ele>361</ele>
        <time>2009-10-02T19:09:02Z</time>
      </trkpt>
      <trkpt lat="43.92968" lon="5.23534">
        <ele>361</ele>
        <time>2009-10-02T19:09:02Z</time>
      </trkpt>
      <trkpt lat="43.92968" lon="5.2354">
        <ele>361</ele>
        <time>2009-10-02T19:09:02Z</time>
      </trkpt>
      <trkpt lat="43.92964" lon="5.2354">
        <ele>360</ele>
        <time>2009-10-02T19:09:02Z</time>
      </trkpt>
      <trkpt lat="43.92959" lon="5.23546">
        <ele>359</ele>
        <time>2009-10-02T19:09:02Z</time>
      </trkpt>
      <trkpt lat="43.92954" lon="5.23552">
        <ele>359</ele>
        <time>2009-10-02T19:09:02Z</time>
      </trkpt>
      <trkpt lat="43.9295" lon="5.23551">
        <ele>358</ele>
        <time>2009-10-02T19:09:02Z</time>
      </trkpt>
      <trkpt lat="43.9295" lon="5.23558">
        <ele>358</ele>
        <time>2009-10-02T19:09:02Z</time>
      </trkpt>
      <trkpt lat="43.92945" lon="5.23557">
        <ele>358</ele>
        <time>2009-10-02T19:09:02Z</time>
      </trkpt>
      <trkpt lat="43.92941" lon="5.23557">
        <ele>357</ele>
        <time>2009-10-02T19:09:02Z</time>
      </trkpt>
      <trkpt lat="43.92941" lon="5.23563">
        <ele>357</ele>
        <time>2009-10-02T19:09:02Z</time>
      </trkpt>
      <trkpt lat="43.92936" lon="5.23563">
        <ele>357</ele>
        <time>2009-10-02T19:09:02Z</time>
      </trkpt>
      <trkpt lat="43.92931" lon="5.23569">
        <ele>356</ele>
        <time>2009-10-02T19:09:02Z</time>
      </trkpt>
      <trkpt lat="43.92927" lon="5.23569">
        <ele>355</ele>
        <time>2009-10-02T19:09:02Z</time>
      </trkpt>
      <trkpt lat="43.92922" lon="5.23569">
        <ele>355</ele>
        <time>2009-10-02T19:09:02Z</time>
      </trkpt>
      <trkpt lat="43.92918" lon="5.23568">
        <ele>355</ele>
        <time>2009-10-02T19:09:02Z</time>
      </trkpt>
      <trkpt lat="43.92913" lon="5.23574">
        <ele>354</ele>
        <time>2009-10-02T19:09:02Z</time>
      </trkpt>
      <trkpt lat="43.92909" lon="5.23574">
        <ele>354</ele>
        <time>2009-10-02T19:09:02Z</time>
      </trkpt>
      <trkpt lat="43.92904" lon="5.2358">
        <ele>353</ele>
        <time>2009-10-02T19:09:02Z</time>
      </trkpt>
      <trkpt lat="43.929" lon="5.2358">
        <ele>353</ele>
        <time>2009-10-02T19:09:02Z</time>
      </trkpt>
      <trkpt lat="43.92895" lon="5.23586">
        <ele>352</ele>
        <time>2009-10-02T19:09:02Z</time>
      </trkpt>
      <trkpt lat="43.92891" lon="5.23586">
        <ele>351</ele>
        <time>2009-10-02T19:09:02Z</time>
      </trkpt>
      <trkpt lat="43.9289" lon="5.23592">
        <ele>351</ele>
        <time>2009-10-02T19:09:02Z</time>
      </trkpt>
      <trkpt lat="43.92886" lon="5.23592">
        <ele>350</ele>
        <time>2009-10-02T19:09:02Z</time>
      </trkpt>
      <trkpt lat="43.92881" lon="5.23591">
        <ele>350</ele>
        <time>2009-10-02T19:09:02Z</time>
      </trkpt>
      <trkpt lat="43.92881" lon="5.23598">
        <ele>349</ele>
        <time>2009-10-02T19:09:02Z</time>
      </trkpt>
      <trkpt lat="43.92877" lon="5.23597">
        <ele>349</ele>
        <time>2009-10-02T19:09:02Z</time>
      </trkpt>
      <trkpt lat="43.92872" lon="5.23603">
        <ele>348</ele>
        <time>2009-10-02T19:09:02Z</time>
      </trkpt>
      <trkpt lat="43.92868" lon="5.23603">
        <ele>348</ele>
        <time>2009-10-02T19:09:02Z</time>
      </trkpt>
      <trkpt lat="43.92863" lon="5.23603">
        <ele>347</ele>
        <time>2009-10-02T19:09:02Z</time>
      </trkpt>
      <trkpt lat="43.92863" lon="5.23609">
        <ele>347</ele>
        <time>2009-10-02T19:09:02Z</time>
      </trkpt>
      <trkpt lat="43.92858" lon="5.23609">
        <ele>347</ele>
        <time>2009-10-02T19:09:02Z</time>
      </trkpt>
      <trkpt lat="43.92854" lon="5.23609">
        <ele>346</ele>
        <time>2009-10-02T19:09:02Z</time>
      </trkpt>
      <trkpt lat="43.92854" lon="5.23615">
        <ele>346</ele>
        <time>2009-10-02T19:09:02Z</time>
      </trkpt>
      <trkpt lat="43.92849" lon="5.23615">
        <ele>345</ele>
        <time>2009-10-02T19:09:02Z</time>
      </trkpt>
      <trkpt lat="43.92845" lon="5.23621">
        <ele>344</ele>
        <time>2009-10-02T19:09:02Z</time>
      </trkpt>
      <trkpt lat="43.9284" lon="5.23627">
        <ele>344</ele>
        <time>2009-10-02T19:09:02Z</time>
      </trkpt>
      <trkpt lat="43.92835" lon="5.23626">
        <ele>343</ele>
        <time>2009-10-02T19:09:02Z</time>
      </trkpt>
      <trkpt lat="43.92835" lon="5.23633">
        <ele>343</ele>
        <time>2009-10-02T19:09:02Z</time>
      </trkpt>
      <trkpt lat="43.92831" lon="5.23632">
        <ele>342</ele>
        <time>2009-10-02T19:09:02Z</time>
      </trkpt>
      <trkpt lat="43.92831" lon="5.23639">
        <ele>342</ele>
        <time>2009-10-02T19:09:02Z</time>
      </trkpt>
      <trkpt lat="43.92826" lon="5.23638">
        <ele>342</ele>
        <time>2009-10-02T19:09:02Z</time>
      </trkpt>
      <trkpt lat="43.92821" lon="5.23644">
        <ele>341</ele>
        <time>2009-10-02T19:09:02Z</time>
      </trkpt>
      <trkpt lat="43.92821" lon="5.23651">
        <ele>341</ele>
        <time>2009-10-02T19:09:02Z</time>
      </trkpt>
      <trkpt lat="43.92817" lon="5.2365">
        <ele>340</ele>
        <time>2009-10-02T19:09:02Z</time>
      </trkpt>
      <trkpt lat="43.92817" lon="5.23657">
        <ele>340</ele>
        <time>2009-10-02T19:09:02Z</time>
      </trkpt>
      <trkpt lat="43.92812" lon="5.23656">
        <ele>340</ele>
        <time>2009-10-02T19:09:02Z</time>
      </trkpt>
      <trkpt lat="43.92812" lon="5.23663">
        <ele>340</ele>
        <time>2009-10-02T19:09:02Z</time>
      </trkpt>
      <trkpt lat="43.92807" lon="5.23662">
        <ele>339</ele>
        <time>2009-10-02T19:09:02Z</time>
      </trkpt>
      <trkpt lat="43.92803" lon="5.23668">
        <ele>339</ele>
        <time>2009-10-02T19:09:02Z</time>
      </trkpt>
      <trkpt lat="43.92798" lon="5.23674">
        <ele>338</ele>
        <time>2009-10-02T19:09:02Z</time>
      </trkpt>
      <trkpt lat="43.92794" lon="5.2368">
        <ele>338</ele>
        <time>2009-10-02T19:09:02Z</time>
      </trkpt>
      <trkpt lat="43.92789" lon="5.23686">
        <ele>337</ele>
        <time>2009-10-02T19:09:02Z</time>
      </trkpt>
      <trkpt lat="43.92784" lon="5.23692">
        <ele>337</ele>
        <time>2009-10-02T19:09:02Z</time>
      </trkpt>
      <trkpt lat="43.9278" lon="5.23698">
        <ele>336</ele>
        <time>2009-10-02T19:09:02Z</time>
      </trkpt>
      <trkpt lat="43.92779" lon="5.23704">
        <ele>336</ele>
        <time>2009-10-02T19:09:02Z</time>
      </trkpt>
      <trkpt lat="43.92775" lon="5.23704">
        <ele>336</ele>
        <time>2009-10-02T19:09:02Z</time>
      </trkpt>
      <trkpt lat="43.92775" lon="5.2371">
        <ele>335</ele>
        <time>2009-10-02T19:09:02Z</time>
      </trkpt>
      <trkpt lat="43.92775" lon="5.23717">
        <ele>335</ele>
        <time>2009-10-02T19:09:02Z</time>
      </trkpt>
      <trkpt lat="43.92779" lon="5.23717">
        <ele>335</ele>
        <time>2009-10-02T19:09:02Z</time>
      </trkpt>
      <trkpt lat="43.92779" lon="5.23723">
        <ele>335</ele>
        <time>2009-10-02T19:09:02Z</time>
      </trkpt>
      <trkpt lat="43.92783" lon="5.23723">
        <ele>335</ele>
        <time>2009-10-02T19:09:02Z</time>
      </trkpt>
      <trkpt lat="43.92783" lon="5.2373">
        <ele>335</ele>
        <time>2009-10-02T19:09:02Z</time>
      </trkpt>
      <trkpt lat="43.92783" lon="5.23736">
        <ele>335</ele>
        <time>2009-10-02T19:09:02Z</time>
      </trkpt>
      <trkpt lat="43.92783" lon="5.23742">
        <ele>335</ele>
        <time>2009-10-02T19:09:02Z</time>
      </trkpt>
      <trkpt lat="43.92783" lon="5.23748">
        <ele>335</ele>
        <time>2009-10-02T19:09:02Z</time>
      </trkpt>
      <trkpt lat="43.92783" lon="5.23754">
        <ele>334</ele>
        <time>2009-10-02T19:09:02Z</time>
      </trkpt>
      <trkpt lat="43.92782" lon="5.23761">
        <ele>334</ele>
        <time>2009-10-02T19:09:02Z</time>
      </trkpt>
      <trkpt lat="43.92782" lon="5.23767">
        <ele>334</ele>
        <time>2009-10-02T19:09:02Z</time>
      </trkpt>
      <trkpt lat="43.92782" lon="5.23773">
        <ele>334</ele>
        <time>2009-10-02T19:09:02Z</time>
      </trkpt>
      <trkpt lat="43.92782" lon="5.23779">
        <ele>333</ele>
        <time>2009-10-02T19:09:02Z</time>
      </trkpt>
      <trkpt lat="43.92777" lon="5.23785">
        <ele>333</ele>
        <time>2009-10-02T19:09:02Z</time>
      </trkpt>
      <trkpt lat="43.92777" lon="5.23791">
        <ele>333</ele>
        <time>2009-10-02T19:09:02Z</time>
      </trkpt>
      <trkpt lat="43.92777" lon="5.23798">
        <ele>332</ele>
        <time>2009-10-02T19:09:02Z</time>
      </trkpt>
      <trkpt lat="43.92777" lon="5.23804">
        <ele>332</ele>
        <time>2009-10-02T19:09:02Z</time>
      </trkpt>
      <trkpt lat="43.92777" lon="5.2381">
        <ele>332</ele>
        <time>2009-10-02T19:09:02Z</time>
      </trkpt>
      <trkpt lat="43.92776" lon="5.23816">
        <ele>331</ele>
        <time>2009-10-02T19:09:02Z</time>
      </trkpt>
      <trkpt lat="43.92772" lon="5.23822">
        <ele>331</ele>
        <time>2009-10-02T19:09:02Z</time>
      </trkpt>
      <trkpt lat="43.92772" lon="5.23829">
        <ele>331</ele>
        <time>2009-10-02T19:09:02Z</time>
      </trkpt>
      <trkpt lat="43.92767" lon="5.23835">
        <ele>330</ele>
        <time>2009-10-02T19:09:02Z</time>
      </trkpt>
      <trkpt lat="43.92767" lon="5.23841">
        <ele>330</ele>
        <time>2009-10-02T19:09:02Z</time>
      </trkpt>
      <trkpt lat="43.92762" lon="5.23853">
        <ele>329</ele>
        <time>2009-10-02T19:09:02Z</time>
      </trkpt>
      <trkpt lat="43.92762" lon="5.23859">
        <ele>329</ele>
        <time>2009-10-02T19:09:02Z</time>
      </trkpt>
      <trkpt lat="43.92757" lon="5.23871">
        <ele>329</ele>
        <time>2009-10-02T19:09:02Z</time>
      </trkpt>
      <trkpt lat="43.92752" lon="5.23877">
        <ele>328</ele>
        <time>2009-10-02T19:09:02Z</time>
      </trkpt>
      <trkpt lat="43.92752" lon="5.2389">
        <ele>328</ele>
        <time>2009-10-02T19:09:02Z</time>
      </trkpt>
      <trkpt lat="43.92747" lon="5.23896">
        <ele>327</ele>
        <time>2009-10-02T19:09:02Z</time>
      </trkpt>
      <trkpt lat="43.92747" lon="5.23902">
        <ele>327</ele>
        <time>2009-10-02T19:09:02Z</time>
      </trkpt>
      <trkpt lat="43.92742" lon="5.23908">
        <ele>327</ele>
        <time>2009-10-02T19:09:02Z</time>
      </trkpt>
      <trkpt lat="43.92742" lon="5.23914">
        <ele>326</ele>
        <time>2009-10-02T19:09:02Z</time>
      </trkpt>
      <trkpt lat="43.92742" lon="5.23927">
        <ele>326</ele>
        <time>2009-10-02T19:09:02Z</time>
      </trkpt>
      <trkpt lat="43.92737" lon="5.23933">
        <ele>325</ele>
        <time>2009-10-02T19:09:02Z</time>
      </trkpt>
      <trkpt lat="43.92737" lon="5.23939">
        <ele>325</ele>
        <time>2009-10-02T19:09:02Z</time>
      </trkpt>
      <trkpt lat="43.92737" lon="5.23945">
        <ele>325</ele>
        <time>2009-10-02T19:09:02Z</time>
      </trkpt>
      <trkpt lat="43.92737" lon="5.23951">
        <ele>325</ele>
        <time>2009-10-02T19:09:02Z</time>
      </trkpt>
      <trkpt lat="43.92737" lon="5.23957">
        <ele>324</ele>
        <time>2009-10-02T19:09:02Z</time>
      </trkpt>
      <trkpt lat="43.92736" lon="5.23964">
        <ele>324</ele>
        <time>2009-10-02T19:09:02Z</time>
      </trkpt>
      <trkpt lat="43.92736" lon="5.2397">
        <ele>324</ele>
        <time>2009-10-02T19:09:02Z</time>
      </trkpt>
      <trkpt lat="43.92736" lon="5.23976">
        <ele>324</ele>
        <time>2009-10-02T19:09:02Z</time>
      </trkpt>
      <trkpt lat="43.92736" lon="5.23982">
        <ele>323</ele>
        <time>2009-10-02T19:09:02Z</time>
      </trkpt>
      <trkpt lat="43.92736" lon="5.23989">
        <ele>323</ele>
        <time>2009-10-02T19:09:02Z</time>
      </trkpt>
      <trkpt lat="43.92736" lon="5.23995">
        <ele>323</ele>
        <time>2009-10-02T19:09:02Z</time>
      </trkpt>
      <trkpt lat="43.92735" lon="5.24001">
        <ele>323</ele>
        <time>2009-10-02T19:09:02Z</time>
      </trkpt>
      <trkpt lat="43.92731" lon="5.24007">
        <ele>322</ele>
        <time>2009-10-02T19:09:02Z</time>
      </trkpt>
      <trkpt lat="43.92731" lon="5.24013">
        <ele>322</ele>
        <time>2009-10-02T19:09:02Z</time>
      </trkpt>
      <trkpt lat="43.9273" lon="5.24019">
        <ele>322</ele>
        <time>2009-10-02T19:09:02Z</time>
      </trkpt>
      <trkpt lat="43.92726" lon="5.24025">
        <ele>321</ele>
        <time>2009-10-02T19:09:02Z</time>
      </trkpt>
      <trkpt lat="43.92726" lon="5.24032">
        <ele>321</ele>
        <time>2009-10-02T19:09:02Z</time>
      </trkpt>
      <trkpt lat="43.92726" lon="5.24038">
        <ele>321</ele>
        <time>2009-10-02T19:09:02Z</time>
      </trkpt>
      <trkpt lat="43.92725" lon="5.24044">
        <ele>321</ele>
        <time>2009-10-02T19:09:02Z</time>
      </trkpt>
      <trkpt lat="43.92721" lon="5.2405">
        <ele>320</ele>
        <time>2009-10-02T19:09:02Z</time>
      </trkpt>
      <trkpt lat="43.92721" lon="5.24056">
        <ele>320</ele>
        <time>2009-10-02T19:09:02Z</time>
      </trkpt>
      <trkpt lat="43.9272" lon="5.24062">
        <ele>320</ele>
        <time>2009-10-02T19:09:02Z</time>
      </trkpt>
      <trkpt lat="43.9272" lon="5.24069">
        <ele>319</ele>
        <time>2009-10-02T19:09:02Z</time>
      </trkpt>
      <trkpt lat="43.9272" lon="5.24075">
        <ele>319</ele>
        <time>2009-10-02T19:09:02Z</time>
      </trkpt>
      <trkpt lat="43.9272" lon="5.24081">
        <ele>319</ele>
        <time>2009-10-02T19:09:02Z</time>
      </trkpt>
      <trkpt lat="43.9272" lon="5.24087">
        <ele>319</ele>
        <time>2009-10-02T19:09:02Z</time>
      </trkpt>
      <trkpt lat="43.9272" lon="5.24093">
        <ele>318</ele>
        <time>2009-10-02T19:09:02Z</time>
      </trkpt>
      <trkpt lat="43.92719" lon="5.241">
        <ele>318</ele>
        <time>2009-10-02T19:09:02Z</time>
      </trkpt>
      <trkpt lat="43.92719" lon="5.24106">
        <ele>318</ele>
        <time>2009-10-02T19:09:02Z</time>
      </trkpt>
      <trkpt lat="43.92719" lon="5.24112">
        <ele>318</ele>
        <time>2009-10-02T19:09:02Z</time>
      </trkpt>
      <trkpt lat="43.92719" lon="5.24118">
        <ele>318</ele>
        <time>2009-10-02T19:09:02Z</time>
      </trkpt>
      <trkpt lat="43.92719" lon="5.24125">
        <ele>317</ele>
        <time>2009-10-02T19:09:02Z</time>
      </trkpt>
      <trkpt lat="43.92719" lon="5.24131">
        <ele>317</ele>
        <time>2009-10-02T19:09:02Z</time>
      </trkpt>
      <trkpt lat="43.92718" lon="5.24137">
        <ele>317</ele>
        <time>2009-10-02T19:09:02Z</time>
      </trkpt>
      <trkpt lat="43.92718" lon="5.24143">
        <ele>317</ele>
        <time>2009-10-02T19:09:02Z</time>
      </trkpt>
      <trkpt lat="43.92718" lon="5.24149">
        <ele>316</ele>
        <time>2009-10-02T19:09:02Z</time>
      </trkpt>
      <trkpt lat="43.92718" lon="5.24156">
        <ele>316</ele>
        <time>2009-10-02T19:09:02Z</time>
      </trkpt>
      <trkpt lat="43.92713" lon="5.24155">
        <ele>316</ele>
        <time>2009-10-02T19:09:02Z</time>
      </trkpt>
      <trkpt lat="43.92713" lon="5.24162">
        <ele>315</ele>
        <time>2009-10-02T19:09:02Z</time>
      </trkpt>
      <trkpt lat="43.92713" lon="5.24168">
        <ele>315</ele>
        <time>2009-10-02T19:09:02Z</time>
      </trkpt>
      <trkpt lat="43.92709" lon="5.24168">
        <ele>314</ele>
        <time>2009-10-02T19:09:02Z</time>
      </trkpt>
      <trkpt lat="43.92708" lon="5.24174">
        <ele>314</ele>
        <time>2009-10-02T19:09:02Z</time>
      </trkpt>
      <trkpt lat="43.92713" lon="5.24174">
        <ele>314</ele>
        <time>2009-10-02T19:09:02Z</time>
      </trkpt>
      <trkpt lat="43.92717" lon="5.2418">
        <ele>314</ele>
        <time>2009-10-02T19:09:02Z</time>
      </trkpt>
      <trkpt lat="43.92726" lon="5.24193">
        <ele>314</ele>
        <time>2009-10-02T19:09:02Z</time>
      </trkpt>
      <trkpt lat="43.92726" lon="5.242">
        <ele>314</ele>
        <time>2009-10-02T19:09:02Z</time>
      </trkpt>
      <trkpt lat="43.92726" lon="5.24206">
        <ele>313</ele>
        <time>2009-10-02T19:09:02Z</time>
      </trkpt>
      <trkpt lat="43.92725" lon="5.24212">
        <ele>312</ele>
        <time>2009-10-02T19:09:02Z</time>
      </trkpt>
      <trkpt lat="43.92725" lon="5.24218">
        <ele>312</ele>
        <time>2009-10-02T19:09:02Z</time>
      </trkpt>
      <trkpt lat="43.92725" lon="5.24224">
        <ele>311</ele>
        <time>2009-10-02T19:09:02Z</time>
      </trkpt>
      <trkpt lat="43.92725" lon="5.24231">
        <ele>311</ele>
        <time>2009-10-02T19:09:02Z</time>
      </trkpt>
      <trkpt lat="43.92725" lon="5.24237">
        <ele>310</ele>
        <time>2009-10-02T19:09:02Z</time>
      </trkpt>
      <trkpt lat="43.92725" lon="5.24243">
        <ele>309</ele>
        <time>2009-10-02T19:09:02Z</time>
      </trkpt>
      <trkpt lat="43.92724" lon="5.24249">
        <ele>309</ele>
        <time>2009-10-02T19:09:02Z</time>
      </trkpt>
      <trkpt lat="43.92729" lon="5.24256">
        <ele>309</ele>
        <time>2009-10-02T19:09:02Z</time>
      </trkpt>
      <trkpt lat="43.92733" lon="5.24256">
        <ele>309</ele>
        <time>2009-10-02T19:09:02Z</time>
      </trkpt>
      <trkpt lat="43.92733" lon="5.24262">
        <ele>308</ele>
        <time>2009-10-02T19:09:02Z</time>
      </trkpt>
      <trkpt lat="43.92724" lon="5.24262">
        <ele>308</ele>
        <time>2009-10-02T19:09:02Z</time>
      </trkpt>
      <trkpt lat="43.92724" lon="5.24268">
        <ele>307</ele>
        <time>2009-10-02T19:09:02Z</time>
      </trkpt>
      <trkpt lat="43.92724" lon="5.24274">
        <ele>307</ele>
        <time>2009-10-02T19:09:02Z</time>
      </trkpt>
      <trkpt lat="43.92724" lon="5.2428">
        <ele>306</ele>
        <time>2009-10-02T19:09:02Z</time>
      </trkpt>
      <trkpt lat="43.92723" lon="5.24287">
        <ele>305</ele>
        <time>2009-10-02T19:09:02Z</time>
      </trkpt>
      <trkpt lat="43.92723" lon="5.24293">
        <ele>305</ele>
        <time>2009-10-02T19:09:02Z</time>
      </trkpt>
      <trkpt lat="43.92719" lon="5.24293">
        <ele>305</ele>
        <time>2009-10-02T19:09:02Z</time>
      </trkpt>
      <trkpt lat="43.92719" lon="5.24299">
        <ele>304</ele>
        <time>2009-10-02T19:09:02Z</time>
      </trkpt>
      <trkpt lat="43.92714" lon="5.24299">
        <ele>304</ele>
        <time>2009-10-02T19:09:02Z</time>
      </trkpt>
      <trkpt lat="43.92709" lon="5.24305">
        <ele>303</ele>
        <time>2009-10-02T19:09:02Z</time>
      </trkpt>
      <trkpt lat="43.92709" lon="5.24311">
        <ele>303</ele>
        <time>2009-10-02T19:09:02Z</time>
      </trkpt>
      <trkpt lat="43.92705" lon="5.24311">
        <ele>302</ele>
        <time>2009-10-02T19:09:02Z</time>
      </trkpt>
      <trkpt lat="43.927" lon="5.24317">
        <ele>302</ele>
        <time>2009-10-02T19:09:02Z</time>
      </trkpt>
      <trkpt lat="43.927" lon="5.24323">
        <ele>301</ele>
        <time>2009-10-02T19:09:02Z</time>
      </trkpt>
      <trkpt lat="43.92695" lon="5.24329">
        <ele>301</ele>
        <time>2009-10-02T19:09:02Z</time>
      </trkpt>
      <trkpt lat="43.92695" lon="5.24335">
        <ele>301</ele>
        <time>2009-10-02T19:09:02Z</time>
      </trkpt>
      <trkpt lat="43.92695" lon="5.24341">
        <ele>300</ele>
        <time>2009-10-02T19:09:02Z</time>
      </trkpt>
      <trkpt lat="43.9269" lon="5.24341">
        <ele>300</ele>
        <time>2009-10-02T19:09:02Z</time>
      </trkpt>
      <trkpt lat="43.9269" lon="5.24347">
        <ele>300</ele>
        <time>2009-10-02T19:09:02Z</time>
      </trkpt>
      <trkpt lat="43.92686" lon="5.24353">
        <ele>300</ele>
        <time>2009-10-02T19:09:02Z</time>
      </trkpt>
      <trkpt lat="43.92681" lon="5.24353">
        <ele>300</ele>
        <time>2009-10-02T19:09:02Z</time>
      </trkpt>
      <trkpt lat="43.92676" lon="5.24359">
        <ele>300</ele>
        <time>2009-10-02T19:09:02Z</time>
      </trkpt>
      <trkpt lat="43.92672" lon="5.24359">
        <ele>300</ele>
        <time>2009-10-02T19:09:02Z</time>
      </trkpt>
      <trkpt lat="43.92672" lon="5.24365">
        <ele>299</ele>
        <time>2009-10-02T19:09:02Z</time>
      </trkpt>
      <trkpt lat="43.92667" lon="5.24365">
        <ele>299</ele>
        <time>2009-10-02T19:09:02Z</time>
      </trkpt>
      <trkpt lat="43.92667" lon="5.24371">
        <ele>299</ele>
        <time>2009-10-02T19:09:02Z</time>
      </trkpt>
      <trkpt lat="43.92667" lon="5.24377">
        <ele>299</ele>
        <time>2009-10-02T19:09:02Z</time>
      </trkpt>
      <trkpt lat="43.92662" lon="5.24377">
        <ele>299</ele>
        <time>2009-10-02T19:09:02Z</time>
      </trkpt>
      <trkpt lat="43.92662" lon="5.24383">
        <ele>298</ele>
        <time>2009-10-02T19:09:02Z</time>
      </trkpt>
      <trkpt lat="43.92658" lon="5.24383">
        <ele>298</ele>
        <time>2009-10-02T19:09:02Z</time>
      </trkpt>
      <trkpt lat="43.92658" lon="5.24389">
        <ele>298</ele>
        <time>2009-10-02T19:09:02Z</time>
      </trkpt>
      <trkpt lat="43.92653" lon="5.24389">
        <ele>298</ele>
        <time>2009-10-02T19:09:02Z</time>
      </trkpt>
      <trkpt lat="43.92653" lon="5.24395">
        <ele>297</ele>
        <time>2009-10-02T19:09:02Z</time>
      </trkpt>
      <trkpt lat="43.92653" lon="5.24401">
        <ele>297</ele>
        <time>2009-10-02T19:09:02Z</time>
      </trkpt>
      <trkpt lat="43.92653" lon="5.24407">
        <ele>297</ele>
        <time>2009-10-02T19:09:02Z</time>
      </trkpt>
      <trkpt lat="43.92652" lon="5.24414">
        <ele>297</ele>
        <time>2009-10-02T19:09:02Z</time>
      </trkpt>
      <trkpt lat="43.92652" lon="5.2442">
        <ele>296</ele>
        <time>2009-10-02T19:09:02Z</time>
      </trkpt>
      <trkpt lat="43.92652" lon="5.24426">
        <ele>296</ele>
        <time>2009-10-02T19:09:02Z</time>
      </trkpt>
      <trkpt lat="43.92652" lon="5.24432">
        <ele>296</ele>
        <time>2009-10-02T19:09:02Z</time>
      </trkpt>
      <trkpt lat="43.92652" lon="5.24439">
        <ele>295</ele>
        <time>2009-10-02T19:09:02Z</time>
      </trkpt>
      <trkpt lat="43.92652" lon="5.24445">
        <ele>295</ele>
        <time>2009-10-02T19:09:02Z</time>
      </trkpt>
      <trkpt lat="43.92651" lon="5.24451">
        <ele>295</ele>
        <time>2009-10-02T19:09:02Z</time>
      </trkpt>
      <trkpt lat="43.92651" lon="5.24457">
        <ele>295</ele>
        <time>2009-10-02T19:09:02Z</time>
      </trkpt>
      <trkpt lat="43.92651" lon="5.24463">
        <ele>295</ele>
        <time>2009-10-02T19:09:02Z</time>
      </trkpt>
      <trkpt lat="43.92651" lon="5.2447">
        <ele>294</ele>
        <time>2009-10-02T19:09:02Z</time>
      </trkpt>
      <trkpt lat="43.92651" lon="5.24476">
        <ele>294</ele>
        <time>2009-10-02T19:09:02Z</time>
      </trkpt>
      <trkpt lat="43.92651" lon="5.24482">
        <ele>294</ele>
        <time>2009-10-02T19:09:02Z</time>
      </trkpt>
      <trkpt lat="43.9265" lon="5.24488">
        <ele>294</ele>
        <time>2009-10-02T19:09:02Z</time>
      </trkpt>
      <trkpt lat="43.9265" lon="5.24494">
        <ele>294</ele>
        <time>2009-10-02T19:09:02Z</time>
      </trkpt>
      <trkpt lat="43.9265" lon="5.24501">
        <ele>293</ele>
        <time>2009-10-02T19:09:02Z</time>
      </trkpt>
      <trkpt lat="43.9265" lon="5.24507">
        <ele>293</ele>
        <time>2009-10-02T19:09:02Z</time>
      </trkpt>
      <trkpt lat="43.92646" lon="5.24507">
        <ele>293</ele>
        <time>2009-10-02T19:09:02Z</time>
      </trkpt>
      <trkpt lat="43.92645" lon="5.24513">
        <ele>293</ele>
        <time>2009-10-02T19:09:02Z</time>
      </trkpt>
      <trkpt lat="43.92645" lon="5.24519">
        <ele>292</ele>
        <time>2009-10-02T19:09:02Z</time>
      </trkpt>
      <trkpt lat="43.92645" lon="5.24525">
        <ele>292</ele>
        <time>2009-10-02T19:09:02Z</time>
      </trkpt>
      <trkpt lat="43.92645" lon="5.24532">
        <ele>292</ele>
        <time>2009-10-02T19:09:02Z</time>
      </trkpt>
      <trkpt lat="43.92645" lon="5.24538">
        <ele>292</ele>
        <time>2009-10-02T19:09:02Z</time>
      </trkpt>
      <trkpt lat="43.92645" lon="5.24544">
        <ele>292</ele>
        <time>2009-10-02T19:09:02Z</time>
      </trkpt>
      <trkpt lat="43.92644" lon="5.2455">
        <ele>291</ele>
        <time>2009-10-02T19:09:02Z</time>
      </trkpt>
      <trkpt lat="43.92644" lon="5.24556">
        <ele>291</ele>
        <time>2009-10-02T19:09:02Z</time>
      </trkpt>
      <trkpt lat="43.9264" lon="5.24562">
        <ele>291</ele>
        <time>2009-10-02T19:09:02Z</time>
      </trkpt>
      <trkpt lat="43.92639" lon="5.24575">
        <ele>290</ele>
        <time>2009-10-02T19:09:02Z</time>
      </trkpt>
      <trkpt lat="43.92635" lon="5.24581">
        <ele>290</ele>
        <time>2009-10-02T19:09:02Z</time>
      </trkpt>
      <trkpt lat="43.92634" lon="5.24587">
        <ele>289</ele>
        <time>2009-10-02T19:09:02Z</time>
      </trkpt>
      <trkpt lat="43.92634" lon="5.24593">
        <ele>289</ele>
        <time>2009-10-02T19:09:02Z</time>
      </trkpt>
      <trkpt lat="43.92634" lon="5.24599">
        <ele>289</ele>
        <time>2009-10-02T19:09:02Z</time>
      </trkpt>
      <trkpt lat="43.92634" lon="5.24606">
        <ele>288</ele>
        <time>2009-10-02T19:09:02Z</time>
      </trkpt>
      <trkpt lat="43.92629" lon="5.24605">
        <ele>288</ele>
        <time>2009-10-02T19:09:02Z</time>
      </trkpt>
      <trkpt lat="43.92629" lon="5.24612">
        <ele>288</ele>
        <time>2009-10-02T19:09:02Z</time>
      </trkpt>
      <trkpt lat="43.92629" lon="5.24618">
        <ele>288</ele>
        <time>2009-10-02T19:09:02Z</time>
      </trkpt>
      <trkpt lat="43.92629" lon="5.24624">
        <ele>287</ele>
        <time>2009-10-02T19:09:02Z</time>
      </trkpt>
      <trkpt lat="43.92629" lon="5.2463">
        <ele>287</ele>
        <time>2009-10-02T19:09:02Z</time>
      </trkpt>
      <trkpt lat="43.92629" lon="5.24636">
        <ele>287</ele>
        <time>2009-10-02T19:09:02Z</time>
      </trkpt>
      <trkpt lat="43.92628" lon="5.24643">
        <ele>286</ele>
        <time>2009-10-02T19:09:02Z</time>
      </trkpt>
      <trkpt lat="43.92628" lon="5.24649">
        <ele>286</ele>
        <time>2009-10-02T19:09:02Z</time>
      </trkpt>
      <trkpt lat="43.92628" lon="5.24655">
        <ele>286</ele>
        <time>2009-10-02T19:09:02Z</time>
      </trkpt>
      <trkpt lat="43.92628" lon="5.24661">
        <ele>286</ele>
        <time>2009-10-02T19:09:02Z</time>
      </trkpt>
      <trkpt lat="43.92628" lon="5.24668">
        <ele>286</ele>
        <time>2009-10-02T19:09:02Z</time>
      </trkpt>
      <trkpt lat="43.92628" lon="5.24674">
        <ele>285</ele>
        <time>2009-10-02T19:09:02Z</time>
      </trkpt>
      <trkpt lat="43.92627" lon="5.2468">
        <ele>285</ele>
        <time>2009-10-02T19:09:02Z</time>
      </trkpt>
      <trkpt lat="43.92627" lon="5.24686">
        <ele>285</ele>
        <time>2009-10-02T19:09:02Z</time>
      </trkpt>
      <trkpt lat="43.92627" lon="5.24692">
        <ele>285</ele>
        <time>2009-10-02T19:09:02Z</time>
      </trkpt>
      <trkpt lat="43.92627" lon="5.24699">
        <ele>284</ele>
        <time>2009-10-02T19:09:02Z</time>
      </trkpt>
      <trkpt lat="43.92627" lon="5.24705">
        <ele>284</ele>
        <time>2009-10-02T19:09:02Z</time>
      </trkpt>
      <trkpt lat="43.92627" lon="5.24711">
        <ele>284</ele>
        <time>2009-10-02T19:09:02Z</time>
      </trkpt>
      <trkpt lat="43.92626" lon="5.24717">
        <ele>284</ele>
        <time>2009-10-02T19:09:02Z</time>
      </trkpt>
      <trkpt lat="43.92626" lon="5.24724">
        <ele>284</ele>
        <time>2009-10-02T19:09:02Z</time>
      </trkpt>
      <trkpt lat="43.92626" lon="5.2473">
        <ele>284</ele>
        <time>2009-10-02T19:09:02Z</time>
      </trkpt>
      <trkpt lat="43.92626" lon="5.24736">
        <ele>284</ele>
        <time>2009-10-02T19:09:02Z</time>
      </trkpt>
      <trkpt lat="43.92626" lon="5.24742">
        <ele>284</ele>
        <time>2009-10-02T19:09:02Z</time>
      </trkpt>
      <trkpt lat="43.92626" lon="5.24748">
        <ele>283</ele>
        <time>2009-10-02T19:09:02Z</time>
      </trkpt>
      <trkpt lat="43.92625" lon="5.24755">
        <ele>283</ele>
        <time>2009-10-02T19:09:02Z</time>
      </trkpt>
      <trkpt lat="43.92625" lon="5.24761">
        <ele>283</ele>
        <time>2009-10-02T19:09:02Z</time>
      </trkpt>
      <trkpt lat="43.92625" lon="5.24767">
        <ele>283</ele>
        <time>2009-10-02T19:09:02Z</time>
      </trkpt>
      <trkpt lat="43.92625" lon="5.24773">
        <ele>283</ele>
        <time>2009-10-02T19:09:02Z</time>
      </trkpt>
      <trkpt lat="43.92625" lon="5.24779">
        <ele>283</ele>
        <time>2009-10-02T19:09:02Z</time>
      </trkpt>
      <trkpt lat="43.92625" lon="5.24786">
        <ele>282</ele>
        <time>2009-10-02T19:09:02Z</time>
      </trkpt>
      <trkpt lat="43.92624" lon="5.24792">
        <ele>282</ele>
        <time>2009-10-02T19:09:02Z</time>
      </trkpt>
      <trkpt lat="43.92624" lon="5.24798">
        <ele>282</ele>
        <time>2009-10-02T19:09:02Z</time>
      </trkpt>
      <trkpt lat="43.92624" lon="5.24804">
        <ele>282</ele>
        <time>2009-10-02T19:09:02Z</time>
      </trkpt>
      <trkpt lat="43.92629" lon="5.24805">
        <ele>283</ele>
        <time>2009-10-02T19:09:02Z</time>
      </trkpt>
      <trkpt lat="43.92633" lon="5.24811">
        <ele>283</ele>
        <time>2009-10-02T19:09:02Z</time>
      </trkpt>
      <trkpt lat="43.92633" lon="5.24817">
        <ele>283</ele>
        <time>2009-10-02T19:09:02Z</time>
      </trkpt>
      <trkpt lat="43.92637" lon="5.24817">
        <ele>284</ele>
        <time>2009-10-02T19:09:02Z</time>
      </trkpt>
      <trkpt lat="43.92637" lon="5.24824">
        <ele>283</ele>
        <time>2009-10-02T19:09:02Z</time>
      </trkpt>
      <trkpt lat="43.92641" lon="5.2483">
        <ele>284</ele>
        <time>2009-10-02T19:09:02Z</time>
      </trkpt>
      <trkpt lat="43.92646" lon="5.24837">
        <ele>284</ele>
        <time>2009-10-02T19:09:02Z</time>
      </trkpt>
      <trkpt lat="43.92646" lon="5.24843">
        <ele>283</ele>
        <time>2009-10-02T19:09:02Z</time>
      </trkpt>
      <trkpt lat="43.92645" lon="5.24849">
        <ele>283</ele>
        <time>2009-10-02T19:09:02Z</time>
      </trkpt>
      <trkpt lat="43.9265" lon="5.24855">
        <ele>283</ele>
        <time>2009-10-02T19:09:02Z</time>
      </trkpt>
      <trkpt lat="43.92654" lon="5.24856">
        <ele>284</ele>
        <time>2009-10-02T19:09:02Z</time>
      </trkpt>
      <trkpt lat="43.92654" lon="5.24862">
        <ele>284</ele>
        <time>2009-10-02T19:09:02Z</time>
      </trkpt>
      <trkpt lat="43.92654" lon="5.24868">
        <ele>283</ele>
        <time>2009-10-02T19:09:02Z</time>
      </trkpt>
      <trkpt lat="43.92654" lon="5.24874">
        <ele>283</ele>
        <time>2009-10-02T19:09:02Z</time>
      </trkpt>
      <trkpt lat="43.92653" lon="5.2488">
        <ele>283</ele>
        <time>2009-10-02T19:09:02Z</time>
      </trkpt>
      <trkpt lat="43.92658" lon="5.24887">
        <ele>283</ele>
        <time>2009-10-02T19:09:02Z</time>
      </trkpt>
      <trkpt lat="43.92658" lon="5.24893">
        <ele>283</ele>
        <time>2009-10-02T19:09:02Z</time>
      </trkpt>
      <trkpt lat="43.92657" lon="5.24899">
        <ele>282</ele>
        <time>2009-10-02T19:09:02Z</time>
      </trkpt>
      <trkpt lat="43.92657" lon="5.24906">
        <ele>282</ele>
        <time>2009-10-02T19:09:02Z</time>
      </trkpt>
      <trkpt lat="43.92657" lon="5.24912">
        <ele>281</ele>
        <time>2009-10-02T19:09:02Z</time>
      </trkpt>
      <trkpt lat="43.92657" lon="5.24918">
        <ele>281</ele>
        <time>2009-10-02T19:09:02Z</time>
      </trkpt>
      <trkpt lat="43.92657" lon="5.24924">
        <ele>281</ele>
        <time>2009-10-02T19:09:02Z</time>
      </trkpt>
      <trkpt lat="43.92657" lon="5.2493">
        <ele>280</ele>
        <time>2009-10-02T19:09:02Z</time>
      </trkpt>
      <trkpt lat="43.92656" lon="5.24937">
        <ele>280</ele>
        <time>2009-10-02T19:09:02Z</time>
      </trkpt>
      <trkpt lat="43.92656" lon="5.24943">
        <ele>280</ele>
        <time>2009-10-02T19:09:02Z</time>
      </trkpt>
      <trkpt lat="43.92656" lon="5.24949">
        <ele>279</ele>
        <time>2009-10-02T19:09:02Z</time>
      </trkpt>
      <trkpt lat="43.92656" lon="5.24955">
        <ele>279</ele>
        <time>2009-10-02T19:09:02Z</time>
      </trkpt>
      <trkpt lat="43.92656" lon="5.24962">
        <ele>278</ele>
        <time>2009-10-02T19:09:02Z</time>
      </trkpt>
      <trkpt lat="43.92656" lon="5.24968">
        <ele>277</ele>
        <time>2009-10-02T19:09:02Z</time>
      </trkpt>
      <trkpt lat="43.92655" lon="5.24974">
        <ele>277</ele>
        <time>2009-10-02T19:09:02Z</time>
      </trkpt>
      <trkpt lat="43.92655" lon="5.2498">
        <ele>276</ele>
        <time>2009-10-02T19:09:02Z</time>
      </trkpt>
      <trkpt lat="43.92655" lon="5.24986">
        <ele>276</ele>
        <time>2009-10-02T19:09:02Z</time>
      </trkpt>
      <trkpt lat="43.92655" lon="5.24993">
        <ele>275</ele>
        <time>2009-10-02T19:09:02Z</time>
      </trkpt>
      <trkpt lat="43.92655" lon="5.24999">
        <ele>275</ele>
        <time>2009-10-02T19:09:02Z</time>
      </trkpt>
      <trkpt lat="43.92655" lon="5.25005">
        <ele>274</ele>
        <time>2009-10-02T19:09:02Z</time>
      </trkpt>
      <trkpt lat="43.92654" lon="5.25011">
        <ele>274</ele>
        <time>2009-10-02T19:09:02Z</time>
      </trkpt>
      <trkpt lat="43.92654" lon="5.25017">
        <ele>273</ele>
        <time>2009-10-02T19:09:02Z</time>
      </trkpt>
      <trkpt lat="43.92654" lon="5.25024">
        <ele>272</ele>
        <time>2009-10-02T19:09:02Z</time>
      </trkpt>
      <trkpt lat="43.92654" lon="5.2503">
        <ele>272</ele>
        <time>2009-10-02T19:09:02Z</time>
      </trkpt>
      <trkpt lat="43.92654" lon="5.25036">
        <ele>271</ele>
        <time>2009-10-02T19:09:02Z</time>
      </trkpt>
      <trkpt lat="43.92654" lon="5.25042">
        <ele>271</ele>
        <time>2009-10-02T19:09:02Z</time>
      </trkpt>
      <trkpt lat="43.92653" lon="5.25049">
        <ele>270</ele>
        <time>2009-10-02T19:09:02Z</time>
      </trkpt>
      <trkpt lat="43.92653" lon="5.25055">
        <ele>269</ele>
        <time>2009-10-02T19:09:02Z</time>
      </trkpt>
      <trkpt lat="43.92653" lon="5.25061">
        <ele>269</ele>
        <time>2009-10-02T19:09:02Z</time>
      </trkpt>
      <trkpt lat="43.92653" lon="5.25067">
        <ele>268</ele>
        <time>2009-10-02T19:09:02Z</time>
      </trkpt>
      <trkpt lat="43.92653" lon="5.25073">
        <ele>268</ele>
        <time>2009-10-02T19:09:02Z</time>
      </trkpt>
      <trkpt lat="43.92653" lon="5.2508">
        <ele>267</ele>
        <time>2009-10-02T19:09:02Z</time>
      </trkpt>
      <trkpt lat="43.92652" lon="5.25086">
        <ele>267</ele>
        <time>2009-10-02T19:09:02Z</time>
      </trkpt>
      <trkpt lat="43.92652" lon="5.25092">
        <ele>266</ele>
        <time>2009-10-02T19:09:02Z</time>
      </trkpt>
      <trkpt lat="43.92652" lon="5.25098">
        <ele>266</ele>
        <time>2009-10-02T19:09:02Z</time>
      </trkpt>
      <trkpt lat="43.92648" lon="5.25098">
        <ele>265</ele>
        <time>2009-10-02T19:09:02Z</time>
      </trkpt>
      <trkpt lat="43.92643" lon="5.25098">
        <ele>265</ele>
        <time>2009-10-02T19:09:02Z</time>
      </trkpt>
      <trkpt lat="43.92639" lon="5.25098">
        <ele>265</ele>
        <time>2009-10-02T19:09:02Z</time>
      </trkpt>
      <trkpt lat="43.92639" lon="5.25104">
        <ele>264</ele>
        <time>2009-10-02T19:09:02Z</time>
      </trkpt>
      <trkpt lat="43.92634" lon="5.25104">
        <ele>264</ele>
        <time>2009-10-02T19:09:02Z</time>
      </trkpt>
      <trkpt lat="43.9263" lon="5.25103">
        <ele>263</ele>
        <time>2009-10-02T19:09:02Z</time>
      </trkpt>
      <trkpt lat="43.92629" lon="5.2511">
        <ele>263</ele>
        <time>2009-10-02T19:09:02Z</time>
      </trkpt>
      <trkpt lat="43.92625" lon="5.25109">
        <ele>262</ele>
        <time>2009-10-02T19:09:02Z</time>
      </trkpt>
      <trkpt lat="43.92625" lon="5.25116">
        <ele>262</ele>
        <time>2009-10-02T19:09:02Z</time>
      </trkpt>
      <trkpt lat="43.92625" lon="5.25122">
        <ele>261</ele>
        <time>2009-10-02T19:09:02Z</time>
      </trkpt>
      <trkpt lat="43.9262" lon="5.25121">
        <ele>261</ele>
        <time>2009-10-02T19:09:02Z</time>
      </trkpt>
      <trkpt lat="43.9262" lon="5.25128">
        <ele>260</ele>
        <time>2009-10-02T19:09:02Z</time>
      </trkpt>
      <trkpt lat="43.92615" lon="5.25127">
        <ele>260</ele>
        <time>2009-10-02T19:09:02Z</time>
      </trkpt>
      <trkpt lat="43.92611" lon="5.25133">
        <ele>259</ele>
        <time>2009-10-02T19:09:02Z</time>
      </trkpt>
      <trkpt lat="43.92606" lon="5.25139">
        <ele>258</ele>
        <time>2009-10-02T19:09:02Z</time>
      </trkpt>
      <trkpt lat="43.92602" lon="5.25139">
        <ele>257</ele>
        <time>2009-10-02T19:09:02Z</time>
      </trkpt>
      <trkpt lat="43.92601" lon="5.25145">
        <ele>257</ele>
        <time>2009-10-02T19:09:02Z</time>
      </trkpt>
      <trkpt lat="43.92597" lon="5.25145">
        <ele>256</ele>
        <time>2009-10-02T19:09:02Z</time>
      </trkpt>
      <trkpt lat="43.92597" lon="5.25151">
        <ele>256</ele>
        <time>2009-10-02T19:09:02Z</time>
      </trkpt>
      <trkpt lat="43.92592" lon="5.25151">
        <ele>255</ele>
        <time>2009-10-02T19:09:02Z</time>
      </trkpt>
      <trkpt lat="43.92588" lon="5.25151">
        <ele>254</ele>
        <time>2009-10-02T19:09:02Z</time>
      </trkpt>
      <trkpt lat="43.92583" lon="5.25151">
        <ele>253</ele>
        <time>2009-10-02T19:09:02Z</time>
      </trkpt>
      <trkpt lat="43.92579" lon="5.2515">
        <ele>252</ele>
        <time>2009-10-02T19:09:02Z</time>
      </trkpt>
      <trkpt lat="43.92574" lon="5.2515">
        <ele>252</ele>
        <time>2009-10-02T19:09:02Z</time>
      </trkpt>
      <trkpt lat="43.9257" lon="5.2515">
        <ele>251</ele>
        <time>2009-10-02T19:09:02Z</time>
      </trkpt>
      <trkpt lat="43.92565" lon="5.2515">
        <ele>250</ele>
        <time>2009-10-02T19:09:02Z</time>
      </trkpt>
      <trkpt lat="43.9257" lon="5.2515">
        <ele>251</ele>
        <time>2009-10-02T19:09:02Z</time>
      </trkpt>
      <trkpt lat="43.9257" lon="5.25144">
        <ele>251</ele>
        <time>2009-10-02T19:09:02Z</time>
      </trkpt>
      <trkpt lat="43.92565" lon="5.25144">
        <ele>250</ele>
        <time>2009-10-02T19:09:02Z</time>
      </trkpt>
      <trkpt lat="43.92561" lon="5.25143">
        <ele>249</ele>
        <time>2009-10-02T19:09:02Z</time>
      </trkpt>
      <trkpt lat="43.92565" lon="5.25144">
        <ele>250</ele>
        <time>2009-10-02T19:09:02Z</time>
      </trkpt>
      <trkpt lat="43.9257" lon="5.25144">
        <ele>251</ele>
        <time>2009-10-02T19:09:02Z</time>
      </trkpt>
      <trkpt lat="43.92574" lon="5.25144">
        <ele>252</ele>
        <time>2009-10-02T19:09:02Z</time>
      </trkpt>
      <trkpt lat="43.92574" lon="5.2515">
        <ele>252</ele>
        <time>2009-10-02T19:09:02Z</time>
      </trkpt>
      <trkpt lat="43.92579" lon="5.2515">
        <ele>252</ele>
        <time>2009-10-02T19:09:02Z</time>
      </trkpt>
      <trkpt lat="43.92583" lon="5.25151">
        <ele>253</ele>
        <time>2009-10-02T19:09:02Z</time>
      </trkpt>
      <trkpt lat="43.92579" lon="5.2515">
        <ele>252</ele>
        <time>2009-10-02T19:09:02Z</time>
      </trkpt>
      <trkpt lat="43.92574" lon="5.2515">
        <ele>252</ele>
        <time>2009-10-02T19:09:02Z</time>
      </trkpt>
      <trkpt lat="43.9257" lon="5.2515">
        <ele>251</ele>
        <time>2009-10-02T19:09:02Z</time>
      </trkpt>
      <trkpt lat="43.92565" lon="5.2515">
        <ele>250</ele>
        <time>2009-10-02T19:09:02Z</time>
      </trkpt>
      <trkpt lat="43.92561" lon="5.25143">
        <ele>249</ele>
        <time>2009-10-02T19:09:02Z</time>
      </trkpt>
      <trkpt lat="43.92556" lon="5.25143">
        <ele>248</ele>
        <time>2009-10-02T19:09:02Z</time>
      </trkpt>
      <trkpt lat="43.92552" lon="5.25143">
        <ele>248</ele>
        <time>2009-10-02T19:09:02Z</time>
      </trkpt>
      <trkpt lat="43.92548" lon="5.25143">
        <ele>247</ele>
        <time>2009-10-02T19:09:02Z</time>
      </trkpt>
      <trkpt lat="43.92548" lon="5.25136">
        <ele>247</ele>
        <time>2009-10-02T19:09:02Z</time>
      </trkpt>
      <trkpt lat="43.92548" lon="5.2513">
        <ele>248</ele>
        <time>2009-10-02T19:09:02Z</time>
      </trkpt>
      <trkpt lat="43.92548" lon="5.25124">
        <ele>248</ele>
        <time>2009-10-02T19:09:02Z</time>
      </trkpt>
      <trkpt lat="43.92548" lon="5.25118">
        <ele>248</ele>
        <time>2009-10-02T19:09:02Z</time>
      </trkpt>
      <trkpt lat="43.92544" lon="5.25118">
        <ele>248</ele>
        <time>2009-10-02T19:09:02Z</time>
      </trkpt>
      <trkpt lat="43.92539" lon="5.25117">
        <ele>247</ele>
        <time>2009-10-02T19:09:02Z</time>
      </trkpt>
      <trkpt lat="43.92539" lon="5.25111">
        <ele>247</ele>
        <time>2009-10-02T19:09:02Z</time>
      </trkpt>
      <trkpt lat="43.92535" lon="5.25111">
        <ele>246</ele>
        <time>2009-10-02T19:09:02Z</time>
      </trkpt>
      <trkpt lat="43.92535" lon="5.25105">
        <ele>246</ele>
        <time>2009-10-02T19:09:02Z</time>
      </trkpt>
      <trkpt lat="43.92531" lon="5.25104">
        <ele>245</ele>
        <time>2009-10-02T19:09:02Z</time>
      </trkpt>
      <trkpt lat="43.92526" lon="5.25104">
        <ele>244</ele>
        <time>2009-10-02T19:09:02Z</time>
      </trkpt>
      <trkpt lat="43.92522" lon="5.25104">
        <ele>244</ele>
        <time>2009-10-02T19:09:02Z</time>
      </trkpt>
      <trkpt lat="43.92522" lon="5.25098">
        <ele>244</ele>
        <time>2009-10-02T19:09:02Z</time>
      </trkpt>
      <trkpt lat="43.92517" lon="5.25098">
        <ele>243</ele>
        <time>2009-10-02T19:09:02Z</time>
      </trkpt>
      <trkpt lat="43.92517" lon="5.25091">
        <ele>243</ele>
        <time>2009-10-02T19:09:02Z</time>
      </trkpt>
      <trkpt lat="43.92518" lon="5.25085">
        <ele>243</ele>
        <time>2009-10-02T19:09:02Z</time>
      </trkpt>
      <trkpt lat="43.92513" lon="5.25085">
        <ele>242</ele>
        <time>2009-10-02T19:09:02Z</time>
      </trkpt>
      <trkpt lat="43.92513" lon="5.25079">
        <ele>243</ele>
        <time>2009-10-02T19:09:02Z</time>
      </trkpt>
      <trkpt lat="43.92509" lon="5.25072">
        <ele>242</ele>
        <time>2009-10-02T19:09:02Z</time>
      </trkpt>
      <trkpt lat="43.92509" lon="5.25066">
        <ele>242</ele>
        <time>2009-10-02T19:09:02Z</time>
      </trkpt>
      <trkpt lat="43.92505" lon="5.25066">
        <ele>241</ele>
        <time>2009-10-02T19:09:02Z</time>
      </trkpt>
      <trkpt lat="43.92505" lon="5.2506">
        <ele>241</ele>
        <time>2009-10-02T19:09:02Z</time>
      </trkpt>
      <trkpt lat="43.925" lon="5.25059">
        <ele>240</ele>
        <time>2009-10-02T19:09:02Z</time>
      </trkpt>
      <trkpt lat="43.925" lon="5.25053">
        <ele>241</ele>
        <time>2009-10-02T19:09:02Z</time>
      </trkpt>
      <trkpt lat="43.92496" lon="5.25053">
        <ele>240</ele>
        <time>2009-10-02T19:09:02Z</time>
      </trkpt>
      <trkpt lat="43.92496" lon="5.25047">
        <ele>240</ele>
        <time>2009-10-02T19:09:02Z</time>
      </trkpt>
      <trkpt lat="43.92496" lon="5.2504">
        <ele>241</ele>
        <time>2009-10-02T19:09:02Z</time>
      </trkpt>
      <trkpt lat="43.92492" lon="5.25034">
        <ele>240</ele>
        <time>2009-10-02T19:09:02Z</time>
      </trkpt>
      <trkpt lat="43.92492" lon="5.25028">
        <ele>240</ele>
        <time>2009-10-02T19:09:02Z</time>
      </trkpt>
      <trkpt lat="43.92488" lon="5.25021">
        <ele>240</ele>
        <time>2009-10-02T19:09:02Z</time>
      </trkpt>
      <trkpt lat="43.92488" lon="5.25015">
        <ele>240</ele>
        <time>2009-10-02T19:09:02Z</time>
      </trkpt>
      <trkpt lat="43.92483" lon="5.25015">
        <ele>239</ele>
        <time>2009-10-02T19:09:02Z</time>
      </trkpt>
      <trkpt lat="43.92484" lon="5.25009">
        <ele>240</ele>
        <time>2009-10-02T19:09:02Z</time>
      </trkpt>
      <trkpt lat="43.92484" lon="5.25002">
        <ele>240</ele>
        <time>2009-10-02T19:09:02Z</time>
      </trkpt>
      <trkpt lat="43.92479" lon="5.25002">
        <ele>239</ele>
        <time>2009-10-02T19:09:02Z</time>
      </trkpt>
      <trkpt lat="43.92475" lon="5.25002">
        <ele>238</ele>
        <time>2009-10-02T19:09:02Z</time>
      </trkpt>
      <trkpt lat="43.92475" lon="5.24996">
        <ele>239</ele>
        <time>2009-10-02T19:09:02Z</time>
      </trkpt>
      <trkpt lat="43.9247" lon="5.24996">
        <ele>238</ele>
        <time>2009-10-02T19:09:02Z</time>
      </trkpt>
      <trkpt lat="43.92471" lon="5.24989">
        <ele>238</ele>
        <time>2009-10-02T19:09:02Z</time>
      </trkpt>
      <trkpt lat="43.92471" lon="5.24983">
        <ele>238</ele>
        <time>2009-10-02T19:09:02Z</time>
      </trkpt>
      <trkpt lat="43.92466" lon="5.24983">
        <ele>237</ele>
        <time>2009-10-02T19:09:02Z</time>
      </trkpt>
      <trkpt lat="43.92466" lon="5.24977">
        <ele>238</ele>
        <time>2009-10-02T19:09:02Z</time>
      </trkpt>
      <trkpt lat="43.92462" lon="5.24976">
        <ele>237</ele>
        <time>2009-10-02T19:09:02Z</time>
      </trkpt>
      <trkpt lat="43.92458" lon="5.24976">
        <ele>236</ele>
        <time>2009-10-02T19:09:02Z</time>
      </trkpt>
      <trkpt lat="43.92453" lon="5.24976">
        <ele>235</ele>
        <time>2009-10-02T19:09:02Z</time>
      </trkpt>
      <trkpt lat="43.92449" lon="5.24976">
        <ele>235</ele>
        <time>2009-10-02T19:09:02Z</time>
      </trkpt>
      <trkpt lat="43.92449" lon="5.2497">
        <ele>235</ele>
        <time>2009-10-02T19:09:02Z</time>
      </trkpt>
      <trkpt lat="43.92444" lon="5.24969">
        <ele>235</ele>
        <time>2009-10-02T19:09:02Z</time>
      </trkpt>
      <trkpt lat="43.9244" lon="5.24969">
        <ele>234</ele>
        <time>2009-10-02T19:09:02Z</time>
      </trkpt>
      <trkpt lat="43.92435" lon="5.24969">
        <ele>234</ele>
        <time>2009-10-02T19:09:02Z</time>
      </trkpt>
      <trkpt lat="43.92435" lon="5.24963">
        <ele>234</ele>
        <time>2009-10-02T19:09:02Z</time>
      </trkpt>
      <trkpt lat="43.92431" lon="5.24962">
        <ele>233</ele>
        <time>2009-10-02T19:09:02Z</time>
      </trkpt>
      <trkpt lat="43.92426" lon="5.24962">
        <ele>233</ele>
        <time>2009-10-02T19:09:02Z</time>
      </trkpt>
      <trkpt lat="43.92427" lon="5.24956">
        <ele>233</ele>
        <time>2009-10-02T19:09:02Z</time>
      </trkpt>
      <trkpt lat="43.92422" lon="5.24956">
        <ele>232</ele>
        <time>2009-10-02T19:09:02Z</time>
      </trkpt>
      <trkpt lat="43.92418" lon="5.24956">
        <ele>232</ele>
        <time>2009-10-02T19:09:02Z</time>
      </trkpt>
      <trkpt lat="43.92418" lon="5.24949">
        <ele>232</ele>
        <time>2009-10-02T19:09:02Z</time>
      </trkpt>
      <trkpt lat="43.92413" lon="5.24949">
        <ele>232</ele>
        <time>2009-10-02T19:09:02Z</time>
      </trkpt>
      <trkpt lat="43.92409" lon="5.24949">
        <ele>231</ele>
        <time>2009-10-02T19:09:02Z</time>
      </trkpt>
      <trkpt lat="43.92409" lon="5.24943">
        <ele>231</ele>
        <time>2009-10-02T19:09:02Z</time>
      </trkpt>
      <trkpt lat="43.92405" lon="5.24936">
        <ele>231</ele>
        <time>2009-10-02T19:09:02Z</time>
      </trkpt>
      <trkpt lat="43.92405" lon="5.2493">
        <ele>231</ele>
        <time>2009-10-02T19:09:02Z</time>
      </trkpt>
      <trkpt lat="43.924" lon="5.2493">
        <ele>231</ele>
        <time>2009-10-02T19:09:02Z</time>
      </trkpt>
      <trkpt lat="43.924" lon="5.24924">
        <ele>231</ele>
        <time>2009-10-02T19:09:02Z</time>
      </trkpt>
      <trkpt lat="43.92396" lon="5.24917">
        <ele>232</ele>
        <time>2009-10-02T19:09:02Z</time>
      </trkpt>
      <trkpt lat="43.92396" lon="5.24911">
        <ele>232</ele>
        <time>2009-10-02T19:09:02Z</time>
      </trkpt>
      <trkpt lat="43.92392" lon="5.24911">
        <ele>232</ele>
        <time>2009-10-02T19:09:02Z</time>
      </trkpt>
      <trkpt lat="43.92392" lon="5.24904">
        <ele>232</ele>
        <time>2009-10-02T19:09:02Z</time>
      </trkpt>
      <trkpt lat="43.92392" lon="5.24898">
        <ele>233</ele>
        <time>2009-10-02T19:09:02Z</time>
      </trkpt>
      <trkpt lat="43.92388" lon="5.24898">
        <ele>232</ele>
        <time>2009-10-02T19:09:02Z</time>
      </trkpt>
      <trkpt lat="43.92388" lon="5.24892">
        <ele>233</ele>
        <time>2009-10-02T19:09:02Z</time>
      </trkpt>
      <trkpt lat="43.92388" lon="5.24886">
        <ele>233</ele>
        <time>2009-10-02T19:09:02Z</time>
      </trkpt>
      <trkpt lat="43.92388" lon="5.24879">
        <ele>234</ele>
        <time>2009-10-02T19:09:02Z</time>
      </trkpt>
      <trkpt lat="43.92384" lon="5.24879">
        <ele>233</ele>
        <time>2009-10-02T19:09:02Z</time>
      </trkpt>
      <trkpt lat="43.92379" lon="5.24879">
        <ele>233</ele>
        <time>2009-10-02T19:09:02Z</time>
      </trkpt>
      <trkpt lat="43.92379" lon="5.24873">
        <ele>233</ele>
        <time>2009-10-02T19:09:02Z</time>
      </trkpt>
      <trkpt lat="43.92379" lon="5.24866">
        <ele>234</ele>
        <time>2009-10-02T19:09:02Z</time>
      </trkpt>
      <trkpt lat="43.92375" lon="5.24866">
        <ele>234</ele>
        <time>2009-10-02T19:09:02Z</time>
      </trkpt>
      <trkpt lat="43.92375" lon="5.2486">
        <ele>234</ele>
        <time>2009-10-02T19:09:02Z</time>
      </trkpt>
      <trkpt lat="43.92375" lon="5.24854">
        <ele>235</ele>
        <time>2009-10-02T19:09:02Z</time>
      </trkpt>
      <trkpt lat="43.92375" lon="5.24848">
        <ele>235</ele>
        <time>2009-10-02T19:09:02Z</time>
      </trkpt>
      <trkpt lat="43.92371" lon="5.24841">
        <ele>236</ele>
        <time>2009-10-02T19:09:02Z</time>
      </trkpt>
      <trkpt lat="43.92371" lon="5.24835">
        <ele>236</ele>
        <time>2009-10-02T19:09:02Z</time>
      </trkpt>
      <trkpt lat="43.92371" lon="5.24829">
        <ele>237</ele>
        <time>2009-10-02T19:09:02Z</time>
      </trkpt>
      <trkpt lat="43.92367" lon="5.24828">
        <ele>236</ele>
        <time>2009-10-02T19:09:02Z</time>
      </trkpt>
      <trkpt lat="43.92367" lon="5.24822">
        <ele>237</ele>
        <time>2009-10-02T19:09:02Z</time>
      </trkpt>
      <trkpt lat="43.92367" lon="5.24816">
        <ele>237</ele>
        <time>2009-10-02T19:09:02Z</time>
      </trkpt>
      <trkpt lat="43.92368" lon="5.2481">
        <ele>238</ele>
        <time>2009-10-02T19:09:02Z</time>
      </trkpt>
      <trkpt lat="43.92363" lon="5.2481">
        <ele>237</ele>
        <time>2009-10-02T19:09:02Z</time>
      </trkpt>
      <trkpt lat="43.92363" lon="5.24803">
        <ele>238</ele>
        <time>2009-10-02T19:09:02Z</time>
      </trkpt>
      <trkpt lat="43.92359" lon="5.24803">
        <ele>237</ele>
        <time>2009-10-02T19:09:02Z</time>
      </trkpt>
      <trkpt lat="43.92354" lon="5.24797">
        <ele>237</ele>
        <time>2009-10-02T19:09:02Z</time>
      </trkpt>
      <trkpt lat="43.9235" lon="5.24796">
        <ele>236</ele>
        <time>2009-10-02T19:09:02Z</time>
      </trkpt>
      <trkpt lat="43.9235" lon="5.2479">
        <ele>236</ele>
        <time>2009-10-02T19:09:02Z</time>
      </trkpt>
      <trkpt lat="43.9235" lon="5.24784">
        <ele>237</ele>
        <time>2009-10-02T19:09:02Z</time>
      </trkpt>
      <trkpt lat="43.9235" lon="5.24778">
        <ele>237</ele>
        <time>2009-10-02T19:09:02Z</time>
      </trkpt>
      <trkpt lat="43.92346" lon="5.24778">
        <ele>236</ele>
        <time>2009-10-02T19:09:02Z</time>
      </trkpt>
      <trkpt lat="43.92346" lon="5.24771">
        <ele>237</ele>
        <time>2009-10-02T19:09:02Z</time>
      </trkpt>
      <trkpt lat="43.92346" lon="5.24765">
        <ele>237</ele>
        <time>2009-10-02T19:09:02Z</time>
      </trkpt>
      <trkpt lat="43.92342" lon="5.24765">
        <ele>236</ele>
        <time>2009-10-02T19:09:02Z</time>
      </trkpt>
      <trkpt lat="43.92342" lon="5.24759">
        <ele>237</ele>
        <time>2009-10-02T19:09:02Z</time>
      </trkpt>
      <trkpt lat="43.92337" lon="5.24758">
        <ele>236</ele>
        <time>2009-10-02T19:09:02Z</time>
      </trkpt>
      <trkpt lat="43.92338" lon="5.24752">
        <ele>236</ele>
        <time>2009-10-02T19:09:02Z</time>
      </trkpt>
      <trkpt lat="43.92333" lon="5.24752">
        <ele>235</ele>
        <time>2009-10-02T19:09:02Z</time>
      </trkpt>
      <trkpt lat="43.92329" lon="5.24746">
        <ele>235</ele>
        <time>2009-10-02T19:09:02Z</time>
      </trkpt>
      <trkpt lat="43.92324" lon="5.24745">
        <ele>234</ele>
        <time>2009-10-02T19:09:02Z</time>
      </trkpt>
      <trkpt lat="43.92324" lon="5.24739">
        <ele>235</ele>
        <time>2009-10-02T19:09:02Z</time>
      </trkpt>
      <trkpt lat="43.9232" lon="5.24739">
        <ele>234</ele>
        <time>2009-10-02T19:09:02Z</time>
      </trkpt>
      <trkpt lat="43.9232" lon="5.24733">
        <ele>234</ele>
        <time>2009-10-02T19:09:02Z</time>
      </trkpt>
      <trkpt lat="43.92316" lon="5.24726">
        <ele>234</ele>
        <time>2009-10-02T19:09:02Z</time>
      </trkpt>
      <trkpt lat="43.92316" lon="5.2472">
        <ele>234</ele>
        <time>2009-10-02T19:09:02Z</time>
      </trkpt>
      <trkpt lat="43.92311" lon="5.2472">
        <ele>234</ele>
        <time>2009-10-02T19:09:02Z</time>
      </trkpt>
      <trkpt lat="43.92312" lon="5.24714">
        <ele>234</ele>
        <time>2009-10-02T19:09:02Z</time>
      </trkpt>
      <trkpt lat="43.92307" lon="5.24713">
        <ele>233</ele>
        <time>2009-10-02T19:09:02Z</time>
      </trkpt>
      <trkpt lat="43.92307" lon="5.24707">
        <ele>234</ele>
        <time>2009-10-02T19:09:02Z</time>
      </trkpt>
      <trkpt lat="43.92307" lon="5.24701">
        <ele>234</ele>
        <time>2009-10-02T19:09:02Z</time>
      </trkpt>
      <trkpt lat="43.92303" lon="5.24701">
        <ele>233</ele>
        <time>2009-10-02T19:09:02Z</time>
      </trkpt>
      <trkpt lat="43.92299" lon="5.24694">
        <ele>233</ele>
        <time>2009-10-02T19:09:02Z</time>
      </trkpt>
      <trkpt lat="43.92299" lon="5.24688">
        <ele>233</ele>
        <time>2009-10-02T19:09:02Z</time>
      </trkpt>
      <trkpt lat="43.92294" lon="5.24688">
        <ele>232</ele>
        <time>2009-10-02T19:09:02Z</time>
      </trkpt>
      <trkpt lat="43.92294" lon="5.24682">
        <ele>233</ele>
        <time>2009-10-02T19:09:02Z</time>
      </trkpt>
      <trkpt lat="43.9229" lon="5.24681">
        <ele>232</ele>
        <time>2009-10-02T19:09:02Z</time>
      </trkpt>
      <trkpt lat="43.9229" lon="5.24675">
        <ele>232</ele>
        <time>2009-10-02T19:09:02Z</time>
      </trkpt>
      <trkpt lat="43.92286" lon="5.24675">
        <ele>231</ele>
        <time>2009-10-02T19:09:02Z</time>
      </trkpt>
      <trkpt lat="43.92281" lon="5.24668">
        <ele>231</ele>
        <time>2009-10-02T19:09:02Z</time>
      </trkpt>
      <trkpt lat="43.92277" lon="5.24668">
        <ele>230</ele>
        <time>2009-10-02T19:09:02Z</time>
      </trkpt>
      <trkpt lat="43.92273" lon="5.24662">
        <ele>230</ele>
        <time>2009-10-02T19:09:02Z</time>
      </trkpt>
      <trkpt lat="43.92268" lon="5.24662">
        <ele>229</ele>
        <time>2009-10-02T19:09:02Z</time>
      </trkpt>
      <trkpt lat="43.92264" lon="5.24655">
        <ele>228</ele>
        <time>2009-10-02T19:09:02Z</time>
      </trkpt>
      <trkpt lat="43.92259" lon="5.24655">
        <ele>227</ele>
        <time>2009-10-02T19:09:02Z</time>
      </trkpt>
      <trkpt lat="43.92255" lon="5.24655">
        <ele>226</ele>
        <time>2009-10-02T19:09:02Z</time>
      </trkpt>
      <trkpt lat="43.9225" lon="5.24654">
        <ele>226</ele>
        <time>2009-10-02T19:09:02Z</time>
      </trkpt>
      <trkpt lat="43.9225" lon="5.24648">
        <ele>226</ele>
        <time>2009-10-02T19:09:02Z</time>
      </trkpt>
      <trkpt lat="43.92246" lon="5.24648">
        <ele>225</ele>
        <time>2009-10-02T19:09:02Z</time>
      </trkpt>
      <trkpt lat="43.92241" lon="5.24648">
        <ele>224</ele>
        <time>2009-10-02T19:09:02Z</time>
      </trkpt>
      <trkpt lat="43.92237" lon="5.24641">
        <ele>224</ele>
        <time>2009-10-02T19:09:02Z</time>
      </trkpt>
      <trkpt lat="43.92237" lon="5.24635">
        <ele>224</ele>
        <time>2009-10-02T19:09:02Z</time>
      </trkpt>
      <trkpt lat="43.92233" lon="5.24635">
        <ele>223</ele>
        <time>2009-10-02T19:09:02Z</time>
      </trkpt>
      <trkpt lat="43.92228" lon="5.24628">
        <ele>223</ele>
        <time>2009-10-02T19:09:02Z</time>
      </trkpt>
      <trkpt lat="43.92224" lon="5.24622">
        <ele>222</ele>
        <time>2009-10-02T19:09:02Z</time>
      </trkpt>
      <trkpt lat="43.9222" lon="5.24622">
        <ele>222</ele>
        <time>2009-10-02T19:09:02Z</time>
      </trkpt>
      <trkpt lat="43.9222" lon="5.24616">
        <ele>222</ele>
        <time>2009-10-02T19:09:02Z</time>
      </trkpt>
      <trkpt lat="43.92215" lon="5.24615">
        <ele>221</ele>
        <time>2009-10-02T19:09:02Z</time>
      </trkpt>
      <trkpt lat="43.92215" lon="5.24609">
        <ele>222</ele>
        <time>2009-10-02T19:09:02Z</time>
      </trkpt>
      <trkpt lat="43.92216" lon="5.24603">
        <ele>222</ele>
        <time>2009-10-02T19:09:02Z</time>
      </trkpt>
      <trkpt lat="43.92211" lon="5.24603">
        <ele>221</ele>
        <time>2009-10-02T19:09:02Z</time>
      </trkpt>
      <trkpt lat="43.92211" lon="5.24596">
        <ele>221</ele>
        <time>2009-10-02T19:09:02Z</time>
      </trkpt>
      <trkpt lat="43.92207" lon="5.2459">
        <ele>221</ele>
        <time>2009-10-02T19:09:02Z</time>
      </trkpt>
      <trkpt lat="43.92203" lon="5.24584">
        <ele>220</ele>
        <time>2009-10-02T19:09:02Z</time>
      </trkpt>
      <trkpt lat="43.92203" lon="5.24577">
        <ele>220</ele>
        <time>2009-10-02T19:09:02Z</time>
      </trkpt>
      <trkpt lat="43.92198" lon="5.24571">
        <ele>220</ele>
        <time>2009-10-02T19:09:02Z</time>
      </trkpt>
      <trkpt lat="43.92194" lon="5.24564">
        <ele>219</ele>
        <time>2009-10-02T19:09:02Z</time>
      </trkpt>
      <trkpt lat="43.92194" lon="5.24558">
        <ele>219</ele>
        <time>2009-10-02T19:09:02Z</time>
      </trkpt>
      <trkpt lat="43.9219" lon="5.24552">
        <ele>219</ele>
        <time>2009-10-02T19:09:02Z</time>
      </trkpt>
      <trkpt lat="43.9219" lon="5.24546">
        <ele>219</ele>
        <time>2009-10-02T19:09:02Z</time>
      </trkpt>
      <trkpt lat="43.92186" lon="5.24545">
        <ele>218</ele>
        <time>2009-10-02T19:09:02Z</time>
      </trkpt>
      <trkpt lat="43.92186" lon="5.24539">
        <ele>218</ele>
        <time>2009-10-02T19:09:02Z</time>
      </trkpt>
      <trkpt lat="43.92181" lon="5.24539">
        <ele>218</ele>
        <time>2009-10-02T19:09:02Z</time>
      </trkpt>
      <trkpt lat="43.92182" lon="5.24533">
        <ele>218</ele>
        <time>2009-10-02T19:09:02Z</time>
      </trkpt>
      <trkpt lat="43.92177" lon="5.24532">
        <ele>217</ele>
        <time>2009-10-02T19:09:02Z</time>
      </trkpt>
      <trkpt lat="43.92177" lon="5.24526">
        <ele>217</ele>
        <time>2009-10-02T19:09:02Z</time>
      </trkpt>
      <trkpt lat="43.92173" lon="5.24526">
        <ele>217</ele>
        <time>2009-10-02T19:09:02Z</time>
      </trkpt>
      <trkpt lat="43.92173" lon="5.2452">
        <ele>217</ele>
        <time>2009-10-02T19:09:02Z</time>
      </trkpt>
      <trkpt lat="43.92168" lon="5.2452">
        <ele>216</ele>
        <time>2009-10-02T19:09:02Z</time>
      </trkpt>
      <trkpt lat="43.92164" lon="5.24519">
        <ele>216</ele>
        <time>2009-10-02T19:09:02Z</time>
      </trkpt>
      <trkpt lat="43.92159" lon="5.24519">
        <ele>216</ele>
        <time>2009-10-02T19:09:02Z</time>
      </trkpt>
      <trkpt lat="43.92155" lon="5.24519">
        <ele>215</ele>
        <time>2009-10-02T19:09:02Z</time>
      </trkpt>
      <trkpt lat="43.9215" lon="5.24519">
        <ele>215</ele>
        <time>2009-10-02T19:09:02Z</time>
      </trkpt>
      <trkpt lat="43.92146" lon="5.24518">
        <ele>214</ele>
        <time>2009-10-02T19:09:02Z</time>
      </trkpt>
      <trkpt lat="43.92146" lon="5.24512">
        <ele>214</ele>
        <time>2009-10-02T19:09:02Z</time>
      </trkpt>
      <trkpt lat="43.92142" lon="5.24512">
        <ele>214</ele>
        <time>2009-10-02T19:09:02Z</time>
      </trkpt>
      <trkpt lat="43.92137" lon="5.24506">
        <ele>214</ele>
        <time>2009-10-02T19:09:02Z</time>
      </trkpt>
      <trkpt lat="43.92137" lon="5.24499">
        <ele>214</ele>
        <time>2009-10-02T19:09:02Z</time>
      </trkpt>
      <trkpt lat="43.92133" lon="5.24499">
        <ele>214</ele>
        <time>2009-10-02T19:09:02Z</time>
      </trkpt>
      <trkpt lat="43.92128" lon="5.24499">
        <ele>213</ele>
        <time>2009-10-02T19:09:02Z</time>
      </trkpt>
      <trkpt lat="43.92129" lon="5.24493">
        <ele>213</ele>
        <time>2009-10-02T19:09:02Z</time>
      </trkpt>
      <trkpt lat="43.92124" lon="5.24492">
        <ele>213</ele>
        <time>2009-10-02T19:09:02Z</time>
      </trkpt>
      <trkpt lat="43.9212" lon="5.24492">
        <ele>213</ele>
        <time>2009-10-02T19:09:02Z</time>
      </trkpt>
      <trkpt lat="43.9212" lon="5.24486">
        <ele>213</ele>
        <time>2009-10-02T19:09:02Z</time>
      </trkpt>
      <trkpt lat="43.92115" lon="5.24486">
        <ele>212</ele>
        <time>2009-10-02T19:09:02Z</time>
      </trkpt>
      <trkpt lat="43.92115" lon="5.2448">
        <ele>213</ele>
        <time>2009-10-02T19:09:02Z</time>
      </trkpt>
      <trkpt lat="43.92111" lon="5.24479">
        <ele>212</ele>
        <time>2009-10-02T19:09:02Z</time>
      </trkpt>
      <trkpt lat="43.92111" lon="5.24473">
        <ele>212</ele>
        <time>2009-10-02T19:09:02Z</time>
      </trkpt>
      <trkpt lat="43.92111" lon="5.24467">
        <ele>213</ele>
        <time>2009-10-02T19:09:02Z</time>
      </trkpt>
      <trkpt lat="43.92111" lon="5.24461">
        <ele>213</ele>
        <time>2009-10-02T19:09:02Z</time>
      </trkpt>
      <trkpt lat="43.92112" lon="5.24454">
        <ele>213</ele>
        <time>2009-10-02T19:09:02Z</time>
      </trkpt>
      <trkpt lat="43.92112" lon="5.24448">
        <ele>214</ele>
        <time>2009-10-02T19:09:02Z</time>
      </trkpt>
      <trkpt lat="43.92107" lon="5.24448">
        <ele>213</ele>
        <time>2009-10-02T19:09:02Z</time>
      </trkpt>
      <trkpt lat="43.92107" lon="5.24442">
        <ele>214</ele>
        <time>2009-10-02T19:09:02Z</time>
      </trkpt>
      <trkpt lat="43.92103" lon="5.24442">
        <ele>213</ele>
        <time>2009-10-02T19:09:02Z</time>
      </trkpt>
      <trkpt lat="43.92103" lon="5.24435">
        <ele>213</ele>
        <time>2009-10-02T19:09:02Z</time>
      </trkpt>
      <trkpt lat="43.92099" lon="5.24429">
        <ele>213</ele>
        <time>2009-10-02T19:09:02Z</time>
      </trkpt>
      <trkpt lat="43.92094" lon="5.24422">
        <ele>213</ele>
        <time>2009-10-02T19:09:02Z</time>
      </trkpt>
      <trkpt lat="43.92095" lon="5.24416">
        <ele>213</ele>
        <time>2009-10-02T19:09:02Z</time>
      </trkpt>
      <trkpt lat="43.9209" lon="5.24416">
        <ele>213</ele>
        <time>2009-10-02T19:09:02Z</time>
      </trkpt>
      <trkpt lat="43.9209" lon="5.2441">
        <ele>213</ele>
        <time>2009-10-02T19:09:02Z</time>
      </trkpt>
      <trkpt lat="43.92086" lon="5.2441">
        <ele>212</ele>
        <time>2009-10-02T19:09:02Z</time>
      </trkpt>
      <trkpt lat="43.92081" lon="5.24409">
        <ele>212</ele>
        <time>2009-10-02T19:09:02Z</time>
      </trkpt>
      <trkpt lat="43.92082" lon="5.24403">
        <ele>212</ele>
        <time>2009-10-02T19:09:02Z</time>
      </trkpt>
      <trkpt lat="43.92077" lon="5.24403">
        <ele>212</ele>
        <time>2009-10-02T19:09:02Z</time>
      </trkpt>
      <trkpt lat="43.92077" lon="5.24397">
        <ele>212</ele>
        <time>2009-10-02T19:09:02Z</time>
      </trkpt>
      <trkpt lat="43.92073" lon="5.24396">
        <ele>211</ele>
        <time>2009-10-02T19:09:02Z</time>
      </trkpt>
      <trkpt lat="43.92073" lon="5.2439">
        <ele>212</ele>
        <time>2009-10-02T19:09:02Z</time>
      </trkpt>
      <trkpt lat="43.92068" lon="5.2439">
        <ele>211</ele>
        <time>2009-10-02T19:09:02Z</time>
      </trkpt>
      <trkpt lat="43.92064" lon="5.2439">
        <ele>211</ele>
        <time>2009-10-02T19:09:02Z</time>
      </trkpt>
      <trkpt lat="43.92064" lon="5.24384">
        <ele>211</ele>
        <time>2009-10-02T19:09:02Z</time>
      </trkpt>
      <trkpt lat="43.9206" lon="5.24383">
        <ele>210</ele>
        <time>2009-10-02T19:09:02Z</time>
      </trkpt>
      <trkpt lat="43.9206" lon="5.24377">
        <ele>210</ele>
        <time>2009-10-02T19:09:02Z</time>
      </trkpt>
      <trkpt lat="43.9206" lon="5.24371">
        <ele>211</ele>
        <time>2009-10-02T19:09:02Z</time>
      </trkpt>
      <trkpt lat="43.92055" lon="5.24371">
        <ele>210</ele>
        <time>2009-10-02T19:09:02Z</time>
      </trkpt>
      <trkpt lat="43.92056" lon="5.24364">
        <ele>210</ele>
        <time>2009-10-02T19:09:02Z</time>
      </trkpt>
      <trkpt lat="43.92051" lon="5.24364">
        <ele>210</ele>
        <time>2009-10-02T19:09:02Z</time>
      </trkpt>
      <trkpt lat="43.92051" lon="5.24358">
        <ele>210</ele>
        <time>2009-10-02T19:09:02Z</time>
      </trkpt>
      <trkpt lat="43.92047" lon="5.24358">
        <ele>210</ele>
        <time>2009-10-02T19:09:02Z</time>
      </trkpt>
      <trkpt lat="43.92047" lon="5.24352">
        <ele>210</ele>
        <time>2009-10-02T19:09:02Z</time>
      </trkpt>
      <trkpt lat="43.92042" lon="5.24351">
        <ele>209</ele>
        <time>2009-10-02T19:09:02Z</time>
      </trkpt>
      <trkpt lat="43.92038" lon="5.24345">
        <ele>209</ele>
        <time>2009-10-02T19:09:02Z</time>
      </trkpt>
      <trkpt lat="43.92034" lon="5.24338">
        <ele>209</ele>
        <time>2009-10-02T19:09:02Z</time>
      </trkpt>
      <trkpt lat="43.92034" lon="5.24332">
        <ele>209</ele>
        <time>2009-10-02T19:09:02Z</time>
      </trkpt>
      <trkpt lat="43.92029" lon="5.24332">
        <ele>208</ele>
        <time>2009-10-02T19:09:02Z</time>
      </trkpt>
      <trkpt lat="43.9203" lon="5.24326">
        <ele>209</ele>
        <time>2009-10-02T19:09:02Z</time>
      </trkpt>
      <trkpt lat="43.92025" lon="5.24326">
        <ele>208</ele>
        <time>2009-10-02T19:09:02Z</time>
      </trkpt>
      <trkpt lat="43.92021" lon="5.24319">
        <ele>208</ele>
        <time>2009-10-02T19:09:02Z</time>
      </trkpt>
      <trkpt lat="43.92016" lon="5.24313">
        <ele>207</ele>
        <time>2009-10-02T19:09:02Z</time>
      </trkpt>
      <trkpt lat="43.92012" lon="5.24306">
        <ele>207</ele>
        <time>2009-10-02T19:09:02Z</time>
      </trkpt>
      <trkpt lat="43.92012" lon="5.243">
        <ele>207</ele>
        <time>2009-10-02T19:09:02Z</time>
      </trkpt>
      <trkpt lat="43.92008" lon="5.243">
        <ele>207</ele>
        <time>2009-10-02T19:09:02Z</time>
      </trkpt>
      <trkpt lat="43.92008" lon="5.24294">
        <ele>207</ele>
        <time>2009-10-02T19:09:02Z</time>
      </trkpt>
      <trkpt lat="43.92003" lon="5.24293">
        <ele>207</ele>
        <time>2009-10-02T19:09:02Z</time>
      </trkpt>
      <trkpt lat="43.92004" lon="5.24287">
        <ele>207</ele>
        <time>2009-10-02T19:09:02Z</time>
      </trkpt>
      <trkpt lat="43.91999" lon="5.24281">
        <ele>206</ele>
        <time>2009-10-02T19:09:02Z</time>
      </trkpt>
      <trkpt lat="43.91995" lon="5.2428">
        <ele>206</ele>
        <time>2009-10-02T19:09:02Z</time>
      </trkpt>
      <trkpt lat="43.91995" lon="5.24274">
        <ele>206</ele>
        <time>2009-10-02T19:09:02Z</time>
      </trkpt>
      <trkpt lat="43.91995" lon="5.24268">
        <ele>206</ele>
        <time>2009-10-02T19:09:02Z</time>
      </trkpt>
      <trkpt lat="43.91991" lon="5.24268">
        <ele>206</ele>
        <time>2009-10-02T19:09:02Z</time>
      </trkpt>
      <trkpt lat="43.91991" lon="5.24262">
        <ele>206</ele>
        <time>2009-10-02T19:09:02Z</time>
      </trkpt>
      <trkpt lat="43.91986" lon="5.24261">
        <ele>205</ele>
        <time>2009-10-02T19:09:02Z</time>
      </trkpt>
      <trkpt lat="43.91987" lon="5.24255">
        <ele>205</ele>
        <time>2009-10-02T19:09:02Z</time>
      </trkpt>
      <trkpt lat="43.91982" lon="5.24255">
        <ele>205</ele>
        <time>2009-10-02T19:09:02Z</time>
      </trkpt>
      <trkpt lat="43.91982" lon="5.24249">
        <ele>205</ele>
        <time>2009-10-02T19:09:02Z</time>
      </trkpt>
      <trkpt lat="43.91978" lon="5.24248">
        <ele>204</ele>
        <time>2009-10-02T19:09:02Z</time>
      </trkpt>
      <trkpt lat="43.91978" lon="5.24242">
        <ele>204</ele>
        <time>2009-10-02T19:09:02Z</time>
      </trkpt>
      <trkpt lat="43.91974" lon="5.24236">
        <ele>204</ele>
        <time>2009-10-02T19:09:02Z</time>
      </trkpt>
      <trkpt lat="43.91974" lon="5.2423">
        <ele>204</ele>
        <time>2009-10-02T19:09:02Z</time>
      </trkpt>
      <trkpt lat="43.91969" lon="5.24229">
        <ele>204</ele>
        <time>2009-10-02T19:09:02Z</time>
      </trkpt>
      <trkpt lat="43.91969" lon="5.24223">
        <ele>204</ele>
        <time>2009-10-02T19:09:02Z</time>
      </trkpt>
      <trkpt lat="43.9197" lon="5.24217">
        <ele>204</ele>
        <time>2009-10-02T19:09:02Z</time>
      </trkpt>
      <trkpt lat="43.9197" lon="5.24211">
        <ele>205</ele>
        <time>2009-10-02T19:09:02Z</time>
      </trkpt>
      <trkpt lat="43.9197" lon="5.24204">
        <ele>205</ele>
        <time>2009-10-02T19:09:02Z</time>
      </trkpt>
      <trkpt lat="43.91965" lon="5.24204">
        <ele>205</ele>
        <time>2009-10-02T19:09:02Z</time>
      </trkpt>
      <trkpt lat="43.91966" lon="5.24198">
        <ele>205</ele>
        <time>2009-10-02T19:09:02Z</time>
      </trkpt>
      <trkpt lat="43.91961" lon="5.24198">
        <ele>205</ele>
        <time>2009-10-02T19:09:02Z</time>
      </trkpt>
      <trkpt lat="43.91961" lon="5.24192">
        <ele>205</ele>
        <time>2009-10-02T19:09:02Z</time>
      </trkpt>
      <trkpt lat="43.91961" lon="5.24185">
        <ele>206</ele>
        <time>2009-10-02T19:09:02Z</time>
      </trkpt>
      <trkpt lat="43.91957" lon="5.24185">
        <ele>205</ele>
        <time>2009-10-02T19:09:02Z</time>
      </trkpt>
      <trkpt lat="43.91957" lon="5.24179">
        <ele>206</ele>
        <time>2009-10-02T19:09:02Z</time>
      </trkpt>
      <trkpt lat="43.91953" lon="5.24179">
        <ele>205</ele>
        <time>2009-10-02T19:09:02Z</time>
      </trkpt>
      <trkpt lat="43.91953" lon="5.24173">
        <ele>206</ele>
        <time>2009-10-02T19:09:02Z</time>
      </trkpt>
      <trkpt lat="43.91948" lon="5.24172">
        <ele>205</ele>
        <time>2009-10-02T19:09:02Z</time>
      </trkpt>
      <trkpt lat="43.91948" lon="5.24166">
        <ele>206</ele>
        <time>2009-10-02T19:09:02Z</time>
      </trkpt>
      <trkpt lat="43.91944" lon="5.24166">
        <ele>205</ele>
        <time>2009-10-02T19:09:02Z</time>
      </trkpt>
      <trkpt lat="43.91944" lon="5.2416">
        <ele>206</ele>
        <time>2009-10-02T19:09:02Z</time>
      </trkpt>
      <trkpt lat="43.9194" lon="5.24159">
        <ele>205</ele>
        <time>2009-10-02T19:09:02Z</time>
      </trkpt>
      <trkpt lat="43.9194" lon="5.24153">
        <ele>205</ele>
        <time>2009-10-02T19:09:02Z</time>
      </trkpt>
      <trkpt lat="43.91935" lon="5.24153">
        <ele>205</ele>
        <time>2009-10-02T19:09:02Z</time>
      </trkpt>
      <trkpt lat="43.91935" lon="5.24147">
        <ele>205</ele>
        <time>2009-10-02T19:09:02Z</time>
      </trkpt>
      <trkpt lat="43.91931" lon="5.24146">
        <ele>205</ele>
        <time>2009-10-02T19:09:02Z</time>
      </trkpt>
      <trkpt lat="43.91931" lon="5.2414">
        <ele>205</ele>
        <time>2009-10-02T19:09:02Z</time>
      </trkpt>
      <trkpt lat="43.91927" lon="5.2414">
        <ele>205</ele>
        <time>2009-10-02T19:09:02Z</time>
      </trkpt>
      <trkpt lat="43.91927" lon="5.24134">
        <ele>205</ele>
        <time>2009-10-02T19:09:02Z</time>
      </trkpt>
      <trkpt lat="43.91922" lon="5.24127">
        <ele>205</ele>
        <time>2009-10-02T19:09:02Z</time>
      </trkpt>
      <trkpt lat="43.91918" lon="5.24127">
        <ele>205</ele>
        <time>2009-10-02T19:09:02Z</time>
      </trkpt>
      <trkpt lat="43.91918" lon="5.24121">
        <ele>205</ele>
        <time>2009-10-02T19:09:02Z</time>
      </trkpt>
      <trkpt lat="43.91914" lon="5.24121">
        <ele>205</ele>
        <time>2009-10-02T19:09:02Z</time>
      </trkpt>
      <trkpt lat="43.91914" lon="5.24115">
        <ele>205</ele>
        <time>2009-10-02T19:09:02Z</time>
      </trkpt>
      <trkpt lat="43.91909" lon="5.24114">
        <ele>205</ele>
        <time>2009-10-02T19:09:02Z</time>
      </trkpt>
      <trkpt lat="43.91909" lon="5.24108">
        <ele>205</ele>
        <time>2009-10-02T19:09:02Z</time>
      </trkpt>
      <trkpt lat="43.91905" lon="5.24108">
        <ele>205</ele>
        <time>2009-10-02T19:09:02Z</time>
      </trkpt>
      <trkpt lat="43.91905" lon="5.24102">
        <ele>205</ele>
        <time>2009-10-02T19:09:02Z</time>
      </trkpt>
      <trkpt lat="43.91905" lon="5.24095">
        <ele>206</ele>
        <time>2009-10-02T19:09:02Z</time>
      </trkpt>
      <trkpt lat="43.91905" lon="5.24089">
        <ele>206</ele>
        <time>2009-10-02T19:09:02Z</time>
      </trkpt>
      <trkpt lat="43.91906" lon="5.24083">
        <ele>206</ele>
        <time>2009-10-02T19:09:02Z</time>
      </trkpt>
      <trkpt lat="43.91906" lon="5.24077">
        <ele>206</ele>
        <time>2009-10-02T19:09:02Z</time>
      </trkpt>
      <trkpt lat="43.91906" lon="5.24071">
        <ele>207</ele>
        <time>2009-10-02T19:09:02Z</time>
      </trkpt>
      <trkpt lat="43.91906" lon="5.24064">
        <ele>207</ele>
        <time>2009-10-02T19:09:02Z</time>
      </trkpt>
      <trkpt lat="43.91906" lon="5.24058">
        <ele>207</ele>
        <time>2009-10-02T19:09:02Z</time>
      </trkpt>
      <trkpt lat="43.91906" lon="5.24052">
        <ele>207</ele>
        <time>2009-10-02T19:09:02Z</time>
      </trkpt>
      <trkpt lat="43.91907" lon="5.24046">
        <ele>208</ele>
        <time>2009-10-02T19:09:02Z</time>
      </trkpt>
      <trkpt lat="43.91907" lon="5.24039">
        <ele>208</ele>
        <time>2009-10-02T19:09:02Z</time>
      </trkpt>
      <trkpt lat="43.91907" lon="5.24033">
        <ele>208</ele>
        <time>2009-10-02T19:09:02Z</time>
      </trkpt>
      <trkpt lat="43.91907" lon="5.24027">
        <ele>208</ele>
        <time>2009-10-02T19:09:02Z</time>
      </trkpt>
      <trkpt lat="43.91903" lon="5.24027">
        <ele>208</ele>
        <time>2009-10-02T19:09:02Z</time>
      </trkpt>
      <trkpt lat="43.91903" lon="5.24021">
        <ele>208</ele>
        <time>2009-10-02T19:09:02Z</time>
      </trkpt>
      <trkpt lat="43.91903" lon="5.24014">
        <ele>208</ele>
        <time>2009-10-02T19:09:02Z</time>
      </trkpt>
      <trkpt lat="43.91903" lon="5.24008">
        <ele>209</ele>
        <time>2009-10-02T19:09:02Z</time>
      </trkpt>
      <trkpt lat="43.91899" lon="5.24008">
        <ele>208</ele>
        <time>2009-10-02T19:09:02Z</time>
      </trkpt>
      <trkpt lat="43.91899" lon="5.24002">
        <ele>208</ele>
        <time>2009-10-02T19:09:02Z</time>
      </trkpt>
      <trkpt lat="43.91894" lon="5.24002">
        <ele>208</ele>
        <time>2009-10-02T19:09:02Z</time>
      </trkpt>
      <trkpt lat="43.91895" lon="5.23995">
        <ele>208</ele>
        <time>2009-10-02T19:09:02Z</time>
      </trkpt>
      <trkpt lat="43.91895" lon="5.23989">
        <ele>208</ele>
        <time>2009-10-02T19:09:02Z</time>
      </trkpt>
      <trkpt lat="43.91895" lon="5.23983">
        <ele>208</ele>
        <time>2009-10-02T19:09:02Z</time>
      </trkpt>
      <trkpt lat="43.91895" lon="5.23977">
        <ele>209</ele>
        <time>2009-10-02T19:09:02Z</time>
      </trkpt>
      <trkpt lat="43.91895" lon="5.2397">
        <ele>209</ele>
        <time>2009-10-02T19:09:02Z</time>
      </trkpt>
      <trkpt lat="43.91895" lon="5.23964">
        <ele>209</ele>
        <time>2009-10-02T19:09:02Z</time>
      </trkpt>
      <trkpt lat="43.91896" lon="5.23958">
        <ele>209</ele>
        <time>2009-10-02T19:09:02Z</time>
      </trkpt>
      <trkpt lat="43.91896" lon="5.23952">
        <ele>209</ele>
        <time>2009-10-02T19:09:02Z</time>
      </trkpt>
      <trkpt lat="43.91896" lon="5.23946">
        <ele>209</ele>
        <time>2009-10-02T19:09:02Z</time>
      </trkpt>
      <trkpt lat="43.91892" lon="5.23939">
        <ele>209</ele>
        <time>2009-10-02T19:09:02Z</time>
      </trkpt>
      <trkpt lat="43.91892" lon="5.23933">
        <ele>209</ele>
        <time>2009-10-02T19:09:02Z</time>
      </trkpt>
      <trkpt lat="43.91892" lon="5.23927">
        <ele>209</ele>
        <time>2009-10-02T19:09:02Z</time>
      </trkpt>
      <trkpt lat="43.91892" lon="5.2392">
        <ele>209</ele>
        <time>2009-10-02T19:09:02Z</time>
      </trkpt>
      <trkpt lat="43.91892" lon="5.23914">
        <ele>209</ele>
        <time>2009-10-02T19:09:02Z</time>
      </trkpt>
      <trkpt lat="43.91897" lon="5.23915">
        <ele>210</ele>
        <time>2009-10-02T19:09:02Z</time>
      </trkpt>
      <trkpt lat="43.91901" lon="5.23921">
        <ele>210</ele>
        <time>2009-10-02T19:09:02Z</time>
      </trkpt>
      <trkpt lat="43.91905" lon="5.23921">
        <ele>211</ele>
        <time>2009-10-02T19:09:02Z</time>
      </trkpt>
      <trkpt lat="43.91914" lon="5.23934">
        <ele>211</ele>
        <time>2009-10-02T19:09:02Z</time>
      </trkpt>
      <trkpt lat="43.91919" lon="5.23934">
        <ele>212</ele>
        <time>2009-10-02T19:09:02Z</time>
      </trkpt>
      <trkpt lat="43.91918" lon="5.23941">
        <ele>212</ele>
        <time>2009-10-02T19:09:02Z</time>
      </trkpt>
      <trkpt lat="43.91919" lon="5.23934">
        <ele>212</ele>
        <time>2009-10-02T19:09:02Z</time>
      </trkpt>
      <trkpt lat="43.91914" lon="5.23934">
        <ele>211</ele>
        <time>2009-10-02T19:09:02Z</time>
      </trkpt>
      <trkpt lat="43.9191" lon="5.23934">
        <ele>211</ele>
        <time>2009-10-02T19:09:02Z</time>
      </trkpt>
      <trkpt lat="43.91905" lon="5.23934">
        <ele>210</ele>
        <time>2009-10-02T19:09:02Z</time>
      </trkpt>
      <trkpt lat="43.91901" lon="5.23933">
        <ele>210</ele>
        <time>2009-10-02T19:09:02Z</time>
      </trkpt>
      <trkpt lat="43.91896" lon="5.23927">
        <ele>209</ele>
        <time>2009-10-02T19:09:02Z</time>
      </trkpt>
      <trkpt lat="43.91892" lon="5.23927">
        <ele>209</ele>
        <time>2009-10-02T19:09:02Z</time>
      </trkpt>
      <trkpt lat="43.91892" lon="5.2392">
        <ele>209</ele>
        <time>2009-10-02T19:09:02Z</time>
      </trkpt>
      <trkpt lat="43.91888" lon="5.2392">
        <ele>209</ele>
        <time>2009-10-02T19:09:02Z</time>
      </trkpt>
      <trkpt lat="43.91888" lon="5.23914">
        <ele>209</ele>
        <time>2009-10-02T19:09:02Z</time>
      </trkpt>
      <trkpt lat="43.91883" lon="5.23914">
        <ele>208</ele>
        <time>2009-10-02T19:09:02Z</time>
      </trkpt>
      <trkpt lat="43.91879" lon="5.23907">
        <ele>208</ele>
        <time>2009-10-02T19:09:02Z</time>
      </trkpt>
      <trkpt lat="43.91879" lon="5.23901">
        <ele>208</ele>
        <time>2009-10-02T19:09:02Z</time>
      </trkpt>
      <trkpt lat="43.91875" lon="5.23901">
        <ele>207</ele>
        <time>2009-10-02T19:09:02Z</time>
      </trkpt>
      <trkpt lat="43.91875" lon="5.23895">
        <ele>207</ele>
        <time>2009-10-02T19:09:02Z</time>
      </trkpt>
      <trkpt lat="43.9187" lon="5.23894">
        <ele>207</ele>
        <time>2009-10-02T19:09:02Z</time>
      </trkpt>
      <trkpt lat="43.9187" lon="5.23888">
        <ele>207</ele>
        <time>2009-10-02T19:09:02Z</time>
      </trkpt>
      <trkpt lat="43.91871" lon="5.23882">
        <ele>207</ele>
        <time>2009-10-02T19:09:02Z</time>
      </trkpt>
      <trkpt lat="43.91866" lon="5.23882">
        <ele>207</ele>
        <time>2009-10-02T19:09:02Z</time>
      </trkpt>
      <trkpt lat="43.91866" lon="5.23876">
        <ele>207</ele>
        <time>2009-10-02T19:09:02Z</time>
      </trkpt>
      <trkpt lat="43.91862" lon="5.23875">
        <ele>206</ele>
        <time>2009-10-02T19:09:02Z</time>
      </trkpt>
      <trkpt lat="43.91862" lon="5.23869">
        <ele>206</ele>
        <time>2009-10-02T19:09:02Z</time>
      </trkpt>
      <trkpt lat="43.91862" lon="5.23863">
        <ele>206</ele>
        <time>2009-10-02T19:09:02Z</time>
      </trkpt>
      <trkpt lat="43.91862" lon="5.23857">
        <ele>207</ele>
        <time>2009-10-02T19:09:02Z</time>
      </trkpt>
      <trkpt lat="43.91858" lon="5.23857">
        <ele>206</ele>
        <time>2009-10-02T19:09:02Z</time>
      </trkpt>
      <trkpt lat="43.91858" lon="5.2385">
        <ele>206</ele>
        <time>2009-10-02T19:09:02Z</time>
      </trkpt>
      <trkpt lat="43.91853" lon="5.2385">
        <ele>206</ele>
        <time>2009-10-02T19:09:02Z</time>
      </trkpt>
      <trkpt lat="43.91854" lon="5.23844">
        <ele>206</ele>
        <time>2009-10-02T19:09:02Z</time>
      </trkpt>
      <trkpt lat="43.91849" lon="5.23837">
        <ele>206</ele>
        <time>2009-10-02T19:09:02Z</time>
      </trkpt>
      <trkpt lat="43.91845" lon="5.23831">
        <ele>205</ele>
        <time>2009-10-02T19:09:02Z</time>
      </trkpt>
      <trkpt lat="43.91841" lon="5.23825">
        <ele>205</ele>
        <time>2009-10-02T19:09:02Z</time>
      </trkpt>
      <trkpt lat="43.91836" lon="5.23818">
        <ele>205</ele>
        <time>2009-10-02T19:09:02Z</time>
      </trkpt>
      <trkpt lat="43.91836" lon="5.23812">
        <ele>205</ele>
        <time>2009-10-02T19:09:02Z</time>
      </trkpt>
      <trkpt lat="43.91832" lon="5.23812">
        <ele>205</ele>
        <time>2009-10-02T19:09:02Z</time>
      </trkpt>
      <trkpt lat="43.91832" lon="5.23805">
        <ele>205</ele>
        <time>2009-10-02T19:09:02Z</time>
      </trkpt>
      <trkpt lat="43.91828" lon="5.23805">
        <ele>205</ele>
        <time>2009-10-02T19:09:02Z</time>
      </trkpt>
      <trkpt lat="43.91828" lon="5.23799">
        <ele>205</ele>
        <time>2009-10-02T19:09:02Z</time>
      </trkpt>
      <trkpt lat="43.91823" lon="5.23799">
        <ele>204</ele>
        <time>2009-10-02T19:09:02Z</time>
      </trkpt>
      <trkpt lat="43.91823" lon="5.23793">
        <ele>205</ele>
        <time>2009-10-02T19:09:02Z</time>
      </trkpt>
      <trkpt lat="43.91819" lon="5.23792">
        <ele>204</ele>
        <time>2009-10-02T19:09:02Z</time>
      </trkpt>
      <trkpt lat="43.91819" lon="5.23786">
        <ele>204</ele>
        <time>2009-10-02T19:09:02Z</time>
      </trkpt>
      <trkpt lat="43.91815" lon="5.23786">
        <ele>204</ele>
        <time>2009-10-02T19:09:02Z</time>
      </trkpt>
      <trkpt lat="43.91815" lon="5.2378">
        <ele>204</ele>
        <time>2009-10-02T19:09:02Z</time>
      </trkpt>
      <trkpt lat="43.9181" lon="5.23779">
        <ele>204</ele>
        <time>2009-10-02T19:09:02Z</time>
      </trkpt>
      <trkpt lat="43.9181" lon="5.23773">
        <ele>204</ele>
        <time>2009-10-02T19:09:02Z</time>
      </trkpt>
      <trkpt lat="43.91806" lon="5.23773">
        <ele>204</ele>
        <time>2009-10-02T19:09:02Z</time>
      </trkpt>
      <trkpt lat="43.91806" lon="5.23767">
        <ele>204</ele>
        <time>2009-10-02T19:09:02Z</time>
      </trkpt>
      <trkpt lat="43.91802" lon="5.23767">
        <ele>204</ele>
        <time>2009-10-02T19:09:02Z</time>
      </trkpt>
      <trkpt lat="43.91802" lon="5.2376">
        <ele>204</ele>
        <time>2009-10-02T19:09:02Z</time>
      </trkpt>
      <trkpt lat="43.91797" lon="5.2376">
        <ele>204</ele>
        <time>2009-10-02T19:09:02Z</time>
      </trkpt>
      <trkpt lat="43.91797" lon="5.23754">
        <ele>204</ele>
        <time>2009-10-02T19:09:02Z</time>
      </trkpt>
      <trkpt lat="43.91793" lon="5.23754">
        <ele>204</ele>
        <time>2009-10-02T19:09:02Z</time>
      </trkpt>
      <trkpt lat="43.91793" lon="5.23747">
        <ele>204</ele>
        <time>2009-10-02T19:09:02Z</time>
      </trkpt>
      <trkpt lat="43.91789" lon="5.23747">
        <ele>204</ele>
        <time>2009-10-02T19:09:02Z</time>
      </trkpt>
      <trkpt lat="43.91789" lon="5.23741">
        <ele>204</ele>
        <time>2009-10-02T19:09:02Z</time>
      </trkpt>
      <trkpt lat="43.91785" lon="5.23735">
        <ele>204</ele>
        <time>2009-10-02T19:09:02Z</time>
      </trkpt>
      <trkpt lat="43.91785" lon="5.23728">
        <ele>204</ele>
        <time>2009-10-02T19:09:02Z</time>
      </trkpt>
      <trkpt lat="43.9178" lon="5.23728">
        <ele>204</ele>
        <time>2009-10-02T19:09:02Z</time>
      </trkpt>
      <trkpt lat="43.91776" lon="5.23722">
        <ele>204</ele>
        <time>2009-10-02T19:09:02Z</time>
      </trkpt>
      <trkpt lat="43.91776" lon="5.23715">
        <ele>204</ele>
        <time>2009-10-02T19:09:02Z</time>
      </trkpt>
      <trkpt lat="43.91772" lon="5.23715">
        <ele>204</ele>
        <time>2009-10-02T19:09:02Z</time>
      </trkpt>
      <trkpt lat="43.91772" lon="5.23709">
        <ele>205</ele>
        <time>2009-10-02T19:09:02Z</time>
      </trkpt>
      <trkpt lat="43.91767" lon="5.23709">
        <ele>204</ele>
        <time>2009-10-02T19:09:02Z</time>
      </trkpt>
      <trkpt lat="43.91767" lon="5.23703">
        <ele>205</ele>
        <time>2009-10-02T19:09:02Z</time>
      </trkpt>
      <trkpt lat="43.91763" lon="5.23702">
        <ele>204</ele>
        <time>2009-10-02T19:09:02Z</time>
      </trkpt>
      <trkpt lat="43.91763" lon="5.23696">
        <ele>205</ele>
        <time>2009-10-02T19:09:02Z</time>
      </trkpt>
      <trkpt lat="43.91759" lon="5.23696">
        <ele>205</ele>
        <time>2009-10-02T19:09:02Z</time>
      </trkpt>
      <trkpt lat="43.91759" lon="5.2369">
        <ele>205</ele>
        <time>2009-10-02T19:09:02Z</time>
      </trkpt>
      <trkpt lat="43.91754" lon="5.23683">
        <ele>205</ele>
        <time>2009-10-02T19:09:02Z</time>
      </trkpt>
      <trkpt lat="43.91755" lon="5.23677">
        <ele>205</ele>
        <time>2009-10-02T19:09:02Z</time>
      </trkpt>
      <trkpt lat="43.91755" lon="5.23671">
        <ele>206</ele>
        <time>2009-10-02T19:09:02Z</time>
      </trkpt>
      <trkpt lat="43.91755" lon="5.23665">
        <ele>206</ele>
        <time>2009-10-02T19:09:02Z</time>
      </trkpt>
      <trkpt lat="43.9175" lon="5.23664">
        <ele>206</ele>
        <time>2009-10-02T19:09:02Z</time>
      </trkpt>
      <trkpt lat="43.91751" lon="5.23658">
        <ele>206</ele>
        <time>2009-10-02T19:09:02Z</time>
      </trkpt>
      <trkpt lat="43.91746" lon="5.23658">
        <ele>206</ele>
        <time>2009-10-02T19:09:02Z</time>
      </trkpt>
      <trkpt lat="43.91746" lon="5.23652">
        <ele>206</ele>
        <time>2009-10-02T19:09:02Z</time>
      </trkpt>
      <trkpt lat="43.91746" lon="5.23645">
        <ele>207</ele>
        <time>2009-10-02T19:09:02Z</time>
      </trkpt>
      <trkpt lat="43.91742" lon="5.23645">
        <ele>206</ele>
        <time>2009-10-02T19:09:02Z</time>
      </trkpt>
      <trkpt lat="43.91742" lon="5.23639">
        <ele>207</ele>
        <time>2009-10-02T19:09:02Z</time>
      </trkpt>
      <trkpt lat="43.91742" lon="5.23633">
        <ele>207</ele>
        <time>2009-10-02T19:09:02Z</time>
      </trkpt>
      <trkpt lat="43.91742" lon="5.23627">
        <ele>207</ele>
        <time>2009-10-02T19:09:02Z</time>
      </trkpt>
      <trkpt lat="43.91738" lon="5.23626">
        <ele>207</ele>
        <time>2009-10-02T19:09:02Z</time>
      </trkpt>
      <trkpt lat="43.91738" lon="5.2362">
        <ele>207</ele>
        <time>2009-10-02T19:09:02Z</time>
      </trkpt>
      <trkpt lat="43.91738" lon="5.23614">
        <ele>208</ele>
        <time>2009-10-02T19:09:02Z</time>
      </trkpt>
      <trkpt lat="43.91738" lon="5.23608">
        <ele>208</ele>
        <time>2009-10-02T19:09:02Z</time>
      </trkpt>
      <trkpt lat="43.91739" lon="5.23602">
        <ele>208</ele>
        <time>2009-10-02T19:09:02Z</time>
      </trkpt>
      <trkpt lat="43.91734" lon="5.23595">
        <ele>208</ele>
        <time>2009-10-02T19:09:02Z</time>
      </trkpt>
      <trkpt lat="43.91734" lon="5.23589">
        <ele>208</ele>
        <time>2009-10-02T19:09:02Z</time>
      </trkpt>
      <trkpt lat="43.9173" lon="5.23589">
        <ele>208</ele>
        <time>2009-10-02T19:09:02Z</time>
      </trkpt>
      <trkpt lat="43.9173" lon="5.23582">
        <ele>208</ele>
        <time>2009-10-02T19:09:02Z</time>
      </trkpt>
      <trkpt lat="43.9173" lon="5.23576">
        <ele>208</ele>
        <time>2009-10-02T19:09:02Z</time>
      </trkpt>
      <trkpt lat="43.91726" lon="5.23576">
        <ele>208</ele>
        <time>2009-10-02T19:09:02Z</time>
      </trkpt>
      <trkpt lat="43.91726" lon="5.2357">
        <ele>208</ele>
        <time>2009-10-02T19:09:02Z</time>
      </trkpt>
      <trkpt lat="43.91726" lon="5.23564">
        <ele>208</ele>
        <time>2009-10-02T19:09:02Z</time>
      </trkpt>
      <trkpt lat="43.91726" lon="5.23557">
        <ele>208</ele>
        <time>2009-10-02T19:09:02Z</time>
      </trkpt>
      <trkpt lat="43.91722" lon="5.23551">
        <ele>208</ele>
        <time>2009-10-02T19:09:02Z</time>
      </trkpt>
      <trkpt lat="43.91722" lon="5.23545">
        <ele>208</ele>
        <time>2009-10-02T19:09:02Z</time>
      </trkpt>
      <trkpt lat="43.91722" lon="5.23538">
        <ele>208</ele>
        <time>2009-10-02T19:09:02Z</time>
      </trkpt>
      <trkpt lat="43.91722" lon="5.23532">
        <ele>208</ele>
        <time>2009-10-02T19:09:02Z</time>
      </trkpt>
      <trkpt lat="43.91723" lon="5.23526">
        <ele>208</ele>
        <time>2009-10-02T19:09:02Z</time>
      </trkpt>
      <trkpt lat="43.91723" lon="5.2352">
        <ele>208</ele>
        <time>2009-10-02T19:09:02Z</time>
      </trkpt>
      <trkpt lat="43.91718" lon="5.2352">
        <ele>208</ele>
        <time>2009-10-02T19:09:02Z</time>
      </trkpt>
      <trkpt lat="43.91718" lon="5.23513">
        <ele>208</ele>
        <time>2009-10-02T19:09:02Z</time>
      </trkpt>
      <trkpt lat="43.91719" lon="5.23507">
        <ele>208</ele>
        <time>2009-10-02T19:09:02Z</time>
      </trkpt>
      <trkpt lat="43.91719" lon="5.23501">
        <ele>208</ele>
        <time>2009-10-02T19:09:02Z</time>
      </trkpt>
      <trkpt lat="43.91719" lon="5.23495">
        <ele>208</ele>
        <time>2009-10-02T19:09:02Z</time>
      </trkpt>
      <trkpt lat="43.91719" lon="5.23489">
        <ele>208</ele>
        <time>2009-10-02T19:09:02Z</time>
      </trkpt>
      <trkpt lat="43.91719" lon="5.23482">
        <ele>208</ele>
        <time>2009-10-02T19:09:02Z</time>
      </trkpt>
      <trkpt lat="43.91719" lon="5.23476">
        <ele>208</ele>
        <time>2009-10-02T19:09:02Z</time>
      </trkpt>
      <trkpt lat="43.91715" lon="5.2347">
        <ele>208</ele>
        <time>2009-10-02T19:09:02Z</time>
      </trkpt>
      <trkpt lat="43.91715" lon="5.23463">
        <ele>208</ele>
        <time>2009-10-02T19:09:02Z</time>
      </trkpt>
      <trkpt lat="43.91715" lon="5.23457">
        <ele>208</ele>
        <time>2009-10-02T19:09:02Z</time>
      </trkpt>
      <trkpt lat="43.91716" lon="5.23451">
        <ele>208</ele>
        <time>2009-10-02T19:09:02Z</time>
      </trkpt>
      <trkpt lat="43.91716" lon="5.23445">
        <ele>208</ele>
        <time>2009-10-02T19:09:02Z</time>
      </trkpt>
      <trkpt lat="43.91716" lon="5.23439">
        <ele>208</ele>
        <time>2009-10-02T19:09:02Z</time>
      </trkpt>
      <trkpt lat="43.91716" lon="5.23432">
        <ele>208</ele>
        <time>2009-10-02T19:09:02Z</time>
      </trkpt>
      <trkpt lat="43.91716" lon="5.23426">
        <ele>208</ele>
        <time>2009-10-02T19:09:02Z</time>
      </trkpt>
      <trkpt lat="43.91712" lon="5.23426">
        <ele>208</ele>
        <time>2009-10-02T19:09:02Z</time>
      </trkpt>
      <trkpt lat="43.91712" lon="5.2342">
        <ele>208</ele>
        <time>2009-10-02T19:09:02Z</time>
      </trkpt>
      <trkpt lat="43.91712" lon="5.23413">
        <ele>208</ele>
        <time>2009-10-02T19:09:02Z</time>
      </trkpt>
      <trkpt lat="43.91708" lon="5.23407">
        <ele>208</ele>
        <time>2009-10-02T19:09:02Z</time>
      </trkpt>
      <trkpt lat="43.91708" lon="5.23401">
        <ele>208</ele>
        <time>2009-10-02T19:09:02Z</time>
      </trkpt>
      <trkpt lat="43.91708" lon="5.23395">
        <ele>208</ele>
        <time>2009-10-02T19:09:02Z</time>
      </trkpt>
      <trkpt lat="43.91708" lon="5.23388">
        <ele>208</ele>
        <time>2009-10-02T19:09:02Z</time>
      </trkpt>
      <trkpt lat="43.91708" lon="5.23382">
        <ele>209</ele>
        <time>2009-10-02T19:09:02Z</time>
      </trkpt>
      <trkpt lat="43.91709" lon="5.23376">
        <ele>209</ele>
        <time>2009-10-02T19:09:02Z</time>
      </trkpt>
      <trkpt lat="43.91709" lon="5.2337">
        <ele>209</ele>
        <time>2009-10-02T19:09:02Z</time>
      </trkpt>
      <trkpt lat="43.91709" lon="5.23364">
        <ele>210</ele>
        <time>2009-10-02T19:09:02Z</time>
      </trkpt>
      <trkpt lat="43.91709" lon="5.23357">
        <ele>210</ele>
        <time>2009-10-02T19:09:02Z</time>
      </trkpt>
      <trkpt lat="43.91709" lon="5.23351">
        <ele>211</ele>
        <time>2009-10-02T19:09:02Z</time>
      </trkpt>
      <trkpt lat="43.91705" lon="5.23351">
        <ele>210</ele>
        <time>2009-10-02T19:09:02Z</time>
      </trkpt>
      <trkpt lat="43.917" lon="5.23351">
        <ele>209</ele>
        <time>2009-10-02T19:09:02Z</time>
      </trkpt>
      <trkpt lat="43.917" lon="5.23344">
        <ele>210</ele>
        <time>2009-10-02T19:09:02Z</time>
      </trkpt>
      <trkpt lat="43.91701" lon="5.23338">
        <ele>210</ele>
        <time>2009-10-02T19:09:02Z</time>
      </trkpt>
      <trkpt lat="43.91701" lon="5.23332">
        <ele>211</ele>
        <time>2009-10-02T19:09:02Z</time>
      </trkpt>
      <trkpt lat="43.91701" lon="5.23326">
        <ele>211</ele>
        <time>2009-10-02T19:09:02Z</time>
      </trkpt>
      <trkpt lat="43.91697" lon="5.23319">
        <ele>211</ele>
        <time>2009-10-02T19:09:02Z</time>
      </trkpt>
      <trkpt lat="43.91697" lon="5.23313">
        <ele>211</ele>
        <time>2009-10-02T19:09:02Z</time>
      </trkpt>
      <trkpt lat="43.91692" lon="5.23307">
        <ele>211</ele>
        <time>2009-10-02T19:09:02Z</time>
      </trkpt>
      <trkpt lat="43.91693" lon="5.233">
        <ele>212</ele>
        <time>2009-10-02T19:09:02Z</time>
      </trkpt>
      <trkpt lat="43.91688" lon="5.233">
        <ele>211</ele>
        <time>2009-10-02T19:09:02Z</time>
      </trkpt>
      <trkpt lat="43.91688" lon="5.23294">
        <ele>212</ele>
        <time>2009-10-02T19:09:02Z</time>
      </trkpt>
      <trkpt lat="43.91684" lon="5.23294">
        <ele>211</ele>
        <time>2009-10-02T19:09:02Z</time>
      </trkpt>
      <trkpt lat="43.91684" lon="5.23288">
        <ele>212</ele>
        <time>2009-10-02T19:09:02Z</time>
      </trkpt>
      <trkpt lat="43.9168" lon="5.23281">
        <ele>212</ele>
        <time>2009-10-02T19:09:02Z</time>
      </trkpt>
      <trkpt lat="43.91675" lon="5.23275">
        <ele>212</ele>
        <time>2009-10-02T19:09:02Z</time>
      </trkpt>
      <trkpt lat="43.91671" lon="5.23274">
        <ele>212</ele>
        <time>2009-10-02T19:09:02Z</time>
      </trkpt>
      <trkpt lat="43.91671" lon="5.23268">
        <ele>212</ele>
        <time>2009-10-02T19:09:02Z</time>
      </trkpt>
      <trkpt lat="43.91667" lon="5.23268">
        <ele>212</ele>
        <time>2009-10-02T19:09:02Z</time>
      </trkpt>
      <trkpt lat="43.91667" lon="5.23262">
        <ele>213</ele>
        <time>2009-10-02T19:09:02Z</time>
      </trkpt>
      <trkpt lat="43.91667" lon="5.23256">
        <ele>213</ele>
        <time>2009-10-02T19:09:02Z</time>
      </trkpt>
      <trkpt lat="43.91667" lon="5.23249">
        <ele>213</ele>
        <time>2009-10-02T19:09:02Z</time>
      </trkpt>
      <trkpt lat="43.91667" lon="5.23243">
        <ele>214</ele>
        <time>2009-10-02T19:09:02Z</time>
      </trkpt>
      <trkpt lat="43.91663" lon="5.23243">
        <ele>213</ele>
        <time>2009-10-02T19:09:02Z</time>
      </trkpt>
      <trkpt lat="43.91663" lon="5.23237">
        <ele>214</ele>
        <time>2009-10-02T19:09:02Z</time>
      </trkpt>
      <trkpt lat="43.91658" lon="5.23237">
        <ele>213</ele>
        <time>2009-10-02T19:09:02Z</time>
      </trkpt>
      <trkpt lat="43.91659" lon="5.2323">
        <ele>214</ele>
        <time>2009-10-02T19:09:02Z</time>
      </trkpt>
      <trkpt lat="43.91654" lon="5.23224">
        <ele>214</ele>
        <time>2009-10-02T19:09:02Z</time>
      </trkpt>
      <trkpt lat="43.91654" lon="5.23218">
        <ele>214</ele>
        <time>2009-10-02T19:09:02Z</time>
      </trkpt>
      <trkpt lat="43.9165" lon="5.23217">
        <ele>214</ele>
        <time>2009-10-02T19:09:02Z</time>
      </trkpt>
      <trkpt lat="43.9165" lon="5.23211">
        <ele>214</ele>
        <time>2009-10-02T19:09:02Z</time>
      </trkpt>
      <trkpt lat="43.91646" lon="5.23211">
        <ele>214</ele>
        <time>2009-10-02T19:09:02Z</time>
      </trkpt>
      <trkpt lat="43.91646" lon="5.23205">
        <ele>214</ele>
        <time>2009-10-02T19:09:02Z</time>
      </trkpt>
      <trkpt lat="43.91646" lon="5.23199">
        <ele>214</ele>
        <time>2009-10-02T19:09:02Z</time>
      </trkpt>
      <trkpt lat="43.91646" lon="5.23192">
        <ele>215</ele>
        <time>2009-10-02T19:09:02Z</time>
      </trkpt>
      <trkpt lat="43.91646" lon="5.23186">
        <ele>215</ele>
        <time>2009-10-02T19:09:02Z</time>
      </trkpt>
      <trkpt lat="43.91646" lon="5.2318">
        <ele>215</ele>
        <time>2009-10-02T19:09:02Z</time>
      </trkpt>
      <trkpt lat="43.91647" lon="5.23174">
        <ele>215</ele>
        <time>2009-10-02T19:09:02Z</time>
      </trkpt>
      <trkpt lat="43.91647" lon="5.23167">
        <ele>215</ele>
        <time>2009-10-02T19:09:02Z</time>
      </trkpt>
      <trkpt lat="43.91647" lon="5.23161">
        <ele>216</ele>
        <time>2009-10-02T19:09:02Z</time>
      </trkpt>
      <trkpt lat="43.91647" lon="5.23155">
        <ele>216</ele>
        <time>2009-10-02T19:09:02Z</time>
      </trkpt>
      <trkpt lat="43.91647" lon="5.23149">
        <ele>216</ele>
        <time>2009-10-02T19:09:02Z</time>
      </trkpt>
      <trkpt lat="43.91647" lon="5.23143">
        <ele>216</ele>
        <time>2009-10-02T19:09:02Z</time>
      </trkpt>
      <trkpt lat="43.91648" lon="5.23136">
        <ele>216</ele>
        <time>2009-10-02T19:09:02Z</time>
      </trkpt>
      <trkpt lat="43.91648" lon="5.2313">
        <ele>216</ele>
        <time>2009-10-02T19:09:02Z</time>
      </trkpt>
      <trkpt lat="43.91648" lon="5.23124">
        <ele>216</ele>
        <time>2009-10-02T19:09:02Z</time>
      </trkpt>
      <trkpt lat="43.91648" lon="5.23118">
        <ele>216</ele>
        <time>2009-10-02T19:09:02Z</time>
      </trkpt>
      <trkpt lat="43.91648" lon="5.23112">
        <ele>217</ele>
        <time>2009-10-02T19:09:02Z</time>
      </trkpt>
      <trkpt lat="43.91648" lon="5.23105">
        <ele>217</ele>
        <time>2009-10-02T19:09:02Z</time>
      </trkpt>
      <trkpt lat="43.91649" lon="5.23099">
        <ele>217</ele>
        <time>2009-10-02T19:09:02Z</time>
      </trkpt>
      <trkpt lat="43.91649" lon="5.23093">
        <ele>217</ele>
        <time>2009-10-02T19:09:02Z</time>
      </trkpt>
      <trkpt lat="43.91649" lon="5.23087">
        <ele>217</ele>
        <time>2009-10-02T19:09:02Z</time>
      </trkpt>
      <trkpt lat="43.91649" lon="5.2308">
        <ele>217</ele>
        <time>2009-10-02T19:09:02Z</time>
      </trkpt>
      <trkpt lat="43.91649" lon="5.23074">
        <ele>217</ele>
        <time>2009-10-02T19:09:02Z</time>
      </trkpt>
      <trkpt lat="43.91649" lon="5.23068">
        <ele>217</ele>
        <time>2009-10-02T19:09:02Z</time>
      </trkpt>
      <trkpt lat="43.9165" lon="5.23062">
        <ele>217</ele>
        <time>2009-10-02T19:09:02Z</time>
      </trkpt>
      <trkpt lat="43.9165" lon="5.23056">
        <ele>217</ele>
        <time>2009-10-02T19:09:02Z</time>
      </trkpt>
      <trkpt lat="43.9165" lon="5.23049">
        <ele>217</ele>
        <time>2009-10-02T19:09:02Z</time>
      </trkpt>
      <trkpt lat="43.9165" lon="5.23043">
        <ele>217</ele>
        <time>2009-10-02T19:09:02Z</time>
      </trkpt>
      <trkpt lat="43.9165" lon="5.23037">
        <ele>217</ele>
        <time>2009-10-02T19:09:02Z</time>
      </trkpt>
      <trkpt lat="43.9165" lon="5.23031">
        <ele>217</ele>
        <time>2009-10-02T19:09:02Z</time>
      </trkpt>
      <trkpt lat="43.91651" lon="5.23025">
        <ele>217</ele>
        <time>2009-10-02T19:09:02Z</time>
      </trkpt>
      <trkpt lat="43.91651" lon="5.23018">
        <ele>217</ele>
        <time>2009-10-02T19:09:02Z</time>
      </trkpt>
      <trkpt lat="43.91651" lon="5.23012">
        <ele>217</ele>
        <time>2009-10-02T19:09:02Z</time>
      </trkpt>
      <trkpt lat="43.91651" lon="5.23006">
        <ele>217</ele>
        <time>2009-10-02T19:09:02Z</time>
      </trkpt>
      <trkpt lat="43.91651" lon="5.23">
        <ele>217</ele>
        <time>2009-10-02T19:09:02Z</time>
      </trkpt>
      <trkpt lat="43.91651" lon="5.22993">
        <ele>217</ele>
        <time>2009-10-02T19:09:02Z</time>
      </trkpt>
      <trkpt lat="43.91651" lon="5.22987">
        <ele>218</ele>
        <time>2009-10-02T19:09:02Z</time>
      </trkpt>
      <trkpt lat="43.91652" lon="5.22981">
        <ele>218</ele>
        <time>2009-10-02T19:09:02Z</time>
      </trkpt>
      <trkpt lat="43.91652" lon="5.22975">
        <ele>218</ele>
        <time>2009-10-02T19:09:02Z</time>
      </trkpt>
      <trkpt lat="43.91652" lon="5.22969">
        <ele>218</ele>
        <time>2009-10-02T19:09:02Z</time>
      </trkpt>
      <trkpt lat="43.91652" lon="5.22962">
        <ele>218</ele>
        <time>2009-10-02T19:09:02Z</time>
      </trkpt>
      <trkpt lat="43.91652" lon="5.22956">
        <ele>218</ele>
        <time>2009-10-02T19:09:02Z</time>
      </trkpt>
      <trkpt lat="43.91648" lon="5.2295">
        <ele>218</ele>
        <time>2009-10-02T19:09:02Z</time>
      </trkpt>
      <trkpt lat="43.91644" lon="5.22943">
        <ele>218</ele>
        <time>2009-10-02T19:09:02Z</time>
      </trkpt>
      <trkpt lat="43.91644" lon="5.22937">
        <ele>218</ele>
        <time>2009-10-02T19:09:02Z</time>
      </trkpt>
      <trkpt lat="43.91639" lon="5.22937">
        <ele>217</ele>
        <time>2009-10-02T19:09:02Z</time>
      </trkpt>
      <trkpt lat="43.9164" lon="5.22931">
        <ele>217</ele>
        <time>2009-10-02T19:09:02Z</time>
      </trkpt>
      <trkpt lat="43.91635" lon="5.2293">
        <ele>217</ele>
        <time>2009-10-02T19:09:02Z</time>
      </trkpt>
      <trkpt lat="43.91635" lon="5.22924">
        <ele>217</ele>
        <time>2009-10-02T19:09:02Z</time>
      </trkpt>
      <trkpt lat="43.91631" lon="5.22924">
        <ele>217</ele>
        <time>2009-10-02T19:09:02Z</time>
      </trkpt>
      <trkpt lat="43.91626" lon="5.22924">
        <ele>216</ele>
        <time>2009-10-02T19:09:02Z</time>
      </trkpt>
      <trkpt lat="43.91626" lon="5.22918">
        <ele>216</ele>
        <time>2009-10-02T19:09:02Z</time>
      </trkpt>
      <trkpt lat="43.91627" lon="5.22911">
        <ele>216</ele>
        <time>2009-10-02T19:09:02Z</time>
      </trkpt>
      <trkpt lat="43.91627" lon="5.22905">
        <ele>216</ele>
        <time>2009-10-02T19:09:02Z</time>
      </trkpt>
      <trkpt lat="43.91627" lon="5.22899">
        <ele>216</ele>
        <time>2009-10-02T19:09:02Z</time>
      </trkpt>
      <trkpt lat="43.91627" lon="5.22893">
        <ele>215</ele>
        <time>2009-10-02T19:09:02Z</time>
      </trkpt>
      <trkpt lat="43.91627" lon="5.22886">
        <ele>215</ele>
        <time>2009-10-02T19:09:02Z</time>
      </trkpt>
      <trkpt lat="43.91627" lon="5.2288">
        <ele>215</ele>
        <time>2009-10-02T19:09:02Z</time>
      </trkpt>
      <trkpt lat="43.91628" lon="5.22874">
        <ele>215</ele>
        <time>2009-10-02T19:09:02Z</time>
      </trkpt>
      <trkpt lat="43.91628" lon="5.22868">
        <ele>214</ele>
        <time>2009-10-02T19:09:02Z</time>
      </trkpt>
      <trkpt lat="43.91628" lon="5.22862">
        <ele>214</ele>
        <time>2009-10-02T19:09:02Z</time>
      </trkpt>
      <trkpt lat="43.91623" lon="5.22861">
        <ele>213</ele>
        <time>2009-10-02T19:09:02Z</time>
      </trkpt>
      <trkpt lat="43.91624" lon="5.22855">
        <ele>213</ele>
        <time>2009-10-02T19:09:02Z</time>
      </trkpt>
      <trkpt lat="43.91619" lon="5.22855">
        <ele>212</ele>
        <time>2009-10-02T19:09:02Z</time>
      </trkpt>
      <trkpt lat="43.91619" lon="5.22849">
        <ele>212</ele>
        <time>2009-10-02T19:09:02Z</time>
      </trkpt>
      <trkpt lat="43.91615" lon="5.22849">
        <ele>211</ele>
        <time>2009-10-02T19:09:02Z</time>
      </trkpt>
      <trkpt lat="43.9161" lon="5.22848">
        <ele>211</ele>
        <time>2009-10-02T19:09:02Z</time>
      </trkpt>
      <trkpt lat="43.9161" lon="5.22842">
        <ele>210</ele>
        <time>2009-10-02T19:09:02Z</time>
      </trkpt>
      <trkpt lat="43.91606" lon="5.22842">
        <ele>210</ele>
        <time>2009-10-02T19:09:02Z</time>
      </trkpt>
      <trkpt lat="43.91602" lon="5.22835">
        <ele>209</ele>
        <time>2009-10-02T19:09:02Z</time>
      </trkpt>
      <trkpt lat="43.91597" lon="5.22829">
        <ele>209</ele>
        <time>2009-10-02T19:09:02Z</time>
      </trkpt>
      <trkpt lat="43.91597" lon="5.22823">
        <ele>209</ele>
        <time>2009-10-02T19:09:02Z</time>
      </trkpt>
      <trkpt lat="43.91593" lon="5.22823">
        <ele>209</ele>
        <time>2009-10-02T19:09:02Z</time>
      </trkpt>
      <trkpt lat="43.91588" lon="5.22822">
        <ele>209</ele>
        <time>2009-10-02T19:09:02Z</time>
      </trkpt>
      <trkpt lat="43.91588" lon="5.22828">
        <ele>209</ele>
        <time>2009-10-02T19:09:02Z</time>
      </trkpt>
      <trkpt lat="43.91588" lon="5.22835">
        <ele>208</ele>
        <time>2009-10-02T19:09:02Z</time>
      </trkpt>
      <trkpt lat="43.91588" lon="5.22841">
        <ele>209</ele>
        <time>2009-10-02T19:09:02Z</time>
      </trkpt>
      <trkpt lat="43.91588" lon="5.22847">
        <ele>209</ele>
        <time>2009-10-02T19:09:02Z</time>
      </trkpt>
      <trkpt lat="43.91588" lon="5.22853">
        <ele>209</ele>
        <time>2009-10-02T19:09:02Z</time>
      </trkpt>
      <trkpt lat="43.91587" lon="5.2286">
        <ele>210</ele>
        <time>2009-10-02T19:09:02Z</time>
      </trkpt>
    </trkseg>
  </trk>
</gpx>